Wetterdaten: Dienstag, 02.01.2018
Datum Zeit Temp. A. Pool Temp. Feuchte A. Luftdruck Regen Wind Richtung Richtung Sonnenschein ET UV Solar Taupunkt Windchill Windben Empfang
02.01.2018 00:00 0,8 C 3,9 C 93 % 1006,8 hPa 0,0 l/m 6,4 km/h (2 Bft) W-SW 247 0 min 0,000 mm 0,0 UV-I 0 W/m -0,2 C 0,8 C 11,3 km/h (2 Bft) 95,65 %
02.01.2018 00:01 0,8 C 3,9 C 92 % 1006,7 hPa 0,0 l/m 1,6 km/h (1 Bft) W-SW 247 0 min 0,000 mm 0,0 UV-I 0 W/m -0,3 C 0,8 C 3,2 km/h (1 Bft) 91,30 %
02.01.2018 00:02 0,8 C 3,9 C 93 % 1006,6 hPa 0,0 l/m 3,2 km/h (1 Bft) NW 315 0 min 0,000 mm 0,0 UV-I 0 W/m -0,2 C 0,8 C 4,8 km/h (1 Bft) 95,65 %
02.01.2018 00:03 0,8 C 3,9 C 93 % 1006,8 hPa 0,0 l/m 9,7 km/h (2 Bft) W 270 0 min 0,000 mm 0,0 UV-I 0 W/m -0,2 C -2,3 C 12,9 km/h (3 Bft) 95,65 %
02.01.2018 00:04 0,8 C 3,9 C 93 % 1007,3 hPa 0,0 l/m 12,9 km/h (3 Bft) W-SW 247 0 min 0,000 mm 0,0 UV-I 0 W/m -0,2 C -4,7 C 19,3 km/h (3 Bft) 95,65 %
02.01.2018 00:05 0,8 C 3,9 C 93 % 1007,5 hPa 0,0 l/m 20,9 km/h (4 Bft) W-SW 247 0 min 0,000 mm 0,0 UV-I 0 W/m -0,2 C -9,0 C 27,4 km/h (4 Bft) 95,65 %
02.01.2018 00:06 0,9 C 3,9 C 93 % 1007,4 hPa 0,0 l/m 14,5 km/h (3 Bft) W 270 0 min 0,000 mm 0,0 UV-I 0 W/m -0,1 C -5,6 C 27,4 km/h (4 Bft) 100,00 %
02.01.2018 00:07 1,0 C 3,9 C 93 % 1007,2 hPa 0,0 l/m 8,0 km/h (2 Bft) W 270 0 min 0,000 mm 0,0 UV-I 0 W/m -0,0 C -0,6 C 12,9 km/h (3 Bft) 95,65 %
02.01.2018 00:08 1,1 C 3,9 C 93 % 1007,0 hPa 0,0 l/m 6,4 km/h (2 Bft) SW 225 0 min 0,000 mm 0,0 UV-I 0 W/m 0,1 C 1,1 C 11,3 km/h (2 Bft) 100,00 %
02.01.2018 00:09 1,2 C 3,9 C 93 % 1006,9 hPa 0,0 l/m 11,3 km/h (2 Bft) W-SW 247 0 min 0,000 mm 0,0 UV-I 0 W/m 0,2 C -3,1 C 16,1 km/h (3 Bft) 95,65 %
02.01.2018 00:10 1,2 C 3,9 C 93 % 1007,1 hPa 0,0 l/m 11,3 km/h (2 Bft) W-SW 247 0 min 0,000 mm 0,0 UV-I 0 W/m 0,2 C -3,1 C 16,1 km/h (3 Bft) 100,00 %
02.01.2018 00:11 1,2 C 3,9 C 93 % 1007,1 hPa 0,0 l/m 11,3 km/h (2 Bft) W 270 0 min 0,000 mm 0,0 UV-I 0 W/m 0,2 C -3,1 C 14,5 km/h (3 Bft) 86,96 %
02.01.2018 00:12 1,2 C 3,9 C 92 % 1007,1 hPa 0,0 l/m 6,4 km/h (2 Bft) W 270 0 min 0,000 mm 0,0 UV-I 0 W/m 0,0 C 1,2 C 11,3 km/h (2 Bft) 95,65 %
02.01.2018 00:13 1,2 C 3,9 C 92 % 1006,8 hPa 0,0 l/m 3,2 km/h (1 Bft) W 270 0 min 0,000 mm 0,0 UV-I 0 W/m 0,0 C 1,2 C 4,8 km/h (1 Bft) 100,00 %
02.01.2018 00:14 1,2 C 3,9 C 92 % 1006,9 hPa 0,0 l/m 4,8 km/h (1 Bft) W-NW 292 0 min 0,000 mm 0,0 UV-I 0 W/m 0,0 C 1,2 C 6,4 km/h (2 Bft) 95,65 %
02.01.2018 00:15 1,2 C 3,9 C 92 % 1006,8 hPa 0,0 l/m 3,2 km/h (1 Bft) W 270 0 min 0,000 mm 0,0 UV-I 0 W/m 0,0 C 1,2 C 4,8 km/h (1 Bft) 100,00 %
02.01.2018 00:16 1,2 C 3,9 C 92 % 1006,8 hPa 0,0 l/m 1,6 km/h (1 Bft) W 270 0 min 0,000 mm 0,0 UV-I 0 W/m 0,0 C 1,2 C 3,2 km/h (1 Bft) 95,65 %
02.01.2018 00:17 1,2 C 3,9 C 92 % 1006,8 hPa 0,0 l/m 0,0 km/h (0 Bft) W 270 0 min 0,000 mm 0,0 UV-I 0 W/m 0,0 C 1,2 C 1,6 km/h (1 Bft) 91,30 %
02.01.2018 00:18 1,1 C 3,9 C 92 % 1006,8 hPa 0,0 l/m 0,0 km/h (0 Bft) W 270 0 min 0,000 mm 0,0 UV-I 0 W/m -0,1 C 1,1 C 1,6 km/h (1 Bft) 91,30 %
02.01.2018 00:19 1,1 C 3,9 C 92 % 1006,9 hPa 0,0 l/m 0,0 km/h (0 Bft) N 0 0 min 0,000 mm 0,0 UV-I 0 W/m -0,1 C 1,1 C 0,0 km/h (0 Bft) 100,00 %
02.01.2018 00:20 1,0 C 3,9 C 93 % 1006,9 hPa 0,0 l/m 1,6 km/h (1 Bft) SW 225 0 min 0,000 mm 0,0 UV-I 0 W/m -0,0 C 1,0 C 3,2 km/h (1 Bft) 95,65 %
02.01.2018 00:21 1,0 C 3,9 C 93 % 1006,9 hPa 0,0 l/m 1,6 km/h (1 Bft) SW 225 0 min 0,000 mm 0,0 UV-I 0 W/m -0,0 C 1,0 C 3,2 km/h (1 Bft) 95,65 %
02.01.2018 00:22 0,9 C 3,9 C 93 % 1007,0 hPa 0,0 l/m 1,6 km/h (1 Bft) SW 225 0 min 0,000 mm 0,0 UV-I 0 W/m -0,1 C 0,9 C 4,8 km/h (1 Bft) 100,00 %
02.01.2018 00:23 0,9 C 3,9 C 93 % 1007,0 hPa 0,0 l/m 4,8 km/h (1 Bft) SW 225 0 min 0,000 mm 0,0 UV-I 0 W/m -0,1 C 0,9 C 4,8 km/h (1 Bft) 100,00 %
02.01.2018 00:24 0,9 C 3,9 C 93 % 1007,1 hPa 0,0 l/m 3,2 km/h (1 Bft) SW 225 0 min 0,000 mm 0,0 UV-I 0 W/m -0,1 C 0,9 C 4,8 km/h (1 Bft) 100,00 %
02.01.2018 00:25 1,0 C 3,9 C 93 % 1007,0 hPa 0,0 l/m 4,8 km/h (1 Bft) SW 225 0 min 0,000 mm 0,0 UV-I 0 W/m -0,0 C 1,0 C 4,8 km/h (1 Bft) 95,65 %
02.01.2018 00:26 1,0 C 3,9 C 93 % 1007,0 hPa 0,0 l/m 3,2 km/h (1 Bft) SW 225 0 min 0,000 mm 0,0 UV-I 0 W/m -0,0 C 1,0 C 4,8 km/h (1 Bft) 100,00 %
02.01.2018 00:27 1,0 C 3,9 C 93 % 1007,0 hPa 0,0 l/m 3,2 km/h (1 Bft) SW 225 0 min 0,000 mm 0,0 UV-I 0 W/m -0,0 C 1,0 C 4,8 km/h (1 Bft) 100,00 %
02.01.2018 00:28 1,0 C 3,9 C 93 % 1007,1 hPa 0,0 l/m 3,2 km/h (1 Bft) SW 225 0 min 0,000 mm 0,0 UV-I 0 W/m -0,0 C 1,0 C 4,8 km/h (1 Bft) 95,65 %
02.01.2018 00:29 1,0 C 3,9 C 93 % 1007,1 hPa 0,0 l/m 3,2 km/h (1 Bft) SW 225 0 min 0,000 mm 0,0 UV-I 0 W/m -0,0 C 1,0 C 4,8 km/h (1 Bft) 95,65 %
02.01.2018 00:30 0,9 C 3,9 C 93 % 1007,1 hPa 0,0 l/m 1,6 km/h (1 Bft) SW 225 0 min 0,000 mm 0,0 UV-I 0 W/m -0,1 C 0,9 C 3,2 km/h (1 Bft) 100,00 %
02.01.2018 00:31 0,9 C 3,9 C 93 % 1007,1 hPa 0,0 l/m 3,2 km/h (1 Bft) SW 225 0 min 0,000 mm 0,0 UV-I 0 W/m -0,1 C 0,9 C 3,2 km/h (1 Bft) 95,65 %
02.01.2018 00:32 0,9 C 3,9 C 93 % 1007,1 hPa 0,0 l/m 1,6 km/h (1 Bft) SW 225 0 min 0,000 mm 0,0 UV-I 0 W/m -0,1 C 0,9 C 3,2 km/h (1 Bft) 95,65 %
02.01.2018 00:33 0,9 C 3,9 C 93 % 1007,1 hPa 0,0 l/m 0,0 km/h (0 Bft) SW 225 0 min 0,000 mm 0,0 UV-I 0 W/m -0,1 C 0,9 C 1,6 km/h (1 Bft) 95,65 %
02.01.2018 00:34 1,0 C 3,9 C 93 % 1007,0 hPa 0,0 l/m 0,0 km/h (0 Bft) N 0 0 min 0,000 mm 0,0 UV-I 0 W/m -0,0 C 1,0 C 0,0 km/h (0 Bft) 95,65 %
02.01.2018 00:35 1,0 C 3,9 C 93 % 1007,0 hPa 0,0 l/m 1,6 km/h (1 Bft) SW 225 0 min 0,000 mm 0,0 UV-I 0 W/m -0,0 C 1,0 C 4,8 km/h (1 Bft) 100,00 %
02.01.2018 00:36 1,0 C 3,9 C 93 % 1006,9 hPa 0,0 l/m 3,2 km/h (1 Bft) SW 225 0 min 0,000 mm 0,0 UV-I 0 W/m -0,0 C 1,0 C 4,8 km/h (1 Bft) 95,65 %
02.01.2018 00:37 0,9 C 3,9 C 93 % 1006,9 hPa 0,0 l/m 4,8 km/h (1 Bft) SW 225 0 min 0,000 mm 0,0 UV-I 0 W/m -0,1 C 0,9 C 6,4 km/h (2 Bft) 100,00 %
02.01.2018 00:38 0,9 C 3,9 C 93 % 1006,8 hPa 0,0 l/m 6,4 km/h (2 Bft) O 90 0 min 0,000 mm 0,0 UV-I 0 W/m -0,1 C 0,9 C 6,4 km/h (2 Bft) 95,65 %
02.01.2018 00:39 0,9 C 3,9 C 93 % 1006,7 hPa 0,0 l/m 6,4 km/h (2 Bft) O 90 0 min 0,000 mm 0,0 UV-I 0 W/m -0,1 C 0,9 C 6,4 km/h (2 Bft) 91,30 %
02.01.2018 00:40 0,9 C 3,9 C 93 % 1006,7 hPa 0,0 l/m 6,4 km/h (2 Bft) O 90 0 min 0,000 mm 0,0 UV-I 0 W/m -0,1 C 0,9 C 6,4 km/h (2 Bft) 95,65 %
02.01.2018 00:41 0,9 C 3,9 C 93 % 1006,5 hPa 0,0 l/m 8,0 km/h (2 Bft) O-NO 67 0 min 0,000 mm 0,0 UV-I 0 W/m -0,1 C -0,7 C 9,7 km/h (2 Bft) 100,00 %
02.01.2018 00:42 0,9 C 3,9 C 93 % 1006,4 hPa 0,0 l/m 9,7 km/h (2 Bft) O-NO 67 0 min 0,000 mm 0,0 UV-I 0 W/m -0,1 C -2,2 C 12,9 km/h (3 Bft) 95,65 %
02.01.2018 00:43 1,1 C 3,9 C 93 % 1006,3 hPa 0,0 l/m 12,9 km/h (3 Bft) O-NO 67 0 min 0,000 mm 0,0 UV-I 0 W/m 0,1 C -4,3 C 14,5 km/h (3 Bft) 100,00 %
02.01.2018 00:44 1,1 C 3,9 C 93 % 1006,1 hPa 0,0 l/m 12,9 km/h (3 Bft) NO 45 0 min 0,000 mm 0,0 UV-I 0 W/m 0,1 C -4,3 C 16,1 km/h (3 Bft) 95,65 %
02.01.2018 00:45 1,2 C 3,9 C 93 % 1006,1 hPa 0,0 l/m 14,5 km/h (3 Bft) NO 45 0 min 0,000 mm 0,0 UV-I 0 W/m 0,2 C -5,2 C 17,7 km/h (3 Bft) 100,00 %
02.01.2018 00:46 1,2 C 3,9 C 93 % 1006,1 hPa 0,0 l/m 11,3 km/h (2 Bft) NO 45 0 min 0,000 mm 0,0 UV-I 0 W/m 0,2 C -3,1 C 16,1 km/h (3 Bft) 86,96 %
02.01.2018 00:47 1,2 C 3,9 C 93 % 1006,0 hPa 0,0 l/m 11,3 km/h (2 Bft) O-NO 67 0 min 0,000 mm 0,0 UV-I 0 W/m 0,2 C -3,1 C 16,1 km/h (3 Bft) 100,00 %
02.01.2018 00:48 1,2 C 3,9 C 93 % 1006,0 hPa 0,0 l/m 12,9 km/h (3 Bft) O-NO 67 0 min 0,000 mm 0,0 UV-I 0 W/m 0,2 C -4,2 C 16,1 km/h (3 Bft) 95,65 %
02.01.2018 00:49 1,2 C 3,9 C 92 % 1006,0 hPa 0,0 l/m 12,9 km/h (3 Bft) O-NO 67 0 min 0,000 mm 0,0 UV-I 0 W/m 0,0 C -4,2 C 16,1 km/h (3 Bft) 95,65 %
02.01.2018 00:50 1,2 C 3,9 C 92 % 1006,0 hPa 0,0 l/m 12,9 km/h (3 Bft) O-NO 67 0 min 0,000 mm 0,0 UV-I 0 W/m 0,0 C -4,2 C 16,1 km/h (3 Bft) 100,00 %
02.01.2018 00:51 1,2 C 3,9 C 92 % 1006,0 hPa 0,0 l/m 11,3 km/h (2 Bft) O-NO 67 0 min 0,000 mm 0,0 UV-I 0 W/m 0,0 C -3,1 C 14,5 km/h (3 Bft) 95,65 %
02.01.2018 00:52 1,2 C 3,9 C 93 % 1006,0 hPa 0,0 l/m 11,3 km/h (2 Bft) O-NO 67 0 min 0,000 mm 0,0 UV-I 0 W/m 0,2 C -3,1 C 12,9 km/h (3 Bft) 100,00 %
02.01.2018 00:53 1,2 C 3,9 C 93 % 1006,1 hPa 0,0 l/m 6,4 km/h (2 Bft) O-NO 67 0 min 0,000 mm 0,0 UV-I 0 W/m 0,2 C 1,2 C 9,7 km/h (2 Bft) 95,65 %
02.01.2018 00:54 1,3 C 3,9 C 93 % 1006,1 hPa 0,0 l/m 9,7 km/h (2 Bft) O 90 0 min 0,000 mm 0,0 UV-I 0 W/m 0,3 C -1,8 C 12,9 km/h (3 Bft) 100,00 %
02.01.2018 00:55 1,3 C 3,9 C 93 % 1006,1 hPa 0,0 l/m 8,0 km/h (2 Bft) O-SO 112 0 min 0,000 mm 0,0 UV-I 0 W/m 0,3 C -0,3 C 12,9 km/h (3 Bft) 100,00 %
02.01.2018 00:56 1,4 C 3,9 C 93 % 1006,1 hPa 0,0 l/m 6,4 km/h (2 Bft) O 90 0 min 0,000 mm 0,0 UV-I 0 W/m 0,4 C 1,4 C 9,7 km/h (2 Bft) 100,00 %
02.01.2018 00:57 1,4 C 3,9 C 92 % 1006,1 hPa 0,0 l/m 6,4 km/h (2 Bft) O-NO 67 0 min 0,000 mm 0,0 UV-I 0 W/m 0,2 C 1,4 C 9,7 km/h (2 Bft) 100,00 %
02.01.2018 00:58 1,4 C 3,9 C 92 % 1006,1 hPa 0,0 l/m 4,8 km/h (1 Bft) O-SO 112 0 min 0,000 mm 0,0 UV-I 0 W/m 0,2 C 1,4 C 6,4 km/h (2 Bft) 100,00 %
02.01.2018 00:59 1,4 C 3,9 C 92 % 1006,2 hPa 0,0 l/m 1,6 km/h (1 Bft) S-SO 157 0 min 0,000 mm 0,0 UV-I 0 W/m 0,2 C 1,4 C 3,2 km/h (1 Bft) 100,00 %
02.01.2018 01:00 1,4 C 3,9 C 92 % 1006,2 hPa 0,0 l/m 6,4 km/h (2 Bft) S 180 0 min 0,000 mm 0,0 UV-I 0 W/m 0,2 C 1,4 C 9,7 km/h (2 Bft) 95,65 %
02.01.2018 01:01 1,4 C 3,9 C 92 % 1006,3 hPa 0,0 l/m 8,0 km/h (2 Bft) S 180 0 min 0,000 mm 0,0 UV-I 0 W/m 0,2 C -0,2 C 11,3 km/h (2 Bft) 100,00 %
02.01.2018 01:02 1,3 C 3,9 C 92 % 1006,4 hPa 0,0 l/m 9,7 km/h (2 Bft) S-SW 202 0 min 0,000 mm 0,0 UV-I 0 W/m 0,1 C -1,8 C 12,9 km/h (3 Bft) 100,00 %
02.01.2018 01:03 1,3 C 3,9 C 92 % 1006,5 hPa 0,0 l/m 12,9 km/h (3 Bft) S-SW 202 0 min 0,000 mm 0,0 UV-I 0 W/m 0,1 C -4,1 C 19,3 km/h (3 Bft) 100,00 %
02.01.2018 01:04 1,3 C 3,9 C 92 % 1006,5 hPa 0,0 l/m 9,7 km/h (2 Bft) S-SW 202 0 min 0,000 mm 0,0 UV-I 0 W/m 0,1 C -1,8 C 14,5 km/h (3 Bft) 100,00 %
02.01.2018 01:05 1,2 C 3,9 C 92 % 1006,5 hPa 0,0 l/m 8,0 km/h (2 Bft) S-SW 202 0 min 0,000 mm 0,0 UV-I 0 W/m 0,0 C -0,4 C 16,1 km/h (3 Bft) 100,00 %
02.01.2018 01:06 1,2 C 3,9 C 92 % 1006,5 hPa 0,0 l/m 8,0 km/h (2 Bft) S-SW 202 0 min 0,000 mm 0,0 UV-I 0 W/m 0,0 C -0,4 C 12,9 km/h (3 Bft) 100,00 %
02.01.2018 01:07 1,2 C 3,9 C 92 % 1006,5 hPa 0,0 l/m 8,0 km/h (2 Bft) S 180 0 min 0,000 mm 0,0 UV-I 0 W/m 0,0 C -0,4 C 14,5 km/h (3 Bft) 95,65 %
02.01.2018 01:08 1,2 C 3,9 C 92 % 1006,5 hPa 0,0 l/m 8,0 km/h (2 Bft) S-SW 202 0 min 0,000 mm 0,0 UV-I 0 W/m 0,0 C -0,4 C 14,5 km/h (3 Bft) 100,00 %
02.01.2018 01:09 1,2 C 3,9 C 92 % 1006,5 hPa 0,0 l/m 8,0 km/h (2 Bft) S-SO 157 0 min 0,000 mm 0,0 UV-I 0 W/m 0,0 C -0,4 C 12,9 km/h (3 Bft) 100,00 %
02.01.2018 01:10 1,3 C 3,9 C 93 % 1006,5 hPa 0,0 l/m 6,4 km/h (2 Bft) S-SO 157 0 min 0,000 mm 0,0 UV-I 0 W/m 0,3 C 1,3 C 14,5 km/h (3 Bft) 100,00 %
02.01.2018 01:11 1,3 C 3,9 C 93 % 1006,5 hPa 0,0 l/m 8,0 km/h (2 Bft) S 180 0 min 0,000 mm 0,0 UV-I 0 W/m 0,3 C -0,3 C 16,1 km/h (3 Bft) 100,00 %
02.01.2018 01:12 1,3 C 3,9 C 92 % 1006,5 hPa 0,0 l/m 4,8 km/h (1 Bft) S-SO 157 0 min 0,000 mm 0,0 UV-I 0 W/m 0,1 C 1,3 C 8,0 km/h (2 Bft) 100,00 %
02.01.2018 01:13 1,3 C 3,9 C 92 % 1006,5 hPa 0,0 l/m 4,8 km/h (1 Bft) S-SO 157 0 min 0,000 mm 0,0 UV-I 0 W/m 0,1 C 1,3 C 9,7 km/h (2 Bft) 100,00 %
02.01.2018 01:14 1,3 C 3,9 C 92 % 1006,5 hPa 0,0 l/m 4,8 km/h (1 Bft) S-SO 157 0 min 0,000 mm 0,0 UV-I 0 W/m 0,1 C 1,3 C 6,4 km/h (2 Bft) 91,30 %
02.01.2018 01:15 1,3 C 3,9 C 92 % 1006,5 hPa 0,0 l/m 4,8 km/h (1 Bft) S-SO 157 0 min 0,000 mm 0,0 UV-I 0 W/m 0,1 C 1,3 C 8,0 km/h (2 Bft) 100,00 %
02.01.2018 01:16 1,3 C 3,9 C 92 % 1006,5 hPa 0,0 l/m 4,8 km/h (1 Bft) S-SO 157 0 min 0,000 mm 0,0 UV-I 0 W/m 0,1 C 1,3 C 6,4 km/h (2 Bft) 100,00 %
02.01.2018 01:17 1,3 C 3,9 C 92 % 1006,5 hPa 0,0 l/m 4,8 km/h (1 Bft) S-SO 157 0 min 0,000 mm 0,0 UV-I 0 W/m 0,1 C 1,3 C 9,7 km/h (2 Bft) 95,65 %
02.01.2018 01:18 1,4 C 3,9 C 92 % 1006,5 hPa 0,0 l/m 6,4 km/h (2 Bft) S-SO 157 0 min 0,000 mm 0,0 UV-I 0 W/m 0,2 C 1,4 C 9,7 km/h (2 Bft) 100,00 %
02.01.2018 01:19 1,4 C 3,9 C 92 % 1006,5 hPa 0,0 l/m 3,2 km/h (1 Bft) S-SO 157 0 min 0,000 mm 0,0 UV-I 0 W/m 0,2 C 1,4 C 6,4 km/h (2 Bft) 95,65 %
02.01.2018 01:20 1,4 C 3,9 C 92 % 1006,5 hPa 0,0 l/m 4,8 km/h (1 Bft) S-SO 157 0 min 0,000 mm 0,0 UV-I 0 W/m 0,2 C 1,4 C 4,8 km/h (1 Bft) 100,00 %
02.01.2018 01:21 1,4 C 3,9 C 92 % 1006,5 hPa 0,0 l/m 4,8 km/h (1 Bft) S-SO 157 0 min 0,000 mm 0,0 UV-I 0 W/m 0,2 C 1,4 C 4,8 km/h (1 Bft) 95,65 %
02.01.2018 01:22 1,4 C 3,9 C 92 % 1006,5 hPa 0,0 l/m 4,8 km/h (1 Bft) S-SO 157 0 min 0,000 mm 0,0 UV-I 0 W/m 0,2 C 1,4 C 8,0 km/h (2 Bft) 100,00 %
02.01.2018 01:23 1,4 C 3,9 C 92 % 1006,5 hPa 0,0 l/m 4,8 km/h (1 Bft) S-SO 157 0 min 0,000 mm 0,0 UV-I 0 W/m 0,2 C 1,4 C 4,8 km/h (1 Bft) 95,65 %
02.01.2018 01:24 1,3 C 3,9 C 92 % 1006,5 hPa 0,0 l/m 3,2 km/h (1 Bft) S-SO 157 0 min 0,000 mm 0,0 UV-I 0 W/m 0,1 C 1,3 C 4,8 km/h (1 Bft) 95,65 %
02.01.2018 01:25 1,3 C 3,9 C 92 % 1006,6 hPa 0,0 l/m 1,6 km/h (1 Bft) S-SO 157 0 min 0,000 mm 0,0 UV-I 0 W/m 0,1 C 1,3 C 4,8 km/h (1 Bft) 100,00 %
02.01.2018 01:26 1,3 C 3,9 C 92 % 1006,5 hPa 0,0 l/m 3,2 km/h (1 Bft) S-SO 157 0 min 0,000 mm 0,0 UV-I 0 W/m 0,1 C 1,3 C 4,8 km/h (1 Bft) 100,00 %
02.01.2018 01:27 1,3 C 3,9 C 92 % 1006,5 hPa 0,0 l/m 3,2 km/h (1 Bft) S-SO 157 0 min 0,000 mm 0,0 UV-I 0 W/m 0,1 C 1,3 C 4,8 km/h (1 Bft) 100,00 %
02.01.2018 01:28 1,3 C 3,9 C 92 % 1006,5 hPa 0,0 l/m 1,6 km/h (1 Bft) S-SO 157 0 min 0,000 mm 0,0 UV-I 0 W/m 0,1 C 1,3 C 3,2 km/h (1 Bft) 95,65 %
02.01.2018 01:29 1,3 C 3,9 C 92 % 1006,5 hPa 0,0 l/m 1,6 km/h (1 Bft) S-SO 157 0 min 0,000 mm 0,0 UV-I 0 W/m 0,1 C 1,3 C 3,2 km/h (1 Bft) 100,00 %
02.01.2018 01:30 1,3 C 3,9 C 92 % 1006,5 hPa 0,0 l/m 1,6 km/h (1 Bft) S-SO 157 0 min 0,000 mm 0,0 UV-I 0 W/m 0,1 C 1,3 C 3,2 km/h (1 Bft) 100,00 %
02.01.2018 01:31 1,3 C 3,9 C 92 % 1006,5 hPa 0,0 l/m 1,6 km/h (1 Bft) S-SO 157 0 min 0,000 mm 0,0 UV-I 0 W/m 0,1 C 1,3 C 3,2 km/h (1 Bft) 100,00 %
02.01.2018 01:32 1,3 C 3,9 C 92 % 1006,6 hPa 0,0 l/m 3,2 km/h (1 Bft) S 180 0 min 0,000 mm 0,0 UV-I 0 W/m 0,1 C 1,3 C 6,4 km/h (2 Bft) 100,00 %
02.01.2018 01:33 1,4 C 3,9 C 92 % 1006,6 hPa 0,0 l/m 3,2 km/h (1 Bft) S 180 0 min 0,000 mm 0,0 UV-I 0 W/m 0,2 C 1,4 C 6,4 km/h (2 Bft) 100,00 %
02.01.2018 01:34 1,4 C 3,9 C 92 % 1006,5 hPa 0,0 l/m 3,2 km/h (1 Bft) S 180 0 min 0,000 mm 0,0 UV-I 0 W/m 0,2 C 1,4 C 6,4 km/h (2 Bft) 95,65 %
02.01.2018 01:35 1,4 C 3,9 C 92 % 1006,5 hPa 0,0 l/m 1,6 km/h (1 Bft) W-SW 247 0 min 0,000 mm 0,0 UV-I 0 W/m 0,2 C 1,4 C 4,8 km/h (1 Bft) 95,65 %
02.01.2018 01:36 1,5 C 3,9 C 92 % 1006,6 hPa 0,0 l/m 4,8 km/h (1 Bft) NW 315 0 min 0,000 mm 0,0 UV-I 0 W/m 0,3 C 1,5 C 8,0 km/h (2 Bft) 100,00 %
02.01.2018 01:37 1,4 C 3,9 C 92 % 1006,7 hPa 0,0 l/m 3,2 km/h (1 Bft) NW 315 0 min 0,000 mm 0,0 UV-I 0 W/m 0,2 C 1,4 C 8,0 km/h (2 Bft) 100,00 %
02.01.2018 01:38 1,4 C 3,9 C 92 % 1006,6 hPa 0,0 l/m 3,2 km/h (1 Bft) NW 315 0 min 0,000 mm 0,0 UV-I 0 W/m 0,2 C 1,4 C 4,8 km/h (1 Bft) 100,00 %
02.01.2018 01:39 1,3 C 3,9 C 92 % 1006,5 hPa 0,0 l/m 6,4 km/h (2 Bft) NO 45 0 min 0,000 mm 0,0 UV-I 0 W/m 0,1 C 1,3 C 8,0 km/h (2 Bft) 100,00 %
02.01.2018 01:40 1,3 C 3,9 C 92 % 1006,4 hPa 0,0 l/m 4,8 km/h (1 Bft) NO 45 0 min 0,000 mm 0,0 UV-I 0 W/m 0,1 C 1,3 C 6,4 km/h (2 Bft) 100,00 %
02.01.2018 01:41 1,3 C 3,9 C 92 % 1006,5 hPa 0,0 l/m 1,6 km/h (1 Bft) NO 45 0 min 0,000 mm 0,0 UV-I 0 W/m 0,1 C 1,3 C 3,2 km/h (1 Bft) 100,00 %
02.01.2018 01:42 1,3 C 3,9 C 92 % 1006,6 hPa 0,0 l/m 1,6 km/h (1 Bft) NO 45 0 min 0,000 mm 0,0 UV-I 0 W/m 0,1 C 1,3 C 3,2 km/h (1 Bft) 86,96 %
02.01.2018 01:43 1,3 C 3,9 C 92 % 1006,6 hPa 0,0 l/m 0,0 km/h (0 Bft) NO 45 0 min 0,000 mm 0,0 UV-I 0 W/m 0,1 C 1,3 C 1,6 km/h (1 Bft) 100,00 %
02.01.2018 01:44 1,3 C 3,9 C 92 % 1006,5 hPa 0,0 l/m 1,6 km/h (1 Bft) NO 45 0 min 0,000 mm 0,0 UV-I 0 W/m 0,1 C 1,3 C 3,2 km/h (1 Bft) 100,00 %
02.01.2018 01:45 1,3 C 3,9 C 92 % 1006,6 hPa 0,0 l/m 1,6 km/h (1 Bft) NO 45 0 min 0,000 mm 0,0 UV-I 0 W/m 0,1 C 1,3 C 3,2 km/h (1 Bft) 100,00 %
02.01.2018 01:46 1,3 C 3,9 C 92 % 1006,5 hPa 0,0 l/m 3,2 km/h (1 Bft) NO 45 0 min 0,000 mm 0,0 UV-I 0 W/m 0,1 C 1,3 C 4,8 km/h (1 Bft) 100,00 %
02.01.2018 01:47 1,2 C 3,9 C 92 % 1006,4 hPa 0,0 l/m 3,2 km/h (1 Bft) NO 45 0 min 0,000 mm 0,0 UV-I 0 W/m 0,0 C 1,2 C 4,8 km/h (1 Bft) 95,65 %
02.01.2018 01:48 1,2 C 3,9 C 92 % 1006,4 hPa 0,0 l/m 3,2 km/h (1 Bft) NO 45 0 min 0,000 mm 0,0 UV-I 0 W/m 0,0 C 1,2 C 4,8 km/h (1 Bft) 100,00 %
02.01.2018 01:49 1,1 C 3,9 C 92 % 1006,4 hPa 0,0 l/m 3,2 km/h (1 Bft) O-NO 67 0 min 0,000 mm 0,0 UV-I 0 W/m -0,1 C 1,1 C 4,8 km/h (1 Bft) 95,65 %
02.01.2018 01:50 1,1 C 3,9 C 93 % 1006,6 hPa 0,0 l/m 0,0 km/h (0 Bft) N 0 0 min 0,000 mm 0,0 UV-I 0 W/m 0,1 C 1,1 C 0,0 km/h (0 Bft) 100,00 %
02.01.2018 01:51 1,1 C 3,9 C 93 % 1006,5 hPa 0,0 l/m 0,0 km/h (0 Bft) N 0 0 min 0,000 mm 0,0 UV-I 0 W/m 0,1 C 1,1 C 0,0 km/h (0 Bft) 91,30 %
02.01.2018 01:52 1,1 C 3,9 C 93 % 1006,5 hPa 0,0 l/m 0,0 km/h (0 Bft) O-NO 67 0 min 0,000 mm 0,0 UV-I 0 W/m 0,1 C 1,1 C 1,6 km/h (1 Bft) 100,00 %
02.01.2018 01:53 1,1 C 3,9 C 93 % 1006,5 hPa 0,0 l/m 1,6 km/h (1 Bft) O-NO 67 0 min 0,000 mm 0,0 UV-I 0 W/m 0,1 C 1,1 C 1,6 km/h (1 Bft) 91,30 %
02.01.2018 01:54 1,1 C 3,9 C 93 % 1006,5 hPa 0,0 l/m 1,6 km/h (1 Bft) O-SO 112 0 min 0,000 mm 0,0 UV-I 0 W/m 0,1 C 1,1 C 3,2 km/h (1 Bft) 100,00 %
02.01.2018 01:55 1,2 C 3,9 C 93 % 1006,5 hPa 0,0 l/m 0,0 km/h (0 Bft) O-SO 112 0 min 0,000 mm 0,0 UV-I 0 W/m 0,2 C 1,2 C 1,6 km/h (1 Bft) 91,30 %
02.01.2018 01:56 1,2 C 3,9 C 93 % 1006,5 hPa 0,0 l/m 0,0 km/h (0 Bft) N 0 0 min 0,000 mm 0,0 UV-I 0 W/m 0,2 C 1,2 C 0,0 km/h (0 Bft) 91,30 %
02.01.2018 01:57 1,2 C 3,9 C 93 % 1006,5 hPa 0,0 l/m 0,0 km/h (0 Bft) N 0 0 min 0,000 mm 0,0 UV-I 0 W/m 0,2 C 1,2 C 0,0 km/h (0 Bft) 95,65 %
02.01.2018 01:58 1,2 C 3,9 C 92 % 1006,5 hPa 0,0 l/m 0,0 km/h (0 Bft) N 0 0 min 0,000 mm 0,0 UV-I 0 W/m 0,0 C 1,2 C 0,0 km/h (0 Bft) 95,65 %
02.01.2018 01:59 1,1 C 3,9 C 93 % 1006,5 hPa 0,0 l/m 0,0 km/h (0 Bft) N 0 0 min 0,000 mm 0,0 UV-I 0 W/m 0,1 C 1,1 C 0,0 km/h (0 Bft) 95,65 %
02.01.2018 02:00 1,1 C 3,9 C 92 % 1006,4 hPa 0,0 l/m 0,0 km/h (0 Bft) N 0 0 min 0,000 mm 0,0 UV-I 0 W/m -0,1 C 1,1 C 0,0 km/h (0 Bft) 95,65 %
02.01.2018 02:01 1,1 C 3,9 C 93 % 1006,4 hPa 0,0 l/m 1,6 km/h (1 Bft) O-SO 112 0 min 0,000 mm 0,0 UV-I 0 W/m 0,1 C 1,1 C 3,2 km/h (1 Bft) 95,65 %
02.01.2018 02:02 1,1 C 3,9 C 93 % 1006,4 hPa 0,0 l/m 1,6 km/h (1 Bft) O-SO 112 0 min 0,000 mm 0,0 UV-I 0 W/m 0,1 C 1,1 C 3,2 km/h (1 Bft) 95,65 %
02.01.2018 02:03 1,1 C 3,9 C 93 % 1006,4 hPa 0,0 l/m 3,2 km/h (1 Bft) SO 135 0 min 0,000 mm 0,0 UV-I 0 W/m 0,1 C 1,1 C 4,8 km/h (1 Bft) 91,30 %
02.01.2018 02:04 1,0 C 3,9 C 93 % 1006,3 hPa 0,0 l/m 3,2 km/h (1 Bft) SO 135 0 min 0,000 mm 0,0 UV-I 0 W/m -0,0 C 1,0 C 4,8 km/h (1 Bft) 95,65 %
02.01.2018 02:05 1,0 C 3,9 C 93 % 1006,4 hPa 0,0 l/m 4,8 km/h (1 Bft) SO 135 0 min 0,000 mm 0,0 UV-I 0 W/m -0,0 C 1,0 C 6,4 km/h (2 Bft) 91,30 %
02.01.2018 02:06 1,0 C 3,9 C 93 % 1006,4 hPa 0,0 l/m 3,2 km/h (1 Bft) SO 135 0 min 0,000 mm 0,0 UV-I 0 W/m -0,0 C 1,0 C 4,8 km/h (1 Bft) 95,65 %
02.01.2018 02:07 1,0 C 3,9 C 93 % 1006,4 hPa 0,0 l/m 0,0 km/h (0 Bft) SO 135 0 min 0,000 mm 0,0 UV-I 0 W/m -0,0 C 1,0 C 3,2 km/h (1 Bft) 91,30 %
02.01.2018 02:08 0,9 C 3,9 C 93 % 1006,5 hPa 0,0 l/m 0,0 km/h (0 Bft) N 0 0 min 0,000 mm 0,0 UV-I 0 W/m -0,1 C 0,9 C 0,0 km/h (0 Bft) 95,65 %
02.01.2018 02:09 1,0 C 3,9 C 93 % 1006,5 hPa 0,0 l/m 0,0 km/h (0 Bft) N 0 0 min 0,000 mm 0,0 UV-I 0 W/m -0,0 C 1,0 C 0,0 km/h (0 Bft) 95,65 %
02.01.2018 02:10 1,0 C 3,9 C 93 % 1006,5 hPa 0,0 l/m 0,0 km/h (0 Bft) N 0 0 min 0,000 mm 0,0 UV-I 0 W/m -0,0 C 1,0 C 0,0 km/h (0 Bft) 91,30 %
02.01.2018 02:11 0,9 C 3,9 C 93 % 1006,5 hPa 0,0 l/m 0,0 km/h (0 Bft) SO 135 0 min 0,000 mm 0,0 UV-I 0 W/m -0,1 C 0,9 C 1,6 km/h (1 Bft) 95,65 %
02.01.2018 02:12 0,9 C 3,9 C 93 % 1006,5 hPa 0,0 l/m 0,0 km/h (0 Bft) SO 135 0 min 0,000 mm 0,0 UV-I 0 W/m -0,1 C 0,9 C 1,6 km/h (1 Bft) 95,65 %
02.01.2018 02:13 0,9 C 3,9 C 93 % 1006,5 hPa 0,0 l/m 0,0 km/h (0 Bft) N 0 0 min 0,000 mm 0,0 UV-I 0 W/m -0,1 C 0,9 C 0,0 km/h (0 Bft) 95,65 %
02.01.2018 02:14 1,0 C 3,9 C 93 % 1006,5 hPa 0,0 l/m 0,0 km/h (0 Bft) SO 135 0 min 0,000 mm 0,0 UV-I 0 W/m -0,0 C 1,0 C 3,2 km/h (1 Bft) 91,30 %
02.01.2018 02:15 1,0 C 3,9 C 93 % 1006,6 hPa 0,0 l/m 3,2 km/h (1 Bft) S-SO 157 0 min 0,000 mm 0,0 UV-I 0 W/m -0,0 C 1,0 C 4,8 km/h (1 Bft) 100,00 %
02.01.2018 02:16 1,1 C 3,9 C 93 % 1006,6 hPa 0,0 l/m 1,6 km/h (1 Bft) S-SO 157 0 min 0,000 mm 0,0 UV-I 0 W/m 0,1 C 1,1 C 3,2 km/h (1 Bft) 95,65 %
02.01.2018 02:17 1,1 C 3,9 C 93 % 1006,6 hPa 0,0 l/m 0,0 km/h (0 Bft) S-SO 157 0 min 0,000 mm 0,0 UV-I 0 W/m 0,1 C 1,1 C 3,2 km/h (1 Bft) 95,65 %
02.01.2018 02:18 1,0 C 3,9 C 93 % 1006,6 hPa 0,0 l/m 1,6 km/h (1 Bft) S-SO 157 0 min 0,000 mm 0,0 UV-I 0 W/m -0,0 C 1,0 C 3,2 km/h (1 Bft) 95,65 %
02.01.2018 02:19 0,9 C 3,9 C 93 % 1006,7 hPa 0,0 l/m 0,0 km/h (0 Bft) S-SO 157 0 min 0,000 mm 0,0 UV-I 0 W/m -0,1 C 0,9 C 1,6 km/h (1 Bft) 95,65 %
02.01.2018 02:20 0,9 C 3,9 C 93 % 1006,8 hPa 0,0 l/m 4,8 km/h (1 Bft) W 270 0 min 0,000 mm 0,0 UV-I 0 W/m -0,1 C 0,9 C 6,4 km/h (2 Bft) 100,00 %
02.01.2018 02:21 0,9 C 3,9 C 94 % 1006,9 hPa 0,0 l/m 4,8 km/h (1 Bft) W-NW 292 0 min 0,000 mm 0,0 UV-I 0 W/m 0,0 C 0,9 C 8,0 km/h (2 Bft) 100,00 %
02.01.2018 02:22 0,9 C 3,9 C 94 % 1007,0 hPa 0,0 l/m 3,2 km/h (1 Bft) W-NW 292 0 min 0,000 mm 0,0 UV-I 0 W/m 0,0 C 0,9 C 4,8 km/h (1 Bft) 95,65 %
02.01.2018 02:23 0,9 C 3,9 C 94 % 1007,0 hPa 0,0 l/m 1,6 km/h (1 Bft) SW 225 0 min 0,000 mm 0,0 UV-I 0 W/m 0,0 C 0,9 C 6,4 km/h (2 Bft) 95,65 %
02.01.2018 02:24 0,9 C 3,9 C 94 % 1007,1 hPa 0,0 l/m 3,2 km/h (1 Bft) W 270 0 min 0,000 mm 0,0 UV-I 0 W/m 0,0 C 0,9 C 4,8 km/h (1 Bft) 95,65 %
02.01.2018 02:25 0,9 C 3,9 C 94 % 1007,1 hPa 0,0 l/m 1,6 km/h (1 Bft) W-SW 247 0 min 0,000 mm 0,0 UV-I 0 W/m 0,0 C 0,9 C 3,2 km/h (1 Bft) 95,65 %
02.01.2018 02:26 0,9 C 3,9 C 94 % 1007,0 hPa 0,0 l/m 1,6 km/h (1 Bft) W-SW 247 0 min 0,000 mm 0,0 UV-I 0 W/m 0,0 C 0,9 C 3,2 km/h (1 Bft) 95,65 %
02.01.2018 02:27 0,9 C 3,9 C 94 % 1007,1 hPa 0,0 l/m 0,0 km/h (0 Bft) W-SW 247 0 min 0,000 mm 0,0 UV-I 0 W/m 0,0 C 0,9 C 3,2 km/h (1 Bft) 95,65 %
02.01.2018 02:28 0,9 C 3,9 C 94 % 1007,1 hPa 0,0 l/m 4,8 km/h (1 Bft) W-SW 247 0 min 0,000 mm 0,0 UV-I 0 W/m 0,0 C 0,9 C 6,4 km/h (2 Bft) 95,65 %
02.01.2018 02:29 0,9 C 3,9 C 94 % 1007,1 hPa 0,0 l/m 4,8 km/h (1 Bft) SW 225 0 min 0,000 mm 0,0 UV-I 0 W/m 0,0 C 0,9 C 4,8 km/h (1 Bft) 100,00 %
02.01.2018 02:30 1,1 C 3,9 C 94 % 1007,1 hPa 0,0 l/m 4,8 km/h (1 Bft) W 270 0 min 0,000 mm 0,0 UV-I 0 W/m 0,2 C 1,1 C 6,4 km/h (2 Bft) 100,00 %
02.01.2018 02:31 1,2 C 3,9 C 94 % 1007,3 hPa 0,0 l/m 1,6 km/h (1 Bft) W 270 0 min 0,000 mm 0,0 UV-I 0 W/m 0,3 C 1,2 C 4,8 km/h (1 Bft) 95,65 %
02.01.2018 02:32 1,2 C 3,9 C 94 % 1007,1 hPa 0,0 l/m 1,6 km/h (1 Bft) W 270 0 min 0,000 mm 0,0 UV-I 0 W/m 0,3 C 1,2 C 3,2 km/h (1 Bft) 100,00 %
02.01.2018 02:33 1,2 C 3,9 C 94 % 1007,1 hPa 0,0 l/m 1,6 km/h (1 Bft) W 270 0 min 0,000 mm 0,0 UV-I 0 W/m 0,3 C 1,2 C 4,8 km/h (1 Bft) 95,65 %
02.01.2018 02:34 1,3 C 3,9 C 94 % 1007,0 hPa 0,0 l/m 0,0 km/h (0 Bft) W 270 0 min 0,000 mm 0,0 UV-I 0 W/m 0,4 C 1,3 C 1,6 km/h (1 Bft) 100,00 %
02.01.2018 02:35 1,3 C 3,9 C 93 % 1007,1 hPa 0,0 l/m 0,0 km/h (0 Bft) N 0 0 min 0,000 mm 0,0 UV-I 0 W/m 0,3 C 1,3 C 0,0 km/h (0 Bft) 100,00 %
02.01.2018 02:36 1,4 C 3,9 C 93 % 1007,1 hPa 0,0 l/m 1,6 km/h (1 Bft) W 270 0 min 0,000 mm 0,0 UV-I 0 W/m 0,4 C 1,4 C 4,8 km/h (1 Bft) 100,00 %
02.01.2018 02:37 1,4 C 3,9 C 93 % 1007,1 hPa 0,0 l/m 3,2 km/h (1 Bft) W 270 0 min 0,000 mm 0,0 UV-I 0 W/m 0,4 C 1,4 C 4,8 km/h (1 Bft) 100,00 %
02.01.2018 02:38 1,4 C 3,9 C 93 % 1007,1 hPa 0,0 l/m 1,6 km/h (1 Bft) W 270 0 min 0,000 mm 0,0 UV-I 0 W/m 0,4 C 1,4 C 3,2 km/h (1 Bft) 95,65 %
02.01.2018 02:39 1,5 C 3,9 C 93 % 1007,1 hPa 0,0 l/m 3,2 km/h (1 Bft) W 270 0 min 0,000 mm 0,0 UV-I 0 W/m 0,5 C 1,5 C 3,2 km/h (1 Bft) 100,00 %
02.01.2018 02:40 1,4 C 3,9 C 92 % 1007,0 hPa 0,0 l/m 0,0 km/h (0 Bft) W 270 0 min 0,000 mm 0,0 UV-I 0 W/m 0,2 C 1,4 C 1,6 km/h (1 Bft) 100,00 %
02.01.2018 02:41 1,4 C 3,9 C 92 % 1007,0 hPa 0,0 l/m 0,0 km/h (0 Bft) N 0 0 min 0,000 mm 0,0 UV-I 0 W/m 0,2 C 1,4 C 0,0 km/h (0 Bft) 100,00 %
02.01.2018 02:42 1,4 C 3,9 C 92 % 1006,9 hPa 0,0 l/m 0,0 km/h (0 Bft) N 0 0 min 0,000 mm 0,0 UV-I 0 W/m 0,2 C 1,4 C 0,0 km/h (0 Bft) 100,00 %
02.01.2018 02:43 1,3 C 3,9 C 92 % 1006,9 hPa 0,0 l/m 0,0 km/h (0 Bft) N 0 0 min 0,000 mm 0,0 UV-I 0 W/m 0,1 C 1,3 C 0,0 km/h (0 Bft) 100,00 %
02.01.2018 02:44 1,3 C 3,9 C 92 % 1006,9 hPa 0,0 l/m 0,0 km/h (0 Bft) N 0 0 min 0,000 mm 0,0 UV-I 0 W/m 0,1 C 1,3 C 0,0 km/h (0 Bft) 100,00 %
02.01.2018 02:45 1,3 C 3,9 C 93 % 1006,9 hPa 0,0 l/m 1,6 km/h (1 Bft) W 270 0 min 0,000 mm 0,0 UV-I 0 W/m 0,3 C 1,3 C 3,2 km/h (1 Bft) 95,65 %
02.01.2018 02:46 1,3 C 3,9 C 93 % 1006,8 hPa 0,0 l/m 0,0 km/h (0 Bft) W 270 0 min 0,000 mm 0,0 UV-I 0 W/m 0,3 C 1,3 C 1,6 km/h (1 Bft) 100,00 %
02.01.2018 02:47 1,3 C 3,9 C 93 % 1006,9 hPa 0,0 l/m 1,6 km/h (1 Bft) W 270 0 min 0,000 mm 0,0 UV-I 0 W/m 0,3 C 1,3 C 4,8 km/h (1 Bft) 100,00 %
02.01.2018 02:48 1,3 C 3,9 C 93 % 1006,9 hPa 0,0 l/m 3,2 km/h (1 Bft) W 270 0 min 0,000 mm 0,0 UV-I 0 W/m 0,3 C 1,3 C 6,4 km/h (2 Bft) 95,65 %
02.01.2018 02:49 1,4 C 3,9 C 93 % 1006,9 hPa 0,0 l/m 3,2 km/h (1 Bft) S-SW 202 0 min 0,000 mm 0,0 UV-I 0 W/m 0,4 C 1,4 C 8,0 km/h (2 Bft) 100,00 %
02.01.2018 02:50 1,4 C 3,9 C 92 % 1007,0 hPa 0,0 l/m 6,4 km/h (2 Bft) S-SO 157 0 min 0,000 mm 0,0 UV-I 0 W/m 0,2 C 1,4 C 8,0 km/h (2 Bft) 95,65 %
02.01.2018 02:51 1,5 C 3,9 C 92 % 1007,0 hPa 0,0 l/m 3,2 km/h (1 Bft) S 180 0 min 0,000 mm 0,0 UV-I 0 W/m 0,3 C 1,5 C 6,4 km/h (2 Bft) 95,65 %
02.01.2018 02:52 1,6 C 3,9 C 92 % 1007,0 hPa 0,0 l/m 4,8 km/h (1 Bft) S 180 0 min 0,000 mm 0,0 UV-I 0 W/m 0,4 C 1,6 C 8,0 km/h (2 Bft) 95,65 %
02.01.2018 02:53 1,6 C 3,9 C 92 % 1007,0 hPa 0,0 l/m 6,4 km/h (2 Bft) S-SW 202 0 min 0,000 mm 0,0 UV-I 0 W/m 0,4 C 1,6 C 9,7 km/h (2 Bft) 95,65 %
02.01.2018 02:54 1,7 C 3,9 C 92 % 1007,0 hPa 0,0 l/m 4,8 km/h (1 Bft) S 180 0 min 0,000 mm 0,0 UV-I 0 W/m 0,5 C 1,7 C 6,4 km/h (2 Bft) 100,00 %
02.01.2018 02:55 1,7 C 3,9 C 92 % 1007,0 hPa 0,0 l/m 4,8 km/h (1 Bft) S-SO 157 0 min 0,000 mm 0,0 UV-I 0 W/m 0,5 C 1,7 C 8,0 km/h (2 Bft) 100,00 %
02.01.2018 02:56 1,8 C 3,9 C 91 % 1007,0 hPa 0,0 l/m 4,8 km/h (1 Bft) S 180 0 min 0,000 mm 0,0 UV-I 0 W/m 0,5 C 1,8 C 8,0 km/h (2 Bft) 100,00 %
02.01.2018 02:57 1,8 C 3,9 C 91 % 1007,1 hPa 0,0 l/m 4,8 km/h (1 Bft) S 180 0 min 0,000 mm 0,0 UV-I 0 W/m 0,5 C 1,8 C 9,7 km/h (2 Bft) 100,00 %
02.01.2018 02:58 1,8 C 3,9 C 91 % 1007,1 hPa 0,0 l/m 4,8 km/h (1 Bft) S-SW 202 0 min 0,000 mm 0,0 UV-I 0 W/m 0,5 C 1,8 C 8,0 km/h (2 Bft) 100,00 %
02.01.2018 02:59 1,8 C 3,9 C 91 % 1007,1 hPa 0,0 l/m 4,8 km/h (1 Bft) S 180 0 min 0,000 mm 0,0 UV-I 0 W/m 0,5 C 1,8 C 8,0 km/h (2 Bft) 95,65 %
02.01.2018 03:00 1,9 C 3,9 C 91 % 1007,1 hPa 0,0 l/m 6,4 km/h (2 Bft) S-SW 202 0 min 0,000 mm 0,0 UV-I 0 W/m 0,6 C 1,9 C 8,0 km/h (2 Bft) 100,00 %
02.01.2018 03:01 1,9 C 3,9 C 90 % 1007,1 hPa 0,0 l/m 4,8 km/h (1 Bft) S-SW 202 0 min 0,000 mm 0,0 UV-I 0 W/m 0,4 C 1,9 C 8,0 km/h (2 Bft) 100,00 %
02.01.2018 03:02 1,9 C 3,9 C 90 % 1007,1 hPa 0,0 l/m 4,8 km/h (1 Bft) S-SW 202 0 min 0,000 mm 0,0 UV-I 0 W/m 0,4 C 1,9 C 6,4 km/h (2 Bft) 100,00 %
02.01.2018 03:03 2,0 C 3,9 C 90 % 1007,1 hPa 0,0 l/m 4,8 km/h (1 Bft) S-SW 202 0 min 0,000 mm 0,0 UV-I 0 W/m 0,5 C 2,0 C 6,4 km/h (2 Bft) 100,00 %
02.01.2018 03:04 2,0 C 3,9 C 90 % 1007,1 hPa 0,0 l/m 6,4 km/h (2 Bft) S-SW 202 0 min 0,000 mm 0,0 UV-I 0 W/m 0,5 C 2,0 C 8,0 km/h (2 Bft) 100,00 %
02.01.2018 03:05 2,1 C 3,9 C 90 % 1007,1 hPa 0,0 l/m 6,4 km/h (2 Bft) S-SW 202 0 min 0,000 mm 0,0 UV-I 0 W/m 0,6 C 2,1 C 9,7 km/h (2 Bft) 100,00 %
02.01.2018 03:06 2,1 C 3,9 C 90 % 1007,2 hPa 0,0 l/m 6,4 km/h (2 Bft) S-SW 202 0 min 0,000 mm 0,0 UV-I 0 W/m 0,6 C 2,1 C 9,7 km/h (2 Bft) 95,65 %
02.01.2018 03:07 2,1 C 3,9 C 90 % 1007,2 hPa 0,0 l/m 4,8 km/h (1 Bft) S-SW 202 0 min 0,000 mm 0,0 UV-I 0 W/m 0,6 C 2,1 C 8,0 km/h (2 Bft) 100,00 %
02.01.2018 03:08 2,1 C 3,9 C 90 % 1007,2 hPa 0,0 l/m 8,0 km/h (2 Bft) SW 225 0 min 0,000 mm 0,0 UV-I 0 W/m 0,6 C 0,6 C 12,9 km/h (3 Bft) 100,00 %
02.01.2018 03:09 2,1 C 3,9 C 90 % 1007,2 hPa 0,0 l/m 9,7 km/h (2 Bft) S-SW 202 0 min 0,000 mm 0,0 UV-I 0 W/m 0,6 C -0,9 C 14,5 km/h (3 Bft) 100,00 %
02.01.2018 03:10 2,2 C 3,9 C 89 % 1007,3 hPa 0,0 l/m 9,7 km/h (2 Bft) SW 225 0 min 0,000 mm 0,0 UV-I 0 W/m 0,6 C -0,8 C 12,9 km/h (3 Bft) 100,00 %
02.01.2018 03:11 2,3 C 3,9 C 89 % 1007,3 hPa 0,0 l/m 11,3 km/h (2 Bft) S-SW 202 0 min 0,000 mm 0,0 UV-I 0 W/m 0,7 C -1,9 C 14,5 km/h (3 Bft) 100,00 %
02.01.2018 03:12 2,3 C 3,9 C 88 % 1007,4 hPa 0,0 l/m 9,7 km/h (2 Bft) S-SW 202 0 min 0,000 mm 0,0 UV-I 0 W/m 0,5 C -0,7 C 12,9 km/h (3 Bft) 100,00 %
02.01.2018 03:13 2,5 C 3,9 C 88 % 1007,4 hPa 0,0 l/m 11,3 km/h (2 Bft) S-SW 202 0 min 0,000 mm 0,0 UV-I 0 W/m 0,7 C -1,6 C 14,5 km/h (3 Bft) 95,65 %
02.01.2018 03:14 2,6 C 3,9 C 88 % 1007,4 hPa 0,0 l/m 9,7 km/h (2 Bft) SW 225 0 min 0,000 mm 0,0 UV-I 0 W/m 0,8 C -0,3 C 16,1 km/h (3 Bft) 100,00 %
02.01.2018 03:15 2,7 C 3,9 C 87 % 1007,3 hPa 0,0 l/m 9,7 km/h (2 Bft) SW 225 0 min 0,000 mm 0,0 UV-I 0 W/m 0,8 C -0,2 C 19,3 km/h (3 Bft) 100,00 %
02.01.2018 03:16 2,8 C 3,9 C 87 % 1007,3 hPa 0,0 l/m 16,1 km/h (3 Bft) S-SW 202 0 min 0,000 mm 0,0 UV-I 0 W/m 0,9 C -4,2 C 20,9 km/h (4 Bft) 95,65 %
02.01.2018 03:17 3,0 C 3,9 C 87 % 1007,4 hPa 0,0 l/m 12,9 km/h (3 Bft) S-SW 202 0 min 0,000 mm 0,0 UV-I 0 W/m 1,1 C -2,1 C 14,5 km/h (3 Bft) 100,00 %
02.01.2018 03:18 3,1 C 3,9 C 86 % 1007,4 hPa 0,0 l/m 11,3 km/h (2 Bft) SW 225 0 min 0,000 mm 0,0 UV-I 0 W/m 1,0 C -1,0 C 16,1 km/h (3 Bft) 95,65 %
02.01.2018 03:19 3,1 C 3,9 C 86 % 1007,4 hPa 0,0 l/m 9,7 km/h (2 Bft) S-SW 202 0 min 0,000 mm 0,0 UV-I 0 W/m 1,0 C 0,2 C 12,9 km/h (3 Bft) 100,00 %
02.01.2018 03:20 3,1 C 3,9 C 86 % 1007,4 hPa 0,0 l/m 8,0 km/h (2 Bft) S-SW 202 0 min 0,000 mm 0,0 UV-I 0 W/m 1,0 C 1,6 C 11,3 km/h (2 Bft) 91,30 %
02.01.2018 03:21 3,0 C 3,9 C 86 % 1007,3 hPa 0,0 l/m 11,3 km/h (2 Bft) S-SW 202 0 min 0,000 mm 0,0 UV-I 0 W/m 0,9 C -1,1 C 16,1 km/h (3 Bft) 95,65 %
02.01.2018 03:22 3,0 C 3,9 C 87 % 1007,3 hPa 0,0 l/m 9,7 km/h (2 Bft) S-SW 202 0 min 0,000 mm 0,0 UV-I 0 W/m 1,1 C 0,1 C 14,5 km/h (3 Bft) 95,65 %
02.01.2018 03:23 3,0 C 3,9 C 87 % 1007,3 hPa 0,0 l/m 9,7 km/h (2 Bft) S-SW 202 0 min 0,000 mm 0,0 UV-I 0 W/m 1,1 C 0,1 C 11,3 km/h (2 Bft) 100,00 %
02.01.2018 03:24 3,0 C 3,9 C 87 % 1007,3 hPa 0,0 l/m 8,0 km/h (2 Bft) S-SW 202 0 min 0,000 mm 0,0 UV-I 0 W/m 1,1 C 1,5 C 11,3 km/h (2 Bft) 95,65 %
02.01.2018 03:25 2,9 C 3,9 C 87 % 1007,3 hPa 0,0 l/m 8,0 km/h (2 Bft) S-SW 202 0 min 0,000 mm 0,0 UV-I 0 W/m 1,0 C 1,4 C 11,3 km/h (2 Bft) 100,00 %
02.01.2018 03:26 2,9 C 3,9 C 87 % 1007,3 hPa 0,0 l/m 8,0 km/h (2 Bft) S-SW 202 0 min 0,000 mm 0,0 UV-I 0 W/m 1,0 C 1,4 C 9,7 km/h (2 Bft) 95,65 %
02.01.2018 03:27 2,9 C 3,9 C 87 % 1007,3 hPa 0,0 l/m 6,4 km/h (2 Bft) SW 225 0 min 0,000 mm 0,0 UV-I 0 W/m 1,0 C 2,9 C 9,7 km/h (2 Bft) 95,65 %
02.01.2018 03:28 2,9 C 3,9 C 87 % 1007,3 hPa 0,0 l/m 8,0 km/h (2 Bft) S-SW 202 0 min 0,000 mm 0,0 UV-I 0 W/m 1,0 C 1,4 C 11,3 km/h (2 Bft) 91,30 %
02.01.2018 03:29 2,8 C 3,9 C 87 % 1007,2 hPa 0,0 l/m 4,8 km/h (1 Bft) S 180 0 min 0,000 mm 0,0 UV-I 0 W/m 0,9 C 2,8 C 8,0 km/h (2 Bft) 95,65 %
02.01.2018 03:30 2,9 C 3,9 C 87 % 1007,1 hPa 0,0 l/m 8,0 km/h (2 Bft) S-SW 202 0 min 0,000 mm 0,0 UV-I 0 W/m 1,0 C 1,4 C 12,9 km/h (3 Bft) 95,65 %
02.01.2018 03:31 2,9 C 3,9 C 87 % 1007,2 hPa 0,0 l/m 4,8 km/h (1 Bft) S 180 0 min 0,000 mm 0,0 UV-I 0 W/m 1,0 C 2,9 C 11,3 km/h (2 Bft) 95,65 %
02.01.2018 03:32 2,9 C 3,9 C 87 % 1007,1 hPa 0,0 l/m 6,4 km/h (2 Bft) S-SW 202 0 min 0,000 mm 0,0 UV-I 0 W/m 1,0 C 2,9 C 9,7 km/h (2 Bft) 100,00 %
02.01.2018 03:33 3,0 C 3,9 C 87 % 1007,1 hPa 0,0 l/m 8,0 km/h (2 Bft) S-SW 202 0 min 0,000 mm 0,0 UV-I 0 W/m 1,1 C 1,5 C 11,3 km/h (2 Bft) 95,65 %
02.01.2018 03:34 3,0 C 3,9 C 87 % 1007,1 hPa 0,0 l/m 6,4 km/h (2 Bft) S 180 0 min 0,000 mm 0,0 UV-I 0 W/m 1,1 C 3,0 C 11,3 km/h (2 Bft) 95,65 %
02.01.2018 03:35 3,1 C 3,9 C 86 % 1007,1 hPa 0,0 l/m 8,0 km/h (2 Bft) S-SW 202 0 min 0,000 mm 0,0 UV-I 0 W/m 1,0 C 1,6 C 11,3 km/h (2 Bft) 95,65 %
02.01.2018 03:36 3,1 C 3,9 C 86 % 1007,1 hPa 0,0 l/m 6,4 km/h (2 Bft) S 180 0 min 0,000 mm 0,0 UV-I 0 W/m 1,0 C 3,1 C 12,9 km/h (3 Bft) 100,00 %
02.01.2018 03:37 3,1 C 3,9 C 86 % 1007,1 hPa 0,0 l/m 4,8 km/h (1 Bft) S-SO 157 0 min 0,000 mm 0,0 UV-I 0 W/m 1,0 C 3,1 C 9,7 km/h (2 Bft) 95,65 %
02.01.2018 03:38 3,2 C 3,9 C 86 % 1007,1 hPa 0,0 l/m 8,0 km/h (2 Bft) S-SW 202 0 min 0,000 mm 0,0 UV-I 0 W/m 1,1 C 1,7 C 12,9 km/h (3 Bft) 100,00 %
02.01.2018 03:39 3,2 C 3,9 C 86 % 1007,1 hPa 0,0 l/m 8,0 km/h (2 Bft) S-SW 202 0 min 0,000 mm 0,0 UV-I 0 W/m 1,1 C 1,7 C 12,9 km/h (3 Bft) 95,65 %
02.01.2018 03:40 3,2 C 3,9 C 86 % 1007,0 hPa 0,0 l/m 6,4 km/h (2 Bft) S-SW 202 0 min 0,000 mm 0,0 UV-I 0 W/m 1,1 C 3,2 C 8,0 km/h (2 Bft) 100,00 %
02.01.2018 03:41 3,2 C 3,9 C 86 % 1007,0 hPa 0,0 l/m 6,4 km/h (2 Bft) S-SW 202 0 min 0,000 mm 0,0 UV-I 0 W/m 1,1 C 3,2 C 11,3 km/h (2 Bft) 91,30 %
02.01.2018 03:42 3,2 C 3,9 C 86 % 1007,0 hPa 0,0 l/m 8,0 km/h (2 Bft) S-SW 202 0 min 0,000 mm 0,0 UV-I 0 W/m 1,1 C 1,7 C 9,7 km/h (2 Bft) 95,65 %
02.01.2018 03:43 3,2 C 3,9 C 86 % 1007,0 hPa 0,0 l/m 6,4 km/h (2 Bft) S-SW 202 0 min 0,000 mm 0,0 UV-I 0 W/m 1,1 C 3,2 C 8,0 km/h (2 Bft) 95,65 %
02.01.2018 03:44 3,2 C 3,9 C 86 % 1007,0 hPa 0,0 l/m 9,7 km/h (2 Bft) S-SW 202 0 min 0,000 mm 0,0 UV-I 0 W/m 1,1 C 0,3 C 11,3 km/h (2 Bft) 95,65 %
02.01.2018 03:45 3,2 C 3,9 C 87 % 1007,0 hPa 0,0 l/m 8,0 km/h (2 Bft) S-SW 202 0 min 0,000 mm 0,0 UV-I 0 W/m 1,2 C 1,7 C 12,9 km/h (3 Bft) 100,00 %
02.01.2018 03:46 3,2 C 3,9 C 87 % 1007,0 hPa 0,0 l/m 8,0 km/h (2 Bft) S-SW 202 0 min 0,000 mm 0,0 UV-I 0 W/m 1,2 C 1,7 C 11,3 km/h (2 Bft) 95,65 %
02.01.2018 03:47 3,2 C 3,9 C 87 % 1007,0 hPa 0,0 l/m 6,4 km/h (2 Bft) SW 225 0 min 0,000 mm 0,0 UV-I 0 W/m 1,2 C 3,2 C 8,0 km/h (2 Bft) 100,00 %
02.01.2018 03:48 3,2 C 3,9 C 87 % 1007,0 hPa 0,0 l/m 8,0 km/h (2 Bft) SW 225 0 min 0,000 mm 0,0 UV-I 0 W/m 1,2 C 1,7 C 12,9 km/h (3 Bft) 95,65 %
02.01.2018 03:49 3,3 C 3,9 C 87 % 1007,0 hPa 0,0 l/m 6,4 km/h (2 Bft) SW 225 0 min 0,000 mm 0,0 UV-I 0 W/m 1,3 C 3,3 C 9,7 km/h (2 Bft) 100,00 %
02.01.2018 03:50 3,3 C 3,9 C 87 % 1007,0 hPa 0,0 l/m 6,4 km/h (2 Bft) W-SW 247 0 min 0,000 mm 0,0 UV-I 0 W/m 1,3 C 3,3 C 8,0 km/h (2 Bft) 100,00 %
02.01.2018 03:51 3,3 C 3,9 C 87 % 1007,0 hPa 0,0 l/m 6,4 km/h (2 Bft) SW 225 0 min 0,000 mm 0,0 UV-I 0 W/m 1,3 C 3,3 C 9,7 km/h (2 Bft) 100,00 %
02.01.2018 03:52 3,3 C 3,9 C 87 % 1007,0 hPa 0,0 l/m 8,0 km/h (2 Bft) S-SW 202 0 min 0,000 mm 0,0 UV-I 0 W/m 1,3 C 1,8 C 9,7 km/h (2 Bft) 100,00 %
02.01.2018 03:53 3,3 C 3,9 C 87 % 1007,0 hPa 0,0 l/m 8,0 km/h (2 Bft) S-SW 202 0 min 0,000 mm 0,0 UV-I 0 W/m 1,3 C 1,8 C 9,7 km/h (2 Bft) 95,65 %
02.01.2018 03:54 3,3 C 3,9 C 87 % 1007,0 hPa 0,0 l/m 6,4 km/h (2 Bft) S-SW 202 0 min 0,000 mm 0,0 UV-I 0 W/m 1,3 C 3,3 C 11,3 km/h (2 Bft) 100,00 %
02.01.2018 03:55 3,3 C 3,9 C 87 % 1007,0 hPa 0,0 l/m 8,0 km/h (2 Bft) SW 225 0 min 0,000 mm 0,0 UV-I 0 W/m 1,3 C 1,8 C 9,7 km/h (2 Bft) 95,65 %
02.01.2018 03:56 3,4 C 3,9 C 87 % 1007,0 hPa 0,0 l/m 6,4 km/h (2 Bft) SW 225 0 min 0,000 mm 0,0 UV-I 0 W/m 1,4 C 3,4 C 9,7 km/h (2 Bft) 100,00 %
02.01.2018 03:57 3,4 C 3,9 C 87 % 1007,0 hPa 0,0 l/m 8,0 km/h (2 Bft) SW 225 0 min 0,000 mm 0,0 UV-I 0 W/m 1,4 C 1,9 C 11,3 km/h (2 Bft) 95,65 %
02.01.2018 03:58 3,4 C 3,9 C 87 % 1007,0 hPa 0,0 l/m 8,0 km/h (2 Bft) SW 225 0 min 0,000 mm 0,0 UV-I 0 W/m 1,4 C 1,9 C 9,7 km/h (2 Bft) 95,65 %
02.01.2018 03:59 3,5 C 3,9 C 87 % 1007,0 hPa 0,0 l/m 9,7 km/h (2 Bft) S-SW 202 0 min 0,000 mm 0,0 UV-I 0 W/m 1,5 C 0,6 C 11,3 km/h (2 Bft) 100,00 %
02.01.2018 04:00 3,6 C 3,9 C 87 % 1007,0 hPa 0,0 l/m 9,7 km/h (2 Bft) S-SW 202 0 min 0,000 mm 0,0 UV-I 0 W/m 1,6 C 0,8 C 14,5 km/h (3 Bft) 95,65 %
02.01.2018 04:01 3,6 C 3,9 C 87 % 1007,0 hPa 0,0 l/m 11,3 km/h (2 Bft) S-SW 202 0 min 0,000 mm 0,0 UV-I 0 W/m 1,6 C -0,4 C 14,5 km/h (3 Bft) 95,65 %
02.01.2018 04:02 3,7 C 3,9 C 87 % 1007,0 hPa 0,0 l/m 11,3 km/h (2 Bft) SW 225 0 min 0,000 mm 0,0 UV-I 0 W/m 1,7 C -0,3 C 16,1 km/h (3 Bft) 91,30 %
02.01.2018 04:03 3,8 C 3,9 C 87 % 1007,0 hPa 0,0 l/m 12,9 km/h (3 Bft) SW 225 0 min 0,000 mm 0,0 UV-I 0 W/m 1,8 C -1,2 C 19,3 km/h (3 Bft) 100,00 %
02.01.2018 04:04 3,8 C 3,9 C 87 % 1007,0 hPa 0,0 l/m 9,7 km/h (2 Bft) SW 225 0 min 0,000 mm 0,0 UV-I 0 W/m 1,8 C 1,0 C 16,1 km/h (3 Bft) 95,65 %
02.01.2018 04:05 3,9 C 3,9 C 87 % 1007,1 hPa 0,0 l/m 9,7 km/h (2 Bft) S-SW 202 0 min 0,000 mm 0,0 UV-I 0 W/m 1,9 C 1,1 C 16,1 km/h (3 Bft) 100,00 %
02.01.2018 04:06 4,0 C 3,9 C 87 % 1007,0 hPa 0,0 l/m 11,3 km/h (2 Bft) S-SW 202 0 min 0,000 mm 0,0 UV-I 0 W/m 2,0 C 0,1 C 17,7 km/h (3 Bft) 95,65 %
02.01.2018 04:07 4,1 C 3,9 C 87 % 1007,0 hPa 0,0 l/m 14,5 km/h (3 Bft) S-SW 202 0 min 0,000 mm 0,0 UV-I 0 W/m 2,1 C -1,7 C 19,3 km/h (3 Bft) 95,65 %
02.01.2018 04:08 4,2 C 3,9 C 87 % 1007,0 hPa 0,0 l/m 11,3 km/h (2 Bft) S-SW 202 0 min 0,000 mm 0,0 UV-I 0 W/m 2,2 C 0,3 C 14,5 km/h (3 Bft) 100,00 %
02.01.2018 04:09 4,2 C 3,9 C 86 % 1007,0 hPa 0,0 l/m 9,7 km/h (2 Bft) SW 225 0 min 0,000 mm 0,0 UV-I 0 W/m 2,1 C 1,4 C 17,7 km/h (3 Bft) 91,30 %
02.01.2018 04:10 4,3 C 3,9 C 86 % 1007,0 hPa 0,0 l/m 12,9 km/h (3 Bft) SW 225 0 min 0,000 mm 0,0 UV-I 0 W/m 2,2 C -0,6 C 16,1 km/h (3 Bft) 100,00 %
02.01.2018 04:11 4,3 C 3,9 C 86 % 1007,1 hPa 0,0 l/m 11,3 km/h (2 Bft) S-SW 202 0 min 0,000 mm 0,0 UV-I 0 W/m 2,2 C 0,4 C 16,1 km/h (3 Bft) 95,65 %
02.01.2018 04:12 4,3 C 3,9 C 86 % 1007,1 hPa 0,0 l/m 11,3 km/h (2 Bft) S-SW 202 0 min 0,000 mm 0,0 UV-I 0 W/m 2,2 C 0,4 C 17,7 km/h (3 Bft) 100,00 %
02.01.2018 04:13 4,4 C 3,9 C 86 % 1007,0 hPa 0,0 l/m 12,9 km/h (3 Bft) S-SW 202 0 min 0,000 mm 0,0 UV-I 0 W/m 2,3 C -0,5 C 17,7 km/h (3 Bft) 95,65 %
02.01.2018 04:14 4,5 C 3,9 C 85 % 1007,0 hPa 0,0 l/m 9,7 km/h (2 Bft) S-SW 202 0 min 0,000 mm 0,0 UV-I 0 W/m 2,2 C 1,7 C 14,5 km/h (3 Bft) 100,00 %
02.01.2018 04:15 4,6 C 3,9 C 85 % 1007,1 hPa 0,0 l/m 16,1 km/h (3 Bft) S-SW 202 0 min 0,000 mm 0,0 UV-I 0 W/m 2,3 C -2,0 C 24,1 km/h (4 Bft) 95,65 %
02.01.2018 04:16 4,6 C 3,9 C 85 % 1007,1 hPa 0,0 l/m 11,3 km/h (2 Bft) SW 225 0 min 0,000 mm 0,0 UV-I 0 W/m 2,3 C 0,7 C 14,5 km/h (3 Bft) 91,30 %
02.01.2018 04:17 4,7 C 3,9 C 84 % 1007,1 hPa 0,0 l/m 14,5 km/h (3 Bft) S-SW 202 0 min 0,000 mm 0,0 UV-I 0 W/m 2,2 C -1,0 C 25,7 km/h (4 Bft) 100,00 %
02.01.2018 04:18 4,7 C 3,9 C 84 % 1007,0 hPa 0,0 l/m 16,1 km/h (3 Bft) S-SW 202 0 min 0,000 mm 0,0 UV-I 0 W/m 2,2 C -1,8 C 20,9 km/h (4 Bft) 95,65 %
02.01.2018 04:19 4,8 C 3,9 C 84 % 1007,1 hPa 0,0 l/m 14,5 km/h (3 Bft) SW 225 0 min 0,000 mm 0,0 UV-I 0 W/m 2,3 C -0,9 C 19,3 km/h (3 Bft) 100,00 %
02.01.2018 04:20 4,8 C 3,9 C 84 % 1007,1 hPa 0,0 l/m 12,9 km/h (3 Bft) SW 225 0 min 0,000 mm 0,0 UV-I 0 W/m 2,3 C -0,0 C 17,7 km/h (3 Bft) 95,65 %
02.01.2018 04:21 4,9 C 3,9 C 84 % 1007,1 hPa 0,0 l/m 16,1 km/h (3 Bft) SW 225 0 min 0,000 mm 0,0 UV-I 0 W/m 2,4 C -1,6 C 20,9 km/h (4 Bft) 95,65 %
02.01.2018 04:22 4,9 C 3,9 C 83 % 1007,1 hPa 0,0 l/m 16,1 km/h (3 Bft) SW 225 0 min 0,000 mm 0,0 UV-I 0 W/m 2,3 C -1,6 C 22,5 km/h (4 Bft) 95,65 %
02.01.2018 04:23 5,0 C 3,9 C 83 % 1007,1 hPa 0,0 l/m 11,3 km/h (2 Bft) SW 225 0 min 0,000 mm 0,0 UV-I 0 W/m 2,4 C 1,2 C 17,7 km/h (3 Bft) 95,65 %
02.01.2018 04:24 5,0 C 3,9 C 83 % 1007,1 hPa 0,0 l/m 14,5 km/h (3 Bft) SW 225 0 min 0,000 mm 0,0 UV-I 0 W/m 2,4 C -0,7 C 22,5 km/h (4 Bft) 91,30 %
02.01.2018 04:25 5,0 C 3,9 C 83 % 1007,1 hPa 0,0 l/m 11,3 km/h (2 Bft) SW 225 0 min 0,000 mm 0,0 UV-I 0 W/m 2,4 C 1,2 C 16,1 km/h (3 Bft) 95,65 %
02.01.2018 04:26 5,1 C 3,9 C 83 % 1007,1 hPa 0,0 l/m 17,7 km/h (3 Bft) SW 225 0 min 0,000 mm 0,0 UV-I 0 W/m 2,5 C -2,1 C 24,1 km/h (4 Bft) 100,00 %
02.01.2018 04:27 5,1 C 3,9 C 82 % 1007,1 hPa 0,0 l/m 14,5 km/h (3 Bft) SW 225 0 min 0,000 mm 0,0 UV-I 0 W/m 2,3 C -0,5 C 22,5 km/h (4 Bft) 95,65 %
02.01.2018 04:28 5,1 C 3,9 C 82 % 1007,1 hPa 0,0 l/m 14,5 km/h (3 Bft) SW 225 0 min 0,000 mm 0,0 UV-I 0 W/m 2,3 C -0,5 C 19,3 km/h (3 Bft) 100,00 %
02.01.2018 04:29 5,0 C 3,9 C 83 % 1007,1 hPa 0,0 l/m 14,5 km/h (3 Bft) S-SW 202 0 min 0,000 mm 0,0 UV-I 0 W/m 2,4 C -0,7 C 19,3 km/h (3 Bft) 95,65 %
02.01.2018 04:30 5,0 C 3,9 C 83 % 1007,2 hPa 0,0 l/m 17,7 km/h (3 Bft) SW 225 0 min 0,000 mm 0,0 UV-I 0 W/m 2,4 C -2,2 C 29,0 km/h (5 Bft) 95,65 %
02.01.2018 04:31 5,1 C 3,9 C 82 % 1007,1 hPa 0,0 l/m 16,1 km/h (3 Bft) SW 225 0 min 0,000 mm 0,0 UV-I 0 W/m 2,3 C -1,3 C 30,6 km/h (5 Bft) 95,65 %
02.01.2018 04:32 5,1 C 3,9 C 82 % 1007,1 hPa 0,0 l/m 12,9 km/h (3 Bft) SW 225 0 min 0,000 mm 0,0 UV-I 0 W/m 2,3 C 0,3 C 20,9 km/h (4 Bft) 95,65 %
02.01.2018 04:33 5,2 C 3,9 C 82 % 1007,1 hPa 0,0 l/m 16,1 km/h (3 Bft) W-SW 247 0 min 0,000 mm 0,0 UV-I 0 W/m 2,4 C -1,2 C 22,5 km/h (4 Bft) 100,00 %
02.01.2018 04:34 5,2 C 3,9 C 82 % 1007,1 hPa 0,0 l/m 12,9 km/h (3 Bft) SW 225 0 min 0,000 mm 0,0 UV-I 0 W/m 2,4 C 0,5 C 17,7 km/h (3 Bft) 95,65 %
02.01.2018 04:35 5,2 C 3,9 C 82 % 1007,2 hPa 0,0 l/m 16,1 km/h (3 Bft) SW 225 0 min 0,000 mm 0,0 UV-I 0 W/m 2,4 C -1,2 C 22,5 km/h (4 Bft) 100,00 %
02.01.2018 04:36 5,2 C 3,9 C 81 % 1007,2 hPa 0,0 l/m 16,1 km/h (3 Bft) W-SW 247 0 min 0,000 mm 0,0 UV-I 0 W/m 2,2 C -1,2 C 25,7 km/h (4 Bft) 95,65 %
02.01.2018 04:37 5,2 C 3,9 C 81 % 1007,1 hPa 0,2 l/m 19,3 km/h (3 Bft) SW 225 0 min 0,000 mm 0,0 UV-I 0 W/m 2,2 C -2,6 C 30,6 km/h (5 Bft) 95,65 %
02.01.2018 04:38 5,2 C 3,9 C 81 % 1007,2 hPa 0,0 l/m 19,3 km/h (3 Bft) SW 225 0 min 0,000 mm 0,0 UV-I 0 W/m 2,2 C -2,6 C 29,0 km/h (5 Bft) 95,65 %
02.01.2018 04:39 5,2 C 3,9 C 81 % 1007,2 hPa 0,0 l/m 24,1 km/h (4 Bft) SW 225 0 min 0,000 mm 0,0 UV-I 0 W/m 2,2 C -4,4 C 30,6 km/h (5 Bft) 100,00 %
02.01.2018 04:40 5,3 C 3,9 C 81 % 1007,2 hPa 0,0 l/m 19,3 km/h (3 Bft) SW 225 0 min 0,000 mm 0,0 UV-I 0 W/m 2,3 C -2,5 C 29,0 km/h (5 Bft) 95,65 %
02.01.2018 04:41 5,3 C 3,9 C 81 % 1007,2 hPa 0,0 l/m 20,9 km/h (4 Bft) SW 225 0 min 0,000 mm 0,0 UV-I 0 W/m 2,3 C -3,1 C 32,2 km/h (5 Bft) 100,00 %
02.01.2018 04:42 5,3 C 3,9 C 80 % 1007,2 hPa 0,0 l/m 19,3 km/h (3 Bft) SW 225 0 min 0,000 mm 0,0 UV-I 0 W/m 2,1 C -2,5 C 32,2 km/h (5 Bft) 95,65 %
02.01.2018 04:43 5,3 C 3,9 C 80 % 1007,2 hPa 0,0 l/m 20,9 km/h (4 Bft) W-SW 247 0 min 0,000 mm 0,0 UV-I 0 W/m 2,1 C -3,1 C 29,0 km/h (5 Bft) 100,00 %
02.01.2018 04:44 5,3 C 3,9 C 80 % 1007,3 hPa 0,0 l/m 24,1 km/h (4 Bft) W-SW 247 0 min 0,000 mm 0,0 UV-I 0 W/m 2,1 C -4,2 C 32,2 km/h (5 Bft) 95,65 %
02.01.2018 04:45 5,3 C 3,9 C 80 % 1007,3 hPa 0,0 l/m 20,9 km/h (4 Bft) W-SW 247 0 min 0,000 mm 0,0 UV-I 0 W/m 2,1 C -3,1 C 33,8 km/h (5 Bft) 100,00 %
02.01.2018 04:46 5,3 C 3,9 C 80 % 1007,4 hPa 0,0 l/m 24,1 km/h (4 Bft) SW 225 0 min 0,000 mm 0,0 UV-I 0 W/m 2,1 C -4,2 C 35,4 km/h (5 Bft) 100,00 %
02.01.2018 04:47 5,4 C 3,9 C 80 % 1007,4 hPa 0,0 l/m 20,9 km/h (4 Bft) W-SW 247 0 min 0,000 mm 0,0 UV-I 0 W/m 2,2 C -3,0 C 32,2 km/h (5 Bft) 95,65 %
02.01.2018 04:48 5,4 C 3,9 C 80 % 1007,3 hPa 0,0 l/m 24,1 km/h (4 Bft) SW 225 0 min 0,000 mm 0,0 UV-I 0 W/m 2,2 C -4,1 C 38,6 km/h (5 Bft) 100,00 %
02.01.2018 04:49 5,4 C 3,9 C 80 % 1007,5 hPa 0,0 l/m 24,1 km/h (4 Bft) SW 225 0 min 0,000 mm 0,0 UV-I 0 W/m 2,2 C -4,1 C 38,6 km/h (5 Bft) 100,00 %
02.01.2018 04:50 5,4 C 3,9 C 79 % 1007,4 hPa 0,0 l/m 22,5 km/h (4 Bft) SW 225 0 min 0,000 mm 0,0 UV-I 0 W/m 2,1 C -3,6 C 32,2 km/h (5 Bft) 95,65 %
02.01.2018 04:51 5,5 C 3,9 C 79 % 1007,5 hPa 0,0 l/m 20,9 km/h (4 Bft) SW 225 0 min 0,000 mm 0,0 UV-I 0 W/m 2,2 C -2,9 C 27,4 km/h (4 Bft) 95,65 %
02.01.2018 04:52 5,4 C 3,9 C 79 % 1007,4 hPa 0,0 l/m 22,5 km/h (4 Bft) W-SW 247 0 min 0,000 mm 0,0 UV-I 0 W/m 2,1 C -3,6 C 30,6 km/h (5 Bft) 95,65 %
02.01.2018 04:53 5,4 C 3,9 C 79 % 1007,4 hPa 0,0 l/m 22,5 km/h (4 Bft) SW 225 0 min 0,000 mm 0,0 UV-I 0 W/m 2,1 C -3,6 C 40,2 km/h (6 Bft) 100,00 %
02.01.2018 04:54 5,4 C 3,9 C 80 % 1007,4 hPa 0,0 l/m 24,1 km/h (4 Bft) SW 225 0 min 0,000 mm 0,0 UV-I 0 W/m 2,2 C -4,1 C 40,2 km/h (6 Bft) 95,65 %
02.01.2018 04:55 5,4 C 3,9 C 80 % 1007,4 hPa 0,0 l/m 19,3 km/h (3 Bft) W-SW 247 0 min 0,000 mm 0,0 UV-I 0 W/m 2,2 C -2,4 C 40,2 km/h (6 Bft) 95,65 %
02.01.2018 04:56 5,3 C 3,9 C 80 % 1007,4 hPa 0,0 l/m 20,9 km/h (4 Bft) SW 225 0 min 0,000 mm 0,0 UV-I 0 W/m 2,1 C -3,1 C 30,6 km/h (5 Bft) 95,65 %
02.01.2018 04:57 5,3 C 3,9 C 80 % 1007,5 hPa 0,0 l/m 22,5 km/h (4 Bft) SW 225 0 min 0,000 mm 0,0 UV-I 0 W/m 2,1 C -3,7 C 37,0 km/h (5 Bft) 100,00 %
02.01.2018 04:58 5,3 C 3,9 C 80 % 1007,5 hPa 0,0 l/m 20,9 km/h (4 Bft) SW 225 0 min 0,000 mm 0,0 UV-I 0 W/m 2,1 C -3,1 C 30,6 km/h (5 Bft) 91,30 %
02.01.2018 04:59 5,3 C 3,9 C 80 % 1007,4 hPa 0,0 l/m 24,1 km/h (4 Bft) SW 225 0 min 0,000 mm 0,0 UV-I 0 W/m 2,1 C -4,2 C 32,2 km/h (5 Bft) 100,00 %
02.01.2018 05:00 5,3 C 3,9 C 80 % 1007,4 hPa 0,0 l/m 24,1 km/h (4 Bft) W-SW 247 0 min 0,025 mm 0,0 UV-I 0 W/m 2,1 C -4,2 C 30,6 km/h (5 Bft) 91,30 %
02.01.2018 05:01 5,3 C 3,9 C 79 % 1007,4 hPa 0,0 l/m 25,7 km/h (4 Bft) SW 225 0 min 0,000 mm 0,0 UV-I 0 W/m 2,0 C -4,8 C 38,6 km/h (5 Bft) 100,00 %
02.01.2018 05:02 5,3 C 3,9 C 79 % 1007,4 hPa 0,0 l/m 20,9 km/h (4 Bft) W-SW 247 0 min 0,000 mm 0,0 UV-I 0 W/m 2,0 C -3,1 C 29,0 km/h (5 Bft) 95,65 %
02.01.2018 05:03 5,3 C 3,9 C 80 % 1007,5 hPa 0,0 l/m 24,1 km/h (4 Bft) W-SW 247 0 min 0,000 mm 0,0 UV-I 0 W/m 2,1 C -4,2 C 33,8 km/h (5 Bft) 100,00 %
02.01.2018 05:04 5,3 C 3,9 C 80 % 1007,5 hPa 0,0 l/m 20,9 km/h (4 Bft) W-SW 247 0 min 0,000 mm 0,0 UV-I 0 W/m 2,1 C -3,1 C 27,4 km/h (4 Bft) 95,65 %
02.01.2018 05:05 5,3 C 3,9 C 80 % 1007,6 hPa 0,0 l/m 24,1 km/h (4 Bft) W-SW 247 0 min 0,000 mm 0,0 UV-I 0 W/m 2,1 C -4,2 C 33,8 km/h (5 Bft) 91,30 %
02.01.2018 05:06 5,3 C 3,9 C 80 % 1007,5 hPa 0,0 l/m 27,4 km/h (4 Bft) W-SW 247 0 min 0,000 mm 0,0 UV-I 0 W/m 2,1 C -5,3 C 37,0 km/h (5 Bft) 100,00 %
02.01.2018 05:07 5,3 C 3,9 C 80 % 1007,5 hPa 0,0 l/m 25,7 km/h (4 Bft) W-SW 247 0 min 0,000 mm 0,0 UV-I 0 W/m 2,1 C -4,8 C 35,4 km/h (5 Bft) 95,65 %
02.01.2018 05:08 5,3 C 3,9 C 79 % 1007,6 hPa 0,0 l/m 20,9 km/h (4 Bft) W-SW 247 0 min 0,000 mm 0,0 UV-I 0 W/m 2,0 C -3,1 C 27,4 km/h (4 Bft) 100,00 %
02.01.2018 05:09 5,3 C 3,9 C 79 % 1007,6 hPa 0,0 l/m 20,9 km/h (4 Bft) SW 225 0 min 0,000 mm 0,0 UV-I 0 W/m 2,0 C -3,1 C 25,7 km/h (4 Bft) 95,65 %
02.01.2018 05:10 5,4 C 3,9 C 79 % 1007,6 hPa 0,0 l/m 24,1 km/h (4 Bft) W 270 0 min 0,000 mm 0,0 UV-I 0 W/m 2,1 C -4,1 C 33,8 km/h (5 Bft) 100,00 %
02.01.2018 05:11 5,4 C 3,9 C 79 % 1007,6 hPa 0,0 l/m 19,3 km/h (3 Bft) W 270 0 min 0,000 mm 0,0 UV-I 0 W/m 2,1 C -2,4 C 32,2 km/h (5 Bft) 95,65 %
02.01.2018 05:12 5,4 C 3,9 C 79 % 1007,6 hPa 0,0 l/m 20,9 km/h (4 Bft) W-SW 247 0 min 0,000 mm 0,0 UV-I 0 W/m 2,1 C -3,0 C 30,6 km/h (5 Bft) 95,65 %
02.01.2018 05:13 5,4 C 3,9 C 79 % 1007,6 hPa 0,0 l/m 24,1 km/h (4 Bft) W-SW 247 0 min 0,000 mm 0,0 UV-I 0 W/m 2,1 C -4,1 C 32,2 km/h (5 Bft) 95,65 %
02.01.2018 05:14 5,4 C 3,9 C 78 % 1007,6 hPa 0,0 l/m 24,1 km/h (4 Bft) SW 225 0 min 0,000 mm 0,0 UV-I 0 W/m 1,9 C -4,1 C 38,6 km/h (5 Bft) 100,00 %
02.01.2018 05:15 5,5 C 3,9 C 78 % 1007,6 hPa 0,0 l/m 22,5 km/h (4 Bft) W-SW 247 0 min 0,000 mm 0,0 UV-I 0 W/m 2,0 C -3,4 C 40,2 km/h (6 Bft) 100,00 %
02.01.2018 05:16 5,6 C 3,9 C 77 % 1007,7 hPa 0,0 l/m 22,5 km/h (4 Bft) W 270 0 min 0,000 mm 0,0 UV-I 0 W/m 1,9 C -3,3 C 32,2 km/h (5 Bft) 95,65 %
02.01.2018 05:17 5,6 C 3,9 C 77 % 1007,7 hPa 0,0 l/m 24,1 km/h (4 Bft) W-SW 247 0 min 0,000 mm 0,0 UV-I 0 W/m 1,9 C -3,8 C 33,8 km/h (5 Bft) 100,00 %
02.01.2018 05:18 5,7 C 3,9 C 77 % 1007,7 hPa 0,0 l/m 20,9 km/h (4 Bft) W 270 0 min 0,000 mm 0,0 UV-I 0 W/m 2,0 C -2,6 C 27,4 km/h (4 Bft) 100,00 %
02.01.2018 05:19 5,7 C 3,9 C 77 % 1007,7 hPa 0,0 l/m 22,5 km/h (4 Bft) W-SW 247 0 min 0,000 mm 0,0 UV-I 0 W/m 2,0 C -3,2 C 30,6 km/h (5 Bft) 95,65 %
02.01.2018 05:20 5,7 C 3,9 C 77 % 1007,8 hPa 0,0 l/m 22,5 km/h (4 Bft) W-SW 247 0 min 0,000 mm 0,0 UV-I 0 W/m 2,0 C -3,2 C 33,8 km/h (5 Bft) 100,00 %
02.01.2018 05:21 5,7 C 3,9 C 76 % 1007,7 hPa 0,0 l/m 17,7 km/h (3 Bft) W-SW 247 0 min 0,000 mm 0,0 UV-I 0 W/m 1,8 C -1,3 C 24,1 km/h (4 Bft) 100,00 %
02.01.2018 05:22 5,7 C 3,9 C 77 % 1007,8 hPa 0,0 l/m 17,7 km/h (3 Bft) W-SW 247 0 min 0,000 mm 0,0 UV-I 0 W/m 2,0 C -1,3 C 30,6 km/h (5 Bft) 100,00 %
02.01.2018 05:23 5,7 C 3,9 C 76 % 1007,8 hPa 0,0 l/m 17,7 km/h (3 Bft) W-SW 247 0 min 0,000 mm 0,0 UV-I 0 W/m 1,8 C -1,3 C 30,6 km/h (5 Bft) 95,65 %
02.01.2018 05:24 5,7 C 3,9 C 76 % 1007,8 hPa 0,0 l/m 19,3 km/h (3 Bft) SW 225 0 min 0,000 mm 0,0 UV-I 0 W/m 1,8 C -2,0 C 30,6 km/h (5 Bft) 100,00 %
02.01.2018 05:25 5,7 C 3,9 C 77 % 1007,9 hPa 0,0 l/m 17,7 km/h (3 Bft) W-SW 247 0 min 0,000 mm 0,0 UV-I 0 W/m 2,0 C -1,3 C 29,0 km/h (5 Bft) 100,00 %
02.01.2018 05:26 5,6 C 3,9 C 77 % 1007,8 hPa 0,0 l/m 19,3 km/h (3 Bft) W-SW 247 0 min 0,000 mm 0,0 UV-I 0 W/m 1,9 C -2,1 C 25,7 km/h (4 Bft) 95,65 %
02.01.2018 05:27 5,7 C 3,9 C 77 % 1007,9 hPa 0,0 l/m 17,7 km/h (3 Bft) SW 225 0 min 0,000 mm 0,0 UV-I 0 W/m 2,0 C -1,3 C 29,0 km/h (5 Bft) 100,00 %
02.01.2018 05:28 5,7 C 3,9 C 77 % 1007,9 hPa 0,0 l/m 17,7 km/h (3 Bft) SW 225 0 min 0,000 mm 0,0 UV-I 0 W/m 2,0 C -1,3 C 27,4 km/h (4 Bft) 95,65 %
02.01.2018 05:29 5,7 C 3,9 C 77 % 1007,9 hPa 0,0 l/m 22,5 km/h (4 Bft) SW 225 0 min 0,000 mm 0,0 UV-I 0 W/m 2,0 C -3,2 C 29,0 km/h (5 Bft) 100,00 %
02.01.2018 05:30 5,7 C 3,9 C 77 % 1008,0 hPa 0,0 l/m 16,1 km/h (3 Bft) SW 225 0 min 0,000 mm 0,0 UV-I 0 W/m 2,0 C -0,6 C 20,9 km/h (4 Bft) 100,00 %
02.01.2018 05:31 5,7 C 3,9 C 77 % 1008,0 hPa 0,0 l/m 16,1 km/h (3 Bft) W-SW 247 0 min 0,000 mm 0,0 UV-I 0 W/m 2,0 C -0,6 C 20,9 km/h (4 Bft) 95,65 %
02.01.2018 05:32 5,6 C 3,9 C 77 % 1007,9 hPa 0,0 l/m 17,7 km/h (3 Bft) W-SW 247 0 min 0,000 mm 0,0 UV-I 0 W/m 1,9 C -1,5 C 37,0 km/h (5 Bft) 100,00 %
02.01.2018 05:33 5,6 C 3,9 C 76 % 1008,0 hPa 0,0 l/m 24,1 km/h (4 Bft) SW 225 0 min 0,000 mm 0,0 UV-I 0 W/m 1,7 C -3,8 C 32,2 km/h (5 Bft) 95,65 %
02.01.2018 05:34 5,7 C 3,9 C 76 % 1007,9 hPa 0,0 l/m 25,7 km/h (4 Bft) W-SW 247 0 min 0,000 mm 0,0 UV-I 0 W/m 1,8 C -4,2 C 37,0 km/h (5 Bft) 100,00 %
02.01.2018 05:35 5,8 C 3,9 C 75 % 1008,0 hPa 0,0 l/m 19,3 km/h (3 Bft) W-SW 247 0 min 0,000 mm 0,0 UV-I 0 W/m 1,7 C -1,9 C 25,7 km/h (4 Bft) 100,00 %
02.01.2018 05:36 5,8 C 3,9 C 75 % 1008,1 hPa 0,0 l/m 20,9 km/h (4 Bft) W-SW 247 0 min 0,000 mm 0,0 UV-I 0 W/m 1,7 C -2,5 C 32,2 km/h (5 Bft) 100,00 %
02.01.2018 05:37 5,8 C 3,9 C 75 % 1008,1 hPa 0,0 l/m 24,1 km/h (4 Bft) W-SW 247 0 min 0,000 mm 0,0 UV-I 0 W/m 1,7 C -3,6 C 38,6 km/h (5 Bft) 100,00 %
02.01.2018 05:38 5,8 C 3,9 C 75 % 1008,0 hPa 0,0 l/m 25,7 km/h (4 Bft) W-SW 247 0 min 0,000 mm 0,0 UV-I 0 W/m 1,7 C -4,1 C 35,4 km/h (5 Bft) 100,00 %
02.01.2018 05:39 5,9 C 3,9 C 74 % 1008,1 hPa 0,0 l/m 24,1 km/h (4 Bft) W-SW 247 0 min 0,000 mm 0,0 UV-I 0 W/m 1,6 C -3,4 C 33,8 km/h (5 Bft) 100,00 %
02.01.2018 05:40 5,9 C 3,9 C 74 % 1008,1 hPa 0,0 l/m 24,1 km/h (4 Bft) W 270 0 min 0,000 mm 0,0 UV-I 0 W/m 1,6 C -3,4 C 33,8 km/h (5 Bft) 95,65 %
02.01.2018 05:41 5,9 C 3,9 C 74 % 1008,2 hPa 0,0 l/m 27,4 km/h (4 Bft) W-SW 247 0 min 0,000 mm 0,0 UV-I 0 W/m 1,6 C -4,4 C 33,8 km/h (5 Bft) 100,00 %
02.01.2018 05:42 5,9 C 3,9 C 74 % 1008,1 hPa 0,0 l/m 25,7 km/h (4 Bft) W-SW 247 0 min 0,000 mm 0,0 UV-I 0 W/m 1,6 C -3,9 C 37,0 km/h (5 Bft) 100,00 %
02.01.2018 05:43 6,0 C 3,9 C 74 % 1008,2 hPa 0,0 l/m 27,4 km/h (4 Bft) W-SW 247 0 min 0,000 mm 0,0 UV-I 0 W/m 1,7 C -4,3 C 37,0 km/h (5 Bft) 95,65 %
02.01.2018 05:44 6,0 C 3,9 C 74 % 1008,2 hPa 0,0 l/m 17,7 km/h (3 Bft) SW 225 0 min 0,000 mm 0,0 UV-I 0 W/m 1,7 C -1,0 C 27,4 km/h (4 Bft) 100,00 %
02.01.2018 05:45 6,0 C 3,9 C 74 % 1008,3 hPa 0,0 l/m 20,9 km/h (4 Bft) SW 225 0 min 0,000 mm 0,0 UV-I 0 W/m 1,7 C -2,2 C 27,4 km/h (4 Bft) 100,00 %
02.01.2018 05:46 5,9 C 3,9 C 74 % 1008,3 hPa 0,0 l/m 20,9 km/h (4 Bft) W-SW 247 0 min 0,000 mm 0,0 UV-I 0 W/m 1,6 C -2,3 C 30,6 km/h (5 Bft) 100,00 %
02.01.2018 05:47 5,9 C 3,9 C 74 % 1008,3 hPa 0,0 l/m 25,7 km/h (4 Bft) W-SW 247 0 min 0,000 mm 0,0 UV-I 0 W/m 1,6 C -3,9 C 32,2 km/h (5 Bft) 91,30 %
02.01.2018 05:48 5,9 C 3,9 C 74 % 1008,3 hPa 0,0 l/m 20,9 km/h (4 Bft) W-SW 247 0 min 0,000 mm 0,0 UV-I 0 W/m 1,6 C -2,3 C 25,7 km/h (4 Bft) 100,00 %
02.01.2018 05:49 5,8 C 3,9 C 74 % 1008,4 hPa 0,0 l/m 22,5 km/h (4 Bft) W-SW 247 0 min 0,000 mm 0,0 UV-I 0 W/m 1,5 C -3,0 C 33,8 km/h (5 Bft) 100,00 %
02.01.2018 05:50 5,8 C 3,9 C 74 % 1008,3 hPa 0,0 l/m 17,7 km/h (3 Bft) SW 225 0 min 0,000 mm 0,0 UV-I 0 W/m 1,5 C -1,2 C 25,7 km/h (4 Bft) 100,00 %
02.01.2018 05:51 5,8 C 3,9 C 74 % 1008,3 hPa 0,0 l/m 19,3 km/h (3 Bft) W-SW 247 0 min 0,000 mm 0,0 UV-I 0 W/m 1,5 C -1,9 C 27,4 km/h (4 Bft) 100,00 %
02.01.2018 05:52 5,8 C 3,9 C 74 % 1008,4 hPa 0,0 l/m 17,7 km/h (3 Bft) SW 225 0 min 0,000 mm 0,0 UV-I 0 W/m 1,5 C -1,2 C 27,4 km/h (4 Bft) 95,65 %
02.01.2018 05:53 5,8 C 3,9 C 74 % 1008,4 hPa 0,0 l/m 22,5 km/h (4 Bft) SW 225 0 min 0,000 mm 0,0 UV-I 0 W/m 1,5 C -3,0 C 29,0 km/h (5 Bft) 100,00 %
02.01.2018 05:54 5,8 C 3,9 C 74 % 1008,4 hPa 0,0 l/m 24,1 km/h (4 Bft) SW 225 0 min 0,000 mm 0,0 UV-I 0 W/m 1,5 C -3,6 C 32,2 km/h (5 Bft) 95,65 %
02.01.2018 05:55 5,8 C 3,9 C 74 % 1008,5 hPa 0,0 l/m 20,9 km/h (4 Bft) SW 225 0 min 0,000 mm 0,0 UV-I 0 W/m 1,5 C -2,5 C 27,4 km/h (4 Bft) 100,00 %
02.01.2018 05:56 5,8 C 3,9 C 75 % 1008,5 hPa 0,0 l/m 19,3 km/h (3 Bft) SW 225 0 min 0,000 mm 0,0 UV-I 0 W/m 1,7 C -1,9 C 29,0 km/h (5 Bft) 100,00 %
02.01.2018 05:57 5,7 C 3,9 C 75 % 1008,5 hPa 0,0 l/m 17,7 km/h (3 Bft) SW 225 0 min 0,000 mm 0,0 UV-I 0 W/m 1,6 C -1,3 C 24,1 km/h (4 Bft) 100,00 %
02.01.2018 05:58 5,7 C 3,9 C 75 % 1008,5 hPa 0,0 l/m 17,7 km/h (3 Bft) SW 225 0 min 0,000 mm 0,0 UV-I 0 W/m 1,6 C -1,3 C 24,1 km/h (4 Bft) 100,00 %
02.01.2018 05:59 5,7 C 3,9 C 76 % 1008,6 hPa 0,0 l/m 17,7 km/h (3 Bft) W-SW 247 0 min 0,000 mm 0,0 UV-I 0 W/m 1,8 C -1,3 C 35,4 km/h (5 Bft) 100,00 %
02.01.2018 06:00 5,7 C 3,9 C 76 % 1008,5 hPa 0,0 l/m 19,3 km/h (3 Bft) SW 225 0 min 0,051 mm 0,0 UV-I 0 W/m 1,8 C -2,0 C 29,0 km/h (5 Bft) 100,00 %
02.01.2018 06:01 5,7 C 3,9 C 76 % 1008,6 hPa 0,0 l/m 20,9 km/h (4 Bft) SW 225 0 min 0,000 mm 0,0 UV-I 0 W/m 1,8 C -2,6 C 27,4 km/h (4 Bft) 95,65 %
02.01.2018 06:02 5,7 C 3,9 C 75 % 1008,6 hPa 0,0 l/m 24,1 km/h (4 Bft) SW 225 0 min 0,000 mm 0,0 UV-I 0 W/m 1,6 C -3,7 C 32,2 km/h (5 Bft) 100,00 %
02.01.2018 06:03 5,8 C 3,9 C 75 % 1008,6 hPa 0,0 l/m 16,1 km/h (3 Bft) SW 225 0 min 0,000 mm 0,0 UV-I 0 W/m 1,7 C -0,5 C 20,9 km/h (4 Bft) 100,00 %
02.01.2018 06:04 5,8 C 3,9 C 75 % 1008,6 hPa 0,0 l/m 19,3 km/h (3 Bft) SW 225 0 min 0,000 mm 0,0 UV-I 0 W/m 1,7 C -1,9 C 27,4 km/h (4 Bft) 100,00 %
02.01.2018 06:05 5,8 C 3,9 C 75 % 1008,6 hPa 0,0 l/m 20,9 km/h (4 Bft) SW 225 0 min 0,000 mm 0,0 UV-I 0 W/m 1,7 C -2,5 C 30,6 km/h (5 Bft) 100,00 %
02.01.2018 06:06 5,8 C 3,9 C 75 % 1008,6 hPa 0,0 l/m 16,1 km/h (3 Bft) SW 225 0 min 0,000 mm 0,0 UV-I 0 W/m 1,7 C -0,5 C 22,5 km/h (4 Bft) 95,65 %
02.01.2018 06:07 5,8 C 3,9 C 75 % 1008,6 hPa 0,0 l/m 20,9 km/h (4 Bft) W-SW 247 0 min 0,000 mm 0,0 UV-I 0 W/m 1,7 C -2,5 C 27,4 km/h (4 Bft) 95,65 %
02.01.2018 06:08 5,9 C 3,9 C 75 % 1008,6 hPa 0,0 l/m 16,1 km/h (3 Bft) SW 225 0 min 0,000 mm 0,0 UV-I 0 W/m 1,8 C -0,4 C 20,9 km/h (4 Bft) 95,65 %
02.01.2018 06:09 5,9 C 3,9 C 76 % 1008,7 hPa 0,0 l/m 17,7 km/h (3 Bft) SW 225 0 min 0,000 mm 0,0 UV-I 0 W/m 2,0 C -1,1 C 24,1 km/h (4 Bft) 100,00 %
02.01.2018 06:10 5,8 C 3,9 C 76 % 1008,7 hPa 0,0 l/m 22,5 km/h (4 Bft) SW 225 0 min 0,000 mm 0,0 UV-I 0 W/m 1,9 C -3,0 C 29,0 km/h (5 Bft) 95,65 %
02.01.2018 06:11 5,8 C 3,9 C 76 % 1008,7 hPa 0,0 l/m 17,7 km/h (3 Bft) SW 225 0 min 0,000 mm 0,0 UV-I 0 W/m 1,9 C -1,2 C 30,6 km/h (5 Bft) 100,00 %
02.01.2018 06:12 5,8 C 3,9 C 76 % 1008,7 hPa 0,0 l/m 17,7 km/h (3 Bft) SW 225 0 min 0,000 mm 0,0 UV-I 0 W/m 1,9 C -1,2 C 24,1 km/h (4 Bft) 100,00 %
02.01.2018 06:13 5,8 C 3,9 C 76 % 1008,8 hPa 0,0 l/m 16,1 km/h (3 Bft) W-SW 247 0 min 0,000 mm 0,0 UV-I 0 W/m 1,9 C -0,5 C 22,5 km/h (4 Bft) 100,00 %
02.01.2018 06:14 5,8 C 3,9 C 76 % 1008,8 hPa 0,0 l/m 17,7 km/h (3 Bft) SW 225 0 min 0,000 mm 0,0 UV-I 0 W/m 1,9 C -1,2 C 25,7 km/h (4 Bft) 100,00 %
02.01.2018 06:15 5,8 C 3,9 C 76 % 1008,8 hPa 0,0 l/m 16,1 km/h (3 Bft) W-SW 247 0 min 0,000 mm 0,0 UV-I 0 W/m 1,9 C -0,5 C 20,9 km/h (4 Bft) 95,65 %
02.01.2018 06:16 5,8 C 3,9 C 76 % 1008,8 hPa 0,0 l/m 17,7 km/h (3 Bft) S-SW 202 0 min 0,000 mm 0,0 UV-I 0 W/m 1,9 C -1,2 C 22,5 km/h (4 Bft) 91,30 %
02.01.2018 06:17 5,8 C 3,9 C 76 % 1008,8 hPa 0,0 l/m 17,7 km/h (3 Bft) SW 225 0 min 0,000 mm 0,0 UV-I 0 W/m 1,9 C -1,2 C 27,4 km/h (4 Bft) 100,00 %
02.01.2018 06:18 5,8 C 3,9 C 77 % 1008,8 hPa 0,0 l/m 20,9 km/h (4 Bft) SW 225 0 min 0,000 mm 0,0 UV-I 0 W/m 2,1 C -2,5 C 29,0 km/h (5 Bft) 95,65 %
02.01.2018 06:19 5,8 C 3,9 C 77 % 1008,9 hPa 0,0 l/m 16,1 km/h (3 Bft) S-SW 202 0 min 0,000 mm 0,0 UV-I 0 W/m 2,1 C -0,5 C 29,0 km/h (5 Bft) 100,00 %
02.01.2018 06:20 5,8 C 3,9 C 77 % 1008,9 hPa 0,0 l/m 16,1 km/h (3 Bft) S-SW 202 0 min 0,000 mm 0,0 UV-I 0 W/m 2,1 C -0,5 C 20,9 km/h (4 Bft) 95,65 %
02.01.2018 06:21 5,8 C 3,9 C 77 % 1008,9 hPa 0,0 l/m 20,9 km/h (4 Bft) SW 225 0 min 0,000 mm 0,0 UV-I 0 W/m 2,1 C -2,5 C 27,4 km/h (4 Bft) 95,65 %
02.01.2018 06:22 5,8 C 3,9 C 77 % 1008,9 hPa 0,0 l/m 19,3 km/h (3 Bft) S-SW 202 0 min 0,000 mm 0,0 UV-I 0 W/m 2,1 C -1,9 C 27,4 km/h (4 Bft) 95,65 %
02.01.2018 06:23 5,8 C 3,9 C 77 % 1008,9 hPa 0,0 l/m 24,1 km/h (4 Bft) SW 225 0 min 0,000 mm 0,0 UV-I 0 W/m 2,1 C -3,6 C 30,6 km/h (5 Bft) 91,30 %
02.01.2018 06:24 5,8 C 3,9 C 77 % 1009,0 hPa 0,0 l/m 19,3 km/h (3 Bft) W-SW 247 0 min 0,000 mm 0,0 UV-I 0 W/m 2,1 C -1,9 C 27,4 km/h (4 Bft) 91,30 %
02.01.2018 06:25 5,8 C 3,9 C 77 % 1009,0 hPa 0,0 l/m 25,7 km/h (4 Bft) SW 225 0 min 0,000 mm 0,0 UV-I 0 W/m 2,1 C -4,1 C 37,0 km/h (5 Bft) 95,65 %
02.01.2018 06:26 5,8 C 3,9 C 76 % 1009,0 hPa 0,0 l/m 22,5 km/h (4 Bft) SW 225 0 min 0,000 mm 0,0 UV-I 0 W/m 1,9 C -3,0 C 29,0 km/h (5 Bft) 95,65 %
02.01.2018 06:27 5,8 C 3,9 C 76 % 1009,0 hPa 0,0 l/m 24,1 km/h (4 Bft) SW 225 0 min 0,000 mm 0,0 UV-I 0 W/m 1,9 C -3,6 C 33,8 km/h (5 Bft) 95,65 %
02.01.2018 06:28 5,8 C 3,9 C 76 % 1009,2 hPa 0,0 l/m 24,1 km/h (4 Bft) SW 225 0 min 0,000 mm 0,0 UV-I 0 W/m 1,9 C -3,6 C 40,2 km/h (6 Bft) 95,65 %
02.01.2018 06:29 5,9 C 3,9 C 75 % 1008,9 hPa 0,0 l/m 27,4 km/h (4 Bft) SW 225 0 min 0,000 mm 0,0 UV-I 0 W/m 1,8 C -4,4 C 37,0 km/h (5 Bft) 95,65 %
02.01.2018 06:30 5,9 C 3,9 C 75 % 1008,9 hPa 0,0 l/m 27,4 km/h (4 Bft) SW 225 0 min 0,000 mm 0,0 UV-I 0 W/m 1,8 C -4,4 C 37,0 km/h (5 Bft) 86,96 %
02.01.2018 06:31 6,0 C 3,9 C 74 % 1009,0 hPa 0,0 l/m 19,3 km/h (3 Bft) SW 225 0 min 0,000 mm 0,0 UV-I 0 W/m 1,7 C -1,6 C 27,4 km/h (4 Bft) 91,30 %
02.01.2018 06:32 6,0 C 3,9 C 74 % 1009,0 hPa 0,0 l/m 19,3 km/h (3 Bft) SW 225 0 min 0,000 mm 0,0 UV-I 0 W/m 1,7 C -1,6 C 33,8 km/h (5 Bft) 91,30 %
02.01.2018 06:33 6,0 C 3,9 C 74 % 1009,0 hPa 0,0 l/m 24,1 km/h (4 Bft) SW 225 0 min 0,000 mm 0,0 UV-I 0 W/m 1,7 C -3,3 C 37,0 km/h (5 Bft) 95,65 %
02.01.2018 06:34 6,1 C 3,9 C 74 % 1009,0 hPa 0,0 l/m 27,4 km/h (4 Bft) W-SW 247 0 min 0,000 mm 0,0 UV-I 0 W/m 1,8 C -4,1 C 35,4 km/h (5 Bft) 86,96 %
02.01.2018 06:35 6,1 C 3,9 C 73 % 1009,0 hPa 0,0 l/m 25,7 km/h (4 Bft) W-SW 247 0 min 0,000 mm 0,0 UV-I 0 W/m 1,6 C -3,7 C 33,8 km/h (5 Bft) 95,65 %
02.01.2018 06:36 6,1 C 3,9 C 73 % 1009,1 hPa 0,0 l/m 20,9 km/h (4 Bft) SW 225 0 min 0,000 mm 0,0 UV-I 0 W/m 1,6 C -2,1 C 27,4 km/h (4 Bft) 91,30 %
02.01.2018 06:37 6,2 C 3,9 C 73 % 1009,1 hPa 0,0 l/m 25,7 km/h (4 Bft) W 270 0 min 0,000 mm 0,0 UV-I 0 W/m 1,7 C -3,5 C 32,2 km/h (5 Bft) 95,65 %
02.01.2018 06:38 6,2 C 3,9 C 73 % 1009,1 hPa 0,0 l/m 25,7 km/h (4 Bft) W-SW 247 0 min 0,000 mm 0,0 UV-I 0 W/m 1,7 C -3,5 C 33,8 km/h (5 Bft) 91,30 %
02.01.2018 06:39 6,2 C 3,9 C 73 % 1009,2 hPa 0,0 l/m 25,7 km/h (4 Bft) W-SW 247 0 min 0,000 mm 0,0 UV-I 0 W/m 1,7 C -3,5 C 32,2 km/h (5 Bft) 100,00 %
02.01.2018 06:40 6,1 C 3,9 C 73 % 1009,2 hPa 0,0 l/m 22,5 km/h (4 Bft) SW 225 0 min 0,000 mm 0,0 UV-I 0 W/m 1,6 C -2,6 C 27,4 km/h (4 Bft) 91,30 %
02.01.2018 06:41 6,1 C 3,9 C 73 % 1009,2 hPa 0,0 l/m 22,5 km/h (4 Bft) W-SW 247 0 min 0,000 mm 0,0 UV-I 0 W/m 1,6 C -2,6 C 32,2 km/h (5 Bft) 95,65 %
02.01.2018 06:42 6,1 C 3,9 C 72 % 1009,2 hPa 0,0 l/m 22,5 km/h (4 Bft) W-SW 247 0 min 0,000 mm 0,0 UV-I 0 W/m 1,4 C -2,6 C 33,8 km/h (5 Bft) 95,65 %
02.01.2018 06:43 6,1 C 3,9 C 72 % 1009,2 hPa 0,0 l/m 22,5 km/h (4 Bft) W-SW 247 0 min 0,000 mm 0,0 UV-I 0 W/m 1,4 C -2,6 C 30,6 km/h (5 Bft) 91,30 %
02.01.2018 06:44 6,1 C 3,9 C 72 % 1009,3 hPa 0,0 l/m 22,5 km/h (4 Bft) SW 225 0 min 0,000 mm 0,0 UV-I 0 W/m 1,4 C -2,6 C 33,8 km/h (5 Bft) 95,65 %
02.01.2018 06:45 6,1 C 3,9 C 73 % 1009,2 hPa 0,0 l/m 25,7 km/h (4 Bft) W-SW 247 0 min 0,000 mm 0,0 UV-I 0 W/m 1,6 C -3,7 C 41,8 km/h (6 Bft) 100,00 %
02.01.2018 06:46 6,1 C 3,9 C 73 % 1009,3 hPa 0,0 l/m 25,7 km/h (4 Bft) SW 225 0 min 0,000 mm 0,0 UV-I 0 W/m 1,6 C -3,7 C 41,8 km/h (6 Bft) 100,00 %
02.01.2018 06:47 6,1 C 3,9 C 73 % 1009,3 hPa 0,0 l/m 24,1 km/h (4 Bft) W-SW 247 0 min 0,000 mm 0,0 UV-I 0 W/m 1,6 C -3,2 C 35,4 km/h (5 Bft) 95,65 %
02.01.2018 06:48 6,1 C 3,9 C 73 % 1009,3 hPa 0,0 l/m 25,7 km/h (4 Bft) SW 225 0 min 0,000 mm 0,0 UV-I 0 W/m 1,6 C -3,7 C 37,0 km/h (5 Bft) 100,00 %
02.01.2018 06:49 6,1 C 3,9 C 72 % 1009,3 hPa 0,0 l/m 17,7 km/h (3 Bft) W-SW 247 0 min 0,000 mm 0,0 UV-I 0 W/m 1,4 C -0,8 C 24,1 km/h (4 Bft) 95,65 %
02.01.2018 06:50 6,1 C 3,9 C 72 % 1009,3 hPa 0,0 l/m 27,4 km/h (4 Bft) SW 225 0 min 0,000 mm 0,0 UV-I 0 W/m 1,4 C -4,1 C 49,9 km/h (6 Bft) 95,65 %
02.01.2018 06:51 6,1 C 3,9 C 72 % 1009,3 hPa 0,0 l/m 29,0 km/h (5 Bft) W-SW 247 0 min 0,000 mm 0,0 UV-I 0 W/m 1,4 C -4,6 C 48,3 km/h (6 Bft) 91,30 %
02.01.2018 06:52 6,1 C 3,9 C 72 % 1009,3 hPa 0,0 l/m 24,1 km/h (4 Bft) W-SW 247 0 min 0,000 mm 0,0 UV-I 0 W/m 1,4 C -3,2 C 33,8 km/h (5 Bft) 95,65 %
02.01.2018 06:53 6,1 C 3,9 C 72 % 1009,2 hPa 0,0 l/m 29,0 km/h (5 Bft) SW 225 0 min 0,000 mm 0,0 UV-I 0 W/m 1,4 C -4,6 C 38,6 km/h (5 Bft) 100,00 %
02.01.2018 06:54 6,1 C 3,9 C 71 % 1009,3 hPa 0,0 l/m 29,0 km/h (5 Bft) W-SW 247 0 min 0,000 mm 0,0 UV-I 0 W/m 1,2 C -4,6 C 41,8 km/h (6 Bft) 100,00 %
02.01.2018 06:55 6,1 C 3,9 C 71 % 1009,3 hPa 0,0 l/m 30,6 km/h (5 Bft) W-SW 247 0 min 0,000 mm 0,0 UV-I 0 W/m 1,2 C -5,0 C 37,0 km/h (5 Bft) 100,00 %
02.01.2018 06:56 6,1 C 3,9 C 71 % 1009,4 hPa 0,0 l/m 29,0 km/h (5 Bft) SW 225 0 min 0,000 mm 0,0 UV-I 0 W/m 1,2 C -4,6 C 38,6 km/h (5 Bft) 100,00 %
02.01.2018 06:57 6,1 C 3,9 C 71 % 1009,4 hPa 0,0 l/m 25,7 km/h (4 Bft) W-SW 247 0 min 0,000 mm 0,0 UV-I 0 W/m 1,2 C -3,7 C 32,2 km/h (5 Bft) 100,00 %
02.01.2018 06:58 6,1 C 3,9 C 71 % 1009,4 hPa 0,0 l/m 24,1 km/h (4 Bft) W-SW 247 0 min 0,000 mm 0,0 UV-I 0 W/m 1,2 C -3,2 C 35,4 km/h (5 Bft) 95,65 %
02.01.2018 06:59 6,1 C 3,9 C 71 % 1009,5 hPa 0,0 l/m 27,4 km/h (4 Bft) W-SW 247 0 min 0,000 mm 0,0 UV-I 0 W/m 1,2 C -4,1 C 37,0 km/h (5 Bft) 100,00 %
02.01.2018 07:00 6,1 C 3,9 C 70 % 1009,4 hPa 0,0 l/m 32,2 km/h (5 Bft) W 270 0 min 0,051 mm 0,0 UV-I 0 W/m 1,0 C -5,4 C 43,5 km/h (6 Bft) 100,00 %
02.01.2018 07:01 6,1 C 3,9 C 70 % 1009,5 hPa 0,0 l/m 27,4 km/h (4 Bft) W-SW 247 0 min 0,000 mm 0,0 UV-I 0 W/m 1,0 C -4,1 C 38,6 km/h (5 Bft) 100,00 %
02.01.2018 07:02 6,1 C 3,9 C 70 % 1009,5 hPa 0,0 l/m 27,4 km/h (4 Bft) W-SW 247 0 min 0,000 mm 0,0 UV-I 0 W/m 1,0 C -4,1 C 40,2 km/h (6 Bft) 95,65 %
02.01.2018 07:03 6,1 C 3,9 C 70 % 1009,5 hPa 0,0 l/m 24,1 km/h (4 Bft) W-SW 247 0 min 0,000 mm 0,0 UV-I 0 W/m 1,0 C -3,2 C 33,8 km/h (5 Bft) 100,00 %
02.01.2018 07:04 6,1 C 3,9 C 70 % 1009,5 hPa 0,0 l/m 25,7 km/h (4 Bft) W-SW 247 0 min 0,000 mm 0,0 UV-I 0 W/m 1,0 C -3,7 C 35,4 km/h (5 Bft) 100,00 %
02.01.2018 07:05 6,1 C 3,9 C 70 % 1009,6 hPa 0,0 l/m 29,0 km/h (5 Bft) W-SW 247 0 min 0,000 mm 0,0 UV-I 0 W/m 1,0 C -4,6 C 37,0 km/h (5 Bft) 95,65 %
02.01.2018 07:06 6,1 C 3,9 C 70 % 1009,5 hPa 0,0 l/m 20,9 km/h (4 Bft) W-SW 247 0 min 0,000 mm 0,0 UV-I 0 W/m 1,0 C -2,1 C 30,6 km/h (5 Bft) 100,00 %
02.01.2018 07:07 6,1 C 3,9 C 70 % 1009,6 hPa 0,0 l/m 25,7 km/h (4 Bft) W 270 0 min 0,000 mm 0,0 UV-I 0 W/m 1,0 C -3,7 C 37,0 km/h (5 Bft) 100,00 %
02.01.2018 07:08 6,1 C 3,9 C 70 % 1009,6 hPa 0,0 l/m 24,1 km/h (4 Bft) W-SW 247 0 min 0,000 mm 0,0 UV-I 0 W/m 1,0 C -3,2 C 30,6 km/h (5 Bft) 100,00 %
02.01.2018 07:09 6,0 C 3,9 C 70 % 1009,7 hPa 0,0 l/m 19,3 km/h (3 Bft) W 270 0 min 0,000 mm 0,0 UV-I 0 W/m 1,0 C -1,6 C 24,1 km/h (4 Bft) 100,00 %
02.01.2018 07:10 6,1 C 3,9 C 70 % 1009,7 hPa 0,0 l/m 25,7 km/h (4 Bft) W-SW 247 0 min 0,000 mm 0,0 UV-I 0 W/m 1,0 C -3,7 C 32,2 km/h (5 Bft) 95,65 %
02.01.2018 07:11 6,1 C 3,9 C 70 % 1009,7 hPa 0,0 l/m 19,3 km/h (3 Bft) W-SW 247 0 min 0,000 mm 0,0 UV-I 0 W/m 1,0 C -1,5 C 27,4 km/h (4 Bft) 100,00 %
02.01.2018 07:12 6,1 C 3,9 C 70 % 1009,7 hPa 0,0 l/m 19,3 km/h (3 Bft) W-SW 247 0 min 0,000 mm 0,0 UV-I 0 W/m 1,0 C -1,5 C 25,7 km/h (4 Bft) 95,65 %
02.01.2018 07:13 6,0 C 3,9 C 71 % 1009,7 hPa 0,0 l/m 20,9 km/h (4 Bft) W-SW 247 0 min 0,000 mm 0,0 UV-I 0 W/m 1,1 C -2,2 C 27,4 km/h (4 Bft) 100,00 %
02.01.2018 07:14 5,9 C 3,9 C 71 % 1009,6 hPa 0,0 l/m 17,7 km/h (3 Bft) W 270 0 min 0,000 mm 0,0 UV-I 0 W/m 1,1 C -1,1 C 24,1 km/h (4 Bft) 100,00 %
02.01.2018 07:15 5,9 C 3,9 C 71 % 1009,7 hPa 0,0 l/m 20,9 km/h (4 Bft) W-SW 247 0 min 0,000 mm 0,0 UV-I 0 W/m 1,1 C -2,3 C 27,4 km/h (4 Bft) 100,00 %
02.01.2018 07:16 5,9 C 3,9 C 71 % 1009,7 hPa 0,0 l/m 19,3 km/h (3 Bft) W-SW 247 0 min 0,000 mm 0,0 UV-I 0 W/m 1,1 C -1,7 C 24,1 km/h (4 Bft) 100,00 %
02.01.2018 07:17 5,9 C 3,9 C 71 % 1009,7 hPa 0,0 l/m 19,3 km/h (3 Bft) W-SW 247 0 min 0,000 mm 0,0 UV-I 0 W/m 1,1 C -1,7 C 25,7 km/h (4 Bft) 100,00 %
02.01.2018 07:18 5,8 C 3,9 C 71 % 1009,7 hPa 0,0 l/m 20,9 km/h (4 Bft) W-SW 247 0 min 0,000 mm 0,0 UV-I 0 W/m 1,0 C -2,5 C 27,4 km/h (4 Bft) 100,00 %
02.01.2018 07:19 5,8 C 3,9 C 71 % 1009,7 hPa 0,0 l/m 17,7 km/h (3 Bft) W-SW 247 0 min 0,000 mm 0,0 UV-I 0 W/m 1,0 C -1,2 C 27,4 km/h (4 Bft) 95,65 %
02.01.2018 07:20 5,8 C 3,9 C 71 % 1009,7 hPa 0,0 l/m 19,3 km/h (3 Bft) W-SW 247 0 min 0,000 mm 0,0 UV-I 0 W/m 1,0 C -1,9 C 25,7 km/h (4 Bft) 100,00 %
02.01.2018 07:21 5,8 C 3,9 C 71 % 1009,7 hPa 0,0 l/m 22,5 km/h (4 Bft) W-SW 247 0 min 0,000 mm 0,0 UV-I 0 W/m 1,0 C -3,0 C 27,4 km/h (4 Bft) 100,00 %
02.01.2018 07:22 5,9 C 3,9 C 71 % 1009,7 hPa 0,0 l/m 17,7 km/h (3 Bft) SW 225 0 min 0,000 mm 0,0 UV-I 0 W/m 1,1 C -1,1 C 25,7 km/h (4 Bft) 95,65 %
02.01.2018 07:23 5,8 C 3,9 C 72 % 1009,7 hPa 0,0 l/m 17,7 km/h (3 Bft) W-SW 247 0 min 0,000 mm 0,0 UV-I 0 W/m 1,2 C -1,2 C 25,7 km/h (4 Bft) 100,00 %
02.01.2018 07:24 5,8 C 3,9 C 72 % 1009,8 hPa 0,0 l/m 12,9 km/h (3 Bft) W-SW 247 0 min 0,000 mm 0,0 UV-I 0 W/m 1,2 C 1,2 C 19,3 km/h (3 Bft) 100,00 %
02.01.2018 07:25 5,8 C 3,9 C 72 % 1010,0 hPa 0,0 l/m 17,7 km/h (3 Bft) W-SW 247 0 min 0,000 mm 0,0 UV-I 0 W/m 1,2 C -1,2 C 24,1 km/h (4 Bft) 100,00 %
02.01.2018 07:26 5,8 C 3,9 C 72 % 1009,8 hPa 0,0 l/m 25,7 km/h (4 Bft) W-SW 247 0 min 0,000 mm 0,0 UV-I 0 W/m 1,2 C -4,1 C 41,8 km/h (6 Bft) 95,65 %
02.01.2018 07:27 5,8 C 3,9 C 72 % 1009,8 hPa 0,0 l/m 22,5 km/h (4 Bft) W-SW 247 0 min 0,000 mm 0,0 UV-I 0 W/m 1,2 C -3,0 C 32,2 km/h (5 Bft) 100,00 %
02.01.2018 07:28 5,8 C 3,9 C 72 % 1009,8 hPa 0,0 l/m 22,5 km/h (4 Bft) W-SW 247 0 min 0,000 mm 0,0 UV-I 0 W/m 1,2 C -3,0 C 29,0 km/h (5 Bft) 100,00 %
02.01.2018 07:29 5,8 C 3,9 C 71 % 1009,9 hPa 0,0 l/m 22,5 km/h (4 Bft) W-SW 247 0 min 0,000 mm 0,0 UV-I 0 W/m 1,0 C -3,0 C 30,6 km/h (5 Bft) 100,00 %
02.01.2018 07:30 5,9 C 3,9 C 71 % 1009,9 hPa 0,0 l/m 19,3 km/h (3 Bft) SW 225 0 min 0,000 mm 0,0 UV-I 0 W/m 1,1 C -1,7 C 24,1 km/h (4 Bft) 100,00 %
02.01.2018 07:31 5,9 C 3,9 C 72 % 1009,9 hPa 0,0 l/m 17,7 km/h (3 Bft) W-SW 247 0 min 0,000 mm 0,0 UV-I 0 W/m 1,2 C -1,1 C 25,7 km/h (4 Bft) 100,00 %
02.01.2018 07:32 5,9 C 3,9 C 72 % 1010,0 hPa 0,0 l/m 20,9 km/h (4 Bft) W-SW 247 0 min 0,000 mm 0,0 UV-I 0 W/m 1,2 C -2,3 C 25,7 km/h (4 Bft) 100,00 %
02.01.2018 07:33 5,8 C 3,9 C 72 % 1010,0 hPa 0,0 l/m 22,5 km/h (4 Bft) SW 225 0 min 0,000 mm 0,0 UV-I 0 W/m 1,2 C -3,0 C 33,8 km/h (5 Bft) 95,65 %
02.01.2018 07:34 5,8 C 3,9 C 72 % 1010,0 hPa 0,0 l/m 20,9 km/h (4 Bft) W-SW 247 0 min 0,000 mm 0,0 UV-I 0 W/m 1,2 C -2,5 C 24,1 km/h (4 Bft) 100,00 %
02.01.2018 07:35 5,8 C 3,9 C 72 % 1009,9 hPa 0,0 l/m 17,7 km/h (3 Bft) W-SW 247 0 min 0,000 mm 0,0 UV-I 0 W/m 1,2 C -1,2 C 24,1 km/h (4 Bft) 100,00 %
02.01.2018 07:36 5,8 C 3,9 C 72 % 1010,0 hPa 0,0 l/m 16,1 km/h (3 Bft) W-SW 247 0 min 0,000 mm 0,0 UV-I 0 W/m 1,2 C -0,5 C 22,5 km/h (4 Bft) 100,00 %
02.01.2018 07:37 5,8 C 3,9 C 72 % 1010,0 hPa 0,0 l/m 17,7 km/h (3 Bft) SW 225 0 min 0,000 mm 0,0 UV-I 0 W/m 1,2 C -1,2 C 24,1 km/h (4 Bft) 100,00 %
02.01.2018 07:38 5,8 C 3,9 C 72 % 1010,1 hPa 0,0 l/m 17,7 km/h (3 Bft) W-SW 247 0 min 0,000 mm 0,0 UV-I 0 W/m 1,2 C -1,2 C 24,1 km/h (4 Bft) 100,00 %
02.01.2018 07:39 5,8 C 3,9 C 72 % 1010,1 hPa 0,0 l/m 16,1 km/h (3 Bft) W-SW 247 0 min 0,000 mm 0,0 UV-I 0 W/m 1,2 C -0,5 C 22,5 km/h (4 Bft) 100,00 %
02.01.2018 07:40 5,8 C 3,9 C 72 % 1010,1 hPa 0,0 l/m 14,5 km/h (3 Bft) W-SW 247 0 min 0,000 mm 0,0 UV-I 0 W/m 1,2 C 0,3 C 19,3 km/h (3 Bft) 95,65 %
02.01.2018 07:41 5,8 C 3,9 C 72 % 1010,0 hPa 0,0 l/m 19,3 km/h (3 Bft) SW 225 0 min 0,000 mm 0,0 UV-I 0 W/m 1,2 C -1,9 C 25,7 km/h (4 Bft) 100,00 %
02.01.2018 07:42 5,7 C 3,9 C 73 % 1010,0 hPa 0,0 l/m 17,7 km/h (3 Bft) SW 225 0 min 0,000 mm 0,0 UV-I 0 W/m 1,2 C -1,3 C 32,2 km/h (5 Bft) 100,00 %
02.01.2018 07:43 5,7 C 3,9 C 72 % 1010,1 hPa 0,0 l/m 19,3 km/h (3 Bft) SW 225 0 min 0,000 mm 0,0 UV-I 0 W/m 1,1 C -2,0 C 30,6 km/h (5 Bft) 100,00 %
02.01.2018 07:44 5,7 C 3,9 C 72 % 1010,1 hPa 0,0 l/m 16,1 km/h (3 Bft) SW 225 0 min 0,000 mm 0,0 UV-I 0 W/m 1,1 C -0,6 C 24,1 km/h (4 Bft) 100,00 %
02.01.2018 07:45 5,7 C 3,9 C 72 % 1010,2 hPa 0,0 l/m 17,7 km/h (3 Bft) W-SW 247 0 min 0,000 mm 0,0 UV-I 0 W/m 1,1 C -1,3 C 24,1 km/h (4 Bft) 100,00 %
02.01.2018 07:46 5,7 C 3,9 C 73 % 1010,2 hPa 0,0 l/m 19,3 km/h (3 Bft) W-SW 247 0 min 0,000 mm 0,0 UV-I 0 W/m 1,2 C -2,0 C 29,0 km/h (5 Bft) 100,00 %
02.01.2018 07:47 5,7 C 3,9 C 72 % 1010,1 hPa 0,0 l/m 17,7 km/h (3 Bft) SW 225 0 min 0,000 mm 0,0 UV-I 5 W/m 1,1 C -1,3 C 22,5 km/h (4 Bft) 86,96 %
02.01.2018 07:48 5,7 C 3,9 C 73 % 1010,2 hPa 0,0 l/m 17,7 km/h (3 Bft) W-SW 247 0 min 0,000 mm 0,0 UV-I 5 W/m 1,2 C -1,3 C 24,1 km/h (4 Bft) 100,00 %
02.01.2018 07:49 5,7 C 3,9 C 73 % 1010,1 hPa 0,0 l/m 24,1 km/h (4 Bft) SW 225 0 min 0,000 mm 0,0 UV-I 5 W/m 1,2 C -3,7 C 32,2 km/h (5 Bft) 95,65 %
02.01.2018 07:50 5,7 C 3,9 C 72 % 1010,2 hPa 0,0 l/m 20,9 km/h (4 Bft) SW 225 0 min 0,000 mm 0,0 UV-I 5 W/m 1,1 C -2,6 C 30,6 km/h (5 Bft) 100,00 %
02.01.2018 07:51 5,7 C 3,9 C 72 % 1010,2 hPa 0,0 l/m 20,9 km/h (4 Bft) SW 225 0 min 0,000 mm 0,0 UV-I 5 W/m 1,1 C -2,6 C 33,8 km/h (5 Bft) 95,65 %
02.01.2018 07:52 5,8 C 3,9 C 72 % 1010,2 hPa 0,0 l/m 20,9 km/h (4 Bft) W-SW 247 0 min 0,000 mm 0,0 UV-I 5 W/m 1,2 C -2,5 C 25,7 km/h (4 Bft) 100,00 %
02.01.2018 07:53 5,8 C 3,9 C 72 % 1010,2 hPa 0,0 l/m 20,9 km/h (4 Bft) SW 225 0 min 0,000 mm 0,0 UV-I 5 W/m 1,2 C -2,5 C 27,4 km/h (4 Bft) 95,65 %
02.01.2018 07:54 5,7 C 3,9 C 72 % 1010,2 hPa 0,0 l/m 24,1 km/h (4 Bft) W-SW 247 0 min 0,000 mm 0,0 UV-I 5 W/m 1,1 C -3,7 C 32,2 km/h (5 Bft) 95,65 %
02.01.2018 07:55 5,7 C 3,9 C 72 % 1010,1 hPa 0,0 l/m 22,5 km/h (4 Bft) W-SW 247 0 min 0,000 mm 0,0 UV-I 7 W/m 1,1 C -3,2 C 32,2 km/h (5 Bft) 95,65 %
02.01.2018 07:56 5,7 C 3,9 C 72 % 1010,1 hPa 0,0 l/m 24,1 km/h (4 Bft) SW 225 0 min 0,000 mm 0,0 UV-I 7 W/m 1,1 C -3,7 C 33,8 km/h (5 Bft) 100,00 %
02.01.2018 07:57 5,7 C 3,9 C 72 % 1010,1 hPa 0,0 l/m 29,0 km/h (5 Bft) SW 225 0 min 0,000 mm 0,0 UV-I 7 W/m 1,1 C -5,1 C 46,7 km/h (6 Bft) 91,30 %
02.01.2018 07:58 5,8 C 3,9 C 72 % 1010,1 hPa 0,0 l/m 29,0 km/h (5 Bft) W-SW 247 0 min 0,000 mm 0,0 UV-I 7 W/m 1,2 C -5,0 C 41,8 km/h (6 Bft) 100,00 %
02.01.2018 07:59 5,8 C 3,9 C 72 % 1010,2 hPa 0,0 l/m 20,9 km/h (4 Bft) W-SW 247 0 min 0,000 mm 0,0 UV-I 7 W/m 1,2 C -2,5 C 30,6 km/h (5 Bft) 91,30 %
02.01.2018 08:00 5,8 C 3,9 C 72 % 1010,2 hPa 0,0 l/m 14,5 km/h (3 Bft) SW 225 0 min 0,051 mm 0,0 UV-I 7 W/m 1,2 C 0,3 C 24,1 km/h (4 Bft) 95,65 %
02.01.2018 08:01 5,7 C 3,9 C 72 % 1010,2 hPa 0,0 l/m 20,9 km/h (4 Bft) W-SW 247 0 min 0,000 mm 0,0 UV-I 9 W/m 1,1 C -2,6 C 27,4 km/h (4 Bft) 95,65 %
02.01.2018 08:02 5,7 C 3,9 C 71 % 1010,2 hPa 0,0 l/m 20,9 km/h (4 Bft) W-SW 247 0 min 0,000 mm 0,0 UV-I 9 W/m 0,9 C -2,6 C 30,6 km/h (5 Bft) 91,30 %
02.01.2018 08:03 5,7 C 3,9 C 72 % 1010,3 hPa 0,0 l/m 20,9 km/h (4 Bft) W-SW 247 0 min 0,000 mm 0,0 UV-I 9 W/m 1,1 C -2,6 C 30,6 km/h (5 Bft) 100,00 %
02.01.2018 08:04 5,7 C 3,9 C 72 % 1010,3 hPa 0,0 l/m 22,5 km/h (4 Bft) W-SW 247 0 min 0,000 mm 0,0 UV-I 11 W/m 1,1 C -3,2 C 32,2 km/h (5 Bft) 91,30 %
02.01.2018 08:05 5,7 C 3,9 C 72 % 1010,3 hPa 0,0 l/m 24,1 km/h (4 Bft) SW 225 0 min 0,000 mm 0,0 UV-I 11 W/m 1,1 C -3,7 C 33,8 km/h (5 Bft) 100,00 %
02.01.2018 08:06 5,7 C 3,9 C 71 % 1010,3 hPa 0,0 l/m 20,9 km/h (4 Bft) W-SW 247 0 min 0,000 mm 0,0 UV-I 11 W/m 0,9 C -2,6 C 29,0 km/h (5 Bft) 95,65 %
02.01.2018 08:07 5,7 C 3,9 C 72 % 1010,3 hPa 0,0 l/m 24,1 km/h (4 Bft) W-SW 247 1 min 0,000 mm 0,0 UV-I 11 W/m 1,1 C -3,7 C 30,6 km/h (5 Bft) 100,00 %
02.01.2018 08:08 5,7 C 3,9 C 72 % 1010,3 hPa 0,0 l/m 20,9 km/h (4 Bft) SW 225 1 min 0,000 mm 0,0 UV-I 11 W/m 1,1 C -2,6 C 29,0 km/h (5 Bft) 91,30 %
02.01.2018 08:09 5,7 C 3,9 C 72 % 1010,3 hPa 0,0 l/m 20,9 km/h (4 Bft) W-SW 247 0 min 0,000 mm 0,0 UV-I 11 W/m 1,1 C -2,6 C 30,6 km/h (5 Bft) 100,00 %
02.01.2018 08:10 5,7 C 3,9 C 72 % 1010,4 hPa 0,0 l/m 27,4 km/h (4 Bft) W-SW 247 0 min 0,000 mm 0,0 UV-I 12 W/m 1,1 C -4,7 C 40,2 km/h (6 Bft) 95,65 %
02.01.2018 08:11 5,7 C 3,9 C 72 % 1010,3 hPa 0,0 l/m 24,1 km/h (4 Bft) W-SW 247 0 min 0,000 mm 0,0 UV-I 12 W/m 1,1 C -3,7 C 33,8 km/h (5 Bft) 100,00 %
02.01.2018 08:12 5,7 C 3,9 C 72 % 1010,4 hPa 0,0 l/m 19,3 km/h (3 Bft) SW 225 0 min 0,000 mm 0,0 UV-I 12 W/m 1,1 C -2,0 C 27,4 km/h (4 Bft) 95,65 %
02.01.2018 08:13 5,7 C 3,9 C 72 % 1010,3 hPa 0,0 l/m 22,5 km/h (4 Bft) SW 225 0 min 0,000 mm 0,0 UV-I 12 W/m 1,1 C -3,2 C 32,2 km/h (5 Bft) 95,65 %
02.01.2018 08:14 5,7 C 3,9 C 72 % 1010,2 hPa 0,0 l/m 17,7 km/h (3 Bft) SW 225 0 min 0,000 mm 0,0 UV-I 12 W/m 1,1 C -1,3 C 24,1 km/h (4 Bft) 100,00 %
02.01.2018 08:15 5,7 C 3,9 C 72 % 1010,3 hPa 0,0 l/m 19,3 km/h (3 Bft) W-SW 247 0 min 0,000 mm 0,0 UV-I 12 W/m 1,1 C -2,0 C 43,5 km/h (6 Bft) 95,65 %
02.01.2018 08:16 5,7 C 3,9 C 72 % 1010,2 hPa 0,0 l/m 25,7 km/h (4 Bft) SW 225 0 min 0,000 mm 0,0 UV-I 12 W/m 1,1 C -4,2 C 37,0 km/h (5 Bft) 100,00 %
02.01.2018 08:17 5,7 C 3,9 C 72 % 1010,3 hPa 0,0 l/m 17,7 km/h (3 Bft) W-SW 247 0 min 0,000 mm 0,0 UV-I 12 W/m 1,1 C -1,3 C 24,1 km/h (4 Bft) 95,65 %
02.01.2018 08:18 5,7 C 3,9 C 72 % 1010,3 hPa 0,0 l/m 20,9 km/h (4 Bft) W-SW 247 0 min 0,000 mm 0,0 UV-I 12 W/m 1,1 C -2,6 C 35,4 km/h (5 Bft) 100,00 %
02.01.2018 08:19 5,7 C 3,9 C 72 % 1010,3 hPa 0,0 l/m 22,5 km/h (4 Bft) W-SW 247 0 min 0,000 mm 0,0 UV-I 14 W/m 1,1 C -3,2 C 35,4 km/h (5 Bft) 100,00 %
02.01.2018 08:20 5,7 C 3,9 C 72 % 1010,3 hPa 0,0 l/m 30,6 km/h (5 Bft) SW 225 0 min 0,000 mm 0,0 UV-I 14 W/m 1,1 C -5,5 C 40,2 km/h (6 Bft) 100,00 %
02.01.2018 08:21 5,7 C 3,9 C 72 % 1010,3 hPa 0,0 l/m 24,1 km/h (4 Bft) SW 225 0 min 0,000 mm 0,0 UV-I 16 W/m 1,1 C -3,7 C 30,6 km/h (5 Bft) 100,00 %
02.01.2018 08:22 5,7 C 3,9 C 72 % 1010,3 hPa 0,0 l/m 22,5 km/h (4 Bft) SW 225 0 min 0,000 mm 0,0 UV-I 16 W/m 1,1 C -3,2 C 33,8 km/h (5 Bft) 86,96 %
02.01.2018 08:23 5,7 C 3,9 C 72 % 1010,3 hPa 0,0 l/m 19,3 km/h (3 Bft) SW 225 0 min 0,000 mm 0,0 UV-I 18 W/m 1,1 C -2,0 C 27,4 km/h (4 Bft) 100,00 %
02.01.2018 08:24 5,7 C 3,9 C 72 % 1010,3 hPa 0,0 l/m 17,7 km/h (3 Bft) W-SW 247 0 min 0,000 mm 0,0 UV-I 19 W/m 1,1 C -1,3 C 24,1 km/h (4 Bft) 95,65 %
02.01.2018 08:25 5,6 C 3,9 C 73 % 1010,3 hPa 0,0 l/m 22,5 km/h (4 Bft) SW 225 0 min 0,000 mm 0,0 UV-I 21 W/m 1,2 C -3,3 C 30,6 km/h (5 Bft) 100,00 %
02.01.2018 08:26 5,6 C 3,9 C 73 % 1010,2 hPa 0,0 l/m 22,5 km/h (4 Bft) W-SW 247 0 min 0,000 mm 0,0 UV-I 23 W/m 1,2 C -3,3 C 29,0 km/h (5 Bft) 95,65 %
02.01.2018 08:27 5,6 C 3,9 C 72 % 1010,3 hPa 0,0 l/m 27,4 km/h (4 Bft) W-SW 247 0 min 0,000 mm 0,0 UV-I 23 W/m 1,0 C -4,8 C 32,2 km/h (5 Bft) 95,65 %
02.01.2018 08:28 5,6 C 3,9 C 72 % 1010,3 hPa 0,0 l/m 25,7 km/h (4 Bft) SW 225 0 min 0,000 mm 0,0 UV-I 25 W/m 1,0 C -4,3 C 32,2 km/h (5 Bft) 100,00 %
02.01.2018 08:29 5,7 C 3,9 C 72 % 1010,3 hPa 0,0 l/m 27,4 km/h (4 Bft) SW 225 0 min 0,000 mm 0,0 UV-I 25 W/m 1,1 C -4,7 C 40,2 km/h (6 Bft) 91,30 %
02.01.2018 08:30 5,7 C 3,9 C 72 % 1010,4 hPa 0,0 l/m 30,6 km/h (5 Bft) W-SW 247 0 min 0,000 mm 0,0 UV-I 26 W/m 1,1 C -5,5 C 45,1 km/h (6 Bft) 100,00 %
02.01.2018 08:31 5,7 C 3,9 C 72 % 1010,5 hPa 0,0 l/m 25,7 km/h (4 Bft) SW 225 0 min 0,000 mm 0,0 UV-I 26 W/m 1,1 C -4,2 C 38,6 km/h (5 Bft) 91,30 %
02.01.2018 08:32 5,7 C 3,9 C 72 % 1010,4 hPa 0,0 l/m 25,7 km/h (4 Bft) W-SW 247 0 min 0,000 mm 0,0 UV-I 26 W/m 1,1 C -4,2 C 41,8 km/h (6 Bft) 100,00 %
02.01.2018 08:33 5,7 C 3,9 C 71 % 1010,4 hPa 0,0 l/m 27,4 km/h (4 Bft) SW 225 0 min 0,000 mm 0,0 UV-I 28 W/m 0,9 C -4,7 C 35,4 km/h (5 Bft) 95,65 %
02.01.2018 08:34 5,7 C 3,9 C 71 % 1010,5 hPa 0,0 l/m 22,5 km/h (4 Bft) W-SW 247 0 min 0,000 mm 0,0 UV-I 28 W/m 0,9 C -3,2 C 30,6 km/h (5 Bft) 100,00 %
02.01.2018 08:35 5,7 C 3,9 C 71 % 1010,5 hPa 0,0 l/m 24,1 km/h (4 Bft) SW 225 0 min 0,000 mm 0,0 UV-I 28 W/m 0,9 C -3,7 C 33,8 km/h (5 Bft) 95,65 %
02.01.2018 08:36 5,7 C 3,9 C 71 % 1010,5 hPa 0,0 l/m 19,3 km/h (3 Bft) SW 225 0 min 0,000 mm 0,0 UV-I 29 W/m 0,9 C -2,0 C 30,6 km/h (5 Bft) 91,30 %
02.01.2018 08:37 5,7 C 3,9 C 72 % 1010,5 hPa 0,0 l/m 20,9 km/h (4 Bft) W-SW 247 0 min 0,000 mm 0,0 UV-I 30 W/m 1,1 C -2,6 C 25,7 km/h (4 Bft) 95,65 %
02.01.2018 08:38 5,7 C 3,9 C 72 % 1010,6 hPa 0,0 l/m 24,1 km/h (4 Bft) W-SW 247 0 min 0,000 mm 0,0 UV-I 30 W/m 1,1 C -3,7 C 35,4 km/h (5 Bft) 95,65 %
02.01.2018 08:39 5,7 C 3,9 C 72 % 1010,5 hPa 0,0 l/m 24,1 km/h (4 Bft) W-SW 247 0 min 0,000 mm 0,0 UV-I 30 W/m 1,1 C -3,7 C 30,6 km/h (5 Bft) 95,65 %
02.01.2018 08:40 5,7 C 3,9 C 72 % 1010,5 hPa 0,0 l/m 29,0 km/h (5 Bft) SW 225 0 min 0,000 mm 0,0 UV-I 32 W/m 1,1 C -5,1 C 37,0 km/h (5 Bft) 95,65 %
02.01.2018 08:41 5,7 C 3,9 C 71 % 1010,5 hPa 0,0 l/m 20,9 km/h (4 Bft) W-SW 247 0 min 0,000 mm 0,0 UV-I 32 W/m 0,9 C -2,6 C 27,4 km/h (4 Bft) 100,00 %
02.01.2018 08:42 5,7 C 3,9 C 72 % 1010,6 hPa 0,0 l/m 27,4 km/h (4 Bft) W-SW 247 0 min 0,000 mm 0,0 UV-I 33 W/m 1,1 C -4,7 C 37,0 km/h (5 Bft) 95,65 %
02.01.2018 08:43 5,7 C 3,9 C 72 % 1010,6 hPa 0,0 l/m 24,1 km/h (4 Bft) W-SW 247 0 min 0,000 mm 0,0 UV-I 33 W/m 1,1 C -3,7 C 35,4 km/h (5 Bft) 95,65 %
02.01.2018 08:44 5,7 C 3,9 C 72 % 1010,5 hPa 0,0 l/m 27,4 km/h (4 Bft) SW 225 0 min 0,000 mm 0,0 UV-I 33 W/m 1,1 C -4,7 C 38,6 km/h (5 Bft) 95,65 %
02.01.2018 08:45 5,6 C 3,9 C 72 % 1010,6 hPa 0,0 l/m 19,3 km/h (3 Bft) SW 225 0 min 0,000 mm 0,0 UV-I 35 W/m 1,0 C -2,1 C 25,7 km/h (4 Bft) 95,65 %
02.01.2018 08:46 5,6 C 3,9 C 72 % 1010,6 hPa 0,0 l/m 25,7 km/h (4 Bft) SW 225 0 min 0,000 mm 0,0 UV-I 35 W/m 1,0 C -4,3 C 40,2 km/h (6 Bft) 100,00 %
02.01.2018 08:47 5,6 C 3,9 C 72 % 1010,6 hPa 0,0 l/m 22,5 km/h (4 Bft) W-SW 247 0 min 0,000 mm 0,0 UV-I 35 W/m 1,0 C -3,3 C 33,8 km/h (5 Bft) 91,30 %
02.01.2018 08:48 5,6 C 3,9 C 72 % 1010,6 hPa 0,0 l/m 29,0 km/h (5 Bft) SW 225 0 min 0,000 mm 0,0 UV-I 38 W/m 1,0 C -5,3 C 38,6 km/h (5 Bft) 100,00 %
02.01.2018 08:49 5,6 C 3,9 C 72 % 1010,6 hPa 0,0 l/m 19,3 km/h (3 Bft) SW 225 0 min 0,000 mm 0,0 UV-I 39 W/m 1,0 C -2,1 C 29,0 km/h (5 Bft) 95,65 %
02.01.2018 08:50 5,6 C 3,9 C 72 % 1010,6 hPa 0,0 l/m 24,1 km/h (4 Bft) SW 225 0 min 0,000 mm 0,0 UV-I 40 W/m 1,0 C -3,8 C 32,2 km/h (5 Bft) 95,65 %
02.01.2018 08:51 5,6 C 3,9 C 72 % 1010,6 hPa 0,0 l/m 24,1 km/h (4 Bft) SW 225 0 min 0,000 mm 0,0 UV-I 42 W/m 1,0 C -3,8 C 32,2 km/h (5 Bft) 95,65 %
02.01.2018 08:52 5,6 C 3,9 C 72 % 1010,7 hPa 0,0 l/m 29,0 km/h (5 Bft) W-SW 247 0 min 0,000 mm 0,0 UV-I 44 W/m 1,0 C -5,3 C 40,2 km/h (6 Bft) 95,65 %
02.01.2018 08:53 5,6 C 3,9 C 72 % 1010,7 hPa 0,0 l/m 20,9 km/h (4 Bft) W-SW 247 0 min 0,000 mm 0,0 UV-I 46 W/m 1,0 C -2,7 C 32,2 km/h (5 Bft) 100,00 %
02.01.2018 08:54 5,6 C 3,9 C 72 % 1010,6 hPa 0,0 l/m 24,1 km/h (4 Bft) SW 225 0 min 0,000 mm 0,0 UV-I 48 W/m 1,0 C -3,8 C 32,2 km/h (5 Bft) 95,65 %
02.01.2018 08:55 5,6 C 3,9 C 72 % 1010,7 hPa 0,0 l/m 22,5 km/h (4 Bft) SW 225 0 min 0,000 mm 0,0 UV-I 51 W/m 1,0 C -3,3 C 35,4 km/h (5 Bft) 100,00 %
02.01.2018 08:56 5,6 C 3,9 C 72 % 1010,7 hPa 0,0 l/m 29,0 km/h (5 Bft) SW 225 0 min 0,000 mm 0,0 UV-I 53 W/m 1,0 C -5,3 C 41,8 km/h (6 Bft) 91,30 %
02.01.2018 08:57 5,6 C 3,9 C 72 % 1010,7 hPa 0,0 l/m 25,7 km/h (4 Bft) SW 225 0 min 0,000 mm 0,0 UV-I 54 W/m 1,0 C -4,3 C 35,4 km/h (5 Bft) 95,65 %
02.01.2018 08:58 5,6 C 3,9 C 72 % 1010,7 hPa 0,0 l/m 24,1 km/h (4 Bft) SW 225 0 min 0,000 mm 0,0 UV-I 56 W/m 1,0 C -3,8 C 35,4 km/h (5 Bft) 95,65 %
02.01.2018 08:59 5,6 C 3,9 C 72 % 1010,7 hPa 0,0 l/m 22,5 km/h (4 Bft) SW 225 0 min 0,000 mm 0,0 UV-I 56 W/m 1,0 C -3,3 C 33,8 km/h (5 Bft) 100,00 %
02.01.2018 09:00 5,6 C 3,9 C 72 % 1010,7 hPa 0,0 l/m 27,4 km/h (4 Bft) W-SW 247 0 min 0,076 mm 0,0 UV-I 59 W/m 1,0 C -4,8 C 38,6 km/h (5 Bft) 91,30 %
02.01.2018 09:01 5,6 C 3,9 C 72 % 1010,7 hPa 0,0 l/m 22,5 km/h (4 Bft) W-SW 247 0 min 0,000 mm 0,0 UV-I 60 W/m 1,0 C -3,3 C 35,4 km/h (5 Bft) 95,65 %
02.01.2018 09:02 5,6 C 3,9 C 72 % 1010,7 hPa 0,0 l/m 20,9 km/h (4 Bft) W-SW 247 0 min 0,000 mm 0,0 UV-I 62 W/m 1,0 C -2,7 C 27,4 km/h (4 Bft) 100,00 %
02.01.2018 09:03 5,6 C 3,9 C 72 % 1010,9 hPa 0,0 l/m 29,0 km/h (5 Bft) SW 225 0 min 0,000 mm 0,0 UV-I 62 W/m 1,0 C -5,3 C 38,6 km/h (5 Bft) 95,65 %
02.01.2018 09:04 5,6 C 3,9 C 72 % 1010,8 hPa 0,0 l/m 25,7 km/h (4 Bft) SW 225 0 min 0,000 mm 0,0 UV-I 62 W/m 1,0 C -4,3 C 33,8 km/h (5 Bft) 91,30 %
02.01.2018 09:05 5,6 C 3,9 C 72 % 1010,9 hPa 0,0 l/m 20,9 km/h (4 Bft) W-SW 247 0 min 0,000 mm 0,0 UV-I 63 W/m 1,0 C -2,7 C 29,0 km/h (5 Bft) 100,00 %
02.01.2018 09:06 5,6 C 3,9 C 72 % 1011,0 hPa 0,0 l/m 22,5 km/h (4 Bft) W-SW 247 0 min 0,000 mm 0,0 UV-I 63 W/m 1,0 C -3,3 C 32,2 km/h (5 Bft) 100,00 %
02.01.2018 09:07 5,6 C 3,9 C 72 % 1010,9 hPa 0,0 l/m 20,9 km/h (4 Bft) W-SW 247 0 min 0,000 mm 0,0 UV-I 63 W/m 1,0 C -2,7 C 25,7 km/h (4 Bft) 100,00 %
02.01.2018 09:08 5,6 C 3,9 C 73 % 1010,9 hPa 0,0 l/m 22,5 km/h (4 Bft) W-SW 247 0 min 0,000 mm 0,0 UV-I 63 W/m 1,2 C -3,3 C 37,0 km/h (5 Bft) 100,00 %
02.01.2018 09:09 5,6 C 3,9 C 73 % 1010,9 hPa 0,0 l/m 24,1 km/h (4 Bft) SW 225 0 min 0,000 mm 0,0 UV-I 63 W/m 1,2 C -3,8 C 33,8 km/h (5 Bft) 100,00 %
02.01.2018 09:10 5,6 C 3,9 C 73 % 1010,9 hPa 0,0 l/m 22,5 km/h (4 Bft) W-SW 247 0 min 0,000 mm 0,0 UV-I 63 W/m 1,2 C -3,3 C 30,6 km/h (5 Bft) 100,00 %
02.01.2018 09:11 5,6 C 3,9 C 73 % 1010,9 hPa 0,0 l/m 20,9 km/h (4 Bft) SW 225 0 min 0,000 mm 0,0 UV-I 63 W/m 1,2 C -2,7 C 30,6 km/h (5 Bft) 91,30 %
02.01.2018 09:12 5,6 C 3,9 C 73 % 1011,0 hPa 0,0 l/m 25,7 km/h (4 Bft) SW 225 0 min 0,000 mm 0,0 UV-I 63 W/m 1,2 C -4,3 C 33,8 km/h (5 Bft) 100,00 %
02.01.2018 09:13 5,6 C 3,9 C 73 % 1011,1 hPa 0,0 l/m 24,1 km/h (4 Bft) W-SW 247 0 min 0,000 mm 0,0 UV-I 63 W/m 1,2 C -3,8 C 30,6 km/h (5 Bft) 95,65 %
02.01.2018 09:14 5,6 C 3,9 C 73 % 1011,1 hPa 0,0 l/m 24,1 km/h (4 Bft) SW 225 0 min 0,000 mm 0,0 UV-I 63 W/m 1,2 C -3,8 C 37,0 km/h (5 Bft) 95,65 %
02.01.2018 09:15 5,6 C 3,9 C 73 % 1011,1 hPa 0,0 l/m 25,7 km/h (4 Bft) W-SW 247 0 min 0,000 mm 0,0 UV-I 65 W/m 1,2 C -4,3 C 43,5 km/h (6 Bft) 95,65 %
02.01.2018 09:16 5,6 C 3,9 C 73 % 1011,1 hPa 0,0 l/m 19,3 km/h (3 Bft) SW 225 0 min 0,000 mm 0,0 UV-I 65 W/m 1,2 C -2,1 C 32,2 km/h (5 Bft) 95,65 %
02.01.2018 09:17 5,6 C 3,9 C 73 % 1011,2 hPa 0,0 l/m 17,7 km/h (3 Bft) W-SW 247 0 min 0,000 mm 0,0 UV-I 66 W/m 1,2 C -1,5 C 25,7 km/h (4 Bft) 95,65 %
02.01.2018 09:18 5,6 C 3,9 C 73 % 1011,2 hPa 0,0 l/m 22,5 km/h (4 Bft) W-SW 247 0 min 0,000 mm 0,0 UV-I 67 W/m 1,2 C -3,3 C 32,2 km/h (5 Bft) 91,30 %
02.01.2018 09:19 5,6 C 3,9 C 73 % 1011,2 hPa 0,0 l/m 19,3 km/h (3 Bft) W-SW 247 0 min 0,000 mm 0,0 UV-I 69 W/m 1,2 C -2,1 C 27,4 km/h (4 Bft) 100,00 %
02.01.2018 09:20 5,6 C 3,9 C 73 % 1011,3 hPa 0,0 l/m 19,3 km/h (3 Bft) SW 225 0 min 0,000 mm 0,0 UV-I 69 W/m 1,2 C -2,1 C 33,8 km/h (5 Bft) 95,65 %
02.01.2018 09:21 5,6 C 3,9 C 73 % 1011,2 hPa 0,0 l/m 27,4 km/h (4 Bft) W-SW 247 0 min 0,000 mm 0,0 UV-I 70 W/m 1,2 C -4,8 C 37,0 km/h (5 Bft) 95,65 %
02.01.2018 09:22 5,6 C 3,9 C 73 % 1011,2 hPa 0,0 l/m 19,3 km/h (3 Bft) W-SW 247 0 min 0,000 mm 0,0 UV-I 70 W/m 1,2 C -2,1 C 29,0 km/h (5 Bft) 100,00 %
02.01.2018 09:23 5,6 C 3,9 C 73 % 1011,3 hPa 0,0 l/m 20,9 km/h (4 Bft) SW 225 0 min 0,000 mm 0,0 UV-I 72 W/m 1,2 C -2,7 C 27,4 km/h (4 Bft) 95,65 %
02.01.2018 09:24 5,6 C 3,9 C 73 % 1011,3 hPa 0,0 l/m 29,0 km/h (5 Bft) W-SW 247 0 min 0,000 mm 0,0 UV-I 74 W/m 1,2 C -5,3 C 37,0 km/h (5 Bft) 100,00 %
02.01.2018 09:25 5,6 C 3,9 C 73 % 1011,2 hPa 0,0 l/m 19,3 km/h (3 Bft) W-SW 247 0 min 0,000 mm 0,0 UV-I 74 W/m 1,2 C -2,1 C 27,4 km/h (4 Bft) 91,30 %
02.01.2018 09:26 5,6 C 3,9 C 73 % 1011,2 hPa 0,0 l/m 29,0 km/h (5 Bft) SW 225 0 min 0,000 mm 0,0 UV-I 74 W/m 1,2 C -5,3 C 38,6 km/h (5 Bft) 95,65 %
02.01.2018 09:27 5,6 C 3,9 C 73 % 1011,3 hPa 0,0 l/m 24,1 km/h (4 Bft) W-SW 247 0 min 0,000 mm 0,0 UV-I 76 W/m 1,2 C -3,8 C 32,2 km/h (5 Bft) 95,65 %
02.01.2018 09:28 5,6 C 3,9 C 73 % 1011,3 hPa 0,0 l/m 29,0 km/h (5 Bft) W-SW 247 0 min 0,000 mm 0,0 UV-I 76 W/m 1,2 C -5,3 C 37,0 km/h (5 Bft) 100,00 %
02.01.2018 09:29 5,6 C 3,9 C 73 % 1011,3 hPa 0,0 l/m 24,1 km/h (4 Bft) W-SW 247 0 min 0,000 mm 0,0 UV-I 78 W/m 1,2 C -3,8 C 32,2 km/h (5 Bft) 95,65 %
02.01.2018 09:30 5,6 C 3,9 C 73 % 1011,3 hPa 0,0 l/m 24,1 km/h (4 Bft) W-SW 247 0 min 0,000 mm 0,0 UV-I 81 W/m 1,2 C -3,8 C 35,4 km/h (5 Bft) 100,00 %
02.01.2018 09:31 5,6 C 3,9 C 73 % 1011,3 hPa 0,0 l/m 22,5 km/h (4 Bft) SW 225 0 min 0,000 mm 0,0 UV-I 83 W/m 1,2 C -3,3 C 33,8 km/h (5 Bft) 95,65 %
02.01.2018 09:32 5,6 C 3,9 C 73 % 1011,4 hPa 0,0 l/m 17,7 km/h (3 Bft) W-SW 247 0 min 0,000 mm 0,0 UV-I 84 W/m 1,2 C -1,5 C 22,5 km/h (4 Bft) 95,65 %
02.01.2018 09:33 5,6 C 3,9 C 73 % 1011,4 hPa 0,0 l/m 16,1 km/h (3 Bft) W-SW 247 0 min 0,000 mm 0,0 UV-I 86 W/m 1,2 C -0,7 C 25,7 km/h (4 Bft) 95,65 %
02.01.2018 09:34 5,6 C 3,9 C 73 % 1011,4 hPa 0,0 l/m 22,5 km/h (4 Bft) W-SW 247 0 min 0,000 mm 0,0 UV-I 88 W/m 1,2 C -3,3 C 32,2 km/h (5 Bft) 100,00 %
02.01.2018 09:35 5,6 C 3,9 C 73 % 1011,4 hPa 0,0 l/m 17,7 km/h (3 Bft) SW 225 0 min 0,000 mm 0,0 UV-I 91 W/m 1,2 C -1,5 C 27,4 km/h (4 Bft) 95,65 %
02.01.2018 09:36 5,6 C 3,9 C 74 % 1011,4 hPa 0,0 l/m 16,1 km/h (3 Bft) W-SW 247 0 min 0,000 mm 0,0 UV-I 95 W/m 1,3 C -0,7 C 25,7 km/h (4 Bft) 95,65 %
02.01.2018 09:37 5,6 C 3,9 C 74 % 1011,4 hPa 0,0 l/m 24,1 km/h (4 Bft) W-SW 247 0 min 0,000 mm 0,0 UV-I 98 W/m 1,3 C -3,8 C 32,2 km/h (5 Bft) 100,00 %
02.01.2018 09:38 5,6 C 3,9 C 73 % 1011,5 hPa 0,0 l/m 24,1 km/h (4 Bft) W-SW 247 0 min 0,000 mm 0,0 UV-I 102 W/m 1,2 C -3,8 C 29,0 km/h (5 Bft) 91,30 %
02.01.2018 09:39 5,7 C 3,9 C 73 % 1011,5 hPa 0,0 l/m 19,3 km/h (3 Bft) W-SW 247 0 min 0,000 mm 0,0 UV-I 104 W/m 1,2 C -2,0 C 29,0 km/h (5 Bft) 95,65 %
02.01.2018 09:40 5,7 C 3,9 C 73 % 1011,5 hPa 0,0 l/m 19,3 km/h (3 Bft) W-SW 247 0 min 0,000 mm 0,0 UV-I 104 W/m 1,2 C -2,0 C 29,0 km/h (5 Bft) 100,00 %
02.01.2018 09:41 5,7 C 3,9 C 74 % 1011,5 hPa 0,0 l/m 17,7 km/h (3 Bft) SW 225 0 min 0,000 mm 0,0 UV-I 106 W/m 1,4 C -1,3 C 27,4 km/h (4 Bft) 95,65 %
02.01.2018 09:42 5,7 C 3,9 C 74 % 1011,4 hPa 0,0 l/m 22,5 km/h (4 Bft) W-SW 247 0 min 0,000 mm 0,0 UV-I 104 W/m 1,4 C -3,2 C 32,2 km/h (5 Bft) 100,00 %
02.01.2018 09:43 5,7 C 3,9 C 74 % 1011,5 hPa 0,0 l/m 16,1 km/h (3 Bft) W-SW 247 0 min 0,000 mm 0,0 UV-I 102 W/m 1,4 C -0,6 C 22,5 km/h (4 Bft) 100,00 %
02.01.2018 09:44 5,7 C 3,9 C 74 % 1011,6 hPa 0,0 l/m 24,1 km/h (4 Bft) W-SW 247 0 min 0,000 mm 0,0 UV-I 102 W/m 1,4 C -3,7 C 30,6 km/h (5 Bft) 100,00 %
02.01.2018 09:45 5,7 C 3,9 C 74 % 1011,5 hPa 0,0 l/m 19,3 km/h (3 Bft) W-SW 247 0 min 0,000 mm 0,0 UV-I 100 W/m 1,4 C -2,0 C 27,4 km/h (4 Bft) 100,00 %
02.01.2018 09:46 5,7 C 3,9 C 74 % 1011,6 hPa 0,0 l/m 20,9 km/h (4 Bft) W-SW 247 0 min 0,000 mm 0,0 UV-I 101 W/m 1,4 C -2,6 C 29,0 km/h (5 Bft) 95,65 %
02.01.2018 09:47 5,7 C 3,9 C 74 % 1011,7 hPa 0,0 l/m 20,9 km/h (4 Bft) W-SW 247 0 min 0,000 mm 0,0 UV-I 100 W/m 1,4 C -2,6 C 27,4 km/h (4 Bft) 100,00 %
02.01.2018 09:48 5,7 C 3,9 C 74 % 1011,6 hPa 0,0 l/m 22,5 km/h (4 Bft) W-SW 247 0 min 0,000 mm 0,0 UV-I 97 W/m 1,4 C -3,2 C 35,4 km/h (5 Bft) 95,65 %
02.01.2018 09:49 5,7 C 3,9 C 74 % 1011,9 hPa 0,0 l/m 27,4 km/h (4 Bft) W-SW 247 0 min 0,000 mm 0,0 UV-I 86 W/m 1,4 C -4,7 C 37,0 km/h (5 Bft) 100,00 %
02.01.2018 09:50 5,7 C 3,9 C 73 % 1012,0 hPa 0,0 l/m 24,1 km/h (4 Bft) W-SW 247 0 min 0,000 mm 0,0 UV-I 79 W/m 1,2 C -3,7 C 37,0 km/h (5 Bft) 95,65 %
02.01.2018 09:51 5,7 C 3,9 C 74 % 1011,8 hPa 0,0 l/m 20,9 km/h (4 Bft) W-SW 247 0 min 0,000 mm 0,0 UV-I 77 W/m 1,4 C -2,6 C 27,4 km/h (4 Bft) 100,00 %
02.01.2018 09:52 5,8 C 3,9 C 74 % 1011,8 hPa 0,0 l/m 19,3 km/h (3 Bft) W-SW 247 0 min 0,000 mm 0,0 UV-I 72 W/m 1,5 C -1,9 C 24,1 km/h (4 Bft) 100,00 %
02.01.2018 09:53 5,8 C 3,9 C 74 % 1011,8 hPa 0,0 l/m 16,1 km/h (3 Bft) W-SW 247 0 min 0,000 mm 0,0 UV-I 63 W/m 1,5 C -0,5 C 22,5 km/h (4 Bft) 95,65 %
02.01.2018 09:54 5,7 C 3,9 C 74 % 1011,9 hPa 0,0 l/m 17,7 km/h (3 Bft) W-SW 247 0 min 0,000 mm 0,0 UV-I 54 W/m 1,4 C -1,3 C 27,4 km/h (4 Bft) 100,00 %
02.01.2018 09:55 5,8 C 3,9 C 74 % 1011,8 hPa 0,0 l/m 32,2 km/h (5 Bft) W-SW 247 0 min 0,000 mm 0,0 UV-I 47 W/m 1,5 C -5,8 C 46,7 km/h (6 Bft) 100,00 %
02.01.2018 09:56 5,8 C 3,9 C 73 % 1011,9 hPa 0,0 l/m 29,0 km/h (5 Bft) W-SW 247 0 min 0,000 mm 0,0 UV-I 40 W/m 1,3 C -5,0 C 38,6 km/h (5 Bft) 100,00 %
02.01.2018 09:57 5,8 C 3,9 C 73 % 1011,9 hPa 0,0 l/m 25,7 km/h (4 Bft) W-SW 247 0 min 0,000 mm 0,0 UV-I 39 W/m 1,3 C -4,1 C 38,6 km/h (5 Bft) 100,00 %
02.01.2018 09:58 5,8 C 3,9 C 74 % 1012,0 hPa 0,0 l/m 30,6 km/h (5 Bft) W-SW 247 0 min 0,000 mm 0,0 UV-I 43 W/m 1,5 C -5,4 C 46,7 km/h (6 Bft) 100,00 %
02.01.2018 09:59 5,8 C 3,9 C 74 % 1011,9 hPa 0,0 l/m 24,1 km/h (4 Bft) W 270 0 min 0,000 mm 0,0 UV-I 44 W/m 1,5 C -3,6 C 30,6 km/h (5 Bft) 100,00 %
02.01.2018 10:00 5,8 C 3,9 C 74 % 1011,9 hPa 0,0 l/m 19,3 km/h (3 Bft) W-SW 247 0 min 0,076 mm 0,0 UV-I 46 W/m 1,5 C -1,9 C 33,8 km/h (5 Bft) 95,65 %
02.01.2018 10:01 5,7 C 3,9 C 75 % 1011,9 hPa 0,0 l/m 17,7 km/h (3 Bft) W 270 0 min 0,000 mm 0,0 UV-I 54 W/m 1,6 C -1,3 C 27,4 km/h (4 Bft) 95,65 %
02.01.2018 10:02 5,6 C 3,9 C 75 % 1011,9 hPa 0,0 l/m 19,3 km/h (3 Bft) W 270 0 min 0,000 mm 0,0 UV-I 63 W/m 1,5 C -2,1 C 25,7 km/h (4 Bft) 100,00 %
02.01.2018 10:03 5,6 C 3,9 C 76 % 1011,9 hPa 0,0 l/m 19,3 km/h (3 Bft) W-SW 247 0 min 0,000 mm 0,0 UV-I 72 W/m 1,7 C -2,1 C 27,4 km/h (4 Bft) 100,00 %
02.01.2018 10:04 5,6 C 3,9 C 76 % 1012,0 hPa 0,0 l/m 24,1 km/h (4 Bft) W-SW 247 0 min 0,000 mm 0,0 UV-I 81 W/m 1,7 C -3,8 C 30,6 km/h (5 Bft) 100,00 %
02.01.2018 10:05 5,6 C 3,9 C 76 % 1011,9 hPa 0,0 l/m 22,5 km/h (4 Bft) W 270 0 min 0,000 mm 0,0 UV-I 86 W/m 1,7 C -3,3 C 30,6 km/h (5 Bft) 95,65 %
02.01.2018 10:06 5,6 C 3,9 C 76 % 1011,9 hPa 0,0 l/m 25,7 km/h (4 Bft) W 270 0 min 0,000 mm 0,0 UV-I 91 W/m 1,7 C -4,3 C 32,2 km/h (5 Bft) 100,00 %
02.01.2018 10:07 5,6 C 3,9 C 76 % 1012,1 hPa 0,0 l/m 19,3 km/h (3 Bft) W-SW 247 0 min 0,000 mm 0,0 UV-I 88 W/m 1,7 C -2,1 C 24,1 km/h (4 Bft) 95,65 %
02.01.2018 10:08 5,6 C 3,9 C 75 % 1012,0 hPa 0,0 l/m 14,5 km/h (3 Bft) W-SW 247 0 min 0,000 mm 0,0 UV-I 90 W/m 1,5 C 0,1 C 22,5 km/h (4 Bft) 100,00 %
02.01.2018 10:09 5,6 C 3,9 C 76 % 1012,1 hPa 0,0 l/m 19,3 km/h (3 Bft) W 270 0 min 0,000 mm 0,0 UV-I 90 W/m 1,7 C -2,1 C 30,6 km/h (5 Bft) 100,00 %
02.01.2018 10:10 5,6 C 3,9 C 76 % 1012,0 hPa 0,0 l/m 24,1 km/h (4 Bft) W-SW 247 0 min 0,000 mm 0,0 UV-I 81 W/m 1,7 C -3,8 C 37,0 km/h (5 Bft) 100,00 %
02.01.2018 10:11 5,7 C 3,9 C 75 % 1012,1 hPa 0,0 l/m 17,7 km/h (3 Bft) W 270 0 min 0,000 mm 0,0 UV-I 84 W/m 1,6 C -1,3 C 25,7 km/h (4 Bft) 95,65 %
02.01.2018 10:12 5,7 C 3,9 C 75 % 1012,1 hPa 0,0 l/m 19,3 km/h (3 Bft) W-SW 247 0 min 0,000 mm 0,0 UV-I 90 W/m 1,6 C -2,0 C 29,0 km/h (5 Bft) 100,00 %
02.01.2018 10:13 5,7 C 3,9 C 75 % 1012,1 hPa 0,0 l/m 24,1 km/h (4 Bft) W 270 0 min 0,000 mm 0,0 UV-I 93 W/m 1,6 C -3,7 C 32,2 km/h (5 Bft) 100,00 %
02.01.2018 10:14 5,7 C 3,9 C 74 % 1012,1 hPa 0,0 l/m 24,1 km/h (4 Bft) W-SW 247 0 min 0,000 mm 0,0 UV-I 95 W/m 1,4 C -3,7 C 33,8 km/h (5 Bft) 95,65 %
02.01.2018 10:15 5,8 C 3,9 C 74 % 1012,1 hPa 0,0 l/m 22,5 km/h (4 Bft) W-SW 247 0 min 0,000 mm 0,0 UV-I 91 W/m 1,5 C -3,0 C 30,6 km/h (5 Bft) 95,65 %
02.01.2018 10:16 5,8 C 3,9 C 74 % 1012,1 hPa 0,0 l/m 20,9 km/h (4 Bft) W-SW 247 0 min 0,000 mm 0,0 UV-I 95 W/m 1,5 C -2,5 C 27,4 km/h (4 Bft) 100,00 %
02.01.2018 10:17 5,8 C 3,9 C 74 % 1012,2 hPa 0,0 l/m 19,3 km/h (3 Bft) W-SW 247 0 min 0,000 mm 0,0 UV-I 105 W/m 1,5 C -1,9 C 27,4 km/h (4 Bft) 95,65 %
02.01.2018 10:18 5,8 C 3,9 C 74 % 1012,1 hPa 0,0 l/m 14,5 km/h (3 Bft) W-SW 247 0 min 0,000 mm 0,0 UV-I 116 W/m 1,5 C 0,3 C 19,3 km/h (3 Bft) 100,00 %
02.01.2018 10:19 5,8 C 3,9 C 74 % 1012,1 hPa 0,0 l/m 19,3 km/h (3 Bft) W-SW 247 0 min 0,000 mm 0,0 UV-I 132 W/m 1,5 C -1,9 C 29,0 km/h (5 Bft) 95,65 %
02.01.2018 10:20 5,8 C 3,9 C 74 % 1012,1 hPa 0,0 l/m 19,3 km/h (3 Bft) W-SW 247 1 min 0,000 mm 0,0 UV-I 151 W/m 1,5 C -1,9 C 22,5 km/h (4 Bft) 95,65 %
02.01.2018 10:21 5,8 C 3,9 C 74 % 1012,1 hPa 0,0 l/m 20,9 km/h (4 Bft) W-SW 247 1 min 0,000 mm 0,0 UV-I 151 W/m 1,5 C -2,5 C 30,6 km/h (5 Bft) 91,30 %
02.01.2018 10:22 5,8 C 3,9 C 74 % 1012,2 hPa 0,0 l/m 19,3 km/h (3 Bft) W-SW 247 0 min 0,000 mm 0,0 UV-I 126 W/m 1,5 C -1,9 C 27,4 km/h (4 Bft) 95,65 %
02.01.2018 10:23 5,9 C 3,9 C 74 % 1012,2 hPa 0,0 l/m 17,7 km/h (3 Bft) W-SW 247 0 min 0,000 mm 0,0 UV-I 130 W/m 1,6 C -1,1 C 24,1 km/h (4 Bft) 100,00 %
02.01.2018 10:24 5,9 C 3,9 C 74 % 1012,2 hPa 0,0 l/m 14,5 km/h (3 Bft) W-SW 247 0 min 0,000 mm 0,0 UV-I 128 W/m 1,6 C 0,4 C 19,3 km/h (3 Bft) 100,00 %
02.01.2018 10:25 5,9 C 3,9 C 74 % 1012,2 hPa 0,0 l/m 11,3 km/h (2 Bft) W-SW 247 0 min 0,000 mm 0,0 UV-I 121 W/m 1,6 C 2,2 C 16,1 km/h (3 Bft) 100,00 %
02.01.2018 10:26 5,9 C 3,9 C 74 % 1012,1 hPa 0,0 l/m 12,9 km/h (3 Bft) SW 225 0 min 0,000 mm 0,0 UV-I 111 W/m 1,6 C 1,3 C 17,7 km/h (3 Bft) 100,00 %
02.01.2018 10:27 5,9 C 3,9 C 74 % 1012,1 hPa 0,0 l/m 17,7 km/h (3 Bft) W 270 0 min 0,000 mm 0,0 UV-I 98 W/m 1,6 C -1,1 C 27,4 km/h (4 Bft) 95,65 %
02.01.2018 10:28 5,9 C 3,9 C 74 % 1012,1 hPa 0,0 l/m 16,1 km/h (3 Bft) W-SW 247 0 min 0,000 mm 0,0 UV-I 104 W/m 1,6 C -0,4 C 25,7 km/h (4 Bft) 95,65 %
02.01.2018 10:29 5,9 C 3,9 C 74 % 1012,1 hPa 0,0 l/m 17,7 km/h (3 Bft) W-SW 247 0 min 0,000 mm 0,0 UV-I 97 W/m 1,6 C -1,1 C 25,7 km/h (4 Bft) 95,65 %
02.01.2018 10:30 5,9 C 3,9 C 73 % 1012,1 hPa 0,0 l/m 17,7 km/h (3 Bft) W-SW 247 0 min 0,000 mm 0,0 UV-I 97 W/m 1,4 C -1,1 C 24,1 km/h (4 Bft) 100,00 %
02.01.2018 10:31 5,9 C 3,9 C 73 % 1012,1 hPa 0,0 l/m 22,5 km/h (4 Bft) SW 225 0 min 0,000 mm 0,0 UV-I 98 W/m 1,4 C -2,9 C 29,0 km/h (5 Bft) 95,65 %
02.01.2018 10:32 5,9 C 3,9 C 73 % 1012,1 hPa 0,0 l/m 24,1 km/h (4 Bft) SW 225 0 min 0,000 mm 0,0 UV-I 104 W/m 1,4 C -3,4 C 32,2 km/h (5 Bft) 100,00 %
02.01.2018 10:33 5,9 C 3,9 C 73 % 1012,1 hPa 0,0 l/m 16,1 km/h (3 Bft) W-SW 247 0 min 0,000 mm 0,0 UV-I 105 W/m 1,4 C -0,4 C 20,9 km/h (4 Bft) 95,65 %
02.01.2018 10:34 5,9 C 3,9 C 73 % 1012,2 hPa 0,0 l/m 14,5 km/h (3 Bft) W-SW 247 0 min 0,000 mm 0,0 UV-I 100 W/m 1,4 C 0,4 C 20,9 km/h (4 Bft) 100,00 %
02.01.2018 10:35 5,9 C 3,9 C 73 % 1012,1 hPa 0,0 l/m 14,5 km/h (3 Bft) W-SW 247 0 min 0,000 mm 0,0 UV-I 91 W/m 1,4 C 0,4 C 22,5 km/h (4 Bft) 91,30 %
02.01.2018 10:36 5,9 C 3,9 C 73 % 1012,1 hPa 0,0 l/m 19,3 km/h (3 Bft) W-SW 247 0 min 0,000 mm 0,0 UV-I 91 W/m 1,4 C -1,7 C 24,1 km/h (4 Bft) 95,65 %
02.01.2018 10:37 5,9 C 3,9 C 73 % 1012,1 hPa 0,0 l/m 20,9 km/h (4 Bft) W-SW 247 0 min 0,000 mm 0,0 UV-I 97 W/m 1,4 C -2,3 C 30,6 km/h (5 Bft) 95,65 %
02.01.2018 10:38 5,9 C 3,9 C 72 % 1012,1 hPa 0,0 l/m 20,9 km/h (4 Bft) W-SW 247 0 min 0,000 mm 0,0 UV-I 123 W/m 1,2 C -2,3 C 30,6 km/h (5 Bft) 95,65 %
02.01.2018 10:39 5,9 C 3,9 C 72 % 1012,1 hPa 0,0 l/m 24,1 km/h (4 Bft) W-SW 247 0 min 0,000 mm 0,0 UV-I 105 W/m 1,2 C -3,4 C 33,8 km/h (5 Bft) 95,65 %
02.01.2018 10:40 5,9 C 3,9 C 72 % 1012,1 hPa 0,0 l/m 20,9 km/h (4 Bft) W-SW 247 0 min 0,000 mm 0,0 UV-I 95 W/m 1,2 C -2,3 C 32,2 km/h (5 Bft) 86,96 %
02.01.2018 10:41 5,9 C 3,9 C 72 % 1012,1 hPa 0,0 l/m 19,3 km/h (3 Bft) W-SW 247 0 min 0,000 mm 0,0 UV-I 102 W/m 1,2 C -1,7 C 24,1 km/h (4 Bft) 100,00 %
02.01.2018 10:42 6,0 C 3,9 C 72 % 1012,1 hPa 0,0 l/m 22,5 km/h (4 Bft) W-SW 247 0 min 0,000 mm 0,0 UV-I 98 W/m 1,3 C -2,8 C 29,0 km/h (5 Bft) 82,61 %
02.01.2018 10:43 5,9 C 3,9 C 73 % 1012,0 hPa 0,0 l/m 19,3 km/h (3 Bft) W-SW 247 0 min 0,000 mm 0,0 UV-I 105 W/m 1,4 C -1,7 C 25,7 km/h (4 Bft) 95,65 %
02.01.2018 10:44 5,9 C 3,9 C 73 % 1012,0 hPa 0,0 l/m 22,5 km/h (4 Bft) W 270 0 min 0,000 mm 0,0 UV-I 104 W/m 1,4 C -2,9 C 29,0 km/h (5 Bft) 91,30 %
02.01.2018 10:45 5,9 C 3,9 C 72 % 1012,1 hPa 0,0 l/m 20,9 km/h (4 Bft) W-SW 247 0 min 0,000 mm 0,0 UV-I 113 W/m 1,2 C -2,3 C 33,8 km/h (5 Bft) 95,65 %
02.01.2018 10:46 5,9 C 3,9 C 72 % 1012,1 hPa 0,0 l/m 17,7 km/h (3 Bft) SW 225 0 min 0,000 mm 0,0 UV-I 132 W/m 1,2 C -1,1 C 25,7 km/h (4 Bft) 95,65 %
02.01.2018 10:47 5,9 C 3,9 C 72 % 1012,1 hPa 0,0 l/m 24,1 km/h (4 Bft) W-SW 247 0 min 0,000 mm 0,0 UV-I 132 W/m 1,2 C -3,4 C 37,0 km/h (5 Bft) 95,65 %
02.01.2018 10:48 5,9 C 3,9 C 72 % 1012,1 hPa 0,0 l/m 25,7 km/h (4 Bft) W-SW 247 0 min 0,000 mm 0,0 UV-I 144 W/m 1,2 C -3,9 C 37,0 km/h (5 Bft) 95,65 %
02.01.2018 10:49 6,0 C 3,9 C 72 % 1012,0 hPa 0,0 l/m 22,5 km/h (4 Bft) W 270 0 min 0,000 mm 0,0 UV-I 151 W/m 1,3 C -2,8 C 30,6 km/h (5 Bft) 91,30 %
02.01.2018 10:50 6,0 C 3,9 C 72 % 1012,0 hPa 0,0 l/m 20,9 km/h (4 Bft) SW 225 0 min 0,000 mm 0,0 UV-I 149 W/m 1,3 C -2,2 C 32,2 km/h (5 Bft) 95,65 %
02.01.2018 10:51 6,0 C 3,9 C 72 % 1012,1 hPa 0,0 l/m 19,3 km/h (3 Bft) W-SW 247 0 min 0,000 mm 0,0 UV-I 152 W/m 1,3 C -1,6 C 25,7 km/h (4 Bft) 95,65 %
02.01.2018 10:52 6,0 C 3,9 C 72 % 1012,1 hPa 0,0 l/m 22,5 km/h (4 Bft) W-SW 247 0 min 0,000 mm 0,0 UV-I 156 W/m 1,3 C -2,8 C 25,7 km/h (4 Bft) 95,65 %
02.01.2018 10:53 6,0 C 3,9 C 72 % 1012,0 hPa 0,0 l/m 22,5 km/h (4 Bft) W-SW 247 0 min 0,000 mm 0,0 UV-I 139 W/m 1,3 C -2,8 C 35,4 km/h (5 Bft) 95,65 %
02.01.2018 10:54 6,0 C 3,9 C 72 % 1012,0 hPa 0,0 l/m 20,9 km/h (4 Bft) W-SW 247 0 min 0,000 mm 0,0 UV-I 132 W/m 1,3 C -2,2 C 25,7 km/h (4 Bft) 86,96 %
02.01.2018 10:55 6,0 C 3,9 C 73 % 1012,0 hPa 0,0 l/m 19,3 km/h (3 Bft) W-SW 247 0 min 0,000 mm 0,0 UV-I 135 W/m 1,5 C -1,6 C 24,1 km/h (4 Bft) 95,65 %
02.01.2018 10:56 6,0 C 3,9 C 73 % 1012,0 hPa 0,0 l/m 22,5 km/h (4 Bft) W-SW 247 0 min 0,000 mm 0,0 UV-I 134 W/m 1,5 C -2,8 C 29,0 km/h (5 Bft) 91,30 %
02.01.2018 10:57 6,0 C 3,9 C 73 % 1011,9 hPa 0,0 l/m 20,9 km/h (4 Bft) W-SW 247 0 min 0,000 mm 0,0 UV-I 138 W/m 1,5 C -2,2 C 25,7 km/h (4 Bft) 86,96 %
02.01.2018 10:58 6,0 C 3,9 C 72 % 1012,0 hPa 0,0 l/m 22,5 km/h (4 Bft) W-SW 247 0 min 0,000 mm 0,0 UV-I 137 W/m 1,3 C -2,8 C 30,6 km/h (5 Bft) 95,65 %
02.01.2018 10:59 6,0 C 3,9 C 73 % 1012,0 hPa 0,0 l/m 19,3 km/h (3 Bft) SW 225 0 min 0,000 mm 0,0 UV-I 144 W/m 1,5 C -1,6 C 27,4 km/h (4 Bft) 91,30 %
02.01.2018 11:00 6,1 C 3,9 C 72 % 1012,1 hPa 0,0 l/m 29,0 km/h (5 Bft) W-SW 247 0 min 0,102 mm 0,0 UV-I 155 W/m 1,4 C -4,6 C 38,6 km/h (5 Bft) 95,65 %
02.01.2018 11:01 6,1 C 3,9 C 72 % 1012,0 hPa 0,0 l/m 22,5 km/h (4 Bft) W-SW 247 0 min 0,000 mm 0,0 UV-I 146 W/m 1,4 C -2,6 C 29,0 km/h (5 Bft) 100,00 %
02.01.2018 11:02 6,1 C 3,9 C 72 % 1011,9 hPa 0,0 l/m 20,9 km/h (4 Bft) SW 225 0 min 0,000 mm 0,0 UV-I 137 W/m 1,4 C -2,1 C 35,4 km/h (5 Bft) 95,65 %
02.01.2018 11:03 6,1 C 3,9 C 72 % 1011,9 hPa 0,0 l/m 19,3 km/h (3 Bft) W-SW 247 0 min 0,000 mm 0,0 UV-I 128 W/m 1,4 C -1,5 C 30,6 km/h (5 Bft) 95,65 %
02.01.2018 11:04 6,1 C 3,9 C 72 % 1011,9 hPa 0,0 l/m 22,5 km/h (4 Bft) W-SW 247 0 min 0,000 mm 0,0 UV-I 127 W/m 1,4 C -2,6 C 30,6 km/h (5 Bft) 91,30 %
02.01.2018 11:05 6,1 C 3,9 C 72 % 1011,9 hPa 0,0 l/m 19,3 km/h (3 Bft) W-SW 247 0 min 0,000 mm 0,0 UV-I 127 W/m 1,4 C -1,5 C 30,6 km/h (5 Bft) 100,00 %
02.01.2018 11:06 6,1 C 3,9 C 72 % 1011,9 hPa 0,0 l/m 19,3 km/h (3 Bft) W-SW 247 0 min 0,000 mm 0,0 UV-I 127 W/m 1,4 C -1,5 C 25,7 km/h (4 Bft) 95,65 %
02.01.2018 11:07 6,1 C 3,9 C 72 % 1012,0 hPa 0,0 l/m 22,5 km/h (4 Bft) W-SW 247 0 min 0,000 mm 0,0 UV-I 130 W/m 1,4 C -2,6 C 30,6 km/h (5 Bft) 100,00 %
02.01.2018 11:08 6,1 C 3,9 C 72 % 1011,9 hPa 0,0 l/m 24,1 km/h (4 Bft) W-SW 247 0 min 0,000 mm 0,0 UV-I 143 W/m 1,4 C -3,2 C 35,4 km/h (5 Bft) 100,00 %
02.01.2018 11:09 6,1 C 3,9 C 72 % 1011,9 hPa 0,0 l/m 20,9 km/h (4 Bft) W-SW 247 0 min 0,000 mm 0,0 UV-I 158 W/m 1,4 C -2,1 C 27,4 km/h (4 Bft) 100,00 %
02.01.2018 11:10 6,1 C 3,9 C 72 % 1011,9 hPa 0,0 l/m 24,1 km/h (4 Bft) W-SW 247 0 min 0,000 mm 0,0 UV-I 155 W/m 1,4 C -3,2 C 30,6 km/h (5 Bft) 95,65 %
02.01.2018 11:11 6,1 C 3,9 C 72 % 1011,9 hPa 0,0 l/m 24,1 km/h (4 Bft) W-SW 247 0 min 0,000 mm 0,0 UV-I 151 W/m 1,4 C -3,2 C 37,0 km/h (5 Bft) 100,00 %
02.01.2018 11:12 6,2 C 3,9 C 72 % 1011,9 hPa 0,0 l/m 24,1 km/h (4 Bft) W 270 0 min 0,000 mm 0,0 UV-I 155 W/m 1,5 C -3,0 C 35,4 km/h (5 Bft) 100,00 %
02.01.2018 11:13 6,2 C 3,9 C 71 % 1011,8 hPa 0,0 l/m 25,7 km/h (4 Bft) W-SW 247 0 min 0,000 mm 0,0 UV-I 153 W/m 1,3 C -3,5 C 33,8 km/h (5 Bft) 100,00 %
02.01.2018 11:14 6,2 C 3,9 C 71 % 1011,9 hPa 0,0 l/m 27,4 km/h (4 Bft) W-SW 247 1 min 0,000 mm 0,0 UV-I 188 W/m 1,3 C -4,0 C 45,1 km/h (6 Bft) 100,00 %
02.01.2018 11:15 6,2 C 3,9 C 71 % 1011,8 hPa 0,0 l/m 30,6 km/h (5 Bft) W-SW 247 1 min 0,000 mm 0,0 UV-I 188 W/m 1,3 C -4,8 C 41,8 km/h (6 Bft) 100,00 %
02.01.2018 11:16 6,2 C 3,9 C 71 % 1011,9 hPa 0,0 l/m 22,5 km/h (4 Bft) W-SW 247 1 min 0,000 mm 0,0 UV-I 195 W/m 1,3 C -2,5 C 30,6 km/h (5 Bft) 100,00 %
02.01.2018 11:17 6,3 C 3,9 C 71 % 1011,9 hPa 0,0 l/m 17,7 km/h (3 Bft) SW 225 1 min 0,000 mm 0,0 UV-I 211 W/m 1,4 C -0,6 C 25,7 km/h (4 Bft) 95,65 %
02.01.2018 11:18 6,3 C 3,9 C 71 % 1011,9 hPa 0,0 l/m 20,9 km/h (4 Bft) SW 225 1 min 0,000 mm 0,0 UV-I 211 W/m 1,4 C -1,8 C 32,2 km/h (5 Bft) 100,00 %
02.01.2018 11:19 6,3 C 3,9 C 71 % 1011,9 hPa 0,0 l/m 17,7 km/h (3 Bft) W-SW 247 1 min 0,000 mm 0,0 UV-I 188 W/m 1,4 C -0,6 C 27,4 km/h (4 Bft) 100,00 %
02.01.2018 11:20 6,3 C 3,9 C 71 % 1011,9 hPa 0,0 l/m 20,9 km/h (4 Bft) W 270 1 min 0,000 mm 0,0 UV-I 220 W/m 1,4 C -1,8 C 30,6 km/h (5 Bft) 100,00 %
02.01.2018 11:21 6,3 C 3,9 C 71 % 1012,0 hPa 0,0 l/m 20,9 km/h (4 Bft) W-SW 247 1 min 0,000 mm 0,0 UV-I 214 W/m 1,4 C -1,8 C 32,2 km/h (5 Bft) 100,00 %
02.01.2018 11:22 6,4 C 3,9 C 71 % 1011,9 hPa 0,0 l/m 19,3 km/h (3 Bft) W-SW 247 1 min 0,000 mm 0,0 UV-I 225 W/m 1,5 C -1,1 C 29,0 km/h (5 Bft) 100,00 %
02.01.2018 11:23 6,4 C 3,9 C 71 % 1012,0 hPa 0,0 l/m 17,7 km/h (3 Bft) W 270 1 min 0,000 mm 0,5 UV-I 244 W/m 1,5 C -0,4 C 24,1 km/h (4 Bft) 100,00 %
02.01.2018 11:24 6,4 C 3,9 C 71 % 1012,0 hPa 0,0 l/m 27,4 km/h (4 Bft) W-SW 247 1 min 0,000 mm 0,5 UV-I 230 W/m 1,5 C -3,7 C 33,8 km/h (5 Bft) 91,30 %
02.01.2018 11:25 6,4 C 3,9 C 71 % 1011,9 hPa 0,0 l/m 17,7 km/h (3 Bft) W-SW 247 1 min 0,000 mm 0,5 UV-I 246 W/m 1,5 C -0,4 C 25,7 km/h (4 Bft) 100,00 %
02.01.2018 11:26 6,4 C 3,9 C 71 % 1012,0 hPa 0,0 l/m 17,7 km/h (3 Bft) W-SW 247 1 min 0,000 mm 0,5 UV-I 239 W/m 1,5 C -0,4 C 29,0 km/h (5 Bft) 100,00 %
02.01.2018 11:27 6,5 C 3,9 C 71 % 1012,0 hPa 0,0 l/m 24,1 km/h (4 Bft) W-SW 247 1 min 0,000 mm 0,5 UV-I 294 W/m 1,6 C -2,6 C 33,8 km/h (5 Bft) 100,00 %
02.01.2018 11:28 6,5 C 3,9 C 71 % 1011,9 hPa 0,0 l/m 19,3 km/h (3 Bft) W-SW 247 1 min 0,000 mm 0,5 UV-I 267 W/m 1,6 C -1,0 C 27,4 km/h (4 Bft) 100,00 %
02.01.2018 11:29 6,6 C 3,9 C 70 % 1012,0 hPa 0,0 l/m 19,3 km/h (3 Bft) W-SW 247 1 min 0,000 mm 0,5 UV-I 283 W/m 1,5 C -0,8 C 25,7 km/h (4 Bft) 100,00 %
02.01.2018 11:30 6,6 C 3,9 C 71 % 1012,0 hPa 0,0 l/m 20,9 km/h (4 Bft) W-SW 247 1 min 0,000 mm 0,5 UV-I 248 W/m 1,7 C -1,4 C 32,2 km/h (5 Bft) 100,00 %
02.01.2018 11:31 6,6 C 3,9 C 71 % 1012,0 hPa 0,0 l/m 14,5 km/h (3 Bft) W-SW 247 1 min 0,000 mm 0,0 UV-I 230 W/m 1,7 C 1,3 C 19,3 km/h (3 Bft) 95,65 %
02.01.2018 11:32 6,6 C 3,9 C 71 % 1012,1 hPa 0,0 l/m 14,5 km/h (3 Bft) W-SW 247 1 min 0,000 mm 0,0 UV-I 271 W/m 1,7 C 1,3 C 24,1 km/h (4 Bft) 100,00 %
02.01.2018 11:33 6,7 C 3,9 C 71 % 1012,0 hPa 0,0 l/m 16,1 km/h (3 Bft) W-SW 247 1 min 0,000 mm 0,0 UV-I 304 W/m 1,8 C 0,6 C 25,7 km/h (4 Bft) 100,00 %
02.01.2018 11:34 6,7 C 3,9 C 71 % 1012,0 hPa 0,0 l/m 19,3 km/h (3 Bft) W-SW 247 1 min 0,000 mm 0,5 UV-I 309 W/m 1,8 C -0,7 C 30,6 km/h (5 Bft) 95,65 %
02.01.2018 11:35 6,7 C 3,9 C 71 % 1012,1 hPa 0,0 l/m 20,9 km/h (4 Bft) W-SW 247 1 min 0,000 mm 0,5 UV-I 302 W/m 1,8 C -1,3 C 24,1 km/h (4 Bft) 100,00 %
02.01.2018 11:36 6,7 C 3,9 C 72 % 1012,0 hPa 0,0 l/m 16,1 km/h (3 Bft) W-SW 247 1 min 0,000 mm 0,5 UV-I 308 W/m 2,0 C 0,6 C 20,9 km/h (4 Bft) 100,00 %
02.01.2018 11:37 6,8 C 3,9 C 72 % 1012,0 hPa 0,0 l/m 14,5 km/h (3 Bft) W 270 1 min 0,000 mm 0,5 UV-I 302 W/m 2,1 C 1,5 C 22,5 km/h (4 Bft) 100,00 %
02.01.2018 11:38 6,8 C 3,9 C 71 % 1012,1 hPa 0,0 l/m 27,4 km/h (4 Bft) W-SW 247 1 min 0,000 mm 0,5 UV-I 253 W/m 1,9 C -3,2 C 40,2 km/h (6 Bft) 95,65 %
02.01.2018 11:39 6,8 C 3,9 C 71 % 1012,1 hPa 0,0 l/m 25,7 km/h (4 Bft) W-SW 247 1 min 0,000 mm 0,5 UV-I 309 W/m 1,9 C -2,7 C 33,8 km/h (5 Bft) 100,00 %
02.01.2018 11:40 6,7 C 3,9 C 71 % 1012,0 hPa 0,0 l/m 32,2 km/h (5 Bft) SW 225 1 min 0,000 mm 0,5 UV-I 330 W/m 1,8 C -4,5 C 46,7 km/h (6 Bft) 100,00 %
02.01.2018 11:41 6,7 C 3,9 C 72 % 1012,1 hPa 0,0 l/m 32,2 km/h (5 Bft) SW 225 1 min 0,000 mm 0,5 UV-I 369 W/m 2,0 C -4,5 C 46,7 km/h (6 Bft) 100,00 %
02.01.2018 11:42 6,6 C 3,9 C 73 % 1012,0 hPa 0,0 l/m 32,2 km/h (5 Bft) SW 225 1 min 0,000 mm 0,5 UV-I 355 W/m 2,1 C -4,6 C 43,5 km/h (6 Bft) 100,00 %
02.01.2018 11:43 6,4 C 3,9 C 73 % 1012,1 hPa 0,0 l/m 33,8 km/h (5 Bft) W-SW 247 1 min 0,000 mm 0,5 UV-I 367 W/m 1,9 C -5,3 C 56,3 km/h (7 Bft) 100,00 %
02.01.2018 11:44 6,4 C 3,9 C 74 % 1012,2 hPa 0,0 l/m 33,8 km/h (5 Bft) W-SW 247 1 min 0,000 mm 0,5 UV-I 370 W/m 2,1 C -5,3 C 54,7 km/h (7 Bft) 100,00 %
02.01.2018 11:45 6,3 C 3,9 C 74 % 1012,3 hPa 0,0 l/m 30,6 km/h (5 Bft) W-SW 247 1 min 0,000 mm 0,5 UV-I 346 W/m 2,0 C -4,7 C 45,1 km/h (6 Bft) 91,30 %
02.01.2018 11:46 6,2 C 3,9 C 75 % 1012,1 hPa 0,0 l/m 32,2 km/h (5 Bft) W-SW 247 1 min 0,000 mm 0,5 UV-I 318 W/m 2,1 C -5,2 C 46,7 km/h (6 Bft) 95,65 %
02.01.2018 11:47 6,2 C 3,9 C 76 % 1012,2 hPa 0,0 l/m 19,3 km/h (3 Bft) W-SW 247 1 min 0,000 mm 0,0 UV-I 264 W/m 2,3 C -1,4 C 29,0 km/h (5 Bft) 100,00 %
02.01.2018 11:48 6,1 C 3,9 C 76 % 1012,2 hPa 0,0 l/m 32,2 km/h (5 Bft) W-SW 247 1 min 0,000 mm 0,0 UV-I 255 W/m 2,2 C -5,4 C 53,1 km/h (7 Bft) 100,00 %
02.01.2018 11:49 6,1 C 3,9 C 77 % 1012,2 hPa 0,0 l/m 24,1 km/h (4 Bft) W-SW 247 0 min 0,000 mm 0,0 UV-I 167 W/m 2,4 C -3,2 C 40,2 km/h (6 Bft) 95,65 %
02.01.2018 11:50 5,9 C 3,9 C 78 % 1012,3 hPa 0,0 l/m 30,6 km/h (5 Bft) W-SW 247 0 min 0,000 mm 0,0 UV-I 151 W/m 2,4 C -5,3 C 54,7 km/h (7 Bft) 100,00 %
02.01.2018 11:51 5,8 C 3,9 C 78 % 1012,2 hPa 0,0 l/m 33,8 km/h (5 Bft) W-SW 247 0 min 0,000 mm 0,0 UV-I 134 W/m 2,3 C -6,1 C 46,7 km/h (6 Bft) 95,65 %
02.01.2018 11:52 5,7 C 3,9 C 78 % 1012,3 hPa 0,0 l/m 27,4 km/h (4 Bft) W 270 0 min 0,000 mm 0,0 UV-I 123 W/m 2,2 C -4,7 C 37,0 km/h (5 Bft) 100,00 %
02.01.2018 11:53 5,6 C 3,9 C 80 % 1012,3 hPa 0,0 l/m 22,5 km/h (4 Bft) W-SW 247 0 min 0,000 mm 0,0 UV-I 109 W/m 2,4 C -3,3 C 29,0 km/h (5 Bft) 91,30 %
02.01.2018 11:54 5,4 C 3,9 C 81 % 1012,2 hPa 0,0 l/m 25,7 km/h (4 Bft) W-SW 247 0 min 0,000 mm 0,0 UV-I 109 W/m 2,4 C -4,6 C 37,0 km/h (5 Bft) 100,00 %
02.01.2018 11:55 5,3 C 3,9 C 81 % 1012,3 hPa 0,0 l/m 22,5 km/h (4 Bft) W-SW 247 0 min 0,000 mm 0,0 UV-I 118 W/m 2,3 C -3,7 C 35,4 km/h (5 Bft) 100,00 %
02.01.2018 11:56 5,2 C 3,9 C 82 % 1012,4 hPa 0,0 l/m 27,4 km/h (4 Bft) W-SW 247 0 min 0,000 mm 0,0 UV-I 125 W/m 2,4 C -5,4 C 38,6 km/h (5 Bft) 100,00 %
02.01.2018 11:57 5,1 C 3,9 C 82 % 1012,3 hPa 0,0 l/m 30,6 km/h (5 Bft) W-SW 247 0 min 0,000 mm 0,0 UV-I 132 W/m 2,3 C -6,4 C 38,6 km/h (5 Bft) 100,00 %
02.01.2018 11:58 5,1 C 3,9 C 82 % 1012,3 hPa 0,0 l/m 29,0 km/h (5 Bft) W-SW 247 0 min 0,000 mm 0,0 UV-I 132 W/m 2,3 C -6,0 C 38,6 km/h (5 Bft) 100,00 %
02.01.2018 11:59 5,1 C 3,9 C 82 % 1012,4 hPa 0,0 l/m 22,5 km/h (4 Bft) W-SW 247 0 min 0,000 mm 0,0 UV-I 130 W/m 2,3 C -4,0 C 30,6 km/h (5 Bft) 100,00 %
02.01.2018 12:00 5,0 C 3,9 C 83 % 1012,4 hPa 0,0 l/m 19,3 km/h (3 Bft) W-SW 247 0 min 0,152 mm 0,0 UV-I 165 W/m 2,4 C -2,9 C 25,7 km/h (4 Bft) 95,65 %
02.01.2018 12:01 5,0 C 3,9 C 83 % 1012,4 hPa 0,0 l/m 29,0 km/h (5 Bft) W-SW 247 1 min 0,000 mm 0,0 UV-I 194 W/m 2,4 C -6,1 C 40,2 km/h (6 Bft) 95,65 %
02.01.2018 12:02 5,0 C 3,9 C 83 % 1012,4 hPa 0,0 l/m 24,1 km/h (4 Bft) W-SW 247 1 min 0,000 mm 0,3 UV-I 190 W/m 2,4 C -4,7 C 35,4 km/h (5 Bft) 100,00 %
02.01.2018 12:03 5,0 C 3,9 C 83 % 1012,5 hPa 0,0 l/m 19,3 km/h (3 Bft) W-SW 247 1 min 0,000 mm 0,5 UV-I 186 W/m 2,4 C -2,9 C 24,1 km/h (4 Bft) 95,65 %
02.01.2018 12:04 5,1 C 3,9 C 83 % 1012,5 hPa 0,0 l/m 19,3 km/h (3 Bft) W-SW 247 1 min 0,000 mm 0,5 UV-I 206 W/m 2,5 C -2,8 C 32,2 km/h (5 Bft) 100,00 %
02.01.2018 12:05 5,1 C 3,9 C 83 % 1012,4 hPa 0,0 l/m 17,7 km/h (3 Bft) W-SW 247 0 min 0,000 mm 0,0 UV-I 155 W/m 2,5 C -2,1 C 29,0 km/h (5 Bft) 95,65 %
02.01.2018 12:06 5,1 C 3,9 C 83 % 1012,5 hPa 0,0 l/m 24,1 km/h (4 Bft) W-SW 247 1 min 0,000 mm 0,5 UV-I 209 W/m 2,5 C -4,5 C 37,0 km/h (5 Bft) 100,00 %
02.01.2018 12:07 5,1 C 3,9 C 83 % 1012,6 hPa 0,0 l/m 19,3 km/h (3 Bft) W-SW 247 1 min 0,000 mm 0,5 UV-I 206 W/m 2,5 C -2,8 C 24,1 km/h (4 Bft) 86,96 %
02.01.2018 12:08 5,1 C 3,9 C 83 % 1012,6 hPa 0,0 l/m 24,1 km/h (4 Bft) W-SW 247 1 min 0,000 mm 0,5 UV-I 278 W/m 2,5 C -4,5 C 30,6 km/h (5 Bft) 100,00 %
02.01.2018 12:09 5,1 C 3,9 C 83 % 1012,6 hPa 0,0 l/m 27,4 km/h (4 Bft) W-SW 247 1 min 0,000 mm 0,5 UV-I 350 W/m 2,5 C -5,5 C 40,2 km/h (6 Bft) 95,65 %
02.01.2018 12:10 5,1 C 3,9 C 83 % 1012,6 hPa 0,0 l/m 27,4 km/h (4 Bft) W-SW 247 1 min 0,000 mm 0,5 UV-I 367 W/m 2,5 C -5,5 C 38,6 km/h (5 Bft) 100,00 %
02.01.2018 12:11 5,2 C 3,9 C 82 % 1012,6 hPa 0,0 l/m 24,1 km/h (4 Bft) W 270 1 min 0,000 mm 0,5 UV-I 355 W/m 2,4 C -4,4 C 43,5 km/h (6 Bft) 95,65 %
02.01.2018 12:12 5,2 C 3,9 C 82 % 1012,6 hPa 0,0 l/m 32,2 km/h (5 Bft) W-SW 247 1 min 0,000 mm 0,5 UV-I 355 W/m 2,4 C -6,6 C 48,3 km/h (6 Bft) 100,00 %
02.01.2018 12:13 5,2 C 3,9 C 82 % 1012,6 hPa 0,0 l/m 32,2 km/h (5 Bft) W 270 1 min 0,000 mm 0,5 UV-I 228 W/m 2,4 C -6,6 C 51,5 km/h (7 Bft) 95,65 %
02.01.2018 12:14 5,2 C 3,9 C 82 % 1012,6 hPa 0,0 l/m 27,4 km/h (4 Bft) W 270 1 min 0,000 mm 0,5 UV-I 221 W/m 2,4 C -5,4 C 35,4 km/h (5 Bft) 95,65 %
02.01.2018 12:15 5,2 C 3,9 C 82 % 1012,6 hPa 0,0 l/m 25,7 km/h (4 Bft) W 270 1 min 0,000 mm 0,5 UV-I 320 W/m 2,4 C -4,9 C 41,8 km/h (6 Bft) 91,30 %
02.01.2018 12:16 5,2 C 3,9 C 82 % 1012,6 hPa 0,0 l/m 22,5 km/h (4 Bft) W-SW 247 1 min 0,000 mm 0,5 UV-I 325 W/m 2,4 C -3,8 C 33,8 km/h (5 Bft) 91,30 %
02.01.2018 12:17 5,3 C 3,9 C 82 % 1012,6 hPa 0,0 l/m 24,1 km/h (4 Bft) W 270 1 min 0,000 mm 0,5 UV-I 325 W/m 2,5 C -4,2 C 30,6 km/h (5 Bft) 100,00 %
02.01.2018 12:18 5,3 C 3,9 C 82 % 1012,6 hPa 0,0 l/m 19,3 km/h (3 Bft) W-SW 247 1 min 0,000 mm 0,5 UV-I 193 W/m 2,5 C -2,5 C 32,2 km/h (5 Bft) 95,65 %
02.01.2018 12:19 5,3 C 3,9 C 82 % 1012,6 hPa 0,0 l/m 17,7 km/h (3 Bft) W-SW 247 0 min 0,000 mm 0,5 UV-I 170 W/m 2,5 C -1,8 C 27,4 km/h (4 Bft) 95,65 %
02.01.2018 12:20 5,3 C 3,9 C 82 % 1012,6 hPa 0,0 l/m 16,1 km/h (3 Bft) W-SW 247 0 min 0,000 mm 0,3 UV-I 162 W/m 2,5 C -1,1 C 22,5 km/h (4 Bft) 91,30 %
02.01.2018 12:21 5,3 C 3,9 C 82 % 1012,7 hPa 0,0 l/m 20,9 km/h (4 Bft) W-SW 247 0 min 0,000 mm 0,0 UV-I 98 W/m 2,5 C -3,1 C 32,2 km/h (5 Bft) 95,65 %
02.01.2018 12:22 5,3 C 3,9 C 82 % 1012,7 hPa 0,0 l/m 20,9 km/h (4 Bft) W 270 0 min 0,000 mm 0,5 UV-I 102 W/m 2,5 C -3,1 C 25,7 km/h (4 Bft) 91,30 %
02.01.2018 12:23 5,3 C 3,9 C 82 % 1012,7 hPa 0,0 l/m 17,7 km/h (3 Bft) W-SW 247 0 min 0,000 mm 0,5 UV-I 93 W/m 2,5 C -1,8 C 27,4 km/h (4 Bft) 100,00 %
02.01.2018 12:24 5,2 C 3,9 C 82 % 1012,7 hPa 0,0 l/m 19,3 km/h (3 Bft) W-SW 247 0 min 0,000 mm 0,0 UV-I 95 W/m 2,4 C -2,6 C 29,0 km/h (5 Bft) 95,65 %
02.01.2018 12:25 5,2 C 3,9 C 82 % 1012,6 hPa 0,0 l/m 25,7 km/h (4 Bft) W-SW 247 0 min 0,000 mm 0,5 UV-I 124 W/m 2,4 C -4,9 C 33,8 km/h (5 Bft) 100,00 %
02.01.2018 12:26 5,2 C 3,9 C 82 % 1012,7 hPa 0,0 l/m 17,7 km/h (3 Bft) W-SW 247 0 min 0,000 mm 0,5 UV-I 162 W/m 2,4 C -2,0 C 24,1 km/h (4 Bft) 100,00 %
02.01.2018 12:27 5,2 C 3,9 C 82 % 1012,7 hPa 0,0 l/m 19,3 km/h (3 Bft) W-SW 247 0 min 0,000 mm 0,5 UV-I 160 W/m 2,4 C -2,6 C 25,7 km/h (4 Bft) 95,65 %
02.01.2018 12:28 5,2 C 3,9 C 83 % 1012,7 hPa 0,0 l/m 20,9 km/h (4 Bft) W 270 0 min 0,000 mm 0,6 UV-I 160 W/m 2,6 C -3,3 C 30,6 km/h (5 Bft) 91,30 %
02.01.2018 12:29 5,2 C 3,9 C 82 % 1012,7 hPa 0,0 l/m 20,9 km/h (4 Bft) W-SW 247 0 min 0,000 mm 0,5 UV-I 160 W/m 2,4 C -3,3 C 33,8 km/h (5 Bft) 95,65 %
02.01.2018 12:30 5,3 C 3,9 C 82 % 1012,7 hPa 0,0 l/m 25,7 km/h (4 Bft) W-SW 247 1 min 0,000 mm 0,5 UV-I 404 W/m 2,5 C -4,8 C 38,6 km/h (5 Bft) 100,00 %
02.01.2018 12:31 5,4 C 3,9 C 82 % 1012,7 hPa 0,0 l/m 27,4 km/h (4 Bft) W-SW 247 1 min 0,000 mm 0,6 UV-I 450 W/m 2,6 C -5,1 C 37,0 km/h (5 Bft) 91,30 %
02.01.2018 12:32 5,4 C 3,9 C 81 % 1012,7 hPa 0,0 l/m 22,5 km/h (4 Bft) W-SW 247 1 min 0,000 mm 0,5 UV-I 450 W/m 2,4 C -3,6 C 32,2 km/h (5 Bft) 100,00 %
02.01.2018 12:33 5,5 C 3,9 C 81 % 1012,7 hPa 0,0 l/m 24,1 km/h (4 Bft) W-SW 247 1 min 0,000 mm 0,0 UV-I 230 W/m 2,5 C -4,0 C 30,6 km/h (5 Bft) 95,65 %
02.01.2018 12:34 5,6 C 3,9 C 81 % 1012,7 hPa 0,0 l/m 24,1 km/h (4 Bft) W 270 1 min 0,000 mm 0,5 UV-I 230 W/m 2,6 C -3,8 C 38,6 km/h (5 Bft) 95,65 %
02.01.2018 12:35 5,7 C 3,9 C 80 % 1012,7 hPa 0,0 l/m 20,9 km/h (4 Bft) W-SW 247 1 min 0,000 mm 0,0 UV-I 230 W/m 2,5 C -2,6 C 29,0 km/h (5 Bft) 91,30 %
02.01.2018 12:36 5,7 C 3,9 C 80 % 1012,7 hPa 0,0 l/m 22,5 km/h (4 Bft) W-SW 247 1 min 0,000 mm 0,0 UV-I 190 W/m 2,5 C -3,2 C 30,6 km/h (5 Bft) 95,65 %
02.01.2018 12:37 5,7 C 3,9 C 80 % 1012,7 hPa 0,0 l/m 22,5 km/h (4 Bft) W-SW 247 0 min 0,000 mm 0,0 UV-I 163 W/m 2,5 C -3,2 C 29,0 km/h (5 Bft) 95,65 %
02.01.2018 12:38 5,7 C 3,9 C 80 % 1012,7 hPa 0,0 l/m 20,9 km/h (4 Bft) W-SW 247 0 min 0,000 mm 0,0 UV-I 141 W/m 2,5 C -2,6 C 27,4 km/h (4 Bft) 95,65 %
02.01.2018 12:39 5,7 C 3,9 C 80 % 1012,7 hPa 0,0 l/m 17,7 km/h (3 Bft) W-SW 247 0 min 0,000 mm 0,0 UV-I 132 W/m 2,5 C -1,3 C 27,4 km/h (4 Bft) 100,00 %
02.01.2018 12:40 5,7 C 3,9 C 80 % 1012,7 hPa 0,0 l/m 19,3 km/h (3 Bft) W-SW 247 0 min 0,000 mm 0,0 UV-I 142 W/m 2,5 C -2,0 C 24,1 km/h (4 Bft) 95,65 %
02.01.2018 12:41 5,7 C 3,9 C 80 % 1012,8 hPa 0,0 l/m 19,3 km/h (3 Bft) W-SW 247 0 min 0,000 mm 0,0 UV-I 148 W/m 2,5 C -2,0 C 29,0 km/h (5 Bft) 100,00 %
02.01.2018 12:42 5,7 C 3,9 C 80 % 1012,8 hPa 0,0 l/m 19,3 km/h (3 Bft) W-SW 247 1 min 0,000 mm 0,0 UV-I 215 W/m 2,5 C -2,0 C 29,0 km/h (5 Bft) 91,30 %
02.01.2018 12:43 5,7 C 3,9 C 80 % 1012,8 hPa 0,0 l/m 22,5 km/h (4 Bft) W-SW 247 1 min 0,000 mm 0,0 UV-I 200 W/m 2,5 C -3,2 C 32,2 km/h (5 Bft) 100,00 %
02.01.2018 12:44 5,7 C 3,9 C 80 % 1012,7 hPa 0,0 l/m 24,1 km/h (4 Bft) W-SW 247 1 min 0,000 mm 0,0 UV-I 206 W/m 2,5 C -3,7 C 33,8 km/h (5 Bft) 91,30 %
02.01.2018 12:45 5,7 C 3,9 C 79 % 1012,7 hPa 0,0 l/m 19,3 km/h (3 Bft) W 270 1 min 0,000 mm 0,0 UV-I 213 W/m 2,3 C -2,0 C 24,1 km/h (4 Bft) 100,00 %
02.01.2018 12:46 5,8 C 3,9 C 80 % 1012,8 hPa 0,0 l/m 19,3 km/h (3 Bft) W-SW 247 1 min 0,000 mm 0,0 UV-I 211 W/m 2,6 C -1,9 C 24,1 km/h (4 Bft) 95,65 %
02.01.2018 12:47 5,8 C 3,9 C 80 % 1012,8 hPa 0,0 l/m 25,7 km/h (4 Bft) W-SW 247 1 min 0,000 mm 0,0 UV-I 211 W/m 2,6 C -4,1 C 35,4 km/h (5 Bft) 95,65 %
02.01.2018 12:48 5,8 C 3,9 C 79 % 1012,8 hPa 0,0 l/m 27,4 km/h (4 Bft) W-SW 247 1 min 0,000 mm 0,0 UV-I 422 W/m 2,4 C -4,6 C 35,4 km/h (5 Bft) 100,00 %
02.01.2018 12:49 5,9 C 3,9 C 79 % 1012,7 hPa 0,0 l/m 19,3 km/h (3 Bft) W 270 1 min 0,000 mm 0,0 UV-I 206 W/m 2,5 C -1,7 C 24,1 km/h (4 Bft) 91,30 %
02.01.2018 12:50 5,9 C 3,9 C 79 % 1012,9 hPa 0,0 l/m 19,3 km/h (3 Bft) W 270 1 min 0,000 mm 0,0 UV-I 220 W/m 2,5 C -1,7 C 27,4 km/h (4 Bft) 100,00 %
02.01.2018 12:51 5,9 C 3,9 C 78 % 1012,8 hPa 0,0 l/m 27,4 km/h (4 Bft) W-SW 247 1 min 0,000 mm 0,0 UV-I 183 W/m 2,4 C -4,4 C 35,4 km/h (5 Bft) 100,00 %
02.01.2018 12:52 5,9 C 3,9 C 78 % 1012,9 hPa 0,0 l/m 24,1 km/h (4 Bft) W-SW 247 0 min 0,000 mm 0,0 UV-I 156 W/m 2,4 C -3,4 C 32,2 km/h (5 Bft) 100,00 %
02.01.2018 12:53 6,0 C 3,9 C 78 % 1012,8 hPa 0,0 l/m 25,7 km/h (4 Bft) W-SW 247 0 min 0,000 mm 0,0 UV-I 123 W/m 2,5 C -3,8 C 30,6 km/h (5 Bft) 100,00 %
02.01.2018 12:54 6,0 C 3,9 C 77 % 1012,8 hPa 0,0 l/m 22,5 km/h (4 Bft) W-SW 247 0 min 0,000 mm 0,0 UV-I 134 W/m 2,3 C -2,8 C 32,2 km/h (5 Bft) 100,00 %
02.01.2018 12:55 6,0 C 3,9 C 77 % 1012,8 hPa 0,0 l/m 19,3 km/h (3 Bft) W 270 0 min 0,000 mm 0,0 UV-I 135 W/m 2,3 C -1,6 C 37,0 km/h (5 Bft) 100,00 %
02.01.2018 12:56 6,0 C 3,9 C 77 % 1012,8 hPa 0,0 l/m 20,9 km/h (4 Bft) W 270 0 min 0,000 mm 0,0 UV-I 98 W/m 2,3 C -2,2 C 30,6 km/h (5 Bft) 95,65 %
02.01.2018 12:57 6,0 C 3,9 C 77 % 1012,8 hPa 0,0 l/m 16,1 km/h (3 Bft) W 270 0 min 0,000 mm 0,0 UV-I 98 W/m 2,3 C -0,2 C 29,0 km/h (5 Bft) 95,65 %
02.01.2018 12:58 6,0 C 3,9 C 78 % 1012,7 hPa 0,0 l/m 20,9 km/h (4 Bft) W 270 0 min 0,000 mm 0,0 UV-I 107 W/m 2,5 C -2,2 C 46,7 km/h (6 Bft) 100,00 %
02.01.2018 12:59 6,0 C 3,9 C 77 % 1012,7 hPa 0,0 l/m 22,5 km/h (4 Bft) W 270 0 min 0,000 mm 0,0 UV-I 123 W/m 2,3 C -2,8 C 37,0 km/h (5 Bft) 100,00 %
02.01.2018 13:00 5,9 C 3,9 C 77 % 1012,8 hPa 0,0 l/m 25,7 km/h (4 Bft) W-SW 247 0 min 0,127 mm 0,0 UV-I 123 W/m 2,2 C -3,9 C 33,8 km/h (5 Bft) 100,00 %
02.01.2018 13:01 5,9 C 3,9 C 77 % 1012,8 hPa 0,0 l/m 17,7 km/h (3 Bft) W-SW 247 0 min 0,000 mm 0,0 UV-I 90 W/m 2,2 C -1,1 C 25,7 km/h (4 Bft) 95,65 %
02.01.2018 13:02 5,9 C 3,9 C 77 % 1012,8 hPa 0,0 l/m 20,9 km/h (4 Bft) W 270 0 min 0,000 mm 0,0 UV-I 70 W/m 2,2 C -2,3 C 27,4 km/h (4 Bft) 100,00 %
02.01.2018 13:03 5,9 C 3,9 C 77 % 1012,8 hPa 0,0 l/m 22,5 km/h (4 Bft) W-SW 247 0 min 0,000 mm 0,0 UV-I 70 W/m 2,2 C -2,9 C 29,0 km/h (5 Bft) 95,65 %
02.01.2018 13:04 5,9 C 3,9 C 77 % 1012,8 hPa 0,0 l/m 19,3 km/h (3 Bft) W 270 0 min 0,000 mm 0,0 UV-I 86 W/m 2,2 C -1,7 C 24,1 km/h (4 Bft) 100,00 %
02.01.2018 13:05 5,9 C 3,9 C 77 % 1012,8 hPa 0,0 l/m 25,7 km/h (4 Bft) W-SW 247 0 min 0,000 mm 0,0 UV-I 84 W/m 2,2 C -3,9 C 35,4 km/h (5 Bft) 100,00 %
02.01.2018 13:06 5,9 C 3,9 C 77 % 1012,7 hPa 0,0 l/m 19,3 km/h (3 Bft) W 270 0 min 0,000 mm 0,0 UV-I 71 W/m 2,2 C -1,7 C 30,6 km/h (5 Bft) 100,00 %
02.01.2018 13:07 5,9 C 3,9 C 77 % 1012,8 hPa 0,0 l/m 16,1 km/h (3 Bft) W 270 0 min 0,000 mm 0,0 UV-I 65 W/m 2,2 C -0,4 C 24,1 km/h (4 Bft) 100,00 %
02.01.2018 13:08 5,9 C 3,9 C 77 % 1012,9 hPa 0,0 l/m 19,3 km/h (3 Bft) W-SW 247 0 min 0,000 mm 0,0 UV-I 54 W/m 2,2 C -1,7 C 27,4 km/h (4 Bft) 100,00 %
02.01.2018 13:09 5,9 C 3,9 C 77 % 1012,8 hPa 0,0 l/m 24,1 km/h (4 Bft) W-SW 247 0 min 0,000 mm 0,0 UV-I 53 W/m 2,2 C -3,4 C 35,4 km/h (5 Bft) 100,00 %
02.01.2018 13:10 5,9 C 3,9 C 77 % 1012,8 hPa 0,0 l/m 17,7 km/h (3 Bft) W-SW 247 0 min 0,000 mm 0,0 UV-I 51 W/m 2,2 C -1,1 C 29,0 km/h (5 Bft) 95,65 %
02.01.2018 13:11 5,9 C 3,9 C 77 % 1012,8 hPa 0,0 l/m 16,1 km/h (3 Bft) W 270 0 min 0,000 mm 0,0 UV-I 45 W/m 2,2 C -0,4 C 25,7 km/h (4 Bft) 100,00 %
02.01.2018 13:12 5,9 C 3,9 C 77 % 1012,8 hPa 0,0 l/m 20,9 km/h (4 Bft) W 270 0 min 0,000 mm 0,0 UV-I 46 W/m 2,2 C -2,3 C 27,4 km/h (4 Bft) 100,00 %
02.01.2018 13:13 5,9 C 3,9 C 77 % 1012,8 hPa 0,0 l/m 17,7 km/h (3 Bft) W-SW 247 0 min 0,000 mm 0,0 UV-I 46 W/m 2,2 C -1,1 C 22,5 km/h (4 Bft) 100,00 %
02.01.2018 13:14 5,8 C 3,9 C 77 % 1012,8 hPa 0,0 l/m 16,1 km/h (3 Bft) W-SW 247 0 min 0,000 mm 0,0 UV-I 51 W/m 2,1 C -0,5 C 20,9 km/h (4 Bft) 100,00 %
02.01.2018 13:15 5,8 C 3,9 C 78 % 1012,8 hPa 0,0 l/m 24,1 km/h (4 Bft) W-SW 247 0 min 0,000 mm 0,0 UV-I 53 W/m 2,3 C -3,6 C 33,8 km/h (5 Bft) 100,00 %
02.01.2018 13:16 5,8 C 3,9 C 77 % 1012,8 hPa 0,0 l/m 19,3 km/h (3 Bft) W-SW 247 0 min 0,000 mm 0,0 UV-I 56 W/m 2,1 C -1,9 C 30,6 km/h (5 Bft) 95,65 %
02.01.2018 13:17 5,8 C 3,9 C 78 % 1012,8 hPa 0,0 l/m 19,3 km/h (3 Bft) W-SW 247 0 min 0,000 mm 0,0 UV-I 65 W/m 2,3 C -1,9 C 24,1 km/h (4 Bft) 95,65 %
02.01.2018 13:18 5,8 C 3,9 C 78 % 1012,8 hPa 0,0 l/m 16,1 km/h (3 Bft) W-SW 247 0 min 0,000 mm 0,0 UV-I 63 W/m 2,3 C -0,5 C 19,3 km/h (3 Bft) 100,00 %
02.01.2018 13:19 5,8 C 3,9 C 78 % 1012,8 hPa 0,0 l/m 19,3 km/h (3 Bft) W 270 0 min 0,000 mm 0,0 UV-I 67 W/m 2,3 C -1,9 C 29,0 km/h (5 Bft) 100,00 %
02.01.2018 13:20 5,8 C 3,9 C 78 % 1012,8 hPa 0,0 l/m 14,5 km/h (3 Bft) W-SW 247 0 min 0,000 mm 0,0 UV-I 81 W/m 2,3 C 0,3 C 24,1 km/h (4 Bft) 95,65 %
02.01.2018 13:21 5,8 C 3,9 C 78 % 1012,8 hPa 0,0 l/m 16,1 km/h (3 Bft) W 270 0 min 0,000 mm 0,0 UV-I 90 W/m 2,3 C -0,5 C 20,9 km/h (4 Bft) 100,00 %
02.01.2018 13:22 5,8 C 3,9 C 78 % 1012,9 hPa 0,0 l/m 17,7 km/h (3 Bft) W-SW 247 0 min 0,000 mm 0,0 UV-I 88 W/m 2,3 C -1,2 C 24,1 km/h (4 Bft) 95,65 %
02.01.2018 13:23 5,8 C 3,9 C 78 % 1012,8 hPa 0,0 l/m 17,7 km/h (3 Bft) W 270 0 min 0,000 mm 0,0 UV-I 82 W/m 2,3 C -1,2 C 25,7 km/h (4 Bft) 100,00 %
02.01.2018 13:24 5,8 C 3,9 C 78 % 1012,8 hPa 0,0 l/m 17,7 km/h (3 Bft) W-SW 247 0 min 0,000 mm 0,0 UV-I 88 W/m 2,3 C -1,2 C 25,7 km/h (4 Bft) 86,96 %
02.01.2018 13:25 5,8 C 3,9 C 77 % 1012,8 hPa 0,0 l/m 17,7 km/h (3 Bft) W 270 0 min 0,000 mm 0,0 UV-I 91 W/m 2,1 C -1,2 C 20,9 km/h (4 Bft) 100,00 %
02.01.2018 13:26 5,8 C 3,9 C 78 % 1012,9 hPa 0,0 l/m 11,3 km/h (2 Bft) W-SW 247 0 min 0,000 mm 0,0 UV-I 88 W/m 2,3 C 2,1 C 14,5 km/h (3 Bft) 95,65 %
02.01.2018 13:27 5,8 C 3,9 C 78 % 1012,9 hPa 0,0 l/m 14,5 km/h (3 Bft) W-SW 247 0 min 0,000 mm 0,0 UV-I 81 W/m 2,3 C 0,3 C 20,9 km/h (4 Bft) 100,00 %
02.01.2018 13:28 5,8 C 3,9 C 78 % 1012,9 hPa 0,0 l/m 16,1 km/h (3 Bft) W-SW 247 0 min 0,000 mm 0,0 UV-I 79 W/m 2,3 C -0,5 C 22,5 km/h (4 Bft) 95,65 %
02.01.2018 13:29 5,8 C 3,9 C 78 % 1012,9 hPa 0,0 l/m 17,7 km/h (3 Bft) W 270 0 min 0,000 mm 0,0 UV-I 72 W/m 2,3 C -1,2 C 22,5 km/h (4 Bft) 100,00 %
02.01.2018 13:30 5,8 C 3,9 C 78 % 1012,9 hPa 0,0 l/m 19,3 km/h (3 Bft) W-SW 247 0 min 0,000 mm 0,0 UV-I 65 W/m 2,3 C -1,9 C 25,7 km/h (4 Bft) 95,65 %
02.01.2018 13:31 5,8 C 3,9 C 78 % 1012,9 hPa 0,0 l/m 20,9 km/h (4 Bft) W 270 0 min 0,000 mm 0,0 UV-I 67 W/m 2,3 C -2,5 C 30,6 km/h (5 Bft) 95,65 %
02.01.2018 13:32 5,8 C 3,9 C 77 % 1012,9 hPa 0,0 l/m 12,9 km/h (3 Bft) W-SW 247 0 min 0,000 mm 0,0 UV-I 72 W/m 2,1 C 1,2 C 17,7 km/h (3 Bft) 95,65 %
02.01.2018 13:33 5,8 C 3,9 C 78 % 1012,9 hPa 0,0 l/m 14,5 km/h (3 Bft) W 270 0 min 0,000 mm 0,0 UV-I 65 W/m 2,3 C 0,3 C 24,1 km/h (4 Bft) 100,00 %
02.01.2018 13:34 5,8 C 3,9 C 78 % 1012,9 hPa 0,0 l/m 17,7 km/h (3 Bft) W 270 0 min 0,000 mm 0,0 UV-I 63 W/m 2,3 C -1,2 C 29,0 km/h (5 Bft) 86,96 %
02.01.2018 13:35 5,8 C 3,9 C 78 % 1012,9 hPa 0,0 l/m 14,5 km/h (3 Bft) W 270 0 min 0,000 mm 0,0 UV-I 69 W/m 2,3 C 0,3 C 20,9 km/h (4 Bft) 95,65 %
02.01.2018 13:36 5,8 C 3,9 C 78 % 1012,9 hPa 0,0 l/m 16,1 km/h (3 Bft) W-SW 247 0 min 0,000 mm 0,0 UV-I 67 W/m 2,3 C -0,5 C 20,9 km/h (4 Bft) 95,65 %
02.01.2018 13:37 5,8 C 3,9 C 78 % 1012,9 hPa 0,0 l/m 12,9 km/h (3 Bft) W-SW 247 0 min 0,000 mm 0,0 UV-I 72 W/m 2,3 C 1,2 C 17,7 km/h (3 Bft) 95,65 %
02.01.2018 13:38 5,8 C 3,9 C 78 % 1012,9 hPa 0,0 l/m 16,1 km/h (3 Bft) W-SW 247 0 min 0,000 mm 0,0 UV-I 72 W/m 2,3 C -0,5 C 20,9 km/h (4 Bft) 95,65 %
02.01.2018 13:39 5,8 C 3,9 C 78 % 1012,9 hPa 0,0 l/m 16,1 km/h (3 Bft) W-SW 247 0 min 0,000 mm 0,0 UV-I 63 W/m 2,3 C -0,5 C 20,9 km/h (4 Bft) 91,30 %
02.01.2018 13:40 5,8 C 3,9 C 78 % 1012,9 hPa 0,0 l/m 19,3 km/h (3 Bft) W-SW 247 0 min 0,000 mm 0,0 UV-I 56 W/m 2,3 C -1,9 C 29,0 km/h (5 Bft) 95,65 %
02.01.2018 13:41 5,8 C 3,9 C 78 % 1012,9 hPa 0,0 l/m 17,7 km/h (3 Bft) W-SW 247 0 min 0,000 mm 0,0 UV-I 52 W/m 2,3 C -1,2 C 25,7 km/h (4 Bft) 95,65 %
02.01.2018 13:42 5,8 C 3,9 C 78 % 1012,9 hPa 0,0 l/m 14,5 km/h (3 Bft) W-SW 247 0 min 0,000 mm 0,0 UV-I 47 W/m 2,3 C 0,3 C 19,3 km/h (3 Bft) 100,00 %
02.01.2018 13:43 5,8 C 3,9 C 78 % 1012,9 hPa 0,0 l/m 14,5 km/h (3 Bft) W-SW 247 0 min 0,000 mm 0,0 UV-I 42 W/m 2,3 C 0,3 C 22,5 km/h (4 Bft) 95,65 %
02.01.2018 13:44 5,8 C 3,9 C 78 % 1012,9 hPa 0,0 l/m 17,7 km/h (3 Bft) W-SW 247 0 min 0,000 mm 0,0 UV-I 40 W/m 2,3 C -1,2 C 25,7 km/h (4 Bft) 95,65 %
02.01.2018 13:45 5,8 C 3,9 C 78 % 1012,9 hPa 0,0 l/m 17,7 km/h (3 Bft) W 270 0 min 0,000 mm 0,0 UV-I 39 W/m 2,3 C -1,2 C 25,7 km/h (4 Bft) 95,65 %
02.01.2018 13:46 5,8 C 3,9 C 79 % 1012,9 hPa 0,0 l/m 12,9 km/h (3 Bft) W 270 0 min 0,000 mm 0,0 UV-I 35 W/m 2,4 C 1,2 C 17,7 km/h (3 Bft) 95,65 %
02.01.2018 13:47 5,8 C 3,9 C 79 % 1012,9 hPa 0,0 l/m 14,5 km/h (3 Bft) W-SW 247 0 min 0,000 mm 0,0 UV-I 28 W/m 2,4 C 0,3 C 19,3 km/h (3 Bft) 91,30 %
02.01.2018 13:48 5,7 C 3,9 C 80 % 1012,9 hPa 0,0 l/m 16,1 km/h (3 Bft) W 270 0 min 0,000 mm 0,0 UV-I 28 W/m 2,5 C -0,6 C 19,3 km/h (3 Bft) 100,00 %
02.01.2018 13:49 5,7 C 3,9 C 80 % 1012,9 hPa 0,0 l/m 16,1 km/h (3 Bft) W 270 0 min 0,000 mm 0,0 UV-I 26 W/m 2,5 C -0,6 C 24,1 km/h (4 Bft) 95,65 %
02.01.2018 13:50 5,6 C 3,9 C 81 % 1012,9 hPa 0,0 l/m 14,5 km/h (3 Bft) W-SW 247 0 min 0,000 mm 0,0 UV-I 26 W/m 2,6 C 0,1 C 20,9 km/h (4 Bft) 100,00 %
02.01.2018 13:51 5,6 C 3,9 C 81 % 1012,9 hPa 0,0 l/m 11,3 km/h (2 Bft) W-SW 247 0 min 0,000 mm 0,0 UV-I 28 W/m 2,6 C 1,9 C 20,9 km/h (4 Bft) 100,00 %
02.01.2018 13:52 5,5 C 3,9 C 82 % 1013,0 hPa 0,0 l/m 14,5 km/h (3 Bft) W-SW 247 0 min 0,000 mm 0,0 UV-I 30 W/m 2,7 C -0,1 C 19,3 km/h (3 Bft) 95,65 %
02.01.2018 13:53 5,5 C 3,9 C 82 % 1013,0 hPa 0,0 l/m 16,1 km/h (3 Bft) W 270 0 min 0,000 mm 0,0 UV-I 30 W/m 2,7 C -0,9 C 27,4 km/h (4 Bft) 95,65 %
02.01.2018 13:54 5,4 C 3,9 C 82 % 1013,0 hPa 0,0 l/m 16,1 km/h (3 Bft) W 270 0 min 0,000 mm 0,0 UV-I 30 W/m 2,6 C -1,0 C 20,9 km/h (4 Bft) 95,65 %
02.01.2018 13:55 5,3 C 3,9 C 83 % 1013,0 hPa 0,0 l/m 12,9 km/h (3 Bft) W 270 0 min 0,000 mm 0,0 UV-I 33 W/m 2,7 C 0,6 C 19,3 km/h (3 Bft) 95,65 %
02.01.2018 13:56 5,3 C 3,9 C 84 % 1013,0 hPa 0,0 l/m 19,3 km/h (3 Bft) W 270 0 min 0,000 mm 0,0 UV-I 47 W/m 2,8 C -2,5 C 22,5 km/h (4 Bft) 100,00 %
02.01.2018 13:57 5,2 C 3,9 C 84 % 1013,0 hPa 0,0 l/m 14,5 km/h (3 Bft) W-SW 247 0 min 0,000 mm 0,0 UV-I 42 W/m 2,7 C -0,4 C 20,9 km/h (4 Bft) 100,00 %
02.01.2018 13:58 5,1 C 3,9 C 85 % 1013,0 hPa 0,0 l/m 20,9 km/h (4 Bft) W-SW 247 0 min 0,000 mm 0,0 UV-I 30 W/m 2,8 C -3,4 C 32,2 km/h (5 Bft) 100,00 %
02.01.2018 13:59 5,0 C 3,9 C 85 % 1013,0 hPa 0,0 l/m 22,5 km/h (4 Bft) W-SW 247 0 min 0,000 mm 0,0 UV-I 23 W/m 2,7 C -4,1 C 37,0 km/h (5 Bft) 91,30 %
02.01.2018 14:00 4,9 C 3,9 C 85 % 1013,0 hPa 0,0 l/m 22,5 km/h (4 Bft) W-SW 247 0 min 0,051 mm 0,0 UV-I 23 W/m 2,6 C -4,2 C 30,6 km/h (5 Bft) 100,00 %
02.01.2018 14:01 4,8 C 3,9 C 85 % 1013,0 hPa 0,0 l/m 20,9 km/h (4 Bft) W-SW 247 0 min 0,000 mm 0,0 UV-I 25 W/m 2,5 C -3,8 C 29,0 km/h (5 Bft) 100,00 %
02.01.2018 14:02 4,8 C 3,9 C 85 % 1013,1 hPa 0,2 l/m 22,5 km/h (4 Bft) W-SW 247 0 min 0,000 mm 0,0 UV-I 28 W/m 2,5 C -4,4 C 33,8 km/h (5 Bft) 100,00 %
02.01.2018 14:03 4,7 C 3,9 C 86 % 1013,2 hPa 0,0 l/m 22,5 km/h (4 Bft) W 270 0 min 0,000 mm 0,0 UV-I 23 W/m 2,6 C -4,5 C 27,4 km/h (4 Bft) 95,65 %
02.01.2018 14:04 4,6 C 3,9 C 86 % 1013,1 hPa 0,0 l/m 22,5 km/h (4 Bft) W 270 0 min 0,000 mm 0,0 UV-I 23 W/m 2,5 C -4,6 C 29,0 km/h (5 Bft) 95,65 %
02.01.2018 14:05 4,6 C 3,9 C 87 % 1013,2 hPa 0,0 l/m 16,1 km/h (3 Bft) W-SW 247 0 min 0,000 mm 0,0 UV-I 32 W/m 2,6 C -2,0 C 20,9 km/h (4 Bft) 100,00 %
02.01.2018 14:06 4,4 C 3,9 C 87 % 1013,2 hPa 0,0 l/m 19,3 km/h (3 Bft) W-SW 247 0 min 0,000 mm 0,0 UV-I 39 W/m 2,4 C -3,7 C 30,6 km/h (5 Bft) 95,65 %
02.01.2018 14:07 4,4 C 3,9 C 88 % 1013,2 hPa 0,0 l/m 19,3 km/h (3 Bft) W-SW 247 0 min 0,000 mm 0,0 UV-I 49 W/m 2,6 C -3,7 C 27,4 km/h (4 Bft) 100,00 %
02.01.2018 14:08 4,3 C 3,9 C 88 % 1013,2 hPa 0,0 l/m 14,5 km/h (3 Bft) W 270 0 min 0,000 mm 0,0 UV-I 56 W/m 2,5 C -1,5 C 19,3 km/h (3 Bft) 100,00 %
02.01.2018 14:09 4,3 C 3,9 C 89 % 1013,1 hPa 0,0 l/m 14,5 km/h (3 Bft) W 270 0 min 0,000 mm 0,0 UV-I 63 W/m 2,7 C -1,5 C 19,3 km/h (3 Bft) 100,00 %
02.01.2018 14:10 4,3 C 3,9 C 89 % 1013,1 hPa 0,0 l/m 11,3 km/h (2 Bft) W-SW 247 0 min 0,000 mm 0,0 UV-I 71 W/m 2,7 C 0,4 C 17,7 km/h (3 Bft) 100,00 %
02.01.2018 14:11 4,3 C 3,9 C 90 % 1013,1 hPa 0,0 l/m 12,9 km/h (3 Bft) W-SW 247 0 min 0,000 mm 0,0 UV-I 81 W/m 2,8 C -0,6 C 17,7 km/h (3 Bft) 95,65 %
02.01.2018 14:12 4,3 C 3,9 C 90 % 1013,1 hPa 0,0 l/m 12,9 km/h (3 Bft) W-SW 247 0 min 0,000 mm 0,0 UV-I 84 W/m 2,8 C -0,6 C 17,7 km/h (3 Bft) 95,65 %
02.01.2018 14:13 4,3 C 3,9 C 90 % 1013,2 hPa 0,0 l/m 14,5 km/h (3 Bft) W-SW 247 0 min 0,000 mm 0,0 UV-I 84 W/m 2,8 C -1,5 C 22,5 km/h (4 Bft) 91,30 %
02.01.2018 14:14 4,3 C 3,9 C 90 % 1013,2 hPa 0,0 l/m 17,7 km/h (3 Bft) W-SW 247 0 min 0,000 mm 0,0 UV-I 86 W/m 2,8 C -3,1 C 25,7 km/h (4 Bft) 100,00 %
02.01.2018 14:15 4,3 C 3,9 C 90 % 1013,3 hPa 0,2 l/m 24,1 km/h (4 Bft) W-SW 247 0 min 0,000 mm 0,0 UV-I 86 W/m 2,8 C -5,6 C 30,6 km/h (5 Bft) 95,65 %
02.01.2018 14:16 4,3 C 3,9 C 90 % 1013,2 hPa 0,0 l/m 22,5 km/h (4 Bft) W-SW 247 0 min 0,000 mm 0,0 UV-I 102 W/m 2,8 C -5,0 C 27,4 km/h (4 Bft) 100,00 %
02.01.2018 14:17 4,3 C 3,9 C 89 % 1013,2 hPa 0,0 l/m 20,9 km/h (4 Bft) W 270 0 min 0,000 mm 0,0 UV-I 90 W/m 2,7 C -4,4 C 29,0 km/h (5 Bft) 95,65 %
02.01.2018 14:18 4,3 C 3,9 C 89 % 1013,3 hPa 0,0 l/m 20,9 km/h (4 Bft) W 270 0 min 0,000 mm 0,0 UV-I 67 W/m 2,7 C -4,4 C 30,6 km/h (5 Bft) 100,00 %
02.01.2018 14:19 4,3 C 3,9 C 89 % 1013,4 hPa 0,0 l/m 27,4 km/h (4 Bft) W 270 0 min 0,000 mm 0,0 UV-I 42 W/m 2,7 C -6,6 C 35,4 km/h (5 Bft) 95,65 %
02.01.2018 14:20 4,3 C 3,9 C 89 % 1013,4 hPa 0,0 l/m 19,3 km/h (3 Bft) W-SW 247 0 min 0,000 mm 0,0 UV-I 30 W/m 2,7 C -3,8 C 25,7 km/h (4 Bft) 95,65 %
02.01.2018 14:21 4,3 C 3,9 C 89 % 1013,4 hPa 0,0 l/m 20,9 km/h (4 Bft) W-SW 247 0 min 0,000 mm 0,0 UV-I 26 W/m 2,7 C -4,4 C 25,7 km/h (4 Bft) 95,65 %
02.01.2018 14:22 4,2 C 3,9 C 89 % 1013,4 hPa 0,0 l/m 16,1 km/h (3 Bft) W-SW 247 0 min 0,000 mm 0,0 UV-I 20 W/m 2,6 C -2,5 C 29,0 km/h (5 Bft) 91,30 %
02.01.2018 14:23 4,2 C 3,9 C 89 % 1013,4 hPa 0,2 l/m 20,9 km/h (4 Bft) W-SW 247 0 min 0,000 mm 0,0 UV-I 18 W/m 2,6 C -4,6 C 30,6 km/h (5 Bft) 100,00 %
02.01.2018 14:24 4,2 C 3,9 C 89 % 1013,4 hPa 0,0 l/m 16,1 km/h (3 Bft) W-SW 247 0 min 0,000 mm 0,0 UV-I 26 W/m 2,6 C -2,5 C 20,9 km/h (4 Bft) 95,65 %
02.01.2018 14:25 4,1 C 3,9 C 89 % 1013,3 hPa 0,0 l/m 17,7 km/h (3 Bft) W 270 0 min 0,000 mm 0,0 UV-I 35 W/m 2,5 C -3,3 C 24,1 km/h (4 Bft) 100,00 %
02.01.2018 14:26 4,1 C 3,9 C 90 % 1013,3 hPa 0,0 l/m 19,3 km/h (3 Bft) W-SW 247 0 min 0,000 mm 0,0 UV-I 46 W/m 2,6 C -4,0 C 38,6 km/h (5 Bft) 95,65 %
02.01.2018 14:27 4,1 C 3,9 C 90 % 1013,3 hPa 0,0 l/m 17,7 km/h (3 Bft) W-SW 247 0 min 0,000 mm 0,0 UV-I 54 W/m 2,6 C -3,3 C 22,5 km/h (4 Bft) 95,65 %
02.01.2018 14:28 4,0 C 3,9 C 90 % 1013,2 hPa 0,0 l/m 16,1 km/h (3 Bft) W 270 0 min 0,000 mm 0,0 UV-I 66 W/m 2,5 C -2,7 C 22,5 km/h (4 Bft) 95,65 %
02.01.2018 14:29 3,9 C 3,9 C 90 % 1013,2 hPa 0,0 l/m 19,3 km/h (3 Bft) W-SW 247 0 min 0,000 mm 0,0 UV-I 72 W/m 2,4 C -4,3 C 25,7 km/h (4 Bft) 100,00 %
02.01.2018 14:30 3,9 C 3,9 C 90 % 1013,3 hPa 0,0 l/m 12,9 km/h (3 Bft) W-SW 247 0 min 0,000 mm 0,0 UV-I 76 W/m 2,4 C -1,1 C 19,3 km/h (3 Bft) 95,65 %
02.01.2018 14:31 3,9 C 3,9 C 90 % 1013,4 hPa 0,0 l/m 17,7 km/h (3 Bft) W-SW 247 0 min 0,000 mm 0,0 UV-I 76 W/m 2,4 C -3,6 C 22,5 km/h (4 Bft) 95,65 %
02.01.2018 14:32 3,9 C 3,9 C 90 % 1013,4 hPa 0,0 l/m 14,5 km/h (3 Bft) W 270 0 min 0,000 mm 0,0 UV-I 69 W/m 2,4 C -2,0 C 19,3 km/h (3 Bft) 100,00 %
02.01.2018 14:33 3,9 C 3,9 C 90 % 1013,3 hPa 0,0 l/m 19,3 km/h (3 Bft) W-SW 247 0 min 0,000 mm 0,0 UV-I 61 W/m 2,4 C -4,3 C 29,0 km/h (5 Bft) 95,65 %
02.01.2018 14:34 3,9 C 3,9 C 90 % 1013,3 hPa 0,0 l/m 20,9 km/h (4 Bft) W 270 0 min 0,000 mm 0,0 UV-I 56 W/m 2,4 C -5,0 C 25,7 km/h (4 Bft) 95,65 %
02.01.2018 14:35 4,0 C 3,9 C 90 % 1013,3 hPa 0,0 l/m 14,5 km/h (3 Bft) W-SW 247 0 min 0,000 mm 0,0 UV-I 54 W/m 2,5 C -1,9 C 19,3 km/h (3 Bft) 95,65 %
02.01.2018 14:36 3,9 C 3,9 C 90 % 1013,4 hPa 0,0 l/m 16,1 km/h (3 Bft) W-SW 247 0 min 0,000 mm 0,0 UV-I 51 W/m 2,4 C -2,8 C 25,7 km/h (4 Bft) 100,00 %
02.01.2018 14:37 4,0 C 3,9 C 90 % 1013,3 hPa 0,0 l/m 19,3 km/h (3 Bft) W-SW 247 0 min 0,000 mm 0,0 UV-I 49 W/m 2,5 C -4,2 C 29,0 km/h (5 Bft) 95,65 %
02.01.2018 14:38 4,0 C 3,9 C 90 % 1013,4 hPa 0,0 l/m 14,5 km/h (3 Bft) W 270 0 min 0,000 mm 0,0 UV-I 49 W/m 2,5 C -1,9 C 20,9 km/h (4 Bft) 100,00 %
02.01.2018 14:39 4,0 C 3,9 C 91 % 1013,4 hPa 0,0 l/m 16,1 km/h (3 Bft) W 270 0 min 0,000 mm 0,0 UV-I 53 W/m 2,7 C -2,7 C 20,9 km/h (4 Bft) 95,65 %
02.01.2018 14:40 4,0 C 3,9 C 91 % 1013,4 hPa 0,0 l/m 14,5 km/h (3 Bft) W-SW 247 0 min 0,000 mm 0,0 UV-I 53 W/m 2,7 C -1,9 C 16,1 km/h (3 Bft) 95,65 %
02.01.2018 14:41 4,0 C 3,9 C 91 % 1013,5 hPa 0,0 l/m 17,7 km/h (3 Bft) W 270 0 min 0,000 mm 0,0 UV-I 53 W/m 2,7 C -3,5 C 24,1 km/h (4 Bft) 86,96 %
02.01.2018 14:42 4,1 C 3,9 C 91 % 1013,4 hPa 0,0 l/m 12,9 km/h (3 Bft) W-SW 247 0 min 0,000 mm 0,0 UV-I 56 W/m 2,8 C -0,8 C 16,1 km/h (3 Bft) 91,30 %
02.01.2018 14:43 4,1 C 3,9 C 91 % 1013,5 hPa 0,0 l/m 12,9 km/h (3 Bft) W-SW 247 0 min 0,000 mm 0,0 UV-I 58 W/m 2,8 C -0,8 C 19,3 km/h (3 Bft) 95,65 %
02.01.2018 14:44 4,1 C 3,9 C 91 % 1013,5 hPa 0,0 l/m 16,1 km/h (3 Bft) W-SW 247 0 min 0,000 mm 0,0 UV-I 56 W/m 2,8 C -2,6 C 22,5 km/h (4 Bft) 95,65 %
02.01.2018 14:45 4,1 C 3,9 C 91 % 1013,5 hPa 0,0 l/m 16,1 km/h (3 Bft) W-SW 247 0 min 0,000 mm 0,0 UV-I 43 W/m 2,8 C -2,6 C 20,9 km/h (4 Bft) 95,65 %
02.01.2018 14:46 4,1 C 3,9 C 91 % 1013,6 hPa 0,0 l/m 17,7 km/h (3 Bft) W-SW 247 0 min 0,000 mm 0,0 UV-I 35 W/m 2,8 C -3,3 C 22,5 km/h (4 Bft) 95,65 %
02.01.2018 14:47 4,1 C 3,9 C 91 % 1013,6 hPa 0,0 l/m 16,1 km/h (3 Bft) W 270 0 min 0,000 mm 0,0 UV-I 30 W/m 2,8 C -2,6 C 19,3 km/h (3 Bft) 91,30 %
02.01.2018 14:48 4,1 C 3,9 C 91 % 1013,6 hPa 0,0 l/m 25,7 km/h (4 Bft) W-SW 247 0 min 0,000 mm 0,0 UV-I 23 W/m 2,8 C -6,4 C 43,5 km/h (6 Bft) 95,65 %
02.01.2018 14:49 4,2 C 3,9 C 90 % 1013,5 hPa 0,2 l/m 24,1 km/h (4 Bft) W 270 0 min 0,000 mm 0,0 UV-I 21 W/m 2,7 C -5,7 C 38,6 km/h (5 Bft) 91,30 %
02.01.2018 14:50 4,2 C 3,9 C 90 % 1013,6 hPa 0,0 l/m 19,3 km/h (3 Bft) W-SW 247 0 min 0,000 mm 0,0 UV-I 21 W/m 2,7 C -3,9 C 30,6 km/h (5 Bft) 100,00 %
02.01.2018 14:51 4,2 C 3,9 C 90 % 1013,6 hPa 0,0 l/m 25,7 km/h (4 Bft) W-SW 247 0 min 0,000 mm 0,0 UV-I 19 W/m 2,7 C -6,3 C 33,8 km/h (5 Bft) 95,65 %
02.01.2018 14:52 4,2 C 3,9 C 90 % 1013,6 hPa 0,0 l/m 20,9 km/h (4 Bft) W 270 0 min 0,000 mm 0,0 UV-I 21 W/m 2,7 C -4,6 C 29,0 km/h (5 Bft) 100,00 %
02.01.2018 14:53 4,2 C 3,9 C 90 % 1013,7 hPa 0,0 l/m 16,1 km/h (3 Bft) W 270 0 min 0,000 mm 0,0 UV-I 25 W/m 2,7 C -2,5 C 25,7 km/h (4 Bft) 91,30 %
02.01.2018 14:54 4,2 C 3,9 C 90 % 1013,7 hPa 0,0 l/m 16,1 km/h (3 Bft) W 270 0 min 0,000 mm 0,0 UV-I 26 W/m 2,7 C -2,5 C 22,5 km/h (4 Bft) 100,00 %
02.01.2018 14:55 4,2 C 3,9 C 90 % 1013,6 hPa 0,0 l/m 19,3 km/h (3 Bft) W 270 0 min 0,000 mm 0,0 UV-I 28 W/m 2,7 C -3,9 C 27,4 km/h (4 Bft) 86,96 %
02.01.2018 14:56 4,1 C 3,9 C 90 % 1013,7 hPa 0,0 l/m 19,3 km/h (3 Bft) W 270 0 min 0,000 mm 0,0 UV-I 28 W/m 2,6 C -4,0 C 29,0 km/h (5 Bft) 91,30 %
02.01.2018 14:57 4,1 C 3,9 C 90 % 1013,7 hPa 0,0 l/m 20,9 km/h (4 Bft) W-SW 247 0 min 0,000 mm 0,0 UV-I 32 W/m 2,6 C -4,7 C 27,4 km/h (4 Bft) 100,00 %
02.01.2018 14:58 4,1 C 3,9 C 90 % 1013,8 hPa 0,0 l/m 17,7 km/h (3 Bft) W-SW 247 0 min 0,000 mm 0,0 UV-I 32 W/m 2,6 C -3,3 C 24,1 km/h (4 Bft) 95,65 %
02.01.2018 14:59 4,1 C 3,9 C 90 % 1013,8 hPa 0,0 l/m 19,3 km/h (3 Bft) W 270 0 min 0,000 mm 0,0 UV-I 30 W/m 2,6 C -4,0 C 24,1 km/h (4 Bft) 100,00 %
02.01.2018 15:00 4,1 C 3,9 C 90 % 1013,9 hPa 0,0 l/m 16,1 km/h (3 Bft) W-SW 247 0 min 0,025 mm 0,0 UV-I 30 W/m 2,6 C -2,6 C 20,9 km/h (4 Bft) 95,65 %
02.01.2018 15:01 4,1 C 3,9 C 90 % 1013,8 hPa 0,0 l/m 14,5 km/h (3 Bft) W-SW 247 0 min 0,000 mm 0,0 UV-I 28 W/m 2,6 C -1,7 C 16,1 km/h (3 Bft) 95,65 %
02.01.2018 15:02 4,1 C 3,9 C 90 % 1013,8 hPa 0,0 l/m 12,9 km/h (3 Bft) W-SW 247 0 min 0,000 mm 0,0 UV-I 28 W/m 2,6 C -0,8 C 17,7 km/h (3 Bft) 91,30 %
02.01.2018 15:03 4,1 C 3,9 C 90 % 1013,9 hPa 0,0 l/m 16,1 km/h (3 Bft) W 270 0 min 0,000 mm 0,0 UV-I 22 W/m 2,6 C -2,6 C 17,7 km/h (3 Bft) 95,65 %
02.01.2018 15:04 4,1 C 3,9 C 90 % 1013,9 hPa 0,0 l/m 19,3 km/h (3 Bft) W 270 0 min 0,000 mm 0,0 UV-I 23 W/m 2,6 C -4,0 C 27,4 km/h (4 Bft) 95,65 %
02.01.2018 15:05 4,1 C 3,9 C 90 % 1013,8 hPa 0,0 l/m 12,9 km/h (3 Bft) W-SW 247 0 min 0,000 mm 0,0 UV-I 23 W/m 2,6 C -0,8 C 17,7 km/h (3 Bft) 100,00 %
02.01.2018 15:06 4,1 C 3,9 C 90 % 1013,9 hPa 0,0 l/m 19,3 km/h (3 Bft) W-SW 247 0 min 0,000 mm 0,0 UV-I 23 W/m 2,6 C -4,0 C 30,6 km/h (5 Bft) 100,00 %
02.01.2018 15:07 4,1 C 3,9 C 90 % 1013,9 hPa 0,0 l/m 12,9 km/h (3 Bft) W-SW 247 0 min 0,000 mm 0,0 UV-I 21 W/m 2,6 C -0,8 C 22,5 km/h (4 Bft) 100,00 %
02.01.2018 15:08 4,1 C 3,9 C 90 % 1013,9 hPa 0,0 l/m 16,1 km/h (3 Bft) W 270 0 min 0,000 mm 0,0 UV-I 19 W/m 2,6 C -2,6 C 22,5 km/h (4 Bft) 100,00 %
02.01.2018 15:09 4,1 C 3,9 C 90 % 1013,9 hPa 0,0 l/m 16,1 km/h (3 Bft) W-SW 247 0 min 0,000 mm 0,0 UV-I 19 W/m 2,6 C -2,6 C 22,5 km/h (4 Bft) 91,30 %
02.01.2018 15:10 4,1 C 3,9 C 90 % 1013,9 hPa 0,0 l/m 14,5 km/h (3 Bft) W-SW 247 0 min 0,000 mm 0,0 UV-I 19 W/m 2,6 C -1,7 C 17,7 km/h (3 Bft) 100,00 %
02.01.2018 15:11 4,1 C 3,9 C 90 % 1013,9 hPa 0,0 l/m 17,7 km/h (3 Bft) W-SW 247 0 min 0,000 mm 0,0 UV-I 19 W/m 2,6 C -3,3 C 22,5 km/h (4 Bft) 100,00 %
02.01.2018 15:12 4,1 C 3,9 C 90 % 1013,9 hPa 0,0 l/m 16,1 km/h (3 Bft) W 270 0 min 0,000 mm 0,0 UV-I 19 W/m 2,6 C -2,6 C 24,1 km/h (4 Bft) 100,00 %
02.01.2018 15:13 4,1 C 3,9 C 90 % 1013,9 hPa 0,0 l/m 19,3 km/h (3 Bft) W-SW 247 0 min 0,000 mm 0,0 UV-I 21 W/m 2,6 C -4,0 C 25,7 km/h (4 Bft) 100,00 %
02.01.2018 15:14 4,1 C 3,9 C 90 % 1013,9 hPa 0,0 l/m 17,7 km/h (3 Bft) W 270 0 min 0,000 mm 0,0 UV-I 21 W/m 2,6 C -3,3 C 22,5 km/h (4 Bft) 100,00 %
02.01.2018 15:15 4,1 C 3,9 C 90 % 1013,9 hPa 0,0 l/m 14,5 km/h (3 Bft) W-SW 247 0 min 0,000 mm 0,0 UV-I 25 W/m 2,6 C -1,7 C 17,7 km/h (3 Bft) 95,65 %
02.01.2018 15:16 4,1 C 3,9 C 90 % 1014,0 hPa 0,0 l/m 14,5 km/h (3 Bft) W-SW 247 0 min 0,000 mm 0,0 UV-I 21 W/m 2,6 C -1,7 C 22,5 km/h (4 Bft) 95,65 %
02.01.2018 15:17 4,0 C 3,9 C 90 % 1014,0 hPa 0,0 l/m 12,9 km/h (3 Bft) W-SW 247 0 min 0,000 mm 0,0 UV-I 18 W/m 2,5 C -1,0 C 16,1 km/h (3 Bft) 100,00 %
02.01.2018 15:18 4,0 C 3,9 C 90 % 1014,0 hPa 0,0 l/m 14,5 km/h (3 Bft) W-SW 247 0 min 0,000 mm 0,0 UV-I 14 W/m 2,5 C -1,9 C 19,3 km/h (3 Bft) 95,65 %
02.01.2018 15:19 4,0 C 3,9 C 90 % 1014,0 hPa 0,0 l/m 17,7 km/h (3 Bft) SW 225 0 min 0,000 mm 0,0 UV-I 14 W/m 2,5 C -3,5 C 27,4 km/h (4 Bft) 100,00 %
02.01.2018 15:20 4,0 C 3,9 C 90 % 1014,1 hPa 0,0 l/m 16,1 km/h (3 Bft) W-SW 247 0 min 0,000 mm 0,0 UV-I 15 W/m 2,5 C -2,7 C 24,1 km/h (4 Bft) 100,00 %
02.01.2018 15:21 3,9 C 3,9 C 90 % 1014,0 hPa 0,0 l/m 17,7 km/h (3 Bft) SW 225 0 min 0,000 mm 0,0 UV-I 12 W/m 2,4 C -3,6 C 22,5 km/h (4 Bft) 100,00 %
02.01.2018 15:22 3,9 C 3,9 C 90 % 1014,1 hPa 0,0 l/m 17,7 km/h (3 Bft) SW 225 0 min 0,000 mm 0,0 UV-I 11 W/m 2,4 C -3,6 C 25,7 km/h (4 Bft) 100,00 %
02.01.2018 15:23 3,9 C 3,9 C 90 % 1014,0 hPa 0,0 l/m 17,7 km/h (3 Bft) SW 225 0 min 0,000 mm 0,0 UV-I 11 W/m 2,4 C -3,6 C 25,7 km/h (4 Bft) 95,65 %
02.01.2018 15:24 3,8 C 3,9 C 90 % 1014,1 hPa 0,0 l/m 16,1 km/h (3 Bft) W-SW 247 0 min 0,000 mm 0,0 UV-I 11 W/m 2,3 C -2,9 C 19,3 km/h (3 Bft) 100,00 %
02.01.2018 15:25 3,8 C 3,9 C 90 % 1014,1 hPa 0,0 l/m 16,1 km/h (3 Bft) W-SW 247 0 min 0,000 mm 0,0 UV-I 11 W/m 2,3 C -2,9 C 25,7 km/h (4 Bft) 100,00 %
02.01.2018 15:26 3,8 C 3,9 C 90 % 1014,1 hPa 0,0 l/m 17,7 km/h (3 Bft) W-SW 247 0 min 0,000 mm 0,0 UV-I 10 W/m 2,3 C -3,7 C 27,4 km/h (4 Bft) 100,00 %
02.01.2018 15:27 3,8 C 3,9 C 90 % 1014,1 hPa 0,0 l/m 17,7 km/h (3 Bft) W-SW 247 0 min 0,000 mm 0,0 UV-I 9 W/m 2,3 C -3,7 C 25,7 km/h (4 Bft) 100,00 %
02.01.2018 15:28 3,7 C 3,9 C 90 % 1014,1 hPa 0,0 l/m 17,7 km/h (3 Bft) SW 225 0 min 0,000 mm 0,0 UV-I 9 W/m 2,2 C -3,8 C 25,7 km/h (4 Bft) 100,00 %
02.01.2018 15:29 3,7 C 3,9 C 90 % 1014,1 hPa 0,0 l/m 17,7 km/h (3 Bft) W-SW 247 0 min 0,000 mm 0,0 UV-I 9 W/m 2,2 C -3,8 C 25,7 km/h (4 Bft) 100,00 %
02.01.2018 15:30 3,7 C 3,9 C 90 % 1014,1 hPa 0,0 l/m 16,1 km/h (3 Bft) SW 225 0 min 0,000 mm 0,0 UV-I 9 W/m 2,2 C -3,1 C 25,7 km/h (4 Bft) 95,65 %
02.01.2018 15:31 3,7 C 3,9 C 90 % 1014,2 hPa 0,0 l/m 14,5 km/h (3 Bft) W-SW 247 0 min 0,000 mm 0,0 UV-I 7 W/m 2,2 C -2,2 C 20,9 km/h (4 Bft) 95,65 %
02.01.2018 15:32 3,7 C 3,9 C 90 % 1014,2 hPa 0,0 l/m 19,3 km/h (3 Bft) SW 225 0 min 0,000 mm 0,0 UV-I 9 W/m 2,2 C -4,6 C 24,1 km/h (4 Bft) 100,00 %
02.01.2018 15:33 3,7 C 3,9 C 90 % 1014,2 hPa 0,0 l/m 17,7 km/h (3 Bft) SW 225 0 min 0,000 mm 0,0 UV-I 7 W/m 2,2 C -3,8 C 24,1 km/h (4 Bft) 100,00 %
02.01.2018 15:34 3,7 C 3,9 C 90 % 1014,3 hPa 0,0 l/m 17,7 km/h (3 Bft) SW 225 0 min 0,000 mm 0,0 UV-I 7 W/m 2,2 C -3,8 C 27,4 km/h (4 Bft) 100,00 %
02.01.2018 15:35 3,7 C 3,9 C 90 % 1014,3 hPa 0,0 l/m 17,7 km/h (3 Bft) W 270 0 min 0,000 mm 0,0 UV-I 7 W/m 2,2 C -3,8 C 22,5 km/h (4 Bft) 100,00 %
02.01.2018 15:36 3,7 C 3,9 C 90 % 1014,2 hPa 0,0 l/m 14,5 km/h (3 Bft) W-SW 247 0 min 0,000 mm 0,0 UV-I 7 W/m 2,2 C -2,2 C 19,3 km/h (3 Bft) 100,00 %
02.01.2018 15:37 3,6 C 3,9 C 91 % 1014,2 hPa 0,0 l/m 16,1 km/h (3 Bft) W-SW 247 0 min 0,000 mm 0,0 UV-I 7 W/m 2,3 C -3,2 C 20,9 km/h (4 Bft) 91,30 %
02.01.2018 15:38 3,6 C 3,9 C 91 % 1014,1 hPa 0,0 l/m 16,1 km/h (3 Bft) W-SW 247 0 min 0,000 mm 0,0 UV-I 7 W/m 2,3 C -3,2 C 20,9 km/h (4 Bft) 100,00 %
02.01.2018 15:39 3,6 C 3,9 C 91 % 1014,2 hPa 0,2 l/m 17,7 km/h (3 Bft) W-SW 247 0 min 0,000 mm 0,0 UV-I 7 W/m 2,3 C -4,0 C 20,9 km/h (4 Bft) 100,00 %
02.01.2018 15:40 3,5 C 3,9 C 91 % 1014,2 hPa 0,0 l/m 12,9 km/h (3 Bft) W-SW 247 0 min 0,000 mm 0,0 UV-I 9 W/m 2,2 C -1,5 C 16,1 km/h (3 Bft) 100,00 %
02.01.2018 15:41 3,4 C 3,9 C 91 % 1014,3 hPa 0,0 l/m 12,9 km/h (3 Bft) W-SW 247 0 min 0,000 mm 0,0 UV-I 9 W/m 2,1 C -1,7 C 17,7 km/h (3 Bft) 95,65 %
02.01.2018 15:42 3,4 C 3,9 C 91 % 1014,3 hPa 0,0 l/m 14,5 km/h (3 Bft) SW 225 0 min 0,000 mm 0,0 UV-I 9 W/m 2,1 C -2,6 C 19,3 km/h (3 Bft) 95,65 %
02.01.2018 15:43 3,4 C 3,9 C 91 % 1014,3 hPa 0,0 l/m 17,7 km/h (3 Bft) SW 225 0 min 0,000 mm 0,0 UV-I 7 W/m 2,1 C -4,2 C 22,5 km/h (4 Bft) 100,00 %
02.01.2018 15:44 3,3 C 3,9 C 91 % 1014,4 hPa 0,0 l/m 20,9 km/h (4 Bft) W-SW 247 0 min 0,000 mm 0,0 UV-I 8 W/m 2,0 C -5,7 C 24,1 km/h (4 Bft) 95,65 %
02.01.2018 15:45 3,3 C 3,9 C 91 % 1014,3 hPa 0,0 l/m 16,1 km/h (3 Bft) W-SW 247 0 min 0,000 mm 0,0 UV-I 9 W/m 2,0 C -3,6 C 20,9 km/h (4 Bft) 95,65 %
02.01.2018 15:46 3,3 C 3,9 C 92 % 1014,3 hPa 0,0 l/m 16,1 km/h (3 Bft) SW 225 0 min 0,000 mm 0,0 UV-I 11 W/m 2,1 C -3,6 C 20,9 km/h (4 Bft) 100,00 %
02.01.2018 15:47 3,3 C 3,9 C 91 % 1014,3 hPa 0,0 l/m 24,1 km/h (4 Bft) SW 225 0 min 0,000 mm 0,0 UV-I 11 W/m 2,0 C -6,9 C 32,2 km/h (5 Bft) 100,00 %
02.01.2018 15:48 3,3 C 3,9 C 91 % 1014,3 hPa 0,0 l/m 16,1 km/h (3 Bft) W-SW 247 0 min 0,000 mm 0,0 UV-I 11 W/m 2,0 C -3,6 C 22,5 km/h (4 Bft) 100,00 %
02.01.2018 15:49 3,3 C 3,9 C 91 % 1014,4 hPa 0,0 l/m 14,5 km/h (3 Bft) SW 225 0 min 0,000 mm 0,0 UV-I 11 W/m 2,0 C -2,7 C 20,9 km/h (4 Bft) 100,00 %
02.01.2018 15:50 3,3 C 3,9 C 91 % 1014,4 hPa 0,0 l/m 12,9 km/h (3 Bft) W-SW 247 0 min 0,000 mm 0,0 UV-I 11 W/m 2,0 C -1,8 C 17,7 km/h (3 Bft) 100,00 %
02.01.2018 15:51 3,3 C 3,9 C 91 % 1014,4 hPa 0,0 l/m 14,5 km/h (3 Bft) SW 225 0 min 0,000 mm 0,0 UV-I 12 W/m 2,0 C -2,7 C 19,3 km/h (3 Bft) 91,30 %
02.01.2018 15:52 3,3 C 3,9 C 91 % 1014,3 hPa 0,0 l/m 14,5 km/h (3 Bft) W-SW 247 0 min 0,000 mm 0,0 UV-I 12 W/m 2,0 C -2,7 C 19,3 km/h (3 Bft) 100,00 %
02.01.2018 15:53 3,3 C 3,9 C 91 % 1014,4 hPa 0,0 l/m 11,3 km/h (2 Bft) W-SW 247 0 min 0,000 mm 0,0 UV-I 12 W/m 2,0 C -0,7 C 17,7 km/h (3 Bft) 100,00 %
02.01.2018 15:54 3,3 C 3,9 C 91 % 1014,4 hPa 0,0 l/m 17,7 km/h (3 Bft) SW 225 0 min 0,000 mm 0,0 UV-I 12 W/m 2,0 C -4,3 C 25,7 km/h (4 Bft) 100,00 %
02.01.2018 15:55 3,3 C 3,9 C 91 % 1014,4 hPa 0,0 l/m 16,1 km/h (3 Bft) SW 225 0 min 0,000 mm 0,0 UV-I 12 W/m 2,0 C -3,6 C 20,9 km/h (4 Bft) 100,00 %
02.01.2018 15:56 3,3 C 3,9 C 91 % 1014,4 hPa 0,0 l/m 14,5 km/h (3 Bft) W-SW 247 0 min 0,000 mm 0,0 UV-I 9 W/m 2,0 C -2,7 C 19,3 km/h (3 Bft) 91,30 %
02.01.2018 15:57 3,3 C 3,9 C 91 % 1014,4 hPa 0,0 l/m 17,7 km/h (3 Bft) W-SW 247 0 min 0,000 mm 0,0 UV-I 9 W/m 2,0 C -4,3 C 22,5 km/h (4 Bft) 100,00 %
02.01.2018 15:58 3,3 C 3,9 C 91 % 1014,4 hPa 0,0 l/m 12,9 km/h (3 Bft) SW 225 0 min 0,000 mm 0,0 UV-I 9 W/m 2,0 C -1,8 C 19,3 km/h (3 Bft) 91,30 %
02.01.2018 15:59 3,3 C 3,9 C 91 % 1014,4 hPa 0,0 l/m 16,1 km/h (3 Bft) W-SW 247 0 min 0,000 mm 0,0 UV-I 7 W/m 2,0 C -3,6 C 22,5 km/h (4 Bft) 100,00 %
02.01.2018 16:00 3,3 C 3,9 C 91 % 1014,4 hPa 0,0 l/m 17,7 km/h (3 Bft) SW 225 0 min 0,025 mm 0,0 UV-I 7 W/m 2,0 C -4,3 C 22,5 km/h (4 Bft) 100,00 %
02.01.2018 16:01 3,2 C 3,9 C 91 % 1014,5 hPa 0,0 l/m 12,9 km/h (3 Bft) W-SW 247 0 min 0,000 mm 0,0 UV-I 7 W/m 1,9 C -1,9 C 19,3 km/h (3 Bft) 100,00 %
02.01.2018 16:02 3,2 C 3,9 C 91 % 1014,4 hPa 0,0 l/m 14,5 km/h (3 Bft) W-SW 247 0 min 0,000 mm 0,0 UV-I 7 W/m 1,9 C -2,8 C 19,3 km/h (3 Bft) 100,00 %
02.01.2018 16:03 3,2 C 3,9 C 91 % 1014,5 hPa 0,0 l/m 14,5 km/h (3 Bft) SW 225 0 min 0,000 mm 0,0 UV-I 7 W/m 1,9 C -2,8 C 17,7 km/h (3 Bft) 100,00 %
02.01.2018 16:04 3,2 C 3,9 C 91 % 1014,5 hPa 0,0 l/m 11,3 km/h (2 Bft) SW 225 0 min 0,000 mm 0,0 UV-I 7 W/m 1,9 C -0,8 C 16,1 km/h (3 Bft) 95,65 %
02.01.2018 16:05 3,2 C 3,9 C 92 % 1014,5 hPa 0,0 l/m 12,9 km/h (3 Bft) W-SW 247 0 min 0,000 mm 0,0 UV-I 7 W/m 2,0 C -1,9 C 20,9 km/h (4 Bft) 95,65 %
02.01.2018 16:06 3,2 C 3,9 C 92 % 1014,5 hPa 0,0 l/m 16,1 km/h (3 Bft) SW 225 0 min 0,000 mm 0,0 UV-I 5 W/m 2,0 C -3,7 C 20,9 km/h (4 Bft) 95,65 %
02.01.2018 16:07 3,2 C 3,9 C 92 % 1014,6 hPa 0,0 l/m 12,9 km/h (3 Bft) SW 225 0 min 0,000 mm 0,0 UV-I 5 W/m 2,0 C -1,9 C 17,7 km/h (3 Bft) 100,00 %
02.01.2018 16:08 3,2 C 3,9 C 92 % 1014,6 hPa 0,0 l/m 16,1 km/h (3 Bft) SW 225 0 min 0,000 mm 0,0 UV-I 5 W/m 2,0 C -3,7 C 20,9 km/h (4 Bft) 91,30 %
02.01.2018 16:09 3,2 C 3,9 C 92 % 1014,6 hPa 0,0 l/m 11,3 km/h (2 Bft) W-SW 247 0 min 0,000 mm 0,0 UV-I 5 W/m 2,0 C -0,8 C 14,5 km/h (3 Bft) 100,00 %
02.01.2018 16:10 3,2 C 3,9 C 92 % 1014,5 hPa 0,0 l/m 14,5 km/h (3 Bft) W-SW 247 0 min 0,000 mm 0,0 UV-I 5 W/m 2,0 C -2,8 C 20,9 km/h (4 Bft) 95,65 %
02.01.2018 16:11 3,2 C 3,9 C 92 % 1014,6 hPa 0,0 l/m 12,9 km/h (3 Bft) W-SW 247 0 min 0,000 mm 0,0 UV-I 5 W/m 2,0 C -1,9 C 20,9 km/h (4 Bft) 95,65 %
02.01.2018 16:12 3,2 C 3,9 C 92 % 1014,6 hPa 0,0 l/m 17,7 km/h (3 Bft) W-SW 247 0 min 0,000 mm 0,0 UV-I 5 W/m 2,0 C -4,5 C 22,5 km/h (4 Bft) 91,30 %
02.01.2018 16:13 3,2 C 3,9 C 92 % 1014,6 hPa 0,0 l/m 14,5 km/h (3 Bft) SW 225 0 min 0,000 mm 0,0 UV-I 5 W/m 2,0 C -2,8 C 19,3 km/h (3 Bft) 100,00 %
02.01.2018 16:14 3,2 C 3,9 C 92 % 1014,7 hPa 0,0 l/m 16,1 km/h (3 Bft) SW 225 0 min 0,000 mm 0,0 UV-I 5 W/m 2,0 C -3,7 C 20,9 km/h (4 Bft) 95,65 %
02.01.2018 16:15 3,2 C 3,9 C 92 % 1014,7 hPa 0,0 l/m 16,1 km/h (3 Bft) SW 225 0 min 0,000 mm 0,0 UV-I 5 W/m 2,0 C -3,7 C 22,5 km/h (4 Bft) 95,65 %
02.01.2018 16:16 3,2 C 3,9 C 92 % 1014,7 hPa 0,0 l/m 17,7 km/h (3 Bft) SW 225 0 min 0,000 mm 0,0 UV-I 5 W/m 2,0 C -4,5 C 20,9 km/h (4 Bft) 100,00 %
02.01.2018 16:17 3,2 C 3,9 C 92 % 1014,8 hPa 0,0 l/m 14,5 km/h (3 Bft) SW 225 0 min 0,000 mm 0,0 UV-I 5 W/m 2,0 C -2,8 C 22,5 km/h (4 Bft) 91,30 %
02.01.2018 16:18 3,2 C 3,9 C 92 % 1014,7 hPa 0,0 l/m 14,5 km/h (3 Bft) W-SW 247 0 min 0,000 mm 0,0 UV-I 5 W/m 2,0 C -2,8 C 19,3 km/h (3 Bft) 100,00 %
02.01.2018 16:19 3,2 C 3,9 C 92 % 1014,8 hPa 0,0 l/m 14,5 km/h (3 Bft) SW 225 0 min 0,000 mm 0,0 UV-I 5 W/m 2,0 C -2,8 C 19,3 km/h (3 Bft) 91,30 %
02.01.2018 16:20 3,3 C 3,9 C 92 % 1014,8 hPa 0,0 l/m 12,9 km/h (3 Bft) W-SW 247 0 min 0,000 mm 0,0 UV-I 5 W/m 2,1 C -1,8 C 19,3 km/h (3 Bft) 100,00 %
02.01.2018 16:21 3,3 C 3,9 C 92 % 1014,8 hPa 0,0 l/m 16,1 km/h (3 Bft) SW 225 0 min 0,000 mm 0,0 UV-I 5 W/m 2,1 C -3,6 C 22,5 km/h (4 Bft) 91,30 %
02.01.2018 16:22 3,3 C 3,9 C 92 % 1014,8 hPa 0,0 l/m 14,5 km/h (3 Bft) SW 225 0 min 0,000 mm 0,0 UV-I 0 W/m 2,1 C -2,7 C 19,3 km/h (3 Bft) 95,65 %
02.01.2018 16:23 3,3 C 3,9 C 92 % 1014,9 hPa 0,0 l/m 17,7 km/h (3 Bft) W-SW 247 0 min 0,000 mm 0,0 UV-I 0 W/m 2,1 C -4,3 C 20,9 km/h (4 Bft) 91,30 %
02.01.2018 16:24 3,3 C 3,9 C 92 % 1014,9 hPa 0,0 l/m 14,5 km/h (3 Bft) SW 225 0 min 0,000 mm 0,0 UV-I 0 W/m 2,1 C -2,7 C 20,9 km/h (4 Bft) 91,30 %
02.01.2018 16:25 3,3 C 3,9 C 92 % 1014,9 hPa 0,0 l/m 12,9 km/h (3 Bft) W-SW 247 0 min 0,000 mm 0,0 UV-I 0 W/m 2,1 C -1,8 C 19,3 km/h (3 Bft) 95,65 %
02.01.2018 16:26 3,3 C 3,9 C 92 % 1014,9 hPa 0,0 l/m 14,5 km/h (3 Bft) SW 225 0 min 0,000 mm 0,0 UV-I 0 W/m 2,1 C -2,7 C 19,3 km/h (3 Bft) 91,30 %
02.01.2018 16:27 3,3 C 3,9 C 92 % 1014,9 hPa 0,0 l/m 17,7 km/h (3 Bft) SW 225 0 min 0,000 mm 0,0 UV-I 0 W/m 2,1 C -4,3 C 24,1 km/h (4 Bft) 100,00 %
02.01.2018 16:28 3,3 C 3,9 C 92 % 1015,0 hPa 0,0 l/m 14,5 km/h (3 Bft) SW 225 0 min 0,000 mm 0,0 UV-I 0 W/m 2,1 C -2,7 C 20,9 km/h (4 Bft) 95,65 %
02.01.2018 16:29 3,3 C 3,9 C 92 % 1014,9 hPa 0,0 l/m 14,5 km/h (3 Bft) SW 225 0 min 0,000 mm 0,0 UV-I 0 W/m 2,1 C -2,7 C 20,9 km/h (4 Bft) 95,65 %
02.01.2018 16:30 3,3 C 3,9 C 92 % 1015,0 hPa 0,0 l/m 12,9 km/h (3 Bft) SW 225 0 min 0,000 mm 0,0 UV-I 0 W/m 2,1 C -1,8 C 17,7 km/h (3 Bft) 95,65 %
02.01.2018 16:31 3,3 C 3,9 C 92 % 1015,0 hPa 0,0 l/m 11,3 km/h (2 Bft) SW 225 0 min 0,000 mm 0,0 UV-I 0 W/m 2,1 C -0,7 C 16,1 km/h (3 Bft) 95,65 %
02.01.2018 16:32 3,3 C 3,9 C 92 % 1015,0 hPa 0,0 l/m 16,1 km/h (3 Bft) W-SW 247 0 min 0,000 mm 0,0 UV-I 0 W/m 2,1 C -3,6 C 20,9 km/h (4 Bft) 100,00 %
02.01.2018 16:33 3,3 C 3,9 C 92 % 1015,0 hPa 0,0 l/m 19,3 km/h (3 Bft) SW 225 0 min 0,000 mm 0,0 UV-I 0 W/m 2,1 C -5,1 C 29,0 km/h (5 Bft) 91,30 %
02.01.2018 16:34 3,3 C 3,9 C 92 % 1015,0 hPa 0,0 l/m 19,3 km/h (3 Bft) SW 225 0 min 0,000 mm 0,0 UV-I 0 W/m 2,1 C -5,1 C 25,7 km/h (4 Bft) 100,00 %
02.01.2018 16:35 3,3 C 3,9 C 92 % 1015,0 hPa 0,0 l/m 16,1 km/h (3 Bft) W-SW 247 0 min 0,000 mm 0,0 UV-I 0 W/m 2,1 C -3,6 C 27,4 km/h (4 Bft) 95,65 %
02.01.2018 16:36 3,3 C 3,9 C 92 % 1015,0 hPa 0,0 l/m 17,7 km/h (3 Bft) W-SW 247 0 min 0,000 mm 0,0 UV-I 0 W/m 2,1 C -4,3 C 22,5 km/h (4 Bft) 100,00 %
02.01.2018 16:37 3,3 C 3,9 C 92 % 1015,0 hPa 0,0 l/m 14,5 km/h (3 Bft) SW 225 0 min 0,000 mm 0,0 UV-I 0 W/m 2,1 C -2,7 C 20,9 km/h (4 Bft) 86,96 %
02.01.2018 16:38 3,3 C 3,9 C 92 % 1015,1 hPa 0,0 l/m 19,3 km/h (3 Bft) SW 225 0 min 0,000 mm 0,0 UV-I 0 W/m 2,1 C -5,1 C 24,1 km/h (4 Bft) 100,00 %
02.01.2018 16:39 3,3 C 3,9 C 92 % 1015,1 hPa 0,0 l/m 14,5 km/h (3 Bft) W-SW 247 0 min 0,000 mm 0,0 UV-I 0 W/m 2,1 C -2,7 C 22,5 km/h (4 Bft) 91,30 %
02.01.2018 16:40 3,3 C 3,9 C 92 % 1015,1 hPa 0,0 l/m 16,1 km/h (3 Bft) W-SW 247 0 min 0,000 mm 0,0 UV-I 0 W/m 2,1 C -3,6 C 19,3 km/h (3 Bft) 91,30 %
02.01.2018 16:41 3,3 C 3,9 C 92 % 1015,1 hPa 0,0 l/m 16,1 km/h (3 Bft) S-SW 202 0 min 0,000 mm 0,0 UV-I 0 W/m 2,1 C -3,6 C 29,0 km/h (5 Bft) 100,00 %
02.01.2018 16:42 3,3 C 3,9 C 92 % 1015,1 hPa 0,0 l/m 14,5 km/h (3 Bft) SW 225 0 min 0,000 mm 0,0 UV-I 0 W/m 2,1 C -2,7 C 20,9 km/h (4 Bft) 95,65 %
02.01.2018 16:43 3,3 C 3,9 C 92 % 1015,1 hPa 0,0 l/m 17,7 km/h (3 Bft) SW 225 0 min 0,000 mm 0,0 UV-I 0 W/m 2,1 C -4,3 C 24,1 km/h (4 Bft) 100,00 %
02.01.2018 16:44 3,3 C 3,9 C 92 % 1015,1 hPa 0,0 l/m 17,7 km/h (3 Bft) SW 225 0 min 0,000 mm 0,0 UV-I 0 W/m 2,1 C -4,3 C 24,1 km/h (4 Bft) 95,65 %
02.01.2018 16:45 3,3 C 3,9 C 92 % 1015,2 hPa 0,0 l/m 16,1 km/h (3 Bft) SW 225 0 min 0,000 mm 0,0 UV-I 0 W/m 2,1 C -3,6 C 25,7 km/h (4 Bft) 100,00 %
02.01.2018 16:46 3,3 C 3,9 C 92 % 1015,2 hPa 0,0 l/m 16,1 km/h (3 Bft) SW 225 0 min 0,000 mm 0,0 UV-I 0 W/m 2,1 C -3,6 C 24,1 km/h (4 Bft) 95,65 %
02.01.2018 16:47 3,3 C 3,9 C 92 % 1015,2 hPa 0,0 l/m 17,7 km/h (3 Bft) W-SW 247 0 min 0,000 mm 0,0 UV-I 0 W/m 2,1 C -4,3 C 22,5 km/h (4 Bft) 95,65 %
02.01.2018 16:48 3,3 C 3,9 C 92 % 1015,2 hPa 0,0 l/m 14,5 km/h (3 Bft) W-SW 247 0 min 0,000 mm 0,0 UV-I 0 W/m 2,1 C -2,7 C 19,3 km/h (3 Bft) 95,65 %
02.01.2018 16:49 3,3 C 3,9 C 92 % 1015,2 hPa 0,0 l/m 16,1 km/h (3 Bft) W-SW 247 0 min 0,000 mm 0,0 UV-I 0 W/m 2,1 C -3,6 C 20,9 km/h (4 Bft) 91,30 %
02.01.2018 16:50 3,3 C 3,9 C 92 % 1015,2 hPa 0,0 l/m 14,5 km/h (3 Bft) SW 225 0 min 0,000 mm 0,0 UV-I 0 W/m 2,1 C -2,7 C 20,9 km/h (4 Bft) 95,65 %
02.01.2018 16:51 3,3 C 3,9 C 92 % 1015,2 hPa 0,0 l/m 17,7 km/h (3 Bft) SW 225 0 min 0,000 mm 0,0 UV-I 0 W/m 2,1 C -4,3 C 24,1 km/h (4 Bft) 95,65 %
02.01.2018 16:52 3,3 C 3,9 C 92 % 1015,2 hPa 0,0 l/m 17,7 km/h (3 Bft) SW 225 0 min 0,000 mm 0,0 UV-I 0 W/m 2,1 C -4,3 C 24,1 km/h (4 Bft) 100,00 %
02.01.2018 16:53 3,3 C 3,9 C 92 % 1015,3 hPa 0,0 l/m 17,7 km/h (3 Bft) SW 225 0 min 0,000 mm 0,0 UV-I 0 W/m 2,1 C -4,3 C 24,1 km/h (4 Bft) 95,65 %
02.01.2018 16:54 3,3 C 3,9 C 92 % 1015,3 hPa 0,0 l/m 20,9 km/h (4 Bft) SW 225 0 min 0,000 mm 0,0 UV-I 0 W/m 2,1 C -5,7 C 30,6 km/h (5 Bft) 95,65 %
02.01.2018 16:55 3,3 C 3,9 C 92 % 1015,3 hPa 0,0 l/m 16,1 km/h (3 Bft) W-SW 247 0 min 0,000 mm 0,0 UV-I 0 W/m 2,1 C -3,6 C 22,5 km/h (4 Bft) 95,65 %
02.01.2018 16:56 3,3 C 3,9 C 92 % 1015,4 hPa 0,0 l/m 16,1 km/h (3 Bft) SW 225 0 min 0,000 mm 0,0 UV-I 0 W/m 2,1 C -3,6 C 24,1 km/h (4 Bft) 100,00 %
02.01.2018 16:57 3,3 C 3,9 C 92 % 1015,3 hPa 0,0 l/m 16,1 km/h (3 Bft) SW 225 0 min 0,000 mm 0,0 UV-I 0 W/m 2,1 C -3,6 C 22,5 km/h (4 Bft) 95,65 %
02.01.2018 16:58 3,3 C 3,9 C 92 % 1015,3 hPa 0,0 l/m 16,1 km/h (3 Bft) SW 225 0 min 0,000 mm 0,0 UV-I 0 W/m 2,1 C -3,6 C 24,1 km/h (4 Bft) 100,00 %
02.01.2018 16:59 3,3 C 3,9 C 91 % 1015,5 hPa 0,0 l/m 20,9 km/h (4 Bft) SW 225 0 min 0,000 mm 0,0 UV-I 0 W/m 2,0 C -5,7 C 27,4 km/h (4 Bft) 100,00 %
02.01.2018 17:00 3,3 C 3,9 C 91 % 1015,4 hPa 0,0 l/m 14,5 km/h (3 Bft) SW 225 0 min 0,000 mm 0,0 UV-I 0 W/m 2,0 C -2,7 C 24,1 km/h (4 Bft) 100,00 %
02.01.2018 17:01 3,3 C 3,9 C 91 % 1015,4 hPa 0,0 l/m 16,1 km/h (3 Bft) SW 225 0 min 0,000 mm 0,0 UV-I 0 W/m 2,0 C -3,6 C 19,3 km/h (3 Bft) 95,65 %
02.01.2018 17:02 3,3 C 3,9 C 91 % 1015,4 hPa 0,0 l/m 14,5 km/h (3 Bft) SW 225 0 min 0,000 mm 0,0 UV-I 0 W/m 2,0 C -2,7 C 19,3 km/h (3 Bft) 100,00 %
02.01.2018 17:03 3,3 C 3,9 C 91 % 1015,4 hPa 0,0 l/m 16,1 km/h (3 Bft) SW 225 0 min 0,000 mm 0,0 UV-I 0 W/m 2,0 C -3,6 C 20,9 km/h (4 Bft) 95,65 %
02.01.2018 17:04 3,3 C 3,9 C 91 % 1015,4 hPa 0,0 l/m 14,5 km/h (3 Bft) SW 225 0 min 0,000 mm 0,0 UV-I 0 W/m 2,0 C -2,7 C 24,1 km/h (4 Bft) 100,00 %
02.01.2018 17:05 3,3 C 3,9 C 91 % 1015,5 hPa 0,0 l/m 16,1 km/h (3 Bft) W-SW 247 0 min 0,000 mm 0,0 UV-I 0 W/m 2,0 C -3,6 C 22,5 km/h (4 Bft) 95,65 %
02.01.2018 17:06 3,3 C 3,9 C 91 % 1015,4 hPa 0,0 l/m 14,5 km/h (3 Bft) SW 225 0 min 0,000 mm 0,0 UV-I 0 W/m 2,0 C -2,7 C 19,3 km/h (3 Bft) 95,65 %
02.01.2018 17:07 3,3 C 3,9 C 92 % 1015,5 hPa 0,0 l/m 14,5 km/h (3 Bft) S-SW 202 0 min 0,000 mm 0,0 UV-I 0 W/m 2,1 C -2,7 C 19,3 km/h (3 Bft) 100,00 %
02.01.2018 17:08 3,2 C 3,9 C 92 % 1015,5 hPa 0,0 l/m 12,9 km/h (3 Bft) SW 225 0 min 0,000 mm 0,0 UV-I 0 W/m 2,0 C -1,9 C 16,1 km/h (3 Bft) 95,65 %
02.01.2018 17:09 3,2 C 3,9 C 92 % 1015,5 hPa 0,0 l/m 11,3 km/h (2 Bft) SW 225 0 min 0,000 mm 0,0 UV-I 0 W/m 2,0 C -0,8 C 20,9 km/h (4 Bft) 100,00 %
02.01.2018 17:10 3,2 C 3,9 C 92 % 1015,5 hPa 0,0 l/m 9,7 km/h (2 Bft) S-SW 202 0 min 0,000 mm 0,0 UV-I 0 W/m 2,0 C 0,3 C 14,5 km/h (3 Bft) 100,00 %
02.01.2018 17:11 3,2 C 3,9 C 92 % 1015,5 hPa 0,0 l/m 14,5 km/h (3 Bft) W-SW 247 0 min 0,000 mm 0,0 UV-I 0 W/m 2,0 C -2,8 C 19,3 km/h (3 Bft) 100,00 %
02.01.2018 17:12 3,2 C 3,9 C 92 % 1015,5 hPa 0,0 l/m 12,9 km/h (3 Bft) W-SW 247 0 min 0,000 mm 0,0 UV-I 0 W/m 2,0 C -1,9 C 22,5 km/h (4 Bft) 100,00 %
02.01.2018 17:13 3,2 C 3,9 C 92 % 1015,5 hPa 0,0 l/m 12,9 km/h (3 Bft) SW 225 0 min 0,000 mm 0,0 UV-I 0 W/m 2,0 C -1,9 C 19,3 km/h (3 Bft) 95,65 %
02.01.2018 17:14 3,2 C 3,9 C 92 % 1015,5 hPa 0,0 l/m 11,3 km/h (2 Bft) SW 225 0 min 0,000 mm 0,0 UV-I 0 W/m 2,0 C -0,8 C 14,5 km/h (3 Bft) 100,00 %
02.01.2018 17:15 3,2 C 3,9 C 92 % 1015,5 hPa 0,0 l/m 11,3 km/h (2 Bft) SW 225 0 min 0,000 mm 0,0 UV-I 0 W/m 2,0 C -0,8 C 16,1 km/h (3 Bft) 95,65 %
02.01.2018 17:16 3,2 C 3,9 C 92 % 1015,5 hPa 0,0 l/m 12,9 km/h (3 Bft) S-SW 202 0 min 0,000 mm 0,0 UV-I 0 W/m 2,0 C -1,9 C 19,3 km/h (3 Bft) 95,65 %
02.01.2018 17:17 3,2 C 3,9 C 92 % 1015,5 hPa 0,0 l/m 12,9 km/h (3 Bft) SW 225 0 min 0,000 mm 0,0 UV-I 0 W/m 2,0 C -1,9 C 17,7 km/h (3 Bft) 100,00 %
02.01.2018 17:18 3,2 C 3,9 C 92 % 1015,5 hPa 0,0 l/m 12,9 km/h (3 Bft) S-SW 202 0 min 0,000 mm 0,0 UV-I 0 W/m 2,0 C -1,9 C 17,7 km/h (3 Bft) 100,00 %
02.01.2018 17:19 3,2 C 3,9 C 92 % 1015,6 hPa 0,0 l/m 12,9 km/h (3 Bft) SW 225 0 min 0,000 mm 0,0 UV-I 0 W/m 2,0 C -1,9 C 17,7 km/h (3 Bft) 95,65 %
02.01.2018 17:20 3,2 C 3,9 C 92 % 1015,6 hPa 0,0 l/m 11,3 km/h (2 Bft) S-SW 202 0 min 0,000 mm 0,0 UV-I 0 W/m 2,0 C -0,8 C 14,5 km/h (3 Bft) 100,00 %
02.01.2018 17:21 3,2 C 3,9 C 92 % 1015,6 hPa 0,0 l/m 14,5 km/h (3 Bft) S-SW 202 0 min 0,000 mm 0,0 UV-I 0 W/m 2,0 C -2,8 C 25,7 km/h (4 Bft) 100,00 %
02.01.2018 17:22 3,2 C 3,9 C 92 % 1015,6 hPa 0,0 l/m 11,3 km/h (2 Bft) S-SW 202 0 min 0,000 mm 0,0 UV-I 0 W/m 2,0 C -0,8 C 17,7 km/h (3 Bft) 95,65 %
02.01.2018 17:23 3,2 C 3,9 C 92 % 1015,6 hPa 0,0 l/m 12,9 km/h (3 Bft) S-SW 202 0 min 0,000 mm 0,0 UV-I 0 W/m 2,0 C -1,9 C 17,7 km/h (3 Bft) 100,00 %
02.01.2018 17:24 3,2 C 3,9 C 92 % 1015,6 hPa 0,0 l/m 12,9 km/h (3 Bft) S-SW 202 0 min 0,000 mm 0,0 UV-I 0 W/m 2,0 C -1,9 C 17,7 km/h (3 Bft) 100,00 %
02.01.2018 17:25 3,2 C 3,9 C 92 % 1015,6 hPa 0,0 l/m 9,7 km/h (2 Bft) S-SW 202 0 min 0,000 mm 0,0 UV-I 0 W/m 2,0 C 0,3 C 14,5 km/h (3 Bft) 95,65 %
02.01.2018 17:26 3,2 C 3,9 C 92 % 1015,6 hPa 0,0 l/m 9,7 km/h (2 Bft) SW 225 0 min 0,000 mm 0,0 UV-I 0 W/m 2,0 C 0,3 C 12,9 km/h (3 Bft) 100,00 %
02.01.2018 17:27 3,2 C 3,9 C 92 % 1015,6 hPa 0,0 l/m 9,7 km/h (2 Bft) SW 225 0 min 0,000 mm 0,0 UV-I 0 W/m 2,0 C 0,3 C 14,5 km/h (3 Bft) 95,65 %
02.01.2018 17:28 3,2 C 3,9 C 92 % 1015,6 hPa 0,0 l/m 12,9 km/h (3 Bft) S-SW 202 0 min 0,000 mm 0,0 UV-I 0 W/m 2,0 C -1,9 C 17,7 km/h (3 Bft) 100,00 %
02.01.2018 17:29 3,2 C 3,9 C 92 % 1015,6 hPa 0,0 l/m 14,5 km/h (3 Bft) S-SW 202 0 min 0,000 mm 0,0 UV-I 0 W/m 2,0 C -2,8 C 17,7 km/h (3 Bft) 91,30 %
02.01.2018 17:30 3,2 C 3,9 C 92 % 1015,6 hPa 0,0 l/m 11,3 km/h (2 Bft) S-SW 202 0 min 0,000 mm 0,0 UV-I 0 W/m 2,0 C -0,8 C 14,5 km/h (3 Bft) 100,00 %
02.01.2018 17:31 3,2 C 3,9 C 92 % 1015,6 hPa 0,0 l/m 9,7 km/h (2 Bft) SW 225 0 min 0,000 mm 0,0 UV-I 0 W/m 2,0 C 0,3 C 14,5 km/h (3 Bft) 95,65 %
02.01.2018 17:32 3,2 C 3,9 C 92 % 1015,6 hPa 0,0 l/m 16,1 km/h (3 Bft) W-SW 247 0 min 0,000 mm 0,0 UV-I 0 W/m 2,0 C -3,7 C 19,3 km/h (3 Bft) 95,65 %
02.01.2018 17:33 3,2 C 3,9 C 92 % 1015,6 hPa 0,0 l/m 11,3 km/h (2 Bft) SW 225 0 min 0,000 mm 0,0 UV-I 0 W/m 2,0 C -0,8 C 16,1 km/h (3 Bft) 95,65 %
02.01.2018 17:34 3,2 C 3,9 C 92 % 1015,6 hPa 0,0 l/m 11,3 km/h (2 Bft) SW 225 0 min 0,000 mm 0,0 UV-I 0 W/m 2,0 C -0,8 C 19,3 km/h (3 Bft) 100,00 %
02.01.2018 17:35 3,2 C 3,9 C 92 % 1015,6 hPa 0,0 l/m 11,3 km/h (2 Bft) S-SW 202 0 min 0,000 mm 0,0 UV-I 0 W/m 2,0 C -0,8 C 16,1 km/h (3 Bft) 95,65 %
02.01.2018 17:36 3,2 C 3,9 C 92 % 1015,6 hPa 0,0 l/m 9,7 km/h (2 Bft) S-SW 202 0 min 0,000 mm 0,0 UV-I 0 W/m 2,0 C 0,3 C 12,9 km/h (3 Bft) 91,30 %
02.01.2018 17:37 3,2 C 3,9 C 92 % 1015,6 hPa 0,0 l/m 11,3 km/h (2 Bft) SW 225 0 min 0,000 mm 0,0 UV-I 0 W/m 2,0 C -0,8 C 16,1 km/h (3 Bft) 100,00 %
02.01.2018 17:38 3,2 C 3,9 C 92 % 1015,7 hPa 0,0 l/m 12,9 km/h (3 Bft) SW 225 0 min 0,000 mm 0,0 UV-I 0 W/m 2,0 C -1,9 C 16,1 km/h (3 Bft) 91,30 %
02.01.2018 17:39 3,2 C 3,9 C 92 % 1015,7 hPa 0,0 l/m 11,3 km/h (2 Bft) SW 225 0 min 0,000 mm 0,0 UV-I 0 W/m 2,0 C -0,8 C 16,1 km/h (3 Bft) 100,00 %
02.01.2018 17:40 3,2 C 3,9 C 92 % 1015,7 hPa 0,0 l/m 12,9 km/h (3 Bft) SW 225 0 min 0,000 mm 0,0 UV-I 0 W/m 2,0 C -1,9 C 16,1 km/h (3 Bft) 95,65 %
02.01.2018 17:41 3,2 C 3,9 C 92 % 1015,7 hPa 0,0 l/m 9,7 km/h (2 Bft) SW 225 0 min 0,000 mm 0,0 UV-I 0 W/m 2,0 C 0,3 C 14,5 km/h (3 Bft) 95,65 %
02.01.2018 17:42 3,2 C 3,9 C 92 % 1015,7 hPa 0,0 l/m 11,3 km/h (2 Bft) S-SW 202 0 min 0,000 mm 0,0 UV-I 0 W/m 2,0 C -0,8 C 14,5 km/h (3 Bft) 91,30 %
02.01.2018 17:43 3,2 C 3,9 C 92 % 1015,7 hPa 0,0 l/m 11,3 km/h (2 Bft) SW 225 0 min 0,000 mm 0,0 UV-I 0 W/m 2,0 C -0,8 C 19,3 km/h (3 Bft) 95,65 %
02.01.2018 17:44 3,2 C 3,9 C 92 % 1015,7 hPa 0,0 l/m 11,3 km/h (2 Bft) SW 225 0 min 0,000 mm 0,0 UV-I 0 W/m 2,0 C -0,8 C 19,3 km/h (3 Bft) 95,65 %
02.01.2018 17:45 3,2 C 3,9 C 92 % 1015,7 hPa 0,0 l/m 12,9 km/h (3 Bft) SW 225 0 min 0,000 mm 0,0 UV-I 0 W/m 2,0 C -1,9 C 20,9 km/h (4 Bft) 100,00 %
02.01.2018 17:46 3,2 C 3,9 C 92 % 1015,7 hPa 0,0 l/m 12,9 km/h (3 Bft) S-SW 202 0 min 0,000 mm 0,0 UV-I 0 W/m 2,0 C -1,9 C 22,5 km/h (4 Bft) 95,65 %
02.01.2018 17:47 3,2 C 3,9 C 92 % 1015,8 hPa 0,0 l/m 14,5 km/h (3 Bft) SW 225 0 min 0,000 mm 0,0 UV-I 0 W/m 2,0 C -2,8 C 20,9 km/h (4 Bft) 95,65 %
02.01.2018 17:48 3,3 C 3,9 C 92 % 1015,8 hPa 0,0 l/m 11,3 km/h (2 Bft) W-SW 247 0 min 0,000 mm 0,0 UV-I 0 W/m 2,1 C -0,7 C 16,1 km/h (3 Bft) 95,65 %
02.01.2018 17:49 3,3 C 3,9 C 92 % 1015,8 hPa 0,0 l/m 9,7 km/h (2 Bft) SW 225 0 min 0,000 mm 0,0 UV-I 0 W/m 2,1 C 0,4 C 12,9 km/h (3 Bft) 100,00 %
02.01.2018 17:50 3,3 C 3,9 C 92 % 1015,8 hPa 0,0 l/m 9,7 km/h (2 Bft) S-SW 202 0 min 0,000 mm 0,0 UV-I 0 W/m 2,1 C 0,4 C 14,5 km/h (3 Bft) 95,65 %
02.01.2018 17:51 3,3 C 3,9 C 92 % 1015,8 hPa 0,0 l/m 14,5 km/h (3 Bft) W-SW 247 0 min 0,000 mm 0,0 UV-I 0 W/m 2,1 C -2,7 C 20,9 km/h (4 Bft) 100,00 %
02.01.2018 17:52 3,3 C 3,9 C 92 % 1015,8 hPa 0,0 l/m 14,5 km/h (3 Bft) W-SW 247 0 min 0,000 mm 0,0 UV-I 0 W/m 2,1 C -2,7 C 20,9 km/h (4 Bft) 100,00 %
02.01.2018 17:53 3,3 C 3,9 C 92 % 1015,8 hPa 0,0 l/m 14,5 km/h (3 Bft) W-SW 247 0 min 0,000 mm 0,0 UV-I 0 W/m 2,1 C -2,7 C 19,3 km/h (3 Bft) 100,00 %
02.01.2018 17:54 3,3 C 3,9 C 91 % 1015,8 hPa 0,0 l/m 14,5 km/h (3 Bft) SW 225 0 min 0,000 mm 0,0 UV-I 0 W/m 2,0 C -2,7 C 22,5 km/h (4 Bft) 100,00 %
02.01.2018 17:55 3,3 C 3,9 C 91 % 1015,8 hPa 0,0 l/m 12,9 km/h (3 Bft) SW 225 0 min 0,000 mm 0,0 UV-I 0 W/m 2,0 C -1,8 C 17,7 km/h (3 Bft) 95,65 %
02.01.2018 17:56 3,3 C 3,9 C 91 % 1015,9 hPa 0,0 l/m 12,9 km/h (3 Bft) SW 225 0 min 0,000 mm 0,0 UV-I 0 W/m 2,0 C -1,8 C 19,3 km/h (3 Bft) 100,00 %
02.01.2018 17:57 3,3 C 3,9 C 91 % 1015,8 hPa 0,0 l/m 11,3 km/h (2 Bft) SW 225 0 min 0,000 mm 0,0 UV-I 0 W/m 2,0 C -0,7 C 16,1 km/h (3 Bft) 100,00 %
02.01.2018 17:58 3,3 C 3,9 C 91 % 1015,9 hPa 0,0 l/m 12,9 km/h (3 Bft) W-SW 247 0 min 0,000 mm 0,0 UV-I 0 W/m 2,0 C -1,8 C 16,1 km/h (3 Bft) 95,65 %
02.01.2018 17:59 3,3 C 3,9 C 91 % 1015,9 hPa 0,0 l/m 11,3 km/h (2 Bft) W-SW 247 0 min 0,000 mm 0,0 UV-I 0 W/m 2,0 C -0,7 C 16,1 km/h (3 Bft) 95,65 %
02.01.2018 18:00 3,3 C 3,9 C 91 % 1015,9 hPa 0,0 l/m 12,9 km/h (3 Bft) W-SW 247 0 min 0,000 mm 0,0 UV-I 0 W/m 2,0 C -1,8 C 19,3 km/h (3 Bft) 95,65 %
02.01.2018 18:01 3,3 C 3,9 C 91 % 1015,9 hPa 0,0 l/m 12,9 km/h (3 Bft) SW 225 0 min 0,000 mm 0,0 UV-I 0 W/m 2,0 C -1,8 C 22,5 km/h (4 Bft) 100,00 %
02.01.2018 18:02 3,3 C 3,9 C 91 % 1015,8 hPa 0,0 l/m 12,9 km/h (3 Bft) W-SW 247 0 min 0,000 mm 0,0 UV-I 0 W/m 2,0 C -1,8 C 16,1 km/h (3 Bft) 100,00 %
02.01.2018 18:03 3,3 C 3,9 C 91 % 1015,9 hPa 0,0 l/m 17,7 km/h (3 Bft) SW 225 0 min 0,000 mm 0,0 UV-I 0 W/m 2,0 C -4,3 C 24,1 km/h (4 Bft) 100,00 %
02.01.2018 18:04 3,3 C 3,9 C 91 % 1015,8 hPa 0,0 l/m 11,3 km/h (2 Bft) SW 225 0 min 0,000 mm 0,0 UV-I 0 W/m 2,0 C -0,7 C 17,7 km/h (3 Bft) 95,65 %
02.01.2018 18:05 3,3 C 3,9 C 91 % 1015,9 hPa 0,0 l/m 14,5 km/h (3 Bft) W-SW 247 0 min 0,000 mm 0,0 UV-I 0 W/m 2,0 C -2,7 C 20,9 km/h (4 Bft) 100,00 %
02.01.2018 18:06 3,4 C 3,9 C 91 % 1015,9 hPa 0,0 l/m 17,7 km/h (3 Bft) W-SW 247 0 min 0,000 mm 0,0 UV-I 0 W/m 2,1 C -4,2 C 27,4 km/h (4 Bft) 95,65 %
02.01.2018 18:07 3,4 C 3,9 C 91 % 1015,9 hPa 0,0 l/m 16,1 km/h (3 Bft) W-SW 247 0 min 0,000 mm 0,0 UV-I 0 W/m 2,1 C -3,4 C 22,5 km/h (4 Bft) 100,00 %
02.01.2018 18:08 3,4 C 3,9 C 91 % 1015,9 hPa 0,0 l/m 19,3 km/h (3 Bft) SW 225 0 min 0,000 mm 0,0 UV-I 0 W/m 2,1 C -4,9 C 27,4 km/h (4 Bft) 100,00 %
02.01.2018 18:09 3,4 C 3,9 C 91 % 1015,9 hPa 0,0 l/m 14,5 km/h (3 Bft) W-SW 247 0 min 0,000 mm 0,0 UV-I 0 W/m 2,1 C -2,6 C 22,5 km/h (4 Bft) 100,00 %
02.01.2018 18:10 3,4 C 3,9 C 91 % 1015,9 hPa 0,0 l/m 17,7 km/h (3 Bft) SW 225 0 min 0,000 mm 0,0 UV-I 0 W/m 2,1 C -4,2 C 25,7 km/h (4 Bft) 100,00 %
02.01.2018 18:11 3,4 C 3,9 C 91 % 1015,9 hPa 0,0 l/m 16,1 km/h (3 Bft) SW 225 0 min 0,000 mm 0,0 UV-I 0 W/m 2,1 C -3,4 C 22,5 km/h (4 Bft) 100,00 %
02.01.2018 18:12 3,4 C 3,9 C 91 % 1015,9 hPa 0,0 l/m 17,7 km/h (3 Bft) SW 225 0 min 0,000 mm 0,0 UV-I 0 W/m 2,1 C -4,2 C 20,9 km/h (4 Bft) 95,65 %
02.01.2018 18:13 3,4 C 3,9 C 91 % 1015,9 hPa 0,0 l/m 17,7 km/h (3 Bft) SW 225 0 min 0,000 mm 0,0 UV-I 0 W/m 2,1 C -4,2 C 20,9 km/h (4 Bft) 100,00 %
02.01.2018 18:14 3,4 C 3,9 C 91 % 1015,9 hPa 0,0 l/m 17,7 km/h (3 Bft) SW 225 0 min 0,000 mm 0,0 UV-I 0 W/m 2,1 C -4,2 C 25,7 km/h (4 Bft) 100,00 %
02.01.2018 18:15 3,4 C 3,9 C 91 % 1015,8 hPa 0,0 l/m 14,5 km/h (3 Bft) SW 225 0 min 0,000 mm 0,0 UV-I 0 W/m 2,1 C -2,6 C 20,9 km/h (4 Bft) 100,00 %
02.01.2018 18:16 3,4 C 3,9 C 91 % 1015,9 hPa 0,0 l/m 11,3 km/h (2 Bft) SW 225 0 min 0,000 mm 0,0 UV-I 0 W/m 2,1 C -0,6 C 17,7 km/h (3 Bft) 100,00 %
02.01.2018 18:17 3,4 C 3,9 C 91 % 1015,9 hPa 0,0 l/m 12,9 km/h (3 Bft) W-SW 247 0 min 0,000 mm 0,0 UV-I 0 W/m 2,1 C -1,7 C 17,7 km/h (3 Bft) 100,00 %
02.01.2018 18:18 3,4 C 3,9 C 91 % 1015,9 hPa 0,0 l/m 12,9 km/h (3 Bft) SW 225 0 min 0,000 mm 0,0 UV-I 0 W/m 2,1 C -1,7 C 19,3 km/h (3 Bft) 100,00 %
02.01.2018 18:19 3,4 C 3,9 C 91 % 1015,9 hPa 0,0 l/m 16,1 km/h (3 Bft) SW 225 0 min 0,000 mm 0,0 UV-I 0 W/m 2,1 C -3,4 C 20,9 km/h (4 Bft) 95,65 %
02.01.2018 18:20 3,4 C 3,9 C 91 % 1015,9 hPa 0,0 l/m 17,7 km/h (3 Bft) SW 225 0 min 0,000 mm 0,0 UV-I 0 W/m 2,1 C -4,2 C 24,1 km/h (4 Bft) 100,00 %
02.01.2018 18:21 3,4 C 3,9 C 91 % 1015,9 hPa 0,0 l/m 14,5 km/h (3 Bft) W-SW 247 0 min 0,000 mm 0,0 UV-I 0 W/m 2,1 C -2,6 C 22,5 km/h (4 Bft) 100,00 %
02.01.2018 18:22 3,4 C 3,9 C 91 % 1015,9 hPa 0,0 l/m 17,7 km/h (3 Bft) SW 225 0 min 0,000 mm 0,0 UV-I 0 W/m 2,1 C -4,2 C 22,5 km/h (4 Bft) 100,00 %
02.01.2018 18:23 3,4 C 3,9 C 91 % 1015,8 hPa 0,0 l/m 14,5 km/h (3 Bft) W-SW 247 0 min 0,000 mm 0,0 UV-I 0 W/m 2,1 C -2,6 C 19,3 km/h (3 Bft) 95,65 %
02.01.2018 18:24 3,4 C 3,9 C 91 % 1015,9 hPa 0,0 l/m 16,1 km/h (3 Bft) W 270 0 min 0,000 mm 0,0 UV-I 0 W/m 2,1 C -3,4 C 20,9 km/h (4 Bft) 100,00 %
02.01.2018 18:25 3,4 C 3,9 C 90 % 1015,9 hPa 0,0 l/m 12,9 km/h (3 Bft) W-SW 247 0 min 0,000 mm 0,0 UV-I 0 W/m 1,9 C -1,7 C 17,7 km/h (3 Bft) 100,00 %
02.01.2018 18:26 3,4 C 3,9 C 90 % 1015,9 hPa 0,0 l/m 16,1 km/h (3 Bft) W 270 0 min 0,000 mm 0,0 UV-I 0 W/m 1,9 C -3,4 C 22,5 km/h (4 Bft) 95,65 %
02.01.2018 18:27 3,5 C 3,9 C 90 % 1015,9 hPa 0,0 l/m 16,1 km/h (3 Bft) SW 225 0 min 0,000 mm 0,0 UV-I 0 W/m 2,0 C -3,3 C 24,1 km/h (4 Bft) 100,00 %
02.01.2018 18:28 3,6 C 3,9 C 90 % 1015,9 hPa 0,0 l/m 17,7 km/h (3 Bft) W-SW 247 0 min 0,000 mm 0,0 UV-I 0 W/m 2,1 C -4,0 C 24,1 km/h (4 Bft) 100,00 %
02.01.2018 18:29 3,6 C 3,9 C 90 % 1015,9 hPa 0,0 l/m 14,5 km/h (3 Bft) W-SW 247 0 min 0,000 mm 0,0 UV-I 0 W/m 2,1 C -2,3 C 24,1 km/h (4 Bft) 100,00 %
02.01.2018 18:30 3,6 C 3,9 C 90 % 1015,9 hPa 0,0 l/m 16,1 km/h (3 Bft) W-SW 247 0 min 0,000 mm 0,0 UV-I 0 W/m 2,1 C -3,2 C 19,3 km/h (3 Bft) 95,65 %
02.01.2018 18:31 3,6 C 3,9 C 90 % 1015,9 hPa 0,0 l/m 16,1 km/h (3 Bft) W-SW 247 0 min 0,000 mm 0,0 UV-I 0 W/m 2,1 C -3,2 C 20,9 km/h (4 Bft) 100,00 %
02.01.2018 18:32 3,6 C 3,9 C 89 % 1015,9 hPa 0,0 l/m 14,5 km/h (3 Bft) W-SW 247 0 min 0,000 mm 0,0 UV-I 0 W/m 2,0 C -2,3 C 20,9 km/h (4 Bft) 95,65 %
02.01.2018 18:33 3,6 C 3,9 C 89 % 1015,9 hPa 0,0 l/m 12,9 km/h (3 Bft) W-SW 247 0 min 0,000 mm 0,0 UV-I 0 W/m 2,0 C -1,4 C 17,7 km/h (3 Bft) 86,96 %
02.01.2018 18:34 3,6 C 3,9 C 89 % 1015,9 hPa 0,0 l/m 14,5 km/h (3 Bft) SW 225 0 min 0,000 mm 0,0 UV-I 0 W/m 2,0 C -2,3 C 17,7 km/h (3 Bft) 100,00 %
02.01.2018 18:35 3,6 C 3,9 C 89 % 1015,9 hPa 0,0 l/m 12,9 km/h (3 Bft) W-SW 247 0 min 0,000 mm 0,0 UV-I 0 W/m 2,0 C -1,4 C 19,3 km/h (3 Bft) 95,65 %
02.01.2018 18:36 3,7 C 3,9 C 89 % 1015,9 hPa 0,0 l/m 16,1 km/h (3 Bft) W-SW 247 0 min 0,000 mm 0,0 UV-I 0 W/m 2,1 C -3,1 C 19,3 km/h (3 Bft) 100,00 %
02.01.2018 18:37 3,7 C 3,9 C 89 % 1015,9 hPa 0,0 l/m 14,5 km/h (3 Bft) W-SW 247 0 min 0,000 mm 0,0 UV-I 0 W/m 2,1 C -2,2 C 20,9 km/h (4 Bft) 91,30 %
02.01.2018 18:38 3,7 C 3,9 C 89 % 1015,9 hPa 0,0 l/m 16,1 km/h (3 Bft) W-SW 247 0 min 0,000 mm 0,0 UV-I 0 W/m 2,1 C -3,1 C 22,5 km/h (4 Bft) 100,00 %
02.01.2018 18:39 3,7 C 3,9 C 89 % 1015,9 hPa 0,0 l/m 16,1 km/h (3 Bft) W-SW 247 0 min 0,000 mm 0,0 UV-I 0 W/m 2,1 C -3,1 C 24,1 km/h (4 Bft) 95,65 %
02.01.2018 18:40 3,7 C 3,9 C 89 % 1015,9 hPa 0,0 l/m 19,3 km/h (3 Bft) SW 225 0 min 0,000 mm 0,0 UV-I 0 W/m 2,1 C -4,6 C 25,7 km/h (4 Bft) 95,65 %
02.01.2018 18:41 3,7 C 3,9 C 89 % 1015,9 hPa 0,0 l/m 14,5 km/h (3 Bft) W-SW 247 0 min 0,000 mm 0,0 UV-I 0 W/m 2,1 C -2,2 C 20,9 km/h (4 Bft) 95,65 %
02.01.2018 18:42 3,7 C 3,9 C 89 % 1015,9 hPa 0,0 l/m 17,7 km/h (3 Bft) W-SW 247 0 min 0,000 mm 0,0 UV-I 0 W/m 2,1 C -3,8 C 24,1 km/h (4 Bft) 95,65 %
02.01.2018 18:43 3,8 C 3,9 C 89 % 1015,9 hPa 0,0 l/m 14,5 km/h (3 Bft) SW 225 0 min 0,000 mm 0,0 UV-I 0 W/m 2,2 C -2,1 C 17,7 km/h (3 Bft) 95,65 %
02.01.2018 18:44 3,7 C 3,9 C 89 % 1015,9 hPa 0,0 l/m 12,9 km/h (3 Bft) SW 225 0 min 0,000 mm 0,0 UV-I 0 W/m 2,1 C -1,3 C 19,3 km/h (3 Bft) 91,30 %
02.01.2018 18:45 3,8 C 3,9 C 89 % 1015,9 hPa 0,0 l/m 12,9 km/h (3 Bft) SW 225 0 min 0,000 mm 0,0 UV-I 0 W/m 2,2 C -1,2 C 17,7 km/h (3 Bft) 100,00 %
02.01.2018 18:46 3,7 C 3,9 C 89 % 1015,9 hPa 0,0 l/m 14,5 km/h (3 Bft) W-SW 247 0 min 0,000 mm 0,0 UV-I 0 W/m 2,1 C -2,2 C 20,9 km/h (4 Bft) 95,65 %
02.01.2018 18:47 3,8 C 3,9 C 89 % 1015,9 hPa 0,0 l/m 11,3 km/h (2 Bft) SW 225 0 min 0,000 mm 0,0 UV-I 0 W/m 2,2 C -0,2 C 17,7 km/h (3 Bft) 95,65 %
02.01.2018 18:48 3,7 C 3,9 C 89 % 1015,9 hPa 0,0 l/m 17,7 km/h (3 Bft) SW 225 0 min 0,000 mm 0,0 UV-I 0 W/m 2,1 C -3,8 C 24,1 km/h (4 Bft) 95,65 %
02.01.2018 18:49 3,7 C 3,9 C 89 % 1015,9 hPa 0,0 l/m 19,3 km/h (3 Bft) SW 225 0 min 0,000 mm 0,0 UV-I 0 W/m 2,1 C -4,6 C 27,4 km/h (4 Bft) 100,00 %
02.01.2018 18:50 3,7 C 3,9 C 89 % 1015,9 hPa 0,0 l/m 12,9 km/h (3 Bft) SW 225 0 min 0,000 mm 0,0 UV-I 0 W/m 2,1 C -1,3 C 17,7 km/h (3 Bft) 91,30 %
02.01.2018 18:51 3,7 C 3,9 C 89 % 1015,9 hPa 0,0 l/m 14,5 km/h (3 Bft) SW 225 0 min 0,000 mm 0,0 UV-I 0 W/m 2,1 C -2,2 C 20,9 km/h (4 Bft) 95,65 %
02.01.2018 18:52 3,7 C 3,9 C 89 % 1015,9 hPa 0,0 l/m 16,1 km/h (3 Bft) SW 225 0 min 0,000 mm 0,0 UV-I 0 W/m 2,1 C -3,1 C 19,3 km/h (3 Bft) 95,65 %
02.01.2018 18:53 3,7 C 3,9 C 89 % 1015,9 hPa 0,0 l/m 16,1 km/h (3 Bft) SW 225 0 min 0,000 mm 0,0 UV-I 0 W/m 2,1 C -3,1 C 20,9 km/h (4 Bft) 95,65 %
02.01.2018 18:54 3,7 C 3,9 C 89 % 1015,9 hPa 0,0 l/m 12,9 km/h (3 Bft) SW 225 0 min 0,000 mm 0,0 UV-I 0 W/m 2,1 C -1,3 C 17,7 km/h (3 Bft) 82,61 %
02.01.2018 18:55 3,7 C 3,9 C 89 % 1015,8 hPa 0,0 l/m 19,3 km/h (3 Bft) W-SW 247 0 min 0,000 mm 0,0 UV-I 0 W/m 2,1 C -4,6 C 25,7 km/h (4 Bft) 82,61 %
02.01.2018 18:56 3,7 C 3,9 C 89 % 1015,8 hPa 0,0 l/m 16,1 km/h (3 Bft) SW 225 0 min 0,000 mm 0,0 UV-I 0 W/m 2,1 C -3,1 C 22,5 km/h (4 Bft) 95,65 %
02.01.2018 18:57 3,7 C 3,9 C 89 % 1015,8 hPa 0,0 l/m 16,1 km/h (3 Bft) SW 225 0 min 0,000 mm 0,0 UV-I 0 W/m 2,1 C -3,1 C 22,5 km/h (4 Bft) 91,30 %
02.01.2018 18:58 3,7 C 3,9 C 89 % 1015,8 hPa 0,0 l/m 14,5 km/h (3 Bft) SW 225 0 min 0,000 mm 0,0 UV-I 0 W/m 2,1 C -2,2 C 20,9 km/h (4 Bft) 100,00 %
02.01.2018 18:59 3,7 C 3,9 C 89 % 1015,8 hPa 0,0 l/m 19,3 km/h (3 Bft) SW 225 0 min 0,000 mm 0,0 UV-I 0 W/m 2,1 C -4,6 C 32,2 km/h (5 Bft) 86,96 %
02.01.2018 19:00 3,7 C 3,9 C 89 % 1015,8 hPa 0,0 l/m 17,7 km/h (3 Bft) SW 225 0 min 0,025 mm 0,0 UV-I 0 W/m 2,1 C -3,8 C 25,7 km/h (4 Bft) 95,65 %
02.01.2018 19:01 3,7 C 3,9 C 89 % 1015,7 hPa 0,0 l/m 16,1 km/h (3 Bft) W-SW 247 0 min 0,000 mm 0,0 UV-I 0 W/m 2,1 C -3,1 C 20,9 km/h (4 Bft) 91,30 %
02.01.2018 19:02 3,6 C 3,9 C 89 % 1015,7 hPa 0,0 l/m 12,9 km/h (3 Bft) W-SW 247 0 min 0,000 mm 0,0 UV-I 0 W/m 2,0 C -1,4 C 17,7 km/h (3 Bft) 95,65 %
02.01.2018 19:03 3,6 C 3,9 C 89 % 1015,7 hPa 0,0 l/m 16,1 km/h (3 Bft) SW 225 0 min 0,000 mm 0,0 UV-I 0 W/m 2,0 C -3,2 C 22,5 km/h (4 Bft) 95,65 %
02.01.2018 19:04 3,6 C 3,9 C 89 % 1015,7 hPa 0,0 l/m 17,7 km/h (3 Bft) SW 225 0 min 0,000 mm 0,0 UV-I 0 W/m 2,0 C -4,0 C 25,7 km/h (4 Bft) 95,65 %
02.01.2018 19:05 3,6 C 3,9 C 89 % 1015,7 hPa 0,0 l/m 17,7 km/h (3 Bft) SW 225 0 min 0,000 mm 0,0 UV-I 0 W/m 2,0 C -4,0 C 22,5 km/h (4 Bft) 91,30 %
02.01.2018 19:06 3,6 C 3,9 C 89 % 1015,7 hPa 0,0 l/m 16,1 km/h (3 Bft) W-SW 247 0 min 0,000 mm 0,0 UV-I 0 W/m 2,0 C -3,2 C 24,1 km/h (4 Bft) 95,65 %
02.01.2018 19:07 3,6 C 3,9 C 89 % 1015,7 hPa 0,0 l/m 17,7 km/h (3 Bft) SW 225 0 min 0,000 mm 0,0 UV-I 0 W/m 2,0 C -4,0 C 25,7 km/h (4 Bft) 91,30 %
02.01.2018 19:08 3,6 C 3,9 C 89 % 1015,7 hPa 0,0 l/m 19,3 km/h (3 Bft) W-SW 247 0 min 0,000 mm 0,0 UV-I 0 W/m 2,0 C -4,7 C 24,1 km/h (4 Bft) 95,65 %
02.01.2018 19:09 3,6 C 3,9 C 89 % 1015,7 hPa 0,0 l/m 17,7 km/h (3 Bft) SW 225 0 min 0,000 mm 0,0 UV-I 0 W/m 2,0 C -4,0 C 25,7 km/h (4 Bft) 95,65 %
02.01.2018 19:10 3,6 C 3,9 C 89 % 1015,7 hPa 0,0 l/m 20,9 km/h (4 Bft) SW 225 0 min 0,000 mm 0,0 UV-I 0 W/m 2,0 C -5,3 C 25,7 km/h (4 Bft) 100,00 %
02.01.2018 19:11 3,6 C 3,9 C 89 % 1015,8 hPa 0,0 l/m 20,9 km/h (4 Bft) SW 225 0 min 0,000 mm 0,0 UV-I 0 W/m 2,0 C -5,3 C 27,4 km/h (4 Bft) 95,65 %
02.01.2018 19:12 3,7 C 3,9 C 89 % 1015,8 hPa 0,0 l/m 17,7 km/h (3 Bft) SW 225 0 min 0,000 mm 0,0 UV-I 0 W/m 2,1 C -3,8 C 24,1 km/h (4 Bft) 95,65 %
02.01.2018 19:13 3,6 C 3,9 C 89 % 1015,8 hPa 0,0 l/m 22,5 km/h (4 Bft) SW 225 0 min 0,000 mm 0,0 UV-I 0 W/m 2,0 C -6,0 C 30,6 km/h (5 Bft) 100,00 %
02.01.2018 19:14 3,7 C 3,9 C 89 % 1015,8 hPa 0,0 l/m 19,3 km/h (3 Bft) SW 225 0 min 0,000 mm 0,0 UV-I 0 W/m 2,1 C -4,6 C 22,5 km/h (4 Bft) 100,00 %
02.01.2018 19:15 3,7 C 3,9 C 89 % 1015,8 hPa 0,0 l/m 12,9 km/h (3 Bft) SW 225 0 min 0,000 mm 0,0 UV-I 0 W/m 2,1 C -1,3 C 19,3 km/h (3 Bft) 95,65 %
02.01.2018 19:16 3,6 C 3,9 C 89 % 1015,8 hPa 0,0 l/m 19,3 km/h (3 Bft) W-SW 247 0 min 0,000 mm 0,0 UV-I 0 W/m 2,0 C -4,7 C 25,7 km/h (4 Bft) 100,00 %
02.01.2018 19:17 3,6 C 3,9 C 89 % 1015,8 hPa 0,0 l/m 16,1 km/h (3 Bft) SW 225 0 min 0,000 mm 0,0 UV-I 0 W/m 2,0 C -3,2 C 24,1 km/h (4 Bft) 95,65 %
02.01.2018 19:18 3,6 C 3,9 C 89 % 1015,8 hPa 0,0 l/m 17,7 km/h (3 Bft) SW 225 0 min 0,000 mm 0,0 UV-I 0 W/m 2,0 C -4,0 C 24,1 km/h (4 Bft) 100,00 %
02.01.2018 19:19 3,6 C 3,9 C 89 % 1016,0 hPa 0,0 l/m 22,5 km/h (4 Bft) SW 225 0 min 0,000 mm 0,0 UV-I 0 W/m 2,0 C -6,0 C 30,6 km/h (5 Bft) 100,00 %
02.01.2018 19:20 3,6 C 3,9 C 89 % 1016,0 hPa 0,0 l/m 22,5 km/h (4 Bft) SW 225 0 min 0,000 mm 0,0 UV-I 0 W/m 2,0 C -6,0 C 30,6 km/h (5 Bft) 100,00 %
02.01.2018 19:21 3,6 C 3,9 C 89 % 1015,8 hPa 0,0 l/m 22,5 km/h (4 Bft) SW 225 0 min 0,000 mm 0,0 UV-I 0 W/m 2,0 C -6,0 C 33,8 km/h (5 Bft) 100,00 %
02.01.2018 19:22 3,6 C 3,9 C 89 % 1015,8 hPa 0,0 l/m 20,9 km/h (4 Bft) SW 225 0 min 0,000 mm 0,0 UV-I 0 W/m 2,0 C -5,3 C 29,0 km/h (5 Bft) 95,65 %
02.01.2018 19:23 3,6 C 3,9 C 89 % 1015,9 hPa 0,0 l/m 20,9 km/h (4 Bft) SW 225 0 min 0,000 mm 0,0 UV-I 0 W/m 2,0 C -5,3 C 29,0 km/h (5 Bft) 100,00 %
02.01.2018 19:24 3,7 C 3,9 C 89 % 1015,8 hPa 0,0 l/m 19,3 km/h (3 Bft) SW 225 0 min 0,000 mm 0,0 UV-I 0 W/m 2,1 C -4,6 C 32,2 km/h (5 Bft) 100,00 %
02.01.2018 19:25 3,7 C 3,9 C 88 % 1015,8 hPa 0,0 l/m 20,9 km/h (4 Bft) SW 225 0 min 0,000 mm 0,0 UV-I 0 W/m 1,9 C -5,2 C 27,4 km/h (4 Bft) 100,00 %
02.01.2018 19:26 3,7 C 3,9 C 88 % 1015,9 hPa 0,0 l/m 20,9 km/h (4 Bft) SW 225 0 min 0,000 mm 0,0 UV-I 0 W/m 1,9 C -5,2 C 24,1 km/h (4 Bft) 100,00 %
02.01.2018 19:27 3,7 C 3,9 C 88 % 1015,9 hPa 0,0 l/m 20,9 km/h (4 Bft) SW 225 0 min 0,000 mm 0,0 UV-I 0 W/m 1,9 C -5,2 C 27,4 km/h (4 Bft) 100,00 %
02.01.2018 19:28 3,7 C 3,9 C 88 % 1015,9 hPa 0,0 l/m 20,9 km/h (4 Bft) W-SW 247 0 min 0,000 mm 0,0 UV-I 0 W/m 1,9 C -5,2 C 25,7 km/h (4 Bft) 100,00 %
02.01.2018 19:29 3,7 C 3,9 C 88 % 1015,9 hPa 0,0 l/m 14,5 km/h (3 Bft) W-SW 247 0 min 0,000 mm 0,0 UV-I 0 W/m 1,9 C -2,2 C 20,9 km/h (4 Bft) 95,65 %
02.01.2018 19:30 3,7 C 3,9 C 88 % 1016,0 hPa 0,0 l/m 16,1 km/h (3 Bft) SW 225 0 min 0,000 mm 0,0 UV-I 0 W/m 1,9 C -3,1 C 22,5 km/h (4 Bft) 95,65 %
02.01.2018 19:31 3,7 C 3,9 C 88 % 1015,9 hPa 0,0 l/m 14,5 km/h (3 Bft) W-SW 247 0 min 0,000 mm 0,0 UV-I 0 W/m 1,9 C -2,2 C 20,9 km/h (4 Bft) 100,00 %
02.01.2018 19:32 3,7 C 3,9 C 88 % 1015,9 hPa 0,0 l/m 14,5 km/h (3 Bft) SW 225 0 min 0,000 mm 0,0 UV-I 0 W/m 1,9 C -2,2 C 19,3 km/h (3 Bft) 100,00 %
02.01.2018 19:33 3,7 C 3,9 C 88 % 1016,0 hPa 0,0 l/m 14,5 km/h (3 Bft) W-SW 247 0 min 0,000 mm 0,0 UV-I 0 W/m 1,9 C -2,2 C 19,3 km/h (3 Bft) 100,00 %
02.01.2018 19:34 3,7 C 3,9 C 88 % 1015,9 hPa 0,0 l/m 17,7 km/h (3 Bft) SW 225 0 min 0,000 mm 0,0 UV-I 0 W/m 1,9 C -3,8 C 24,1 km/h (4 Bft) 100,00 %
02.01.2018 19:35 3,7 C 3,9 C 88 % 1015,9 hPa 0,0 l/m 20,9 km/h (4 Bft) SW 225 0 min 0,000 mm 0,0 UV-I 0 W/m 1,9 C -5,2 C 27,4 km/h (4 Bft) 100,00 %
02.01.2018 19:36 3,7 C 3,9 C 88 % 1015,9 hPa 0,0 l/m 17,7 km/h (3 Bft) SW 225 0 min 0,000 mm 0,0 UV-I 0 W/m 1,9 C -3,8 C 27,4 km/h (4 Bft) 95,65 %
02.01.2018 19:37 3,7 C 3,9 C 88 % 1016,0 hPa 0,0 l/m 14,5 km/h (3 Bft) SW 225 0 min 0,000 mm 0,0 UV-I 0 W/m 1,9 C -2,2 C 22,5 km/h (4 Bft) 100,00 %
02.01.2018 19:38 3,7 C 3,9 C 88 % 1016,0 hPa 0,0 l/m 20,9 km/h (4 Bft) SW 225 0 min 0,000 mm 0,0 UV-I 0 W/m 1,9 C -5,2 C 29,0 km/h (5 Bft) 100,00 %
02.01.2018 19:39 3,7 C 3,9 C 88 % 1016,0 hPa 0,0 l/m 14,5 km/h (3 Bft) W-SW 247 0 min 0,000 mm 0,0 UV-I 0 W/m 1,9 C -2,2 C 22,5 km/h (4 Bft) 95,65 %
02.01.2018 19:40 3,7 C 3,9 C 88 % 1016,1 hPa 0,0 l/m 19,3 km/h (3 Bft) SW 225 0 min 0,000 mm 0,0 UV-I 0 W/m 1,9 C -4,6 C 30,6 km/h (5 Bft) 100,00 %
02.01.2018 19:41 3,7 C 3,9 C 88 % 1016,0 hPa 0,0 l/m 19,3 km/h (3 Bft) SW 225 0 min 0,000 mm 0,0 UV-I 0 W/m 1,9 C -4,6 C 27,4 km/h (4 Bft) 100,00 %
02.01.2018 19:42 3,7 C 3,9 C 88 % 1016,1 hPa 0,0 l/m 19,3 km/h (3 Bft) W-SW 247 0 min 0,000 mm 0,0 UV-I 0 W/m 1,9 C -4,6 C 25,7 km/h (4 Bft) 100,00 %
02.01.2018 19:43 3,7 C 3,9 C 88 % 1016,1 hPa 0,0 l/m 14,5 km/h (3 Bft) SW 225 0 min 0,000 mm 0,0 UV-I 0 W/m 1,9 C -2,2 C 22,5 km/h (4 Bft) 95,65 %
02.01.2018 19:44 3,7 C 3,9 C 88 % 1016,1 hPa 0,0 l/m 14,5 km/h (3 Bft) W-SW 247 0 min 0,000 mm 0,0 UV-I 0 W/m 1,9 C -2,2 C 17,7 km/h (3 Bft) 100,00 %
02.01.2018 19:45 3,7 C 3,9 C 88 % 1016,1 hPa 0,0 l/m 12,9 km/h (3 Bft) SW 225 0 min 0,000 mm 0,0 UV-I 0 W/m 1,9 C -1,3 C 20,9 km/h (4 Bft) 100,00 %
02.01.2018 19:46 3,7 C 3,9 C 88 % 1016,2 hPa 0,0 l/m 14,5 km/h (3 Bft) W-SW 247 0 min 0,000 mm 0,0 UV-I 0 W/m 1,9 C -2,2 C 20,9 km/h (4 Bft) 100,00 %
02.01.2018 19:47 3,7 C 3,9 C 88 % 1016,2 hPa 0,0 l/m 17,7 km/h (3 Bft) SW 225 0 min 0,000 mm 0,0 UV-I 0 W/m 1,9 C -3,8 C 24,1 km/h (4 Bft) 100,00 %
02.01.2018 19:48 3,7 C 3,9 C 88 % 1016,2 hPa 0,0 l/m 16,1 km/h (3 Bft) SW 225 0 min 0,000 mm 0,0 UV-I 0 W/m 1,9 C -3,1 C 22,5 km/h (4 Bft) 100,00 %
02.01.2018 19:49 3,7 C 3,9 C 88 % 1016,3 hPa 0,0 l/m 16,1 km/h (3 Bft) W-SW 247 0 min 0,000 mm 0,0 UV-I 0 W/m 1,9 C -3,1 C 24,1 km/h (4 Bft) 100,00 %
02.01.2018 19:50 3,7 C 3,9 C 88 % 1016,3 hPa 0,0 l/m 22,5 km/h (4 Bft) SW 225 0 min 0,000 mm 0,0 UV-I 0 W/m 1,9 C -5,8 C 29,0 km/h (5 Bft) 95,65 %
02.01.2018 19:51 3,7 C 3,9 C 88 % 1016,3 hPa 0,0 l/m 16,1 km/h (3 Bft) SW 225 0 min 0,000 mm 0,0 UV-I 0 W/m 1,9 C -3,1 C 22,5 km/h (4 Bft) 100,00 %
02.01.2018 19:52 3,7 C 3,9 C 88 % 1016,3 hPa 0,0 l/m 17,7 km/h (3 Bft) SW 225 0 min 0,000 mm 0,0 UV-I 0 W/m 1,9 C -3,8 C 25,7 km/h (4 Bft) 95,65 %
02.01.2018 19:53 3,7 C 3,9 C 88 % 1016,3 hPa 0,0 l/m 17,7 km/h (3 Bft) SW 225 0 min 0,000 mm 0,0 UV-I 0 W/m 1,9 C -3,8 C 20,9 km/h (4 Bft) 95,65 %
02.01.2018 19:54 3,7 C 3,9 C 88 % 1016,3 hPa 0,0 l/m 17,7 km/h (3 Bft) SW 225 0 min 0,000 mm 0,0 UV-I 0 W/m 1,9 C -3,8 C 22,5 km/h (4 Bft) 100,00 %
02.01.2018 19:55 3,7 C 3,9 C 88 % 1016,3 hPa 0,0 l/m 16,1 km/h (3 Bft) W-SW 247 0 min 0,000 mm 0,0 UV-I 0 W/m 1,9 C -3,1 C 24,1 km/h (4 Bft) 100,00 %
02.01.2018 19:56 3,7 C 3,9 C 88 % 1016,3 hPa 0,0 l/m 19,3 km/h (3 Bft) SW 225 0 min 0,000 mm 0,0 UV-I 0 W/m 1,9 C -4,6 C 25,7 km/h (4 Bft) 95,65 %
02.01.2018 19:57 3,7 C 3,9 C 88 % 1016,3 hPa 0,0 l/m 20,9 km/h (4 Bft) SW 225 0 min 0,000 mm 0,0 UV-I 0 W/m 1,9 C -5,2 C 30,6 km/h (5 Bft) 95,65 %
02.01.2018 19:58 3,7 C 3,9 C 88 % 1016,3 hPa 0,0 l/m 17,7 km/h (3 Bft) SW 225 0 min 0,000 mm 0,0 UV-I 0 W/m 1,9 C -3,8 C 29,0 km/h (5 Bft) 100,00 %
02.01.2018 19:59 3,6 C 3,9 C 88 % 1016,4 hPa 0,0 l/m 16,1 km/h (3 Bft) SW 225 0 min 0,000 mm 0,0 UV-I 0 W/m 1,8 C -3,2 C 22,5 km/h (4 Bft) 95,65 %
02.01.2018 20:00 3,6 C 3,9 C 88 % 1016,3 hPa 0,0 l/m 17,7 km/h (3 Bft) W-SW 247 0 min 0,025 mm 0,0 UV-I 0 W/m 1,8 C -4,0 C 22,5 km/h (4 Bft) 95,65 %
02.01.2018 20:01 3,6 C 3,9 C 88 % 1016,3 hPa 0,0 l/m 16,1 km/h (3 Bft) W-SW 247 0 min 0,000 mm 0,0 UV-I 0 W/m 1,8 C -3,2 C 22,5 km/h (4 Bft) 100,00 %
02.01.2018 20:02 3,6 C 3,9 C 88 % 1016,4 hPa 0,0 l/m 19,3 km/h (3 Bft) W-SW 247 0 min 0,000 mm 0,0 UV-I 0 W/m 1,8 C -4,7 C 25,7 km/h (4 Bft) 100,00 %
02.01.2018 20:03 3,5 C 3,9 C 88 % 1016,4 hPa 0,0 l/m 14,5 km/h (3 Bft) SW 225 0 min 0,000 mm 0,0 UV-I 0 W/m 1,7 C -2,5 C 20,9 km/h (4 Bft) 100,00 %
02.01.2018 20:04 3,4 C 3,9 C 88 % 1016,4 hPa 0,0 l/m 20,9 km/h (4 Bft) W-SW 247 0 min 0,000 mm 0,0 UV-I 0 W/m 1,6 C -5,6 C 29,0 km/h (5 Bft) 95,65 %
02.01.2018 20:05 3,4 C 3,9 C 88 % 1016,5 hPa 0,0 l/m 19,3 km/h (3 Bft) W-SW 247 0 min 0,000 mm 0,0 UV-I 0 W/m 1,6 C -4,9 C 29,0 km/h (5 Bft) 100,00 %
02.01.2018 20:06 3,4 C 3,9 C 88 % 1016,4 hPa 0,0 l/m 12,9 km/h (3 Bft) W-SW 247 0 min 0,000 mm 0,0 UV-I 0 W/m 1,6 C -1,7 C 17,7 km/h (3 Bft) 100,00 %
02.01.2018 20:07 3,4 C 3,9 C 88 % 1016,5 hPa 0,0 l/m 19,3 km/h (3 Bft) W-SW 247 0 min 0,000 mm 0,0 UV-I 0 W/m 1,6 C -4,9 C 25,7 km/h (4 Bft) 100,00 %
02.01.2018 20:08 3,4 C 3,9 C 88 % 1016,5 hPa 0,0 l/m 19,3 km/h (3 Bft) W-SW 247 0 min 0,000 mm 0,0 UV-I 0 W/m 1,6 C -4,9 C 25,7 km/h (4 Bft) 100,00 %
02.01.2018 20:09 3,4 C 3,9 C 88 % 1016,6 hPa 0,0 l/m 17,7 km/h (3 Bft) W-SW 247 0 min 0,000 mm 0,0 UV-I 0 W/m 1,6 C -4,2 C 24,1 km/h (4 Bft) 95,65 %
02.01.2018 20:10 3,4 C 3,9 C 88 % 1016,6 hPa 0,0 l/m 14,5 km/h (3 Bft) W-SW 247 0 min 0,000 mm 0,0 UV-I 0 W/m 1,6 C -2,6 C 19,3 km/h (3 Bft) 100,00 %
02.01.2018 20:11 3,4 C 3,9 C 88 % 1016,6 hPa 0,0 l/m 17,7 km/h (3 Bft) SW 225 0 min 0,000 mm 0,0 UV-I 0 W/m 1,6 C -4,2 C 25,7 km/h (4 Bft) 95,65 %
02.01.2018 20:12 3,4 C 3,9 C 88 % 1016,6 hPa 0,0 l/m 14,5 km/h (3 Bft) SW 225 0 min 0,000 mm 0,0 UV-I 0 W/m 1,6 C -2,6 C 22,5 km/h (4 Bft) 95,65 %
02.01.2018 20:13 3,4 C 3,9 C 88 % 1016,5 hPa 0,0 l/m 14,5 km/h (3 Bft) SW 225 0 min 0,000 mm 0,0 UV-I 0 W/m 1,6 C -2,6 C 19,3 km/h (3 Bft) 100,00 %
02.01.2018 20:14 3,4 C 3,9 C 88 % 1016,6 hPa 0,0 l/m 9,7 km/h (2 Bft) SW 225 0 min 0,000 mm 0,0 UV-I 0 W/m 1,6 C 0,5 C 12,9 km/h (3 Bft) 100,00 %
02.01.2018 20:15 3,4 C 3,9 C 88 % 1016,5 hPa 0,0 l/m 12,9 km/h (3 Bft) W-SW 247 0 min 0,000 mm 0,0 UV-I 0 W/m 1,6 C -1,7 C 17,7 km/h (3 Bft) 95,65 %
02.01.2018 20:16 3,4 C 3,9 C 88 % 1016,6 hPa 0,0 l/m 16,1 km/h (3 Bft) SW 225 0 min 0,000 mm 0,0 UV-I 0 W/m 1,6 C -3,4 C 24,1 km/h (4 Bft) 95,65 %
02.01.2018 20:17 3,3 C 3,9 C 88 % 1016,5 hPa 0,0 l/m 16,1 km/h (3 Bft) SW 225 0 min 0,000 mm 0,0 UV-I 0 W/m 1,5 C -3,6 C 20,9 km/h (4 Bft) 100,00 %
02.01.2018 20:18 3,3 C 3,9 C 88 % 1016,6 hPa 0,0 l/m 17,7 km/h (3 Bft) W-SW 247 0 min 0,000 mm 0,0 UV-I 0 W/m 1,5 C -4,3 C 20,9 km/h (4 Bft) 91,30 %
02.01.2018 20:19 3,4 C 3,9 C 88 % 1016,6 hPa 0,0 l/m 12,9 km/h (3 Bft) W-SW 247 0 min 0,000 mm 0,0 UV-I 0 W/m 1,6 C -1,7 C 17,7 km/h (3 Bft) 100,00 %
02.01.2018 20:20 3,4 C 3,9 C 88 % 1016,6 hPa 0,0 l/m 11,3 km/h (2 Bft) W-SW 247 0 min 0,000 mm 0,0 UV-I 0 W/m 1,6 C -0,6 C 20,9 km/h (4 Bft) 95,65 %
02.01.2018 20:21 3,4 C 3,9 C 88 % 1016,6 hPa 0,0 l/m 14,5 km/h (3 Bft) W-SW 247 0 min 0,000 mm 0,0 UV-I 0 W/m 1,6 C -2,6 C 19,3 km/h (3 Bft) 95,65 %
02.01.2018 20:22 3,4 C 3,9 C 88 % 1016,6 hPa 0,0 l/m 17,7 km/h (3 Bft) W-SW 247 0 min 0,000 mm 0,0 UV-I 0 W/m 1,6 C -4,2 C 27,4 km/h (4 Bft) 95,65 %
02.01.2018 20:23 3,4 C 3,9 C 88 % 1016,6 hPa 0,0 l/m 12,9 km/h (3 Bft) W-SW 247 0 min 0,000 mm 0,0 UV-I 0 W/m 1,6 C -1,7 C 22,5 km/h (4 Bft) 95,65 %
02.01.2018 20:24 3,4 C 3,9 C 88 % 1016,6 hPa 0,0 l/m 16,1 km/h (3 Bft) SW 225 0 min 0,000 mm 0,0 UV-I 0 W/m 1,6 C -3,4 C 20,9 km/h (4 Bft) 95,65 %
02.01.2018 20:25 3,4 C 3,9 C 87 % 1016,7 hPa 0,0 l/m 12,9 km/h (3 Bft) W-SW 247 0 min 0,000 mm 0,0 UV-I 0 W/m 1,4 C -1,7 C 17,7 km/h (3 Bft) 95,65 %
02.01.2018 20:26 3,4 C 3,9 C 87 % 1016,7 hPa 0,0 l/m 12,9 km/h (3 Bft) W-SW 247 0 min 0,000 mm 0,0 UV-I 0 W/m 1,4 C -1,7 C 17,7 km/h (3 Bft) 95,65 %
02.01.2018 20:27 3,4 C 3,9 C 87 % 1016,7 hPa 0,0 l/m 17,7 km/h (3 Bft) W-SW 247 0 min 0,000 mm 0,0 UV-I 0 W/m 1,4 C -4,2 C 24,1 km/h (4 Bft) 95,65 %
02.01.2018 20:28 3,4 C 3,9 C 87 % 1016,7 hPa 0,0 l/m 12,9 km/h (3 Bft) W-SW 247 0 min 0,000 mm 0,0 UV-I 0 W/m 1,4 C -1,7 C 20,9 km/h (4 Bft) 91,30 %
02.01.2018 20:29 3,4 C 3,9 C 87 % 1016,7 hPa 0,0 l/m 14,5 km/h (3 Bft) W-SW 247 0 min 0,000 mm 0,0 UV-I 0 W/m 1,4 C -2,6 C 20,9 km/h (4 Bft) 100,00 %
02.01.2018 20:30 3,4 C 3,9 C 87 % 1016,7 hPa 0,0 l/m 12,9 km/h (3 Bft) W-SW 247 0 min 0,000 mm 0,0 UV-I 0 W/m 1,4 C -1,7 C 19,3 km/h (3 Bft) 95,65 %
02.01.2018 20:31 3,4 C 3,9 C 87 % 1016,7 hPa 0,0 l/m 14,5 km/h (3 Bft) W-SW 247 0 min 0,000 mm 0,0 UV-I 0 W/m 1,4 C -2,6 C 22,5 km/h (4 Bft) 95,65 %
02.01.2018 20:32 3,5 C 3,9 C 87 % 1016,8 hPa 0,0 l/m 11,3 km/h (2 Bft) W-SW 247 0 min 0,000 mm 0,0 UV-I 0 W/m 1,5 C -0,5 C 14,5 km/h (3 Bft) 95,65 %
02.01.2018 20:33 3,5 C 3,9 C 87 % 1016,7 hPa 0,0 l/m 11,3 km/h (2 Bft) SW 225 0 min 0,000 mm 0,0 UV-I 0 W/m 1,5 C -0,5 C 16,1 km/h (3 Bft) 95,65 %
02.01.2018 20:34 3,5 C 3,9 C 87 % 1016,8 hPa 0,0 l/m 9,7 km/h (2 Bft) SW 225 0 min 0,000 mm 0,0 UV-I 0 W/m 1,5 C 0,6 C 14,5 km/h (3 Bft) 100,00 %
02.01.2018 20:35 3,4 C 3,9 C 87 % 1016,8 hPa 0,0 l/m 11,3 km/h (2 Bft) SW 225 0 min 0,000 mm 0,0 UV-I 0 W/m 1,4 C -0,6 C 16,1 km/h (3 Bft) 95,65 %
02.01.2018 20:36 3,4 C 3,9 C 87 % 1016,8 hPa 0,0 l/m 14,5 km/h (3 Bft) W-SW 247 0 min 0,000 mm 0,0 UV-I 0 W/m 1,4 C -2,6 C 19,3 km/h (3 Bft) 100,00 %
02.01.2018 20:37 3,4 C 3,9 C 88 % 1016,8 hPa 0,0 l/m 12,9 km/h (3 Bft) SW 225 0 min 0,000 mm 0,0 UV-I 0 W/m 1,6 C -1,7 C 16,1 km/h (3 Bft) 91,30 %
02.01.2018 20:38 3,4 C 3,9 C 88 % 1016,8 hPa 0,0 l/m 12,9 km/h (3 Bft) W-SW 247 0 min 0,000 mm 0,0 UV-I 0 W/m 1,6 C -1,7 C 16,1 km/h (3 Bft) 100,00 %
02.01.2018 20:39 3,4 C 3,9 C 88 % 1016,8 hPa 0,0 l/m 14,5 km/h (3 Bft) SW 225 0 min 0,000 mm 0,0 UV-I 0 W/m 1,6 C -2,6 C 19,3 km/h (3 Bft) 95,65 %
02.01.2018 20:40 3,4 C 3,9 C 88 % 1016,8 hPa 0,0 l/m 14,5 km/h (3 Bft) SW 225 0 min 0,000 mm 0,0 UV-I 0 W/m 1,6 C -2,6 C 20,9 km/h (4 Bft) 100,00 %
02.01.2018 20:41 3,4 C 3,9 C 88 % 1016,7 hPa 0,0 l/m 16,1 km/h (3 Bft) SW 225 0 min 0,000 mm 0,0 UV-I 0 W/m 1,6 C -3,4 C 22,5 km/h (4 Bft) 95,65 %
02.01.2018 20:42 3,4 C 3,9 C 89 % 1016,8 hPa 0,0 l/m 19,3 km/h (3 Bft) SW 225 0 min 0,000 mm 0,0 UV-I 0 W/m 1,8 C -4,9 C 24,1 km/h (4 Bft) 100,00 %
02.01.2018 20:43 3,4 C 3,9 C 89 % 1016,8 hPa 0,0 l/m 17,7 km/h (3 Bft) SW 225 0 min 0,000 mm 0,0 UV-I 0 W/m 1,8 C -4,2 C 24,1 km/h (4 Bft) 95,65 %
02.01.2018 20:44 3,4 C 3,9 C 89 % 1016,7 hPa 0,0 l/m 16,1 km/h (3 Bft) SW 225 0 min 0,000 mm 0,0 UV-I 0 W/m 1,8 C -3,4 C 22,5 km/h (4 Bft) 95,65 %
02.01.2018 20:45 3,3 C 3,9 C 89 % 1016,7 hPa 0,0 l/m 19,3 km/h (3 Bft) W-SW 247 0 min 0,000 mm 0,0 UV-I 0 W/m 1,7 C -5,1 C 24,1 km/h (4 Bft) 100,00 %
02.01.2018 20:46 3,3 C 3,9 C 89 % 1016,7 hPa 0,0 l/m 17,7 km/h (3 Bft) SW 225 0 min 0,000 mm 0,0 UV-I 0 W/m 1,7 C -4,3 C 24,1 km/h (4 Bft) 86,96 %
02.01.2018 20:47 3,3 C 3,9 C 89 % 1016,8 hPa 0,0 l/m 17,7 km/h (3 Bft) SW 225 0 min 0,000 mm 0,0 UV-I 0 W/m 1,7 C -4,3 C 25,7 km/h (4 Bft) 100,00 %
02.01.2018 20:48 3,3 C 3,9 C 89 % 1016,8 hPa 0,0 l/m 16,1 km/h (3 Bft) W-SW 247 0 min 0,000 mm 0,0 UV-I 0 W/m 1,7 C -3,6 C 22,5 km/h (4 Bft) 95,65 %
02.01.2018 20:49 3,3 C 3,9 C 89 % 1016,9 hPa 0,0 l/m 22,5 km/h (4 Bft) W-SW 247 0 min 0,000 mm 0,0 UV-I 0 W/m 1,7 C -6,4 C 27,4 km/h (4 Bft) 100,00 %
02.01.2018 20:50 3,3 C 3,9 C 89 % 1016,8 hPa 0,0 l/m 20,9 km/h (4 Bft) SW 225 0 min 0,000 mm 0,0 UV-I 0 W/m 1,7 C -5,7 C 24,1 km/h (4 Bft) 95,65 %
02.01.2018 20:51 3,2 C 3,9 C 90 % 1016,9 hPa 0,0 l/m 16,1 km/h (3 Bft) W-SW 247 0 min 0,000 mm 0,0 UV-I 0 W/m 1,7 C -3,7 C 24,1 km/h (4 Bft) 95,65 %
02.01.2018 20:52 3,2 C 3,9 C 90 % 1016,9 hPa 0,0 l/m 20,9 km/h (4 Bft) SW 225 0 min 0,000 mm 0,0 UV-I 0 W/m 1,7 C -5,9 C 32,2 km/h (5 Bft) 100,00 %
02.01.2018 20:53 3,2 C 3,9 C 90 % 1016,9 hPa 0,0 l/m 20,9 km/h (4 Bft) SW 225 0 min 0,000 mm 0,0 UV-I 0 W/m 1,7 C -5,9 C 29,0 km/h (5 Bft) 91,30 %
02.01.2018 20:54 3,2 C 3,9 C 90 % 1016,9 hPa 0,0 l/m 19,3 km/h (3 Bft) W-SW 247 0 min 0,000 mm 0,0 UV-I 0 W/m 1,7 C -5,2 C 27,4 km/h (4 Bft) 100,00 %
02.01.2018 20:55 3,2 C 3,9 C 90 % 1016,9 hPa 0,2 l/m 19,3 km/h (3 Bft) SW 225 0 min 0,000 mm 0,0 UV-I 0 W/m 1,7 C -5,2 C 32,2 km/h (5 Bft) 95,65 %
02.01.2018 20:56 3,1 C 3,9 C 90 % 1016,9 hPa 0,0 l/m 19,3 km/h (3 Bft) SW 225 0 min 0,000 mm 0,0 UV-I 0 W/m 1,6 C -5,3 C 27,4 km/h (4 Bft) 100,00 %
02.01.2018 20:57 3,1 C 3,9 C 90 % 1017,0 hPa 0,0 l/m 20,9 km/h (4 Bft) W 270 0 min 0,000 mm 0,0 UV-I 0 W/m 1,6 C -6,0 C 25,7 km/h (4 Bft) 95,65 %
02.01.2018 20:58 3,0 C 3,9 C 91 % 1017,0 hPa 0,0 l/m 14,5 km/h (3 Bft) W-SW 247 0 min 0,000 mm 0,0 UV-I 0 W/m 1,7 C -3,1 C 19,3 km/h (3 Bft) 95,65 %
02.01.2018 20:59 2,9 C 3,9 C 91 % 1016,9 hPa 0,2 l/m 17,7 km/h (3 Bft) W 270 0 min 0,000 mm 0,0 UV-I 0 W/m 1,6 C -4,8 C 22,5 km/h (4 Bft) 95,65 %
02.01.2018 21:00 2,9 C 3,9 C 91 % 1017,0 hPa 0,0 l/m 12,9 km/h (3 Bft) W-NW 292 0 min 0,025 mm 0,0 UV-I 0 W/m 1,6 C -2,2 C 29,0 km/h (5 Bft) 91,30 %
02.01.2018 21:01 2,8 C 3,9 C 91 % 1017,0 hPa 0,0 l/m 20,9 km/h (4 Bft) W-SW 247 0 min 0,000 mm 0,0 UV-I 0 W/m 1,5 C -6,4 C 27,4 km/h (4 Bft) 100,00 %
02.01.2018 21:02 2,8 C 3,9 C 91 % 1017,0 hPa 0,2 l/m 19,3 km/h (3 Bft) W 270 0 min 0,000 mm 0,0 UV-I 0 W/m 1,5 C -5,7 C 25,7 km/h (4 Bft) 95,65 %
02.01.2018 21:03 2,8 C 3,9 C 92 % 1016,9 hPa 0,0 l/m 14,5 km/h (3 Bft) W-SW 247 0 min 0,000 mm 0,0 UV-I 0 W/m 1,6 C -3,3 C 16,1 km/h (3 Bft) 100,00 %
02.01.2018 21:04 2,8 C 3,9 C 92 % 1017,0 hPa 0,0 l/m 16,1 km/h (3 Bft) W-SW 247 0 min 0,000 mm 0,0 UV-I 0 W/m 1,6 C -4,2 C 19,3 km/h (3 Bft) 95,65 %
02.01.2018 21:05 2,7 C 3,9 C 92 % 1017,0 hPa 0,2 l/m 16,1 km/h (3 Bft) W-SW 247 0 min 0,000 mm 0,0 UV-I 0 W/m 1,5 C -4,3 C 20,9 km/h (4 Bft) 95,65 %
02.01.2018 21:06 2,7 C 3,9 C 92 % 1016,9 hPa 0,0 l/m 12,9 km/h (3 Bft) W-SW 247 0 min 0,000 mm 0,0 UV-I 0 W/m 1,5 C -2,5 C 22,5 km/h (4 Bft) 95,65 %
02.01.2018 21:07 2,6 C 3,9 C 92 % 1016,8 hPa 0,0 l/m 12,9 km/h (3 Bft) SW 225 0 min 0,000 mm 0,0 UV-I 0 W/m 1,4 C -2,6 C 19,3 km/h (3 Bft) 95,65 %
02.01.2018 21:08 2,6 C 3,9 C 92 % 1016,8 hPa 0,0 l/m 14,5 km/h (3 Bft) W-SW 247 0 min 0,000 mm 0,0 UV-I 0 W/m 1,4 C -3,5 C 22,5 km/h (4 Bft) 95,65 %
02.01.2018 21:09 2,6 C 3,9 C 92 % 1016,8 hPa 0,2 l/m 8,0 km/h (2 Bft) W-SW 247 0 min 0,000 mm 0,0 UV-I 0 W/m 1,4 C 1,1 C 14,5 km/h (3 Bft) 95,65 %
02.01.2018 21:10 2,6 C 3,9 C 93 % 1016,8 hPa 0,0 l/m 8,0 km/h (2 Bft) W-SW 247 0 min 0,000 mm 0,0 UV-I 0 W/m 1,6 C 1,1 C 12,9 km/h (3 Bft) 95,65 %
02.01.2018 21:11 2,6 C 3,9 C 92 % 1016,8 hPa 0,0 l/m 9,7 km/h (2 Bft) SW 225 0 min 0,000 mm 0,0 UV-I 0 W/m 1,4 C -0,3 C 14,5 km/h (3 Bft) 95,65 %
02.01.2018 21:12 2,6 C 3,9 C 93 % 1016,8 hPa 0,0 l/m 11,3 km/h (2 Bft) SW 225 0 min 0,000 mm 0,0 UV-I 0 W/m 1,6 C -1,5 C 16,1 km/h (3 Bft) 100,00 %
02.01.2018 21:13 2,6 C 3,9 C 93 % 1016,8 hPa 0,0 l/m 9,7 km/h (2 Bft) W-SW 247 0 min 0,000 mm 0,0 UV-I 0 W/m 1,6 C -0,3 C 12,9 km/h (3 Bft) 95,65 %
02.01.2018 21:14 2,6 C 3,9 C 93 % 1016,7 hPa 0,0 l/m 9,7 km/h (2 Bft) SW 225 0 min 0,000 mm 0,0 UV-I 0 W/m 1,6 C -0,3 C 12,9 km/h (3 Bft) 95,65 %
02.01.2018 21:15 2,6 C 3,9 C 93 % 1016,7 hPa 0,0 l/m 8,0 km/h (2 Bft) S-SW 202 0 min 0,000 mm 0,0 UV-I 0 W/m 1,6 C 1,1 C 11,3 km/h (2 Bft) 95,65 %
02.01.2018 21:16 2,6 C 3,9 C 93 % 1016,7 hPa 0,0 l/m 6,4 km/h (2 Bft) SW 225 0 min 0,000 mm 0,0 UV-I 0 W/m 1,6 C 2,6 C 11,3 km/h (2 Bft) 100,00 %
02.01.2018 21:17 2,6 C 3,9 C 93 % 1016,7 hPa 0,0 l/m 6,4 km/h (2 Bft) SW 225 0 min 0,000 mm 0,0 UV-I 0 W/m 1,6 C 2,6 C 9,7 km/h (2 Bft) 95,65 %
02.01.2018 21:18 2,6 C 3,9 C 93 % 1016,7 hPa 0,0 l/m 6,4 km/h (2 Bft) S-SW 202 0 min 0,000 mm 0,0 UV-I 0 W/m 1,6 C 2,6 C 11,3 km/h (2 Bft) 95,65 %
02.01.2018 21:19 2,6 C 3,9 C 93 % 1016,7 hPa 0,0 l/m 8,0 km/h (2 Bft) S-SW 202 0 min 0,000 mm 0,0 UV-I 0 W/m 1,6 C 1,1 C 11,3 km/h (2 Bft) 100,00 %
02.01.2018 21:20 2,5 C 3,9 C 93 % 1016,7 hPa 0,0 l/m 8,0 km/h (2 Bft) S-SW 202 0 min 0,000 mm 0,0 UV-I 0 W/m 1,5 C 1,0 C 12,9 km/h (3 Bft) 100,00 %
02.01.2018 21:21 2,5 C 3,9 C 93 % 1016,7 hPa 0,0 l/m 8,0 km/h (2 Bft) SW 225 0 min 0,000 mm 0,0 UV-I 0 W/m 1,5 C 1,0 C 9,7 km/h (2 Bft) 95,65 %
02.01.2018 21:22 2,5 C 3,9 C 93 % 1016,7 hPa 0,0 l/m 6,4 km/h (2 Bft) SW 225 0 min 0,000 mm 0,0 UV-I 0 W/m 1,5 C 2,5 C 8,0 km/h (2 Bft) 100,00 %
02.01.2018 21:23 2,6 C 3,9 C 93 % 1016,7 hPa 0,0 l/m 6,4 km/h (2 Bft) SW 225 0 min 0,000 mm 0,0 UV-I 0 W/m 1,6 C 2,6 C 8,0 km/h (2 Bft) 100,00 %
02.01.2018 21:24 2,6 C 3,9 C 93 % 1016,6 hPa 0,0 l/m 8,0 km/h (2 Bft) S-SW 202 0 min 0,000 mm 0,0 UV-I 0 W/m 1,6 C 1,1 C 11,3 km/h (2 Bft) 100,00 %
02.01.2018 21:25 2,6 C 3,9 C 93 % 1016,6 hPa 0,0 l/m 9,7 km/h (2 Bft) S-SW 202 0 min 0,000 mm 0,0 UV-I 0 W/m 1,6 C -0,3 C 11,3 km/h (2 Bft) 100,00 %
02.01.2018 21:26 2,6 C 3,9 C 93 % 1016,6 hPa 0,0 l/m 6,4 km/h (2 Bft) S-SW 202 0 min 0,000 mm 0,0 UV-I 0 W/m 1,6 C 2,6 C 9,7 km/h (2 Bft) 100,00 %
02.01.2018 21:27 2,6 C 3,9 C 93 % 1016,6 hPa 0,0 l/m 8,0 km/h (2 Bft) S-SW 202 0 min 0,000 mm 0,0 UV-I 0 W/m 1,6 C 1,1 C 11,3 km/h (2 Bft) 100,00 %
02.01.2018 21:28 2,6 C 3,9 C 93 % 1016,6 hPa 0,0 l/m 6,4 km/h (2 Bft) SW 225 0 min 0,000 mm 0,0 UV-I 0 W/m 1,6 C 2,6 C 8,0 km/h (2 Bft) 91,30 %
02.01.2018 21:29 2,6 C 3,9 C 93 % 1016,6 hPa 0,0 l/m 8,0 km/h (2 Bft) S-SW 202 0 min 0,000 mm 0,0 UV-I 0 W/m 1,6 C 1,1 C 11,3 km/h (2 Bft) 95,65 %
02.01.2018 21:30 2,6 C 3,9 C 93 % 1016,6 hPa 0,0 l/m 6,4 km/h (2 Bft) S-SW 202 0 min 0,000 mm 0,0 UV-I 0 W/m 1,6 C 2,6 C 9,7 km/h (2 Bft) 95,65 %
02.01.2018 21:31 2,6 C 3,9 C 93 % 1016,6 hPa 0,0 l/m 6,4 km/h (2 Bft) S-SW 202 0 min 0,000 mm 0,0 UV-I 0 W/m 1,6 C 2,6 C 9,7 km/h (2 Bft) 100,00 %
02.01.2018 21:32 2,5 C 3,9 C 93 % 1016,7 hPa 0,0 l/m 6,4 km/h (2 Bft) S-SW 202 0 min 0,000 mm 0,0 UV-I 0 W/m 1,5 C 2,5 C 8,0 km/h (2 Bft) 100,00 %
02.01.2018 21:33 2,5 C 3,9 C 93 % 1016,6 hPa 0,0 l/m 6,4 km/h (2 Bft) S-SW 202 0 min 0,000 mm 0,0 UV-I 0 W/m 1,5 C 2,5 C 8,0 km/h (2 Bft) 100,00 %
02.01.2018 21:34 2,5 C 3,9 C 93 % 1016,6 hPa 0,0 l/m 3,2 km/h (1 Bft) S-SW 202 0 min 0,000 mm 0,0 UV-I 0 W/m 1,5 C 2,5 C 6,4 km/h (2 Bft) 100,00 %
02.01.2018 21:35 2,4 C 3,9 C 93 % 1016,6 hPa 0,0 l/m 6,4 km/h (2 Bft) S-SW 202 0 min 0,000 mm 0,0 UV-I 0 W/m 1,4 C 2,4 C 8,0 km/h (2 Bft) 95,65 %
02.01.2018 21:36 2,4 C 3,9 C 94 % 1016,6 hPa 0,0 l/m 4,8 km/h (1 Bft) S-SW 202 0 min 0,000 mm 0,0 UV-I 0 W/m 1,5 C 2,4 C 6,4 km/h (2 Bft) 100,00 %
02.01.2018 21:37 2,5 C 3,9 C 94 % 1016,6 hPa 0,0 l/m 6,4 km/h (2 Bft) S-SW 202 0 min 0,000 mm 0,0 UV-I 0 W/m 1,6 C 2,5 C 9,7 km/h (2 Bft) 91,30 %
02.01.2018 21:38 2,5 C 3,9 C 93 % 1016,6 hPa 0,0 l/m 6,4 km/h (2 Bft) S-SW 202 0 min 0,000 mm 0,0 UV-I 0 W/m 1,5 C 2,5 C 8,0 km/h (2 Bft) 100,00 %
02.01.2018 21:39 2,5 C 3,9 C 94 % 1016,6 hPa 0,0 l/m 6,4 km/h (2 Bft) S-SW 202 0 min 0,000 mm 0,0 UV-I 0 W/m 1,6 C 2,5 C 9,7 km/h (2 Bft) 95,65 %
02.01.2018 21:40 2,5 C 3,9 C 94 % 1016,6 hPa 0,0 l/m 6,4 km/h (2 Bft) S-SW 202 0 min 0,000 mm 0,0 UV-I 0 W/m 1,6 C 2,5 C 8,0 km/h (2 Bft) 100,00 %
02.01.2018 21:41 2,6 C 3,9 C 94 % 1016,5 hPa 0,0 l/m 6,4 km/h (2 Bft) S-SW 202 0 min 0,000 mm 0,0 UV-I 0 W/m 1,7 C 2,6 C 11,3 km/h (2 Bft) 95,65 %
02.01.2018 21:42 2,6 C 3,9 C 93 % 1016,5 hPa 0,0 l/m 6,4 km/h (2 Bft) S-SW 202 0 min 0,000 mm 0,0 UV-I 0 W/m 1,6 C 2,6 C 9,7 km/h (2 Bft) 95,65 %
02.01.2018 21:43 2,6 C 3,9 C 94 % 1016,5 hPa 0,0 l/m 6,4 km/h (2 Bft) S-SW 202 0 min 0,000 mm 0,0 UV-I 0 W/m 1,7 C 2,6 C 9,7 km/h (2 Bft) 91,30 %
02.01.2018 21:44 2,7 C 3,9 C 93 % 1016,5 hPa 0,0 l/m 6,4 km/h (2 Bft) S-SW 202 0 min 0,000 mm 0,0 UV-I 0 W/m 1,7 C 2,7 C 9,7 km/h (2 Bft) 100,00 %
02.01.2018 21:45 2,7 C 3,9 C 93 % 1016,5 hPa 0,0 l/m 8,0 km/h (2 Bft) S-SW 202 0 min 0,000 mm 0,0 UV-I 0 W/m 1,7 C 1,2 C 12,9 km/h (3 Bft) 95,65 %
02.01.2018 21:46 2,7 C 3,9 C 93 % 1016,5 hPa 0,2 l/m 9,7 km/h (2 Bft) S-SW 202 0 min 0,000 mm 0,0 UV-I 0 W/m 1,7 C -0,2 C 14,5 km/h (3 Bft) 95,65 %
02.01.2018 21:47 2,8 C 3,9 C 93 % 1016,4 hPa 0,0 l/m 9,7 km/h (2 Bft) S-SW 202 0 min 0,000 mm 0,0 UV-I 0 W/m 1,8 C -0,1 C 14,5 km/h (3 Bft) 95,65 %
02.01.2018 21:48 2,8 C 3,9 C 93 % 1016,4 hPa 0,0 l/m 11,3 km/h (2 Bft) S-SW 202 0 min 0,000 mm 0,0 UV-I 0 W/m 1,8 C -1,3 C 19,3 km/h (3 Bft) 100,00 %
02.01.2018 21:49 2,8 C 3,9 C 93 % 1016,4 hPa 0,0 l/m 11,3 km/h (2 Bft) S-SW 202 0 min 0,000 mm 0,0 UV-I 0 W/m 1,8 C -1,3 C 16,1 km/h (3 Bft) 91,30 %
02.01.2018 21:50 2,8 C 3,9 C 92 % 1016,3 hPa 0,0 l/m 11,3 km/h (2 Bft) S-SW 202 0 min 0,000 mm 0,0 UV-I 0 W/m 1,6 C -1,3 C 16,1 km/h (3 Bft) 100,00 %
02.01.2018 21:51 2,9 C 3,9 C 92 % 1016,3 hPa 0,0 l/m 12,9 km/h (3 Bft) S-SW 202 0 min 0,000 mm 0,0 UV-I 0 W/m 1,7 C -2,2 C 16,1 km/h (3 Bft) 95,65 %
02.01.2018 21:52 2,9 C 3,9 C 92 % 1016,3 hPa 0,0 l/m 9,7 km/h (2 Bft) S-SW 202 0 min 0,000 mm 0,0 UV-I 0 W/m 1,7 C -0,0 C 16,1 km/h (3 Bft) 95,65 %
02.01.2018 21:53 2,9 C 3,9 C 92 % 1016,3 hPa 0,0 l/m 12,9 km/h (3 Bft) S-SW 202 0 min 0,000 mm 0,0 UV-I 0 W/m 1,7 C -2,2 C 17,7 km/h (3 Bft) 100,00 %
02.01.2018 21:54 3,0 C 3,9 C 92 % 1016,3 hPa 0,0 l/m 9,7 km/h (2 Bft) S-SW 202 0 min 0,000 mm 0,0 UV-I 0 W/m 1,8 C 0,1 C 17,7 km/h (3 Bft) 95,65 %
02.01.2018 21:55 3,0 C 3,9 C 92 % 1016,3 hPa 0,0 l/m 11,3 km/h (2 Bft) S-SW 202 0 min 0,000 mm 0,0 UV-I 0 W/m 1,8 C -1,1 C 16,1 km/h (3 Bft) 100,00 %
02.01.2018 21:56 3,1 C 3,9 C 92 % 1016,3 hPa 0,0 l/m 14,5 km/h (3 Bft) S-SW 202 0 min 0,000 mm 0,0 UV-I 0 W/m 1,9 C -2,9 C 17,7 km/h (3 Bft) 91,30 %
02.01.2018 21:57 3,1 C 3,9 C 91 % 1016,3 hPa 0,0 l/m 11,3 km/h (2 Bft) S-SW 202 0 min 0,000 mm 0,0 UV-I 0 W/m 1,8 C -1,0 C 16,1 km/h (3 Bft) 100,00 %
02.01.2018 21:58 3,1 C 3,9 C 91 % 1016,3 hPa 0,0 l/m 12,9 km/h (3 Bft) S-SW 202 0 min 0,000 mm 0,0 UV-I 0 W/m 1,8 C -2,0 C 22,5 km/h (4 Bft) 95,65 %
02.01.2018 21:59 3,1 C 3,9 C 91 % 1016,3 hPa 0,0 l/m 11,3 km/h (2 Bft) S-SW 202 0 min 0,000 mm 0,0 UV-I 0 W/m 1,8 C -1,0 C 16,1 km/h (3 Bft) 100,00 %
02.01.2018 22:00 3,2 C 3,9 C 91 % 1016,2 hPa 0,0 l/m 12,9 km/h (3 Bft) S-SW 202 0 min 0,000 mm 0,0 UV-I 0 W/m 1,9 C -1,9 C 16,1 km/h (3 Bft) 100,00 %
02.01.2018 22:01 3,2 C 3,9 C 91 % 1016,2 hPa 0,0 l/m 11,3 km/h (2 Bft) S-SW 202 0 min 0,000 mm 0,0 UV-I 0 W/m 1,9 C -0,8 C 17,7 km/h (3 Bft) 100,00 %
02.01.2018 22:02 3,2 C 3,9 C 91 % 1016,2 hPa 0,0 l/m 16,1 km/h (3 Bft) S-SW 202 0 min 0,000 mm 0,0 UV-I 0 W/m 1,9 C -3,7 C 20,9 km/h (4 Bft) 100,00 %
02.01.2018 22:03 3,2 C 3,9 C 91 % 1016,2 hPa 0,0 l/m 12,9 km/h (3 Bft) S-SW 202 0 min 0,000 mm 0,0 UV-I 0 W/m 1,9 C -1,9 C 17,7 km/h (3 Bft) 91,30 %
02.01.2018 22:04 3,2 C 3,9 C 90 % 1016,2 hPa 0,0 l/m 9,7 km/h (2 Bft) S-SW 202 0 min 0,000 mm 0,0 UV-I 0 W/m 1,7 C 0,3 C 14,5 km/h (3 Bft) 100,00 %
02.01.2018 22:05 3,2 C 3,9 C 90 % 1016,2 hPa 0,0 l/m 11,3 km/h (2 Bft) SW 225 0 min 0,000 mm 0,0 UV-I 0 W/m 1,7 C -0,8 C 14,5 km/h (3 Bft) 100,00 %
02.01.2018 22:06 3,2 C 3,9 C 90 % 1016,2 hPa 0,0 l/m 11,3 km/h (2 Bft) S-SW 202 0 min 0,000 mm 0,0 UV-I 0 W/m 1,7 C -0,8 C 14,5 km/h (3 Bft) 100,00 %
02.01.2018 22:07 3,2 C 3,9 C 90 % 1016,2 hPa 0,0 l/m 11,3 km/h (2 Bft) S-SW 202 0 min 0,000 mm 0,0 UV-I 0 W/m 1,7 C -0,8 C 14,5 km/h (3 Bft) 100,00 %
02.01.2018 22:08 3,2 C 3,9 C 90 % 1016,2 hPa 0,0 l/m 14,5 km/h (3 Bft) S-SW 202 0 min 0,000 mm 0,0 UV-I 0 W/m 1,7 C -2,8 C 24,1 km/h (4 Bft) 100,00 %
02.01.2018 22:09 3,2 C 3,9 C 90 % 1016,2 hPa 0,0 l/m 12,9 km/h (3 Bft) S-SW 202 0 min 0,000 mm 0,0 UV-I 0 W/m 1,7 C -1,9 C 17,7 km/h (3 Bft) 100,00 %
02.01.2018 22:10 3,2 C 3,9 C 90 % 1016,2 hPa 0,0 l/m 9,7 km/h (2 Bft) SW 225 0 min 0,000 mm 0,0 UV-I 0 W/m 1,7 C 0,3 C 12,9 km/h (3 Bft) 95,65 %
02.01.2018 22:11 3,2 C 3,9 C 90 % 1016,2 hPa 0,0 l/m 11,3 km/h (2 Bft) S-SW 202 0 min 0,000 mm 0,0 UV-I 0 W/m 1,7 C -0,8 C 17,7 km/h (3 Bft) 100,00 %
02.01.2018 22:12 3,2 C 3,9 C 90 % 1016,2 hPa 0,0 l/m 14,5 km/h (3 Bft) S-SW 202 0 min 0,000 mm 0,0 UV-I 0 W/m 1,7 C -2,8 C 19,3 km/h (3 Bft) 100,00 %
02.01.2018 22:13 3,2 C 3,9 C 90 % 1016,1 hPa 0,0 l/m 14,5 km/h (3 Bft) S-SW 202 0 min 0,000 mm 0,0 UV-I 0 W/m 1,7 C -2,8 C 20,9 km/h (4 Bft) 100,00 %
02.01.2018 22:14 3,2 C 3,9 C 90 % 1016,1 hPa 0,0 l/m 14,5 km/h (3 Bft) S-SW 202 0 min 0,000 mm 0,0 UV-I 0 W/m 1,7 C -2,8 C 17,7 km/h (3 Bft) 95,65 %
02.01.2018 22:15 3,3 C 3,9 C 90 % 1016,1 hPa 0,0 l/m 11,3 km/h (2 Bft) S-SW 202 0 min 0,000 mm 0,0 UV-I 0 W/m 1,8 C -0,7 C 14,5 km/h (3 Bft) 100,00 %
02.01.2018 22:16 3,2 C 3,9 C 89 % 1016,1 hPa 0,0 l/m 12,9 km/h (3 Bft) SW 225 0 min 0,000 mm 0,0 UV-I 0 W/m 1,6 C -1,9 C 17,7 km/h (3 Bft) 95,65 %
02.01.2018 22:17 3,3 C 3,9 C 89 % 1016,1 hPa 0,0 l/m 11,3 km/h (2 Bft) SW 225 0 min 0,000 mm 0,0 UV-I 0 W/m 1,7 C -0,7 C 14,5 km/h (3 Bft) 95,65 %
02.01.2018 22:18 3,3 C 3,9 C 89 % 1016,1 hPa 0,0 l/m 12,9 km/h (3 Bft) S-SW 202 0 min 0,000 mm 0,0 UV-I 0 W/m 1,7 C -1,8 C 19,3 km/h (3 Bft) 95,65 %
02.01.2018 22:19 3,3 C 3,9 C 89 % 1016,1 hPa 0,0 l/m 11,3 km/h (2 Bft) SW 225 0 min 0,000 mm 0,0 UV-I 0 W/m 1,7 C -0,7 C 17,7 km/h (3 Bft) 100,00 %
02.01.2018 22:20 3,3 C 3,9 C 89 % 1016,1 hPa 0,0 l/m 11,3 km/h (2 Bft) S-SW 202 0 min 0,000 mm 0,0 UV-I 0 W/m 1,7 C -0,7 C 14,5 km/h (3 Bft) 95,65 %
02.01.2018 22:21 3,2 C 3,9 C 89 % 1016,1 hPa 0,0 l/m 9,7 km/h (2 Bft) S-SW 202 0 min 0,000 mm 0,0 UV-I 0 W/m 1,6 C 0,3 C 14,5 km/h (3 Bft) 100,00 %
02.01.2018 22:22 3,2 C 3,9 C 89 % 1016,1 hPa 0,0 l/m 11,3 km/h (2 Bft) S-SW 202 0 min 0,000 mm 0,0 UV-I 0 W/m 1,6 C -0,8 C 19,3 km/h (3 Bft) 100,00 %
02.01.2018 22:23 3,2 C 3,9 C 89 % 1016,0 hPa 0,0 l/m 11,3 km/h (2 Bft) S-SW 202 0 min 0,000 mm 0,0 UV-I 0 W/m 1,6 C -0,8 C 22,5 km/h (4 Bft) 100,00 %
02.01.2018 22:24 3,2 C 3,9 C 89 % 1016,1 hPa 0,0 l/m 9,7 km/h (2 Bft) SW 225 0 min 0,000 mm 0,0 UV-I 0 W/m 1,6 C 0,3 C 20,9 km/h (4 Bft) 95,65 %
02.01.2018 22:25 3,2 C 3,9 C 89 % 1016,1 hPa 0,0 l/m 11,3 km/h (2 Bft) S-SW 202 0 min 0,000 mm 0,0 UV-I 0 W/m 1,6 C -0,8 C 12,9 km/h (3 Bft) 100,00 %
02.01.2018 22:26 3,2 C 3,9 C 89 % 1016,1 hPa 0,0 l/m 9,7 km/h (2 Bft) S-SW 202 0 min 0,000 mm 0,0 UV-I 0 W/m 1,6 C 0,3 C 14,5 km/h (3 Bft) 100,00 %
02.01.2018 22:27 3,2 C 3,9 C 89 % 1016,1 hPa 0,0 l/m 12,9 km/h (3 Bft) S-SW 202 0 min 0,000 mm 0,0 UV-I 0 W/m 1,6 C -1,9 C 17,7 km/h (3 Bft) 100,00 %
02.01.2018 22:28 3,2 C 3,9 C 89 % 1016,1 hPa 0,0 l/m 8,0 km/h (2 Bft) S-SW 202 0 min 0,000 mm 0,0 UV-I 0 W/m 1,6 C 1,7 C 11,3 km/h (2 Bft) 100,00 %
02.01.2018 22:29 3,2 C 3,9 C 89 % 1016,1 hPa 0,0 l/m 11,3 km/h (2 Bft) SW 225 0 min 0,000 mm 0,0 UV-I 0 W/m 1,6 C -0,8 C 16,1 km/h (3 Bft) 95,65 %
02.01.2018 22:30 3,2 C 3,9 C 89 % 1016,1 hPa 0,0 l/m 11,3 km/h (2 Bft) S-SW 202 0 min 0,000 mm 0,0 UV-I 0 W/m 1,6 C -0,8 C 14,5 km/h (3 Bft) 100,00 %
02.01.2018 22:31 3,2 C 3,9 C 89 % 1016,1 hPa 0,0 l/m 8,0 km/h (2 Bft) S-SW 202 0 min 0,000 mm 0,0 UV-I 0 W/m 1,6 C 1,7 C 12,9 km/h (3 Bft) 95,65 %
02.01.2018 22:32 3,2 C 3,9 C 89 % 1016,1 hPa 0,0 l/m 9,7 km/h (2 Bft) S-SW 202 0 min 0,000 mm 0,0 UV-I 0 W/m 1,6 C 0,3 C 14,5 km/h (3 Bft) 95,65 %
02.01.2018 22:33 3,2 C 3,9 C 89 % 1016,1 hPa 0,0 l/m 9,7 km/h (2 Bft) S-SW 202 0 min 0,000 mm 0,0 UV-I 0 W/m 1,6 C 0,3 C 12,9 km/h (3 Bft) 100,00 %
02.01.2018 22:34 3,1 C 3,9 C 89 % 1016,0 hPa 0,0 l/m 8,0 km/h (2 Bft) S-SW 202 0 min 0,000 mm 0,0 UV-I 0 W/m 1,5 C 1,6 C 11,3 km/h (2 Bft) 100,00 %
02.01.2018 22:35 3,1 C 3,9 C 89 % 1016,0 hPa 0,0 l/m 8,0 km/h (2 Bft) S-SW 202 0 min 0,000 mm 0,0 UV-I 0 W/m 1,5 C 1,6 C 14,5 km/h (3 Bft) 100,00 %
02.01.2018 22:36 3,1 C 3,9 C 89 % 1016,0 hPa 0,0 l/m 9,7 km/h (2 Bft) S-SW 202 0 min 0,000 mm 0,0 UV-I 0 W/m 1,5 C 0,2 C 14,5 km/h (3 Bft) 100,00 %
02.01.2018 22:37 3,1 C 3,9 C 89 % 1015,9 hPa 0,0 l/m 9,7 km/h (2 Bft) S-SW 202 0 min 0,000 mm 0,0 UV-I 0 W/m 1,5 C 0,2 C 11,3 km/h (2 Bft) 100,00 %
02.01.2018 22:38 3,1 C 3,9 C 89 % 1016,0 hPa 0,0 l/m 11,3 km/h (2 Bft) S-SW 202 0 min 0,000 mm 0,0 UV-I 0 W/m 1,5 C -1,0 C 16,1 km/h (3 Bft) 95,65 %
02.01.2018 22:39 3,1 C 3,9 C 89 % 1015,9 hPa 0,0 l/m 8,0 km/h (2 Bft) S-SW 202 0 min 0,000 mm 0,0 UV-I 0 W/m 1,5 C 1,6 C 11,3 km/h (2 Bft) 100,00 %
02.01.2018 22:40 3,1 C 3,9 C 89 % 1015,9 hPa 0,0 l/m 8,0 km/h (2 Bft) S-SW 202 0 min 0,000 mm 0,0 UV-I 0 W/m 1,5 C 1,6 C 11,3 km/h (2 Bft) 100,00 %
02.01.2018 22:41 3,0 C 3,9 C 89 % 1015,9 hPa 0,0 l/m 11,3 km/h (2 Bft) S-SW 202 0 min 0,000 mm 0,0 UV-I 0 W/m 1,4 C -1,1 C 16,1 km/h (3 Bft) 100,00 %
02.01.2018 22:42 3,0 C 3,9 C 89 % 1015,9 hPa 0,0 l/m 9,7 km/h (2 Bft) S-SW 202 0 min 0,000 mm 0,0 UV-I 0 W/m 1,4 C 0,1 C 11,3 km/h (2 Bft) 100,00 %
02.01.2018 22:43 3,0 C 3,9 C 89 % 1015,9 hPa 0,0 l/m 9,7 km/h (2 Bft) S-SW 202 0 min 0,000 mm 0,0 UV-I 0 W/m 1,4 C 0,1 C 14,5 km/h (3 Bft) 95,65 %
02.01.2018 22:44 3,0 C 3,9 C 89 % 1015,8 hPa 0,0 l/m 9,7 km/h (2 Bft) S-SW 202 0 min 0,000 mm 0,0 UV-I 0 W/m 1,4 C 0,1 C 17,7 km/h (3 Bft) 100,00 %
02.01.2018 22:45 3,0 C 3,9 C 89 % 1015,8 hPa 0,0 l/m 11,3 km/h (2 Bft) S-SW 202 0 min 0,000 mm 0,0 UV-I 0 W/m 1,4 C -1,1 C 17,7 km/h (3 Bft) 95,65 %
02.01.2018 22:46 3,0 C 3,9 C 89 % 1015,8 hPa 0,0 l/m 9,7 km/h (2 Bft) S-SW 202 0 min 0,000 mm 0,0 UV-I 0 W/m 1,4 C 0,1 C 14,5 km/h (3 Bft) 100,00 %
02.01.2018 22:47 3,0 C 3,9 C 89 % 1015,8 hPa 0,0 l/m 8,0 km/h (2 Bft) S-SW 202 0 min 0,000 mm 0,0 UV-I 0 W/m 1,4 C 1,5 C 11,3 km/h (2 Bft) 100,00 %
02.01.2018 22:48 3,0 C 3,9 C 89 % 1015,8 hPa 0,0 l/m 6,4 km/h (2 Bft) S 180 0 min 0,000 mm 0,0 UV-I 0 W/m 1,4 C 3,0 C 11,3 km/h (2 Bft) 100,00 %
02.01.2018 22:49 3,0 C 3,9 C 88 % 1015,8 hPa 0,0 l/m 9,7 km/h (2 Bft) S-SW 202 0 min 0,000 mm 0,0 UV-I 0 W/m 1,2 C 0,1 C 12,9 km/h (3 Bft) 100,00 %
02.01.2018 22:50 2,9 C 3,9 C 88 % 1015,7 hPa 0,0 l/m 4,8 km/h (1 Bft) S-SW 202 0 min 0,000 mm 0,0 UV-I 0 W/m 1,1 C 2,9 C 11,3 km/h (2 Bft) 100,00 %
02.01.2018 22:51 2,9 C 3,9 C 88 % 1015,7 hPa 0,0 l/m 8,0 km/h (2 Bft) S-SW 202 0 min 0,000 mm 0,0 UV-I 0 W/m 1,1 C 1,4 C 14,5 km/h (3 Bft) 100,00 %
02.01.2018 22:52 2,9 C 3,9 C 88 % 1015,7 hPa 0,0 l/m 9,7 km/h (2 Bft) S-SW 202 0 min 0,000 mm 0,0 UV-I 0 W/m 1,1 C -0,0 C 16,1 km/h (3 Bft) 91,30 %
02.01.2018 22:53 2,9 C 3,9 C 88 % 1015,7 hPa 0,0 l/m 12,9 km/h (3 Bft) S-SW 202 0 min 0,000 mm 0,0 UV-I 0 W/m 1,1 C -2,2 C 16,1 km/h (3 Bft) 95,65 %
02.01.2018 22:54 2,9 C 3,9 C 88 % 1015,7 hPa 0,0 l/m 9,7 km/h (2 Bft) S-SW 202 0 min 0,000 mm 0,0 UV-I 0 W/m 1,1 C -0,0 C 11,3 km/h (2 Bft) 100,00 %
02.01.2018 22:55 2,9 C 3,9 C 88 % 1015,7 hPa 0,0 l/m 11,3 km/h (2 Bft) S-SW 202 0 min 0,000 mm 0,0 UV-I 0 W/m 1,1 C -1,2 C 17,7 km/h (3 Bft) 95,65 %
02.01.2018 22:56 2,9 C 3,9 C 88 % 1015,7 hPa 0,0 l/m 9,7 km/h (2 Bft) SW 225 0 min 0,000 mm 0,0 UV-I 0 W/m 1,1 C -0,0 C 16,1 km/h (3 Bft) 100,00 %
02.01.2018 22:57 2,9 C 3,9 C 88 % 1015,6 hPa 0,0 l/m 9,7 km/h (2 Bft) S-SW 202 0 min 0,000 mm 0,0 UV-I 0 W/m 1,1 C -0,0 C 12,9 km/h (3 Bft) 95,65 %
02.01.2018 22:58 2,9 C 3,9 C 88 % 1015,7 hPa 0,0 l/m 11,3 km/h (2 Bft) S-SW 202 0 min 0,000 mm 0,0 UV-I 0 W/m 1,1 C -1,2 C 16,1 km/h (3 Bft) 100,00 %
02.01.2018 22:59 2,9 C 3,9 C 88 % 1015,6 hPa 0,0 l/m 9,7 km/h (2 Bft) SW 225 0 min 0,000 mm 0,0 UV-I 0 W/m 1,1 C -0,0 C 14,5 km/h (3 Bft) 91,30 %
02.01.2018 23:00 3,0 C 3,9 C 88 % 1015,6 hPa 0,0 l/m 11,3 km/h (2 Bft) S-SW 202 0 min 0,000 mm 0,0 UV-I 0 W/m 1,2 C -1,1 C 16,1 km/h (3 Bft) 100,00 %
02.01.2018 23:01 3,0 C 3,9 C 87 % 1015,6 hPa 0,0 l/m 11,3 km/h (2 Bft) S-SW 202 0 min 0,000 mm 0,0 UV-I 0 W/m 1,1 C -1,1 C 16,1 km/h (3 Bft) 91,30 %
02.01.2018 23:02 3,1 C 3,9 C 87 % 1015,6 hPa 0,0 l/m 9,7 km/h (2 Bft) S-SW 202 0 min 0,000 mm 0,0 UV-I 0 W/m 1,2 C 0,2 C 19,3 km/h (3 Bft) 95,65 %
02.01.2018 23:03 3,1 C 3,9 C 87 % 1015,6 hPa 0,0 l/m 11,3 km/h (2 Bft) SW 225 0 min 0,000 mm 0,0 UV-I 0 W/m 1,2 C -1,0 C 17,7 km/h (3 Bft) 100,00 %
02.01.2018 23:04 3,1 C 3,9 C 87 % 1015,5 hPa 0,0 l/m 11,3 km/h (2 Bft) S-SW 202 0 min 0,000 mm 0,0 UV-I 0 W/m 1,2 C -1,0 C 16,1 km/h (3 Bft) 86,96 %
02.01.2018 23:05 3,1 C 3,9 C 87 % 1015,6 hPa 0,0 l/m 11,3 km/h (2 Bft) S-SW 202 0 min 0,000 mm 0,0 UV-I 0 W/m 1,2 C -1,0 C 14,5 km/h (3 Bft) 100,00 %
02.01.2018 23:06 3,1 C 3,9 C 87 % 1015,5 hPa 0,0 l/m 11,3 km/h (2 Bft) SW 225 0 min 0,000 mm 0,0 UV-I 0 W/m 1,2 C -1,0 C 14,5 km/h (3 Bft) 86,96 %
02.01.2018 23:07 3,1 C 3,9 C 86 % 1015,5 hPa 0,0 l/m 12,9 km/h (3 Bft) S-SW 202 0 min 0,000 mm 0,0 UV-I 0 W/m 1,0 C -2,0 C 16,1 km/h (3 Bft) 100,00 %
02.01.2018 23:08 3,1 C 3,9 C 86 % 1015,5 hPa 0,0 l/m 9,7 km/h (2 Bft) SW 225 0 min 0,000 mm 0,0 UV-I 0 W/m 1,0 C 0,2 C 14,5 km/h (3 Bft) 91,30 %
02.01.2018 23:09 3,1 C 3,9 C 86 % 1015,5 hPa 0,0 l/m 8,0 km/h (2 Bft) SW 225 0 min 0,000 mm 0,0 UV-I 0 W/m 1,0 C 1,6 C 11,3 km/h (2 Bft) 100,00 %
02.01.2018 23:10 3,2 C 3,9 C 86 % 1015,5 hPa 0,0 l/m 9,7 km/h (2 Bft) SW 225 0 min 0,000 mm 0,0 UV-I 0 W/m 1,1 C 0,3 C 12,9 km/h (3 Bft) 95,65 %
02.01.2018 23:11 3,1 C 3,9 C 86 % 1015,5 hPa 0,0 l/m 11,3 km/h (2 Bft) S-SW 202 0 min 0,000 mm 0,0 UV-I 0 W/m 1,0 C -1,0 C 14,5 km/h (3 Bft) 91,30 %
02.01.2018 23:12 3,1 C 3,9 C 86 % 1015,4 hPa 0,0 l/m 14,5 km/h (3 Bft) SW 225 0 min 0,000 mm 0,0 UV-I 0 W/m 1,0 C -2,9 C 17,7 km/h (3 Bft) 100,00 %
02.01.2018 23:13 3,1 C 3,9 C 86 % 1015,4 hPa 0,0 l/m 12,9 km/h (3 Bft) SW 225 0 min 0,000 mm 0,0 UV-I 0 W/m 1,0 C -2,0 C 16,1 km/h (3 Bft) 91,30 %
02.01.2018 23:14 3,2 C 3,9 C 86 % 1015,4 hPa 0,0 l/m 11,3 km/h (2 Bft) SW 225 0 min 0,000 mm 0,0 UV-I 0 W/m 1,1 C -0,8 C 16,1 km/h (3 Bft) 95,65 %
02.01.2018 23:15 3,1 C 3,9 C 85 % 1015,4 hPa 0,0 l/m 11,3 km/h (2 Bft) S-SW 202 0 min 0,000 mm 0,0 UV-I 0 W/m 0,8 C -1,0 C 16,1 km/h (3 Bft) 86,96 %
02.01.2018 23:16 3,1 C 3,9 C 86 % 1015,4 hPa 0,0 l/m 12,9 km/h (3 Bft) S-SW 202 0 min 0,000 mm 0,0 UV-I 0 W/m 1,0 C -2,0 C 17,7 km/h (3 Bft) 100,00 %
02.01.2018 23:17 3,1 C 3,9 C 86 % 1015,4 hPa 0,0 l/m 12,9 km/h (3 Bft) SW 225 0 min 0,000 mm 0,0 UV-I 0 W/m 1,0 C -2,0 C 19,3 km/h (3 Bft) 91,30 %
02.01.2018 23:18 3,2 C 3,9 C 85 % 1015,4 hPa 0,0 l/m 11,3 km/h (2 Bft) S-SW 202 0 min 0,000 mm 0,0 UV-I 0 W/m 0,9 C -0,8 C 16,1 km/h (3 Bft) 100,00 %
02.01.2018 23:19 3,2 C 3,9 C 85 % 1015,4 hPa 0,0 l/m 11,3 km/h (2 Bft) S-SW 202 0 min 0,000 mm 0,0 UV-I 0 W/m 0,9 C -0,8 C 17,7 km/h (3 Bft) 91,30 %
02.01.2018 23:20 3,2 C 3,9 C 85 % 1015,3 hPa 0,0 l/m 12,9 km/h (3 Bft) S-SW 202 0 min 0,000 mm 0,0 UV-I 0 W/m 0,9 C -1,9 C 17,7 km/h (3 Bft) 91,30 %
02.01.2018 23:21 3,2 C 3,9 C 85 % 1015,3 hPa 0,0 l/m 11,3 km/h (2 Bft) S-SW 202 0 min 0,000 mm 0,0 UV-I 0 W/m 0,9 C -0,8 C 19,3 km/h (3 Bft) 95,65 %
02.01.2018 23:22 3,2 C 3,9 C 85 % 1015,3 hPa 0,0 l/m 14,5 km/h (3 Bft) SW 225 0 min 0,000 mm 0,0 UV-I 0 W/m 0,9 C -2,8 C 17,7 km/h (3 Bft) 95,65 %
02.01.2018 23:23 3,2 C 3,9 C 85 % 1015,3 hPa 0,0 l/m 11,3 km/h (2 Bft) S-SW 202 0 min 0,000 mm 0,0 UV-I 0 W/m 0,9 C -0,8 C 14,5 km/h (3 Bft) 95,65 %
02.01.2018 23:24 3,2 C 3,9 C 85 % 1015,3 hPa 0,0 l/m 12,9 km/h (3 Bft) S-SW 202 0 min 0,000 mm 0,0 UV-I 0 W/m 0,9 C -1,9 C 17,7 km/h (3 Bft) 95,65 %
02.01.2018 23:25 3,2 C 3,9 C 84 % 1015,2 hPa 0,0 l/m 11,3 km/h (2 Bft) SW 225 0 min 0,000 mm 0,0 UV-I 0 W/m 0,8 C -0,8 C 17,7 km/h (3 Bft) 95,65 %
02.01.2018 23:26 3,2 C 3,9 C 84 % 1015,2 hPa 0,0 l/m 8,0 km/h (2 Bft) SW 225 0 min 0,000 mm 0,0 UV-I 0 W/m 0,8 C 1,7 C 12,9 km/h (3 Bft) 91,30 %
02.01.2018 23:27 3,1 C 3,9 C 84 % 1015,2 hPa 0,0 l/m 11,3 km/h (2 Bft) S-SW 202 0 min 0,000 mm 0,0 UV-I 0 W/m 0,7 C -1,0 C 14,5 km/h (3 Bft) 95,65 %
02.01.2018 23:28 3,1 C 3,9 C 84 % 1015,2 hPa 0,0 l/m 11,3 km/h (2 Bft) S-SW 202 0 min 0,000 mm 0,0 UV-I 0 W/m 0,7 C -1,0 C 16,1 km/h (3 Bft) 95,65 %
02.01.2018 23:29 3,1 C 3,9 C 84 % 1015,2 hPa 0,0 l/m 11,3 km/h (2 Bft) S-SW 202 0 min 0,000 mm 0,0 UV-I 0 W/m 0,7 C -1,0 C 14,5 km/h (3 Bft) 95,65 %
02.01.2018 23:30 3,1 C 3,9 C 84 % 1015,2 hPa 0,0 l/m 11,3 km/h (2 Bft) S-SW 202 0 min 0,000 mm 0,0 UV-I 0 W/m 0,7 C -1,0 C 14,5 km/h (3 Bft) 100,00 %
02.01.2018 23:31 3,1 C 3,9 C 84 % 1015,2 hPa 0,0 l/m 11,3 km/h (2 Bft) S-SW 202 0 min 0,000 mm 0,0 UV-I 0 W/m 0,7 C -1,0 C 17,7 km/h (3 Bft) 95,65 %
02.01.2018 23:32 3,1 C 3,9 C 84 % 1015,2 hPa 0,0 l/m 11,3 km/h (2 Bft) SW 225 0 min 0,000 mm 0,0 UV-I 0 W/m 0,7 C -1,0 C 12,9 km/h (3 Bft) 100,00 %
02.01.2018 23:33 3,1 C 3,9 C 84 % 1015,2 hPa 0,0 l/m 11,3 km/h (2 Bft) S-SW 202 0 min 0,000 mm 0,0 UV-I 0 W/m 0,7 C -1,0 C 16,1 km/h (3 Bft) 100,00 %
02.01.2018 23:34 3,1 C 3,9 C 84 % 1015,2 hPa 0,0 l/m 12,9 km/h (3 Bft) S-SW 202 0 min 0,000 mm 0,0 UV-I 0 W/m 0,7 C -2,0 C 17,7 km/h (3 Bft) 100,00 %
02.01.2018 23:35 3,1 C 3,9 C 84 % 1015,1 hPa 0,0 l/m 12,9 km/h (3 Bft) S-SW 202 0 min 0,000 mm 0,0 UV-I 0 W/m 0,7 C -2,0 C 16,1 km/h (3 Bft) 95,65 %
02.01.2018 23:36 3,1 C 3,9 C 84 % 1015,1 hPa 0,0 l/m 6,4 km/h (2 Bft) SW 225 0 min 0,000 mm 0,0 UV-I 0 W/m 0,7 C 3,1 C 12,9 km/h (3 Bft) 100,00 %
02.01.2018 23:37 3,0 C 3,9 C 84 % 1015,2 hPa 0,0 l/m 9,7 km/h (2 Bft) S-SW 202 0 min 0,000 mm 0,0 UV-I 0 W/m 0,6 C 0,1 C 14,5 km/h (3 Bft) 100,00 %
02.01.2018 23:38 3,0 C 3,9 C 84 % 1015,1 hPa 0,0 l/m 11,3 km/h (2 Bft) S-SW 202 0 min 0,000 mm 0,0 UV-I 0 W/m 0,6 C -1,1 C 14,5 km/h (3 Bft) 95,65 %
02.01.2018 23:39 2,9 C 3,9 C 84 % 1015,2 hPa 0,0 l/m 9,7 km/h (2 Bft) S-SW 202 0 min 0,000 mm 0,0 UV-I 0 W/m 0,5 C -0,0 C 14,5 km/h (3 Bft) 100,00 %
02.01.2018 23:40 3,0 C 3,9 C 84 % 1015,2 hPa 0,0 l/m 8,0 km/h (2 Bft) S-SW 202 0 min 0,000 mm 0,0 UV-I 0 W/m 0,6 C 1,5 C 11,3 km/h (2 Bft) 100,00 %
02.01.2018 23:41 3,0 C 3,9 C 84 % 1015,1 hPa 0,0 l/m 9,7 km/h (2 Bft) S-SW 202 0 min 0,000 mm 0,0 UV-I 0 W/m 0,6 C 0,1 C 12,9 km/h (3 Bft) 95,65 %
02.01.2018 23:42 2,9 C 3,9 C 84 % 1015,1 hPa 0,0 l/m 8,0 km/h (2 Bft) S-SW 202 0 min 0,000 mm 0,0 UV-I 0 W/m 0,5 C 1,4 C 11,3 km/h (2 Bft) 100,00 %
02.01.2018 23:43 2,9 C 3,9 C 84 % 1015,1 hPa 0,0 l/m 8,0 km/h (2 Bft) S-SW 202 0 min 0,000 mm 0,0 UV-I 0 W/m 0,5 C 1,4 C 12,9 km/h (3 Bft) 100,00 %
02.01.2018 23:44 2,9 C 3,9 C 84 % 1015,0 hPa 0,0 l/m 6,4 km/h (2 Bft) S-SW 202 0 min 0,000 mm 0,0 UV-I 0 W/m 0,5 C 2,9 C 8,0 km/h (2 Bft) 100,00 %
02.01.2018 23:45 2,8 C 3,9 C 84 % 1015,0 hPa 0,0 l/m 6,4 km/h (2 Bft) S-SW 202 0 min 0,000 mm 0,0 UV-I 0 W/m 0,4 C 2,8 C 9,7 km/h (2 Bft) 100,00 %
02.01.2018 23:46 2,8 C 3,9 C 84 % 1015,0 hPa 0,0 l/m 6,4 km/h (2 Bft) S-SW 202 0 min 0,000 mm 0,0 UV-I 0 W/m 0,4 C 2,8 C 8,0 km/h (2 Bft) 100,00 %
02.01.2018 23:47 2,8 C 3,9 C 84 % 1015,0 hPa 0,0 l/m 6,4 km/h (2 Bft) S-SW 202 0 min 0,000 mm 0,0 UV-I 0 W/m 0,4 C 2,8 C 8,0 km/h (2 Bft) 95,65 %
02.01.2018 23:48 2,8 C 3,9 C 85 % 1015,0 hPa 0,0 l/m 6,4 km/h (2 Bft) S-SW 202 0 min 0,000 mm 0,0 UV-I 0 W/m 0,5 C 2,8 C 6,4 km/h (2 Bft) 91,30 %
02.01.2018 23:49 2,8 C 3,9 C 85 % 1015,0 hPa 0,0 l/m 4,8 km/h (1 Bft) S-SW 202 0 min 0,000 mm 0,0 UV-I 0 W/m 0,5 C 2,8 C 8,0 km/h (2 Bft) 95,65 %
02.01.2018 23:50 2,7 C 3,9 C 85 % 1015,0 hPa 0,0 l/m 6,4 km/h (2 Bft) S-SW 202 0 min 0,000 mm 0,0 UV-I 0 W/m 0,4 C 2,7 C 6,4 km/h (2 Bft) 100,00 %
02.01.2018 23:51 2,7 C 3,9 C 85 % 1015,0 hPa 0,0 l/m 4,8 km/h (1 Bft) S-SW 202 0 min 0,000 mm 0,0 UV-I 0 W/m 0,4 C 2,7 C 9,7 km/h (2 Bft) 100,00 %
02.01.2018 23:52 2,7 C 3,9 C 85 % 1014,9 hPa 0,0 l/m 6,4 km/h (2 Bft) S-SW 202 0 min 0,000 mm 0,0 UV-I 0 W/m 0,4 C 2,7 C 9,7 km/h (2 Bft) 100,00 %
02.01.2018 23:53 2,8 C 3,9 C 85 % 1014,9 hPa 0,0 l/m 4,8 km/h (1 Bft) S 180 0 min 0,000 mm 0,0 UV-I 0 W/m 0,5 C 2,8 C 6,4 km/h (2 Bft) 100,00 %
02.01.2018 23:54 2,8 C 3,9 C 85 % 1014,8 hPa 0,0 l/m 4,8 km/h (1 Bft) S-SW 202 0 min 0,000 mm 0,0 UV-I 0 W/m 0,5 C 2,8 C 6,4 km/h (2 Bft) 95,65 %
02.01.2018 23:55 2,8 C 3,9 C 85 % 1014,8 hPa 0,0 l/m 4,8 km/h (1 Bft) S-SW 202 0 min 0,000 mm 0,0 UV-I 0 W/m 0,5 C 2,8 C 6,4 km/h (2 Bft) 91,30 %
02.01.2018 23:56 2,8 C 3,9 C 85 % 1014,8 hPa 0,0 l/m 3,2 km/h (1 Bft) S 180 0 min 0,000 mm 0,0 UV-I 0 W/m 0,5 C 2,8 C 6,4 km/h (2 Bft) 100,00 %
02.01.2018 23:57 2,8 C 3,9 C 85 % 1014,7 hPa 0,0 l/m 6,4 km/h (2 Bft) S-SO 157 0 min 0,000 mm 0,0 UV-I 0 W/m 0,5 C 2,8 C 9,7 km/h (2 Bft) 100,00 %
02.01.2018 23:58 2,8 C 3,9 C 85 % 1014,7 hPa 0,0 l/m 6,4 km/h (2 Bft) S-SW 202 0 min 0,000 mm 0,0 UV-I 0 W/m 0,5 C 2,8 C 9,7 km/h (2 Bft) 100,00 %
02.01.2018 23:59 2,8 C 3,9 C 85 % 1014,7 hPa 0,0 l/m 6,4 km/h (2 Bft) S-SW 202 0 min 0,000 mm 0,0 UV-I 0 W/m 0,5 C 2,8 C 9,7 km/h (2 Bft) 95,65 %
_ Min-Zeit 00:01 00:00 07:00 00:47 - 00:17 - - - - - - 00:01 00:05 00:19 10:42
Minimum _ 0,8 C 3,9 C 70 % 1006,0 hPa - 0,0 km/h (0 Bft) - - - - - - -0,3 C -9,0 C 0,0 km/h (0 Bft) 82,61 %
_ Max-Zeit 11:37 00:00 02:21 20:57 04:37 11:43 - - 08:07 12:00 12:28 12:31 13:56 03:56 11:43 00:06
Maximum _ 6,8 C 3,9 C 94 % 1017,0 hPa 0,2 l/m 33,8 km/h
W-SW (5 Bft)
- - 1 min 0,152 mm 0,6 UV-I 450 W/m 2,8 C 3,4 C 56,3 km/h
W-SW (7 Bft)
100,00 %
Durchschnitt _ 4,0 C 3,9 C 84 % 1012,0 hPa #2,4 l/m 15,5 km/h (3 Bft) W-SW - #1:13 h #0,887 mm 0,5 UV-I 88 W/m 1,5 C -1,8 C 22,1 km/h (4 Bft) 97,23 %